GEFSCGP_prec_meanprecacc_006.txt.gz
Total_Precipitation_Accumulation
0.00 0.00 0.00 0.00 0.00 0.00 0.00 0.00 0.00 0.00 0.00 0.00 0.00 0.00 0.00 0.00 0.00 0.00 0.00 0.00 0.00 0.00 0.00 0.00 0.00 0.00 0.00 0.00 0.00 0.00 0.00 0.00 0.00 0.01 0.02 0.01 0.00 0.00 0.00 0.00 0.00 0.00 0.00 0.00
0.00 0.00 0.00 0.00 0.00 0.00 0.00 0.00 0.00 0.00 0.00 0.00 0.00 0.00 0.00 0.00 0.00 0.00 0.00 0.00 0.00 0.00 0.00 0.01 0.01 0.01 0.00 0.00 0.00 0.00 0.00 0.00 0.01 0.02 0.02 0.01 0.00 0.00 0.00 0.00 0.00 0.00 0.00 0.00
0.00 0.00 0.00 0.00 0.00 0.00 0.00 0.00 0.00 0.00 0.00 0.00 0.00 0.00 0.00 0.00 0.00 0.00 0.00 0.00 0.00 0.00 0.00 0.00 0.01 0.01 0.00 0.00 0.01 0.01 0.01 0.02 0.03 0.02 0.01 0.01 0.01 0.00 0.00 0.00 0.00 0.00 0.00 0.00
0.00 0.00 0.00 0.00 0.00 0.00 0.00 0.00 0.00 0.00 0.00 0.00 0.00 0.00 0.00 0.00 0.00 0.00 0.00 0.00 0.00 0.00 0.00 0.00 0.02 0.03 0.01 0.01 0.01 0.03 0.04 0.04 0.03 0.02 0.02 0.02 0.02 0.01 0.02 0.01 0.00 0.00 0.00 0.00
0.00 0.00 0.00 0.00 0.00 0.00 0.00 0.00 0.00 0.00 0.00 0.00 0.00 0.00 0.00 0.00 0.00 0.00 0.00 0.00 0.00 0.00 0.00 0.01 0.03 0.08 0.09 0.06 0.03 0.04 0.04 0.04 0.04 0.05 0.03 0.03 0.04 0.04 0.03 0.01 0.00 0.00 0.00 0.00
0.00 0.00 0.00 0.00 0.00 0.00 0.00 0.00 0.00 0.00 0.00 0.00 0.00 0.00 0.00 0.00 0.00 0.00 0.00 0.00 0.00 0.00 0.00 0.01 0.04 0.11 0.16 0.11 0.05 0.05 0.06 0.07 0.08 0.09 0.08 0.07 0.07 0.04 0.02 0.01 0.00 0.00 0.00 0.00
0.00 0.00 0.00 0.00 0.00 0.00 0.00 0.00 0.00 0.00 0.00 0.00 0.00 0.00 0.00 0.00 0.00 0.00 0.00 0.00 0.00 0.00 0.01 0.02 0.03 0.06 0.12 0.10 0.06 0.07 0.08 0.09 0.09 0.09 0.08 0.06 0.04 0.02 0.01 0.00 0.00 0.00 0.00 0.00
0.00 0.00 0.00 0.00 0.00 0.00 0.00 0.00 0.00 0.00 0.00 0.00 0.00 0.00 0.00 0.00 0.00 0.00 0.00 0.00 0.00 0.01 0.02 0.02 0.02 0.04 0.07 0.07 0.07 0.07 0.05 0.05 0.04 0.04 0.04 0.02 0.01 0.00 0.00 0.00 0.00 0.00 0.00 0.00
0.00 0.00 0.00 0.00 0.00 0.00 0.00 0.00 0.00 0.00 0.00 0.00 0.00 0.00 0.00 0.00 0.00 0.00 0.00 0.00 0.01 0.01 0.01 0.02 0.02 0.03 0.03 0.03 0.05 0.07 0.06 0.04 0.03 0.02 0.02 0.01 0.01 0.00 0.00 0.00 0.00 0.00 0.00 0.00
0.00 0.00 0.00 0.00 0.00 0.00 0.00 0.00 0.00 0.00 0.00 0.00 0.00 0.00 0.00 0.00 0.00 0.00 0.01 0.02 0.01 0.01 0.01 0.02 0.04 0.03 0.02 0.02 0.05 0.05 0.04 0.03 0.03 0.04 0.03 0.01 0.01 0.00 0.00 0.00 0.00 0.00 0.00 0.00
0.00 0.00 0.00 0.00 0.00 0.00 0.00 0.00 0.00 0.00 0.00 0.00 0.00 0.00 0.00 0.00 0.00 0.00 0.02 0.04 0.02 0.01 0.01 0.02 0.03 0.03 0.02 0.02 0.05 0.05 0.04 0.05 0.05 0.03 0.01 0.00 0.00 0.00 0.00 0.00 0.00 0.00 0.00 0.00
0.00 0.00 0.00 0.00 0.00 0.00 0.00 0.00 0.00 0.00 0.00 0.00 0.00 0.00 0.00 0.00 0.00 0.00 0.02 0.04 0.03 0.03 0.02 0.02 0.03 0.04 0.02 0.02 0.04 0.05 0.05 0.04 0.02 0.01 0.00 0.00 0.00 0.00 0.00 0.00 0.00 0.00 0.00 0.00
0.00 0.00 0.00 0.00 0.00 0.00 0.00 0.00 0.00 0.00 0.00 0.00 0.00 0.00 0.00 0.00 0.00 0.02 0.09 0.12 0.08 0.03 0.02 0.03 0.05 0.06 0.05 0.05 0.04 0.04 0.05 0.03 0.01 0.01 0.00 0.00 0.00 0.00 0.00 0.00 0.00 0.00 0.00 0.00
0.00 0.00 0.00 0.00 0.00 0.00 0.00 0.00 0.00 0.00 0.00 0.00 0.00 0.00 0.01 0.02 0.05 0.15 0.29 0.26 0.09 0.02 0.02 0.06 0.12 0.12 0.09 0.05 0.03 0.02 0.02 0.01 0.00 0.00 0.00 0.00 0.00 0.00 0.00 0.00 0.00 0.00 0.00 0.00
0.00 0.00 0.00 0.00 0.00 0.00 0.00 0.00 0.00 0.00 0.00 0.00 0.00 0.00 0.01 0.06 0.15 0.30 0.38 0.20 0.04 0.01 0.05 0.13 0.17 0.12 0.06 0.03 0.02 0.01 0.02 0.01 0.00 0.00 0.00 0.00 0.00 0.00 0.00 0.00 0.00 0.00 0.01 0.01
0.00 0.00 0.00 0.00 0.00 0.00 0.00 0.00 0.00 0.00 0.00 0.00 0.00 0.00 0.01 0.02 0.07 0.18 0.23 0.12 0.03 0.03 0.07 0.08 0.07 0.05 0.03 0.01 0.01 0.01 0.01 0.01 0.01 0.01 0.01 0.01 0.00 0.00 0.00 0.00 0.00 0.01 0.01 0.00
0.00 0.00 0.00 0.00 0.00 0.00 0.00 0.00 0.00 0.00 0.00 0.00 0.00 0.01 0.00 0.01 0.05 0.09 0.13 0.08 0.03 0.03 0.05 0.05 0.04 0.03 0.03 0.03 0.02 0.03 0.03 0.03 0.03 0.03 0.02 0.02 0.01 0.01 0.00 0.00 0.00 0.00 0.00 0.00
0.00 0.00 0.00 0.00 0.00 0.00 0.00 0.00 0.00 0.00 0.00 0.00 0.00 0.00 0.00 0.01 0.02 0.04 0.04 0.04 0.02 0.02 0.03 0.04 0.05 0.06 0.05 0.06 0.06 0.08 0.09 0.08 0.07 0.06 0.05 0.04 0.02 0.01 0.00 0.00 0.00 0.00 0.00 0.00
0.00 0.00 0.00 0.00 0.00 0.00 0.00 0.00 0.00 0.00 0.00 0.00 0.00 0.00 0.00 0.00 0.00 0.01 0.00 0.01 0.02 0.03 0.05 0.07 0.08 0.08 0.08 0.09 0.13 0.17 0.16 0.12 0.09 0.06 0.04 0.02 0.01 0.00 0.00 0.00 0.00 0.00 0.00 0.00
0.00 0.00 0.00 0.00 0.00 0.00 0.00 0.00 0.00 0.00 0.02 0.01 0.00 0.00 0.00 0.00 0.01 0.01 0.00 0.01 0.03 0.05 0.07 0.08 0.09 0.09 0.09 0.10 0.11 0.11 0.08 0.05 0.04 0.02 0.01 0.00 0.00 0.00 0.00 0.00 0.00 0.00 0.00 0.00
0.02 0.01 0.00 0.00 0.01 0.01 0.00 0.00 0.00 0.01 0.03 0.01 0.00 0.00 0.01 0.01 0.00 0.00 0.00 0.01 0.03 0.05 0.07 0.06 0.06 0.07 0.09 0.09 0.08 0.06 0.04 0.02 0.01 0.00 0.00 0.00 0.00 0.00 0.00 0.00 0.00 0.00 0.00 0.00
0.02 0.03 0.03 0.03 0.05 0.05 0.01 0.00 0.00 0.01 0.00 0.00 0.00 0.01 0.02 0.01 0.00 0.00 0.01 0.02 0.03 0.05 0.04 0.03 0.03 0.04 0.04 0.03 0.02 0.01 0.01 0.00 0.00 0.00 0.00 0.00 0.00 0.00 0.00 0.00 0.00 0.00 0.00 0.00
0.00 0.01 0.04 0.06 0.06 0.04 0.01 0.00 0.00 0.00 0.00 0.00 0.00 0.02 0.03 0.01 0.00 0.00 0.02 0.03 0.03 0.03 0.03 0.02 0.02 0.01 0.01 0.01 0.01 0.00 0.00 0.00 0.00 0.00 0.00 0.00 0.00 0.00 0.00 0.00 0.00 0.00 0.00 0.00
0.01 0.00 0.00 0.00 0.00 0.00 0.00 0.00 0.00 0.00 0.00 0.00 0.02 0.03 0.01 0.00 0.00 0.01 0.02 0.02 0.02 0.01 0.01 0.01 0.01 0.01 0.01 0.01 0.00 0.00 0.00 0.00 0.00 0.00 0.00 0.00 0.00 0.00 0.00 0.00 0.00 0.00 0.01 0.00
0.01 0.01 0.01 0.01 0.00 0.01 0.02 0.03 0.02 0.01 0.01 0.01 0.01 0.01 0.00 0.00 0.01 0.01 0.01 0.01 0.01 0.00 0.01 0.01 0.01 0.01 0.01 0.00 0.00 0.00 0.00 0.00 0.00 0.00 0.00 0.00 0.00 0.00 0.00 0.00 0.00 0.01 0.01 0.00
0.00 0.01 0.02 0.03 0.04 0.09 0.11 0.09 0.04 0.03 0.01 0.01 0.01 0.01 0.02 0.01 0.01 0.01 0.01 0.01 0.01 0.01 0.00 0.00 0.00 0.00 0.00 0.00 0.00 0.00 0.00 0.00 0.00 0.00 0.00 0.00 0.00 0.00 0.00 0.00 0.01 0.00 0.00 0.00

GEFSCGP_prec_meanprecacc_012.txt.gz
Total_Precipitation_Accumulation
0.00 0.00 0.00 0.00 0.00 0.00 0.00 0.00 0.00 0.00 0.00 0.00 0.00 0.00 0.00 0.00 0.00 0.00 0.00 0.00 0.00 0.00 0.01 0.01 0.01 0.01 0.01 0.01 0.01 0.00 0.00 0.01 0.01 0.02 0.02 0.01 0.01 0.01 0.02 0.04 0.05 0.04 0.03 0.02
0.00 0.00 0.00 0.00 0.00 0.00 0.00 0.00 0.00 0.00 0.00 0.00 0.00 0.00 0.00 0.00 0.00 0.00 0.00 0.00 0.00 0.00 0.01 0.01 0.03 0.03 0.02 0.02 0.02 0.01 0.01 0.04 0.06 0.05 0.03 0.02 0.02 0.06 0.12 0.16 0.14 0.10 0.09 0.08
0.00 0.00 0.00 0.00 0.00 0.00 0.00 0.00 0.00 0.00 0.00 0.00 0.00 0.00 0.00 0.00 0.00 0.00 0.00 0.00 0.00 0.00 0.00 0.01 0.03 0.03 0.02 0.03 0.04 0.03 0.05 0.11 0.15 0.10 0.06 0.07 0.11 0.17 0.22 0.23 0.23 0.20 0.16 0.11
0.00 0.00 0.00 0.00 0.00 0.00 0.00 0.00 0.00 0.00 0.00 0.00 0.00 0.00 0.00 0.00 0.00 0.00 0.00 0.00 0.00 0.00 0.00 0.01 0.06 0.07 0.04 0.05 0.05 0.06 0.10 0.15 0.18 0.15 0.13 0.20 0.24 0.26 0.31 0.31 0.28 0.20 0.12 0.07
0.00 0.00 0.00 0.00 0.00 0.00 0.00 0.00 0.00 0.00 0.00 0.00 0.00 0.00 0.00 0.00 0.00 0.00 0.00 0.00 0.00 0.00 0.00 0.01 0.08 0.15 0.15 0.12 0.08 0.07 0.11 0.17 0.22 0.26 0.28 0.30 0.36 0.41 0.41 0.35 0.24 0.13 0.06 0.03
0.00 0.00 0.00 0.00 0.00 0.00 0.00 0.00 0.00 0.00 0.00 0.00 0.00 0.00 0.00 0.00 0.00 0.00 0.00 0.00 0.00 0.00 0.00 0.02 0.08 0.19 0.23 0.15 0.08 0.09 0.14 0.21 0.25 0.28 0.32 0.39 0.45 0.43 0.38 0.28 0.15 0.07 0.03 0.01
0.00 0.00 0.00 0.00 0.00 0.00 0.00 0.00 0.00 0.00 0.00 0.00 0.00 0.00 0.00 0.00 0.00 0.00 0.00 0.00 0.00 0.00 0.01 0.03 0.08 0.16 0.23 0.17 0.13 0.16 0.20 0.21 0.20 0.21 0.28 0.33 0.31 0.25 0.18 0.10 0.05 0.02 0.01 0.00
0.00 0.00 0.00 0.00 0.00 0.00 0.00 0.00 0.00 0.00 0.00 0.00 0.00 0.00 0.00 0.00 0.00 0.00 0.00 0.00 0.00 0.01 0.02 0.06 0.14 0.22 0.25 0.24 0.20 0.18 0.14 0.12 0.10 0.11 0.14 0.15 0.12 0.10 0.07 0.03 0.01 0.01 0.00 0.00
0.00 0.00 0.00 0.00 0.00 0.00 0.00 0.00 0.00 0.00 0.00 0.00 0.00 0.00 0.00 0.00 0.00 0.00 0.00 0.00 0.01 0.02 0.04 0.10 0.18 0.23 0.24 0.20 0.17 0.15 0.13 0.11 0.09 0.09 0.09 0.09 0.08 0.06 0.03 0.01 0.00 0.00 0.00 0.00
0.00 0.00 0.00 0.00 0.00 0.00 0.00 0.00 0.00 0.00 0.00 0.00 0.00 0.00 0.00 0.00 0.00 0.00 0.02 0.03 0.04 0.04 0.07 0.12 0.16 0.17 0.15 0.12 0.12 0.12 0.12 0.10 0.08 0.09 0.08 0.06 0.04 0.02 0.01 0.00 0.00 0.00 0.00 0.00
0.00 0.00 0.00 0.00 0.00 0.00 0.00 0.00 0.00 0.00 0.00 0.00 0.00 0.00 0.00 0.00 0.00 0.00 0.04 0.07 0.06 0.07 0.11 0.12 0.12 0.11 0.07 0.06 0.09 0.10 0.09 0.09 0.09 0.08 0.06 0.03 0.02 0.01 0.00 0.00 0.00 0.00 0.00 0.00
0.00 0.00 0.00 0.00 0.00 0.00 0.00 0.00 0.00 0.00 0.00 0.00 0.00 0.00 0.00 0.01 0.01 0.01 0.04 0.08 0.10 0.12 0.12 0.09 0.08 0.07 0.04 0.04 0.06 0.07 0.08 0.06 0.05 0.04 0.03 0.02 0.01 0.01 0.00 0.00 0.00 0.00 0.00 0.00
0.00 0.00 0.00 0.00 0.00 0.00 0.00 0.00 0.00 0.00 0.00 0.00 0.00 0.01 0.02 0.02 0.01 0.04 0.13 0.21 0.25 0.21 0.14 0.09 0.08 0.07 0.06 0.06 0.06 0.06 0.06 0.05 0.04 0.03 0.02 0.01 0.01 0.01 0.00 0.00 0.00 0.00 0.00 0.00
0.00 0.00 0.00 0.00 0.00 0.00 0.00 0.00 0.00 0.00 0.01 0.00 0.01 0.02 0.04 0.06 0.08 0.18 0.33 0.33 0.24 0.14 0.08 0.09 0.14 0.13 0.10 0.06 0.05 0.04 0.04 0.03 0.02 0.01 0.01 0.01 0.00 0.00 0.00 0.00 0.00 0.01 0.01 0.01
0.00 0.00 0.00 0.00 0.00 0.00 0.00 0.00 0.01 0.01 0.01 0.01 0.02 0.04 0.07 0.13 0.21 0.34 0.42 0.24 0.09 0.04 0.06 0.14 0.17 0.12 0.07 0.04 0.02 0.02 0.02 0.01 0.01 0.00 0.00 0.01 0.01 0.01 0.01 0.02 0.02 0.03 0.03 0.02
0.00 0.00 0.00 0.00 0.00 0.00 0.00 0.00 0.00 0.00 0.01 0.01 0.03 0.08 0.09 0.15 0.21 0.29 0.32 0.22 0.10 0.05 0.08 0.09 0.08 0.06 0.03 0.02 0.01 0.01 0.02 0.02 0.01 0.02 0.02 0.03 0.04 0.05 0.06 0.05 0.03 0.03 0.02 0.00
0.00 0.00 0.00 0.00 0.00 0.00 0.00 0.00 0.00 0.00 0.00 0.00 0.03 0.06 0.06 0.09 0.16 0.20 0.24 0.20 0.11 0.07 0.06 0.05 0.04 0.04 0.03 0.03 0.03 0.04 0.05 0.06 0.07 0.09 0.10 0.11 0.11 0.09 0.06 0.03 0.01 0.01 0.00 0.00
0.00 0.00 0.00 0.00 0.00 0.00 0.00 0.01 0.01 0.01 0.02 0.02 0.02 0.02 0.01 0.02 0.04 0.06 0.07 0.09 0.06 0.04 0.04 0.04 0.05 0.06 0.06 0.06 0.08 0.11 0.15 0.16 0.17 0.18 0.17 0.14 0.10 0.06 0.03 0.01 0.00 0.00 0.00 0.00
0.00 0.00 0.00 0.00 0.00 0.00 0.00 0.00 0.01 0.02 0.03 0.02 0.01 0.00 0.00 0.00 0.00 0.01 0.01 0.01 0.02 0.03 0.05 0.07 0.09 0.08 0.10 0.13 0.19 0.26 0.28 0.25 0.21 0.16 0.11 0.06 0.03 0.01 0.01 0.00 0.00 0.00 0.00 0.00
0.01 0.01 0.01 0.00 0.01 0.00 0.01 0.01 0.00 0.01 0.04 0.01 0.00 0.00 0.00 0.00 0.01 0.02 0.00 0.01 0.03 0.05 0.08 0.09 0.10 0.12 0.16 0.19 0.21 0.21 0.18 0.14 0.10 0.06 0.03 0.01 0.00 0.00 0.00 0.00 0.00 0.00 0.00 0.00
0.07 0.05 0.03 0.02 0.03 0.03 0.01 0.00 0.00 0.02 0.05 0.01 0.00 0.01 0.02 0.01 0.01 0.00 0.00 0.01 0.03 0.06 0.07 0.07 0.08 0.11 0.14 0.13 0.12 0.09 0.06 0.04 0.02 0.01 0.00 0.00 0.00 0.00 0.00 0.00 0.00 0.00 0.00 0.00
0.10 0.09 0.08 0.08 0.10 0.12 0.03 0.01 0.01 0.02 0.01 0.00 0.00 0.01 0.03 0.01 0.00 0.00 0.01 0.02 0.04 0.05 0.05 0.04 0.05 0.06 0.05 0.04 0.03 0.02 0.01 0.00 0.00 0.00 0.00 0.00 0.00 0.00 0.00 0.00 0.00 0.00 0.00 0.00
0.04 0.04 0.08 0.12 0.14 0.10 0.02 0.02 0.02 0.01 0.01 0.01 0.01 0.02 0.03 0.01 0.00 0.00 0.02 0.03 0.03 0.03 0.03 0.03 0.03 0.02 0.02 0.01 0.01 0.01 0.00 0.00 0.00 0.00 0.00 0.00 0.00 0.00 0.00 0.00 0.00 0.00 0.00 0.00
0.03 0.01 0.01 0.02 0.03 0.02 0.02 0.02 0.02 0.01 0.01 0.02 0.03 0.03 0.02 0.00 0.00 0.01 0.02 0.02 0.02 0.02 0.01 0.01 0.01 0.01 0.02 0.01 0.01 0.00 0.00 0.00 0.00 0.00 0.00 0.00 0.00 0.00 0.00 0.00 0.00 0.00 0.01 0.00
0.02 0.01 0.01 0.01 0.01 0.04 0.06 0.06 0.04 0.03 0.03 0.03 0.02 0.01 0.00 0.00 0.01 0.02 0.01 0.01 0.01 0.01 0.01 0.01 0.02 0.02 0.01 0.00 0.00 0.00 0.00 0.00 0.00 0.00 0.00 0.00 0.00 0.00 0.00 0.00 0.00 0.01 0.01 0.00
0.01 0.01 0.03 0.04 0.05 0.11 0.15 0.12 0.06 0.06 0.04 0.02 0.01 0.01 0.02 0.02 0.02 0.02 0.01 0.01 0.01 0.01 0.01 0.01 0.01 0.01 0.00 0.00 0.00 0.00 0.00 0.00 0.00 0.00 0.00 0.00 0.00 0.00 0.00 0.01 0.01 0.00 0.00 0.00

GEFSCGP_prec_meanprecacc_018.txt.gz
Total_Precipitation_Accumulation
0.00 0.00 0.00 0.00 0.00 0.00 0.00 0.00 0.00 0.00 0.00 0.00 0.00 0.00 0.00 0.00 0.00 0.00 0.00 0.00 0.00 0.00 0.01 0.01 0.01 0.01 0.01 0.01 0.01 0.01 0.01 0.03 0.04 0.07 0.11 0.15 0.18 0.19 0.18 0.19 0.22 0.28 0.35 0.36
0.00 0.00 0.00 0.00 0.00 0.00 0.00 0.00 0.00 0.00 0.00 0.00 0.00 0.00 0.00 0.00 0.00 0.00 0.00 0.00 0.00 0.00 0.01 0.02 0.03 0.03 0.03 0.03 0.03 0.02 0.03 0.10 0.19 0.26 0.34 0.39 0.40 0.39 0.42 0.47 0.53 0.58 0.60 0.57
0.00 0.00 0.00 0.00 0.00 0.00 0.00 0.00 0.00 0.00 0.00 0.00 0.00 0.00 0.00 0.00 0.00 0.00 0.00 0.00 0.00 0.00 0.00 0.01 0.03 0.03 0.03 0.04 0.06 0.06 0.10 0.24 0.44 0.54 0.63 0.67 0.65 0.64 0.64 0.66 0.71 0.76 0.75 0.69
0.00 0.00 0.00 0.00 0.00 0.00 0.00 0.00 0.00 0.00 0.00 0.00 0.00 0.00 0.00 0.00 0.00 0.00 0.00 0.00 0.00 0.00 0.00 0.01 0.06 0.08 0.05 0.06 0.08 0.10 0.18 0.39 0.64 0.75 0.86 0.97 0.94 0.88 0.90 0.89 0.89 0.82 0.72 0.61
0.00 0.00 0.00 0.00 0.00 0.00 0.00 0.00 0.00 0.00 0.00 0.00 0.00 0.00 0.00 0.00 0.00 0.00 0.00 0.00 0.00 0.00 0.00 0.01 0.08 0.15 0.16 0.15 0.12 0.12 0.25 0.52 0.79 0.99 1.12 1.16 1.19 1.18 1.10 0.99 0.88 0.71 0.53 0.34
0.00 0.00 0.00 0.00 0.00 0.00 0.00 0.00 0.00 0.00 0.00 0.00 0.00 0.00 0.00 0.00 0.00 0.00 0.00 0.00 0.00 0.00 0.00 0.02 0.08 0.20 0.26 0.19 0.13 0.18 0.37 0.70 0.98 1.14 1.22 1.26 1.23 1.10 0.97 0.79 0.56 0.38 0.25 0.15
0.00 0.00 0.00 0.00 0.00 0.00 0.00 0.00 0.00 0.00 0.00 0.00 0.00 0.00 0.00 0.00 0.00 0.00 0.00 0.00 0.00 0.00 0.01 0.03 0.08 0.18 0.28 0.24 0.25 0.38 0.61 0.85 0.99 1.06 1.07 1.02 0.90 0.72 0.55 0.37 0.22 0.13 0.07 0.04
0.00 0.00 0.00 0.00 0.00 0.00 0.00 0.00 0.00 0.00 0.00 0.00 0.00 0.00 0.00 0.00 0.00 0.00 0.00 0.00 0.01 0.02 0.03 0.07 0.15 0.26 0.33 0.36 0.37 0.47 0.61 0.74 0.75 0.71 0.71 0.66 0.55 0.42 0.27 0.15 0.07 0.03 0.01 0.01
0.00 0.00 0.00 0.00 0.00 0.00 0.00 0.00 0.00 0.00 0.00 0.00 0.00 0.00 0.00 0.01 0.00 0.01 0.01 0.01 0.02 0.03 0.06 0.12 0.20 0.28 0.32 0.34 0.35 0.42 0.48 0.52 0.49 0.46 0.45 0.41 0.32 0.21 0.12 0.06 0.02 0.01 0.00 0.00
0.00 0.00 0.00 0.00 0.00 0.00 0.00 0.00 0.00 0.00 0.00 0.00 0.00 0.00 0.00 0.01 0.01 0.01 0.02 0.04 0.05 0.06 0.10 0.15 0.20 0.23 0.24 0.24 0.28 0.31 0.33 0.32 0.33 0.32 0.29 0.23 0.15 0.08 0.05 0.02 0.01 0.00 0.00 0.00
0.00 0.00 0.00 0.00 0.00 0.00 0.00 0.00 0.00 0.00 0.00 0.00 0.00 0.00 0.00 0.01 0.01 0.01 0.04 0.08 0.07 0.09 0.14 0.15 0.16 0.16 0.14 0.14 0.19 0.21 0.23 0.26 0.27 0.23 0.17 0.11 0.07 0.04 0.02 0.01 0.00 0.00 0.00 0.00
0.00 0.00 0.00 0.00 0.00 0.00 0.00 0.00 0.00 0.00 0.00 0.00 0.00 0.00 0.01 0.02 0.02 0.02 0.05 0.10 0.12 0.14 0.15 0.12 0.11 0.10 0.08 0.10 0.13 0.16 0.18 0.17 0.14 0.11 0.08 0.05 0.03 0.02 0.01 0.01 0.00 0.00 0.00 0.00
0.00 0.00 0.00 0.00 0.00 0.00 0.00 0.00 0.00 0.00 0.00 0.00 0.00 0.02 0.03 0.03 0.02 0.04 0.14 0.22 0.26 0.23 0.15 0.11 0.10 0.10 0.10 0.11 0.13 0.12 0.12 0.09 0.07 0.05 0.04 0.02 0.01 0.01 0.01 0.00 0.00 0.00 0.00 0.00
0.00 0.00 0.00 0.00 0.00 0.00 0.00 0.00 0.00 0.00 0.01 0.01 0.01 0.03 0.06 0.08 0.09 0.19 0.34 0.35 0.25 0.15 0.10 0.11 0.16 0.16 0.14 0.09 0.08 0.07 0.07 0.05 0.03 0.02 0.01 0.01 0.01 0.00 0.00 0.00 0.00 0.01 0.01 0.02
0.00 0.00 0.00 0.00 0.00 0.00 0.00 0.01 0.01 0.01 0.01 0.02 0.03 0.06 0.09 0.15 0.23 0.36 0.43 0.26 0.11 0.06 0.09 0.16 0.20 0.14 0.09 0.05 0.03 0.03 0.03 0.02 0.01 0.01 0.01 0.01 0.01 0.02 0.02 0.02 0.03 0.03 0.04 0.02
0.00 0.00 0.00 0.00 0.00 0.01 0.00 0.00 0.00 0.01 0.01 0.02 0.05 0.11 0.13 0.18 0.23 0.32 0.35 0.24 0.12 0.08 0.10 0.10 0.08 0.06 0.04 0.02 0.02 0.02 0.02 0.02 0.02 0.03 0.04 0.05 0.06 0.07 0.07 0.06 0.04 0.03 0.02 0.01
0.00 0.00 0.00 0.01 0.01 0.01 0.02 0.01 0.01 0.01 0.02 0.04 0.07 0.10 0.11 0.15 0.22 0.28 0.31 0.26 0.15 0.10 0.08 0.06 0.05 0.04 0.04 0.04 0.04 0.05 0.07 0.09 0.10 0.11 0.13 0.15 0.15 0.14 0.10 0.05 0.02 0.01 0.00 0.00
0.01 0.00 0.00 0.00 0.01 0.02 0.02 0.02 0.03 0.03 0.06 0.09 0.08 0.08 0.09 0.10 0.12 0.12 0.12 0.13 0.08 0.05 0.05 0.04 0.06 0.06 0.06 0.07 0.09 0.13 0.18 0.20 0.22 0.25 0.25 0.22 0.17 0.11 0.05 0.02 0.00 0.00 0.00 0.00
0.01 0.01 0.01 0.00 0.00 0.01 0.01 0.01 0.02 0.03 0.05 0.05 0.06 0.06 0.07 0.06 0.05 0.04 0.03 0.02 0.02 0.04 0.06 0.08 0.09 0.09 0.10 0.14 0.22 0.30 0.34 0.33 0.30 0.25 0.18 0.11 0.07 0.03 0.01 0.00 0.00 0.00 0.00 0.00
0.02 0.02 0.03 0.02 0.01 0.01 0.02 0.01 0.01 0.02 0.05 0.03 0.02 0.02 0.02 0.02 0.03 0.03 0.01 0.01 0.03 0.05 0.08 0.09 0.10 0.12 0.17 0.21 0.24 0.26 0.24 0.20 0.14 0.08 0.04 0.02 0.01 0.00 0.00 0.00 0.00 0.00 0.00 0.00
0.07 0.06 0.04 0.04 0.04 0.04 0.02 0.01 0.01 0.03 0.06 0.02 0.02 0.02 0.02 0.02 0.01 0.01 0.01 0.01 0.04 0.06 0.07 0.07 0.08 0.12 0.15 0.15 0.14 0.12 0.09 0.06 0.04 0.02 0.01 0.00 0.00 0.00 0.00 0.00 0.00 0.00 0.00 0.00
0.10 0.11 0.10 0.10 0.12 0.13 0.04 0.02 0.02 0.04 0.03 0.03 0.02 0.02 0.03 0.01 0.00 0.00 0.01 0.02 0.04 0.05 0.05 0.05 0.06 0.07 0.07 0.05 0.04 0.03 0.02 0.01 0.01 0.00 0.00 0.00 0.00 0.00 0.00 0.00 0.00 0.00 0.00 0.00
0.04 0.05 0.09 0.12 0.14 0.10 0.03 0.03 0.04 0.04 0.04 0.03 0.02 0.03 0.03 0.01 0.00 0.00 0.02 0.03 0.03 0.03 0.04 0.04 0.04 0.03 0.03 0.02 0.02 0.01 0.00 0.00 0.00 0.00 0.00 0.00 0.00 0.00 0.00 0.00 0.00 0.00 0.00 0.00
0.03 0.01 0.01 0.02 0.03 0.03 0.03 0.03 0.04 0.03 0.03 0.03 0.03 0.03 0.02 0.00 0.00 0.01 0.02 0.02 0.02 0.02 0.02 0.02 0.02 0.02 0.02 0.01 0.01 0.00 0.00 0.00 0.00 0.00 0.00 0.00 0.00 0.00 0.00 0.00 0.00 0.00 0.01 0.00
0.02 0.01 0.01 0.02 0.02 0.04 0.07 0.06 0.04 0.04 0.04 0.04 0.03 0.02 0.01 0.00 0.01 0.02 0.02 0.01 0.01 0.02 0.02 0.02 0.02 0.02 0.01 0.00 0.00 0.00 0.00 0.00 0.00 0.00 0.00 0.00 0.00 0.00 0.00 0.00 0.00 0.01 0.01 0.00
0.01 0.01 0.03 0.04 0.05 0.12 0.16 0.12 0.07 0.07 0.04 0.03 0.02 0.02 0.02 0.02 0.02 0.02 0.02 0.02 0.02 0.02 0.02 0.02 0.02 0.01 0.00 0.00 0.00 0.00 0.00 0.00 0.00 0.00 0.00 0.00 0.00 0.00 0.00 0.01 0.01 0.00 0.00 0.00

GEFSCGP_prec_meanprecacc_024.txt.gz
Total_Precipitation_Accumulation
0.00 0.00 0.00 0.00 0.00 0.00 0.00 0.00 0.00 0.00 0.00 0.00 0.00 0.00 0.00 0.00 0.00 0.00 0.00 0.00 0.00 0.00 0.01 0.01 0.01 0.01 0.01 0.01 0.01 0.01 0.01 0.04 0.06 0.11 0.18 0.28 0.42 0.49 0.51 0.54 0.60 0.69 0.77 0.81
0.00 0.00 0.00 0.00 0.00 0.00 0.00 0.00 0.00 0.00 0.00 0.00 0.00 0.00 0.00 0.00 0.00 0.00 0.00 0.00 0.00 0.00 0.01 0.02 0.03 0.03 0.03 0.03 0.03 0.02 0.03 0.12 0.24 0.39 0.58 0.77 0.89 0.97 1.04 1.07 1.10 1.16 1.22 1.20
0.00 0.00 0.00 0.00 0.00 0.00 0.00 0.00 0.00 0.00 0.00 0.00 0.00 0.00 0.00 0.00 0.00 0.00 0.00 0.00 0.00 0.00 0.00 0.01 0.03 0.03 0.03 0.04 0.06 0.06 0.10 0.28 0.53 0.77 1.04 1.27 1.43 1.59 1.63 1.55 1.51 1.50 1.47 1.40
0.00 0.00 0.00 0.00 0.00 0.00 0.00 0.00 0.00 0.00 0.00 0.00 0.00 0.00 0.00 0.00 0.00 0.00 0.00 0.00 0.00 0.00 0.00 0.01 0.06 0.08 0.05 0.07 0.09 0.10 0.19 0.43 0.76 1.03 1.36 1.66 1.85 2.03 2.15 1.97 1.79 1.56 1.36 1.26
0.00 0.00 0.00 0.00 0.00 0.00 0.00 0.00 0.00 0.00 0.00 0.00 0.00 0.00 0.00 0.00 0.00 0.00 0.00 0.00 0.00 0.00 0.00 0.01 0.08 0.15 0.17 0.15 0.12 0.12 0.27 0.58 0.97 1.34 1.65 1.84 2.00 2.13 2.07 1.80 1.53 1.28 1.04 0.78
0.00 0.00 0.00 0.00 0.00 0.00 0.00 0.00 0.00 0.00 0.00 0.00 0.00 0.00 0.00 0.00 0.00 0.00 0.00 0.00 0.00 0.00 0.00 0.02 0.08 0.20 0.26 0.19 0.13 0.19 0.40 0.79 1.18 1.45 1.68 1.79 1.82 1.71 1.52 1.27 0.96 0.77 0.63 0.44
0.00 0.00 0.00 0.00 0.00 0.00 0.00 0.00 0.00 0.00 0.00 0.00 0.00 0.00 0.00 0.00 0.00 0.00 0.01 0.01 0.01 0.01 0.02 0.04 0.09 0.19 0.29 0.25 0.27 0.39 0.66 0.98 1.19 1.31 1.38 1.36 1.27 1.06 0.85 0.67 0.52 0.41 0.29 0.16
0.00 0.00 0.00 0.00 0.00 0.00 0.00 0.00 0.00 0.00 0.00 0.00 0.00 0.00 0.00 0.00 0.01 0.01 0.01 0.02 0.02 0.03 0.04 0.08 0.17 0.27 0.34 0.38 0.39 0.50 0.67 0.85 0.89 0.86 0.90 0.85 0.72 0.58 0.45 0.35 0.25 0.16 0.08 0.04
0.00 0.00 0.00 0.00 0.00 0.00 0.00 0.00 0.00 0.00 0.00 0.00 0.00 0.00 0.00 0.01 0.01 0.01 0.02 0.02 0.04 0.05 0.07 0.14 0.22 0.29 0.34 0.35 0.38 0.45 0.54 0.60 0.58 0.56 0.56 0.51 0.42 0.32 0.23 0.15 0.09 0.04 0.02 0.01
0.00 0.00 0.00 0.00 0.00 0.00 0.00 0.00 0.00 0.00 0.00 0.00 0.00 0.00 0.00 0.01 0.01 0.01 0.03 0.05 0.07 0.08 0.12 0.17 0.22 0.25 0.25 0.25 0.30 0.34 0.37 0.37 0.38 0.37 0.34 0.29 0.21 0.14 0.10 0.06 0.04 0.03 0.02 0.01
0.00 0.00 0.00 0.00 0.00 0.00 0.00 0.00 0.00 0.00 0.00 0.00 0.00 0.00 0.00 0.01 0.01 0.02 0.05 0.10 0.09 0.11 0.16 0.17 0.18 0.18 0.16 0.16 0.21 0.23 0.25 0.29 0.31 0.27 0.22 0.16 0.12 0.08 0.05 0.03 0.02 0.01 0.01 0.00
0.00 0.00 0.00 0.00 0.00 0.00 0.00 0.00 0.00 0.00 0.00 0.00 0.00 0.01 0.01 0.02 0.02 0.02 0.06 0.12 0.15 0.16 0.17 0.14 0.13 0.12 0.10 0.12 0.15 0.18 0.20 0.19 0.17 0.13 0.10 0.07 0.05 0.04 0.03 0.02 0.01 0.00 0.00 0.00
0.00 0.00 0.00 0.00 0.00 0.00 0.00 0.00 0.00 0.00 0.00 0.00 0.00 0.03 0.04 0.04 0.04 0.06 0.15 0.24 0.29 0.26 0.18 0.14 0.12 0.11 0.11 0.13 0.14 0.13 0.12 0.10 0.08 0.06 0.05 0.03 0.02 0.02 0.01 0.01 0.00 0.00 0.00 0.00
0.00 0.00 0.00 0.00 0.00 0.00 0.00 0.00 0.00 0.00 0.01 0.01 0.01 0.04 0.07 0.09 0.11 0.21 0.36 0.37 0.28 0.18 0.12 0.13 0.17 0.17 0.14 0.10 0.08 0.07 0.07 0.05 0.04 0.02 0.02 0.01 0.01 0.01 0.00 0.01 0.01 0.01 0.01 0.02
0.00 0.00 0.00 0.00 0.00 0.00 0.00 0.01 0.01 0.01 0.01 0.02 0.04 0.08 0.11 0.17 0.24 0.38 0.46 0.29 0.13 0.08 0.10 0.17 0.21 0.15 0.09 0.06 0.04 0.03 0.04 0.02 0.01 0.01 0.01 0.01 0.02 0.02 0.03 0.03 0.03 0.04 0.04 0.03
0.00 0.01 0.01 0.01 0.01 0.01 0.00 0.00 0.00 0.01 0.01 0.03 0.07 0.15 0.18 0.23 0.27 0.36 0.40 0.29 0.15 0.10 0.12 0.12 0.10 0.08 0.05 0.03 0.02 0.02 0.02 0.02 0.03 0.03 0.04 0.06 0.07 0.08 0.08 0.07 0.05 0.04 0.02 0.01
0.00 0.00 0.01 0.02 0.01 0.01 0.02 0.01 0.02 0.02 0.04 0.06 0.11 0.15 0.18 0.22 0.30 0.35 0.39 0.34 0.21 0.14 0.12 0.09 0.08 0.06 0.05 0.05 0.04 0.05 0.07 0.09 0.10 0.12 0.14 0.16 0.17 0.15 0.11 0.06 0.03 0.01 0.00 0.00
0.01 0.01 0.01 0.01 0.01 0.03 0.03 0.02 0.03 0.04 0.08 0.11 0.13 0.15 0.20 0.23 0.24 0.23 0.22 0.20 0.15 0.11 0.09 0.08 0.09 0.09 0.07 0.08 0.09 0.14 0.18 0.21 0.24 0.27 0.27 0.24 0.19 0.13 0.06 0.02 0.01 0.00 0.00 0.00
0.01 0.02 0.02 0.02 0.02 0.03 0.03 0.01 0.03 0.06 0.10 0.09 0.11 0.13 0.16 0.16 0.15 0.13 0.11 0.09 0.08 0.09 0.10 0.11 0.12 0.11 0.12 0.15 0.23 0.31 0.36 0.36 0.33 0.29 0.22 0.14 0.09 0.05 0.02 0.01 0.00 0.00 0.00 0.00
0.02 0.03 0.04 0.05 0.06 0.07 0.07 0.02 0.03 0.06 0.16 0.11 0.09 0.09 0.09 0.10 0.12 0.08 0.05 0.04 0.05 0.08 0.09 0.10 0.11 0.13 0.18 0.22 0.26 0.27 0.27 0.23 0.19 0.12 0.07 0.04 0.02 0.01 0.00 0.00 0.00 0.00 0.00 0.00
0.08 0.07 0.06 0.07 0.10 0.11 0.05 0.03 0.07 0.14 0.19 0.18 0.13 0.09 0.06 0.05 0.04 0.02 0.02 0.02 0.04 0.06 0.08 0.08 0.09 0.13 0.16 0.16 0.15 0.14 0.12 0.10 0.06 0.03 0.02 0.01 0.00 0.00 0.00 0.00 0.00 0.00 0.01 0.00
0.11 0.12 0.13 0.14 0.19 0.21 0.07 0.06 0.11 0.14 0.14 0.17 0.12 0.07 0.06 0.02 0.01 0.01 0.01 0.02 0.04 0.05 0.05 0.05 0.07 0.08 0.08 0.07 0.06 0.06 0.05 0.03 0.02 0.01 0.01 0.00 0.00 0.00 0.00 0.00 0.01 0.01 0.01 0.01
0.04 0.05 0.10 0.16 0.21 0.17 0.07 0.07 0.08 0.10 0.14 0.11 0.08 0.06 0.04 0.01 0.00 0.01 0.02 0.03 0.04 0.04 0.04 0.05 0.05 0.04 0.05 0.04 0.03 0.03 0.02 0.02 0.01 0.01 0.01 0.00 0.00 0.00 0.00 0.00 0.01 0.01 0.01 0.01
0.03 0.01 0.02 0.04 0.07 0.07 0.08 0.09 0.08 0.08 0.09 0.07 0.05 0.04 0.02 0.00 0.00 0.01 0.02 0.03 0.03 0.03 0.03 0.03 0.03 0.03 0.03 0.03 0.02 0.02 0.02 0.01 0.01 0.01 0.01 0.01 0.01 0.00 0.00 0.00 0.01 0.01 0.01 0.01
0.02 0.01 0.01 0.02 0.03 0.07 0.10 0.09 0.07 0.06 0.07 0.06 0.05 0.03 0.01 0.00 0.01 0.02 0.02 0.02 0.02 0.02 0.03 0.02 0.03 0.03 0.02 0.01 0.01 0.01 0.02 0.02 0.02 0.02 0.01 0.01 0.01 0.00 0.01 0.01 0.01 0.01 0.01 0.00
0.01 0.01 0.03 0.04 0.06 0.13 0.18 0.14 0.08 0.09 0.07 0.05 0.04 0.03 0.03 0.03 0.02 0.02 0.02 0.02 0.03 0.03 0.03 0.02 0.02 0.01 0.01 0.00 0.01 0.01 0.01 0.02 0.02 0.02 0.01 0.01 0.00 0.00 0.00 0.01 0.02 0.01 0.00 0.00

GEFSCGP_prec_meanprecacc_030.txt.gz
Total_Precipitation_Accumulation
0.00 0.00 0.00 0.00 0.00 0.00 0.00 0.00 0.00 0.00 0.00 0.00 0.00 0.00 0.00 0.00 0.00 0.00 0.00 0.00 0.00 0.01 0.01 0.01 0.02 0.02 0.02 0.01 0.02 0.02 0.04 0.06 0.08 0.12 0.20 0.31 0.47 0.56 0.58 0.62 0.69 0.82 0.92 0.97
0.00 0.00 0.00 0.00 0.00 0.00 0.00 0.00 0.00 0.00 0.00 0.00 0.00 0.00 0.00 0.00 0.00 0.00 0.00 0.00 0.00 0.01 0.01 0.02 0.04 0.08 0.05 0.03 0.04 0.04 0.07 0.16 0.29 0.45 0.65 0.86 1.00 1.10 1.16 1.21 1.28 1.34 1.38 1.38
0.00 0.00 0.00 0.00 0.00 0.00 0.00 0.00 0.00 0.00 0.00 0.00 0.00 0.00 0.00 0.00 0.00 0.00 0.00 0.00 0.00 0.00 0.00 0.01 0.03 0.05 0.05 0.05 0.07 0.09 0.16 0.36 0.63 0.87 1.14 1.40 1.59 1.79 1.84 1.76 1.71 1.70 1.65 1.57
0.00 0.00 0.00 0.00 0.00 0.00 0.00 0.00 0.00 0.00 0.00 0.00 0.00 0.00 0.00 0.00 0.00 0.00 0.00 0.00 0.00 0.00 0.00 0.01 0.06 0.08 0.05 0.07 0.11 0.14 0.27 0.54 0.87 1.14 1.46 1.78 2.02 2.22 2.34 2.16 1.95 1.70 1.49 1.38
0.00 0.00 0.00 0.00 0.00 0.00 0.00 0.00 0.00 0.00 0.00 0.00 0.00 0.00 0.00 0.00 0.00 0.00 0.00 0.00 0.00 0.00 0.00 0.01 0.08 0.15 0.17 0.16 0.13 0.17 0.36 0.68 1.10 1.47 1.77 1.99 2.20 2.31 2.23 1.95 1.66 1.40 1.16 0.90
0.00 0.00 0.00 0.00 0.00 0.00 0.00 0.00 0.00 0.00 0.00 0.00 0.00 0.00 0.00 0.00 0.00 0.00 0.00 0.00 0.00 0.00 0.01 0.02 0.08 0.20 0.27 0.20 0.16 0.25 0.48 0.90 1.33 1.62 1.87 2.00 2.01 1.88 1.66 1.39 1.09 0.91 0.74 0.53
0.00 0.00 0.00 0.00 0.00 0.00 0.00 0.00 0.00 0.00 0.00 0.00 0.00 0.00 0.00 0.00 0.00 0.00 0.01 0.01 0.01 0.02 0.02 0.04 0.09 0.20 0.30 0.27 0.30 0.44 0.73 1.08 1.32 1.48 1.59 1.56 1.45 1.22 0.99 0.78 0.60 0.47 0.33 0.19
0.00 0.00 0.00 0.00 0.00 0.00 0.00 0.00 0.00 0.00 0.00 0.00 0.00 0.00 0.01 0.00 0.01 0.01 0.01 0.02 0.03 0.04 0.05 0.09 0.18 0.29 0.36 0.40 0.42 0.54 0.74 0.95 1.01 1.02 1.08 1.02 0.88 0.72 0.56 0.42 0.28 0.17 0.09 0.05
0.00 0.00 0.00 0.00 0.00 0.00 0.00 0.00 0.00 0.00 0.00 0.00 0.00 0.00 0.01 0.01 0.01 0.01 0.02 0.02 0.04 0.06 0.08 0.15 0.24 0.32 0.36 0.38 0.41 0.50 0.59 0.67 0.68 0.66 0.66 0.62 0.53 0.40 0.27 0.17 0.10 0.05 0.03 0.02
0.00 0.00 0.00 0.00 0.00 0.00 0.00 0.00 0.00 0.00 0.00 0.00 0.00 0.00 0.02 0.02 0.02 0.02 0.04 0.06 0.07 0.09 0.13 0.19 0.24 0.27 0.28 0.28 0.33 0.37 0.40 0.40 0.42 0.42 0.40 0.35 0.26 0.18 0.12 0.07 0.05 0.03 0.02 0.02
0.00 0.00 0.00 0.00 0.00 0.00 0.00 0.00 0.00 0.00 0.00 0.00 0.00 0.03 0.03 0.05 0.05 0.04 0.06 0.10 0.10 0.12 0.17 0.19 0.21 0.21 0.19 0.18 0.24 0.26 0.27 0.32 0.34 0.31 0.26 0.19 0.14 0.09 0.06 0.04 0.02 0.02 0.01 0.01
0.00 0.00 0.00 0.00 0.00 0.00 0.00 0.00 0.00 0.00 0.00 0.00 0.01 0.08 0.07 0.09 0.07 0.05 0.08 0.13 0.16 0.18 0.19 0.16 0.15 0.15 0.12 0.14 0.17 0.19 0.21 0.20 0.19 0.15 0.11 0.08 0.06 0.04 0.03 0.02 0.01 0.01 0.00 0.00
0.00 0.00 0.02 0.03 0.02 0.00 0.00 0.00 0.00 0.00 0.00 0.00 0.01 0.10 0.11 0.10 0.10 0.10 0.17 0.25 0.31 0.28 0.20 0.17 0.15 0.14 0.13 0.15 0.15 0.14 0.13 0.10 0.09 0.07 0.05 0.04 0.03 0.02 0.02 0.01 0.01 0.01 0.00 0.00
0.00 0.00 0.03 0.11 0.10 0.03 0.01 0.01 0.01 0.01 0.01 0.01 0.02 0.12 0.17 0.18 0.19 0.28 0.40 0.39 0.31 0.21 0.16 0.17 0.21 0.19 0.16 0.11 0.09 0.08 0.08 0.06 0.04 0.03 0.02 0.01 0.01 0.01 0.01 0.01 0.01 0.01 0.01 0.02
0.00 0.01 0.02 0.04 0.03 0.04 0.04 0.04 0.04 0.03 0.02 0.03 0.08 0.18 0.29 0.35 0.39 0.49 0.54 0.34 0.18 0.13 0.16 0.22 0.24 0.18 0.11 0.07 0.05 0.04 0.04 0.03 0.02 0.01 0.01 0.02 0.02 0.03 0.03 0.03 0.04 0.04 0.04 0.03
0.01 0.01 0.02 0.03 0.02 0.03 0.06 0.07 0.07 0.07 0.06 0.08 0.18 0.37 0.52 0.59 0.54 0.57 0.56 0.41 0.25 0.19 0.21 0.20 0.18 0.14 0.10 0.07 0.05 0.04 0.05 0.04 0.04 0.05 0.06 0.07 0.08 0.08 0.08 0.07 0.05 0.04 0.02 0.01
0.00 0.01 0.02 0.03 0.02 0.03 0.05 0.04 0.04 0.05 0.09 0.14 0.25 0.38 0.50 0.57 0.59 0.59 0.63 0.55 0.37 0.29 0.27 0.24 0.22 0.20 0.17 0.15 0.13 0.12 0.13 0.13 0.13 0.14 0.15 0.17 0.17 0.15 0.11 0.06 0.03 0.01 0.01 0.01
0.01 0.02 0.02 0.02 0.04 0.07 0.08 0.04 0.05 0.07 0.13 0.20 0.24 0.30 0.40 0.44 0.44 0.41 0.41 0.40 0.35 0.31 0.31 0.31 0.32 0.32 0.28 0.25 0.23 0.23 0.25 0.25 0.27 0.28 0.28 0.25 0.20 0.14 0.07 0.03 0.01 0.01 0.01 0.01
0.01 0.03 0.04 0.04 0.07 0.09 0.13 0.04 0.04 0.09 0.18 0.17 0.22 0.24 0.27 0.27 0.25 0.25 0.26 0.27 0.29 0.33 0.37 0.41 0.42 0.37 0.32 0.30 0.32 0.38 0.41 0.40 0.37 0.32 0.25 0.16 0.10 0.06 0.03 0.02 0.01 0.01 0.01 0.01
0.02 0.03 0.06 0.08 0.13 0.18 0.21 0.06 0.03 0.10 0.31 0.26 0.24 0.23 0.23 0.25 0.26 0.22 0.20 0.22 0.25 0.27 0.28 0.27 0.25 0.24 0.26 0.29 0.31 0.31 0.30 0.25 0.20 0.14 0.08 0.05 0.03 0.02 0.02 0.01 0.01 0.01 0.01 0.01
0.09 0.08 0.10 0.15 0.20 0.24 0.10 0.03 0.10 0.25 0.39 0.43 0.33 0.25 0.20 0.19 0.18 0.18 0.17 0.18 0.19 0.18 0.17 0.15 0.15 0.18 0.20 0.20 0.18 0.16 0.14 0.11 0.07 0.04 0.02 0.02 0.01 0.01 0.01 0.01 0.01 0.01 0.01 0.02
0.11 0.15 0.18 0.22 0.29 0.34 0.11 0.08 0.19 0.28 0.33 0.35 0.26 0.17 0.12 0.07 0.05 0.05 0.05 0.06 0.08 0.09 0.09 0.09 0.10 0.11 0.10 0.09 0.08 0.08 0.07 0.04 0.03 0.02 0.01 0.01 0.01 0.00 0.00 0.01 0.02 0.02 0.02 0.03
0.04 0.07 0.13 0.22 0.30 0.27 0.14 0.14 0.18 0.24 0.32 0.27 0.18 0.10 0.06 0.02 0.01 0.02 0.03 0.04 0.05 0.05 0.06 0.06 0.06 0.06 0.07 0.06 0.05 0.05 0.04 0.04 0.03 0.04 0.03 0.02 0.01 0.01 0.00 0.01 0.02 0.02 0.03 0.03
0.03 0.01 0.03 0.08 0.15 0.14 0.14 0.14 0.15 0.17 0.21 0.18 0.13 0.10 0.04 0.01 0.01 0.02 0.03 0.03 0.04 0.04 0.04 0.04 0.04 0.05 0.06 0.06 0.06 0.07 0.05 0.05 0.06 0.07 0.06 0.04 0.03 0.02 0.01 0.01 0.02 0.03 0.04 0.02
0.02 0.01 0.01 0.05 0.09 0.14 0.19 0.14 0.11 0.11 0.13 0.13 0.13 0.10 0.04 0.01 0.02 0.02 0.02 0.03 0.03 0.04 0.05 0.05 0.06 0.06 0.05 0.04 0.05 0.05 0.06 0.07 0.09 0.09 0.06 0.03 0.02 0.01 0.02 0.03 0.02 0.02 0.03 0.00
0.01 0.01 0.04 0.09 0.11 0.18 0.25 0.17 0.11 0.15 0.15 0.14 0.12 0.08 0.06 0.04 0.03 0.03 0.04 0.04 0.05 0.05 0.04 0.04 0.04 0.03 0.02 0.02 0.02 0.03 0.04 0.06 0.07 0.08 0.04 0.02 0.01 0.01 0.01 0.03 0.05 0.02 0.00 0.00

GEFSCGP_prec_meanprecacc_036.txt.gz
Total_Precipitation_Accumulation
0.00 0.00 0.00 0.00 0.00 0.00 0.00 0.00 0.00 0.00 0.00 0.00 0.00 0.00 0.00 0.00 0.00 0.00 0.00 0.00 0.01 0.04 0.06 0.09 0.14 0.18 0.17 0.15 0.14 0.12 0.12 0.13 0.13 0.17 0.24 0.35 0.50 0.59 0.60 0.66 0.74 0.86 0.95 1.00
0.00 0.00 0.00 0.00 0.00 0.00 0.00 0.00 0.00 0.00 0.00 0.00 0.00 0.00 0.00 0.00 0.00 0.00 0.00 0.00 0.01 0.03 0.05 0.08 0.17 0.32 0.31 0.25 0.21 0.19 0.19 0.29 0.43 0.55 0.74 0.94 1.06 1.16 1.24 1.30 1.37 1.42 1.46 1.44
0.00 0.00 0.00 0.00 0.00 0.00 0.00 0.00 0.00 0.00 0.00 0.00 0.00 0.00 0.00 0.00 0.00 0.00 0.00 0.00 0.01 0.02 0.04 0.06 0.15 0.25 0.33 0.32 0.34 0.34 0.35 0.56 0.81 1.01 1.28 1.51 1.71 1.91 1.97 1.89 1.83 1.82 1.77 1.66
0.00 0.00 0.00 0.00 0.00 0.00 0.00 0.00 0.00 0.00 0.00 0.00 0.00 0.00 0.00 0.00 0.00 0.00 0.00 0.00 0.00 0.01 0.02 0.04 0.11 0.20 0.24 0.35 0.42 0.43 0.55 0.81 1.08 1.34 1.70 2.00 2.20 2.39 2.51 2.35 2.12 1.86 1.64 1.50
0.00 0.00 0.00 0.00 0.00 0.00 0.00 0.00 0.00 0.00 0.00 0.00 0.00 0.00 0.00 0.00 0.00 0.00 0.00 0.00 0.00 0.01 0.01 0.04 0.12 0.20 0.27 0.36 0.35 0.37 0.58 0.94 1.41 1.83 2.12 2.26 2.44 2.53 2.44 2.17 1.87 1.59 1.33 1.04
0.00 0.00 0.00 0.00 0.00 0.00 0.00 0.00 0.00 0.00 0.00 0.00 0.00 0.00 0.00 0.00 0.00 0.00 0.00 0.01 0.01 0.02 0.02 0.04 0.11 0.24 0.34 0.33 0.33 0.44 0.71 1.21 1.68 1.97 2.21 2.33 2.32 2.17 1.95 1.65 1.31 1.10 0.89 0.65
0.00 0.00 0.00 0.00 0.00 0.00 0.00 0.00 0.00 0.00 0.00 0.00 0.00 0.00 0.01 0.01 0.00 0.01 0.01 0.02 0.03 0.03 0.04 0.06 0.11 0.23 0.36 0.36 0.44 0.66 0.95 1.32 1.58 1.76 1.88 1.83 1.71 1.49 1.26 1.06 0.84 0.66 0.47 0.29
0.00 0.00 0.00 0.00 0.00 0.00 0.00 0.00 0.00 0.00 0.00 0.00 0.00 0.01 0.02 0.02 0.01 0.02 0.02 0.04 0.05 0.06 0.07 0.12 0.22 0.33 0.41 0.45 0.49 0.67 0.89 1.10 1.18 1.21 1.30 1.25 1.11 0.96 0.80 0.65 0.47 0.31 0.19 0.11
0.00 0.00 0.00 0.00 0.00 0.00 0.00 0.00 0.00 0.00 0.00 0.00 0.00 0.03 0.06 0.04 0.03 0.03 0.04 0.05 0.07 0.09 0.11 0.17 0.26 0.35 0.40 0.42 0.46 0.56 0.67 0.77 0.79 0.81 0.83 0.79 0.72 0.61 0.48 0.34 0.23 0.15 0.09 0.05
0.01 0.00 0.00 0.00 0.00 0.00 0.00 0.00 0.00 0.00 0.00 0.00 0.00 0.04 0.10 0.11 0.08 0.06 0.07 0.09 0.10 0.12 0.16 0.21 0.26 0.30 0.31 0.31 0.36 0.41 0.45 0.47 0.51 0.54 0.53 0.49 0.41 0.33 0.25 0.18 0.13 0.08 0.05 0.03
0.03 0.01 0.00 0.00 0.00 0.00 0.00 0.00 0.00 0.00 0.00 0.00 0.01 0.08 0.13 0.19 0.18 0.14 0.13 0.15 0.13 0.15 0.19 0.22 0.23 0.24 0.21 0.21 0.26 0.29 0.31 0.38 0.42 0.40 0.35 0.28 0.24 0.17 0.13 0.09 0.06 0.04 0.03 0.02
0.04 0.03 0.02 0.01 0.01 0.00 0.00 0.00 0.00 0.00 0.00 0.00 0.01 0.16 0.22 0.29 0.27 0.20 0.18 0.20 0.21 0.21 0.21 0.19 0.18 0.17 0.15 0.17 0.20 0.22 0.24 0.25 0.24 0.20 0.16 0.13 0.11 0.08 0.07 0.05 0.03 0.03 0.03 0.02
0.01 0.03 0.05 0.06 0.04 0.01 0.00 0.00 0.00 0.00 0.00 0.00 0.02 0.22 0.34 0.37 0.37 0.31 0.31 0.36 0.38 0.33 0.24 0.20 0.19 0.17 0.16 0.17 0.17 0.16 0.16 0.13 0.12 0.10 0.08 0.06 0.05 0.05 0.04 0.04 0.04 0.04 0.03 0.02
0.01 0.02 0.08 0.18 0.17 0.05 0.01 0.01 0.01 0.01 0.01 0.02 0.06 0.23 0.34 0.43 0.48 0.56 0.63 0.58 0.46 0.32 0.23 0.24 0.28 0.25 0.20 0.14 0.13 0.12 0.12 0.10 0.07 0.06 0.05 0.05 0.04 0.03 0.04 0.04 0.04 0.04 0.04 0.04
0.01 0.02 0.03 0.07 0.06 0.06 0.05 0.05 0.04 0.04 0.04 0.08 0.17 0.31 0.48 0.65 0.75 0.81 0.81 0.61 0.41 0.30 0.29 0.33 0.33 0.26 0.20 0.16 0.14 0.13 0.13 0.10 0.08 0.07 0.07 0.06 0.06 0.06 0.06 0.06 0.06 0.06 0.05 0.04
0.01 0.02 0.02 0.04 0.04 0.05 0.10 0.11 0.11 0.14 0.16 0.19 0.33 0.56 0.83 0.95 0.93 0.94 0.90 0.72 0.53 0.44 0.42 0.37 0.33 0.29 0.26 0.24 0.22 0.20 0.19 0.17 0.16 0.14 0.13 0.13 0.12 0.12 0.11 0.09 0.07 0.05 0.03 0.02
0.01 0.02 0.02 0.04 0.05 0.07 0.16 0.17 0.15 0.20 0.25 0.29 0.42 0.58 0.78 0.87 0.92 0.97 1.03 0.92 0.69 0.57 0.53 0.47 0.43 0.40 0.39 0.38 0.35 0.34 0.33 0.30 0.27 0.26 0.25 0.24 0.22 0.19 0.14 0.07 0.04 0.02 0.02 0.01
0.01 0.02 0.03 0.03 0.05 0.14 0.17 0.12 0.16 0.23 0.27 0.32 0.35 0.44 0.55 0.59 0.62 0.63 0.66 0.67 0.62 0.56 0.54 0.54 0.56 0.56 0.53 0.49 0.45 0.43 0.41 0.39 0.37 0.36 0.34 0.30 0.24 0.17 0.09 0.05 0.03 0.02 0.02 0.02
0.01 0.03 0.04 0.05 0.08 0.15 0.20 0.10 0.09 0.18 0.31 0.31 0.31 0.29 0.32 0.31 0.31 0.34 0.38 0.41 0.46 0.55 0.60 0.62 0.62 0.59 0.53 0.47 0.45 0.46 0.46 0.44 0.39 0.34 0.27 0.18 0.12 0.07 0.04 0.03 0.02 0.02 0.02 0.01
0.02 0.03 0.07 0.10 0.16 0.24 0.27 0.11 0.06 0.14 0.40 0.38 0.37 0.33 0.32 0.33 0.34 0.30 0.30 0.32 0.36 0.39 0.40 0.39 0.36 0.34 0.35 0.36 0.36 0.34 0.32 0.27 0.21 0.14 0.08 0.05 0.04 0.03 0.02 0.02 0.02 0.02 0.01 0.01
0.09 0.08 0.11 0.17 0.24 0.30 0.14 0.05 0.11 0.29 0.45 0.51 0.43 0.33 0.28 0.27 0.25 0.22 0.21 0.22 0.23 0.23 0.22 0.20 0.20 0.23 0.25 0.24 0.21 0.19 0.16 0.12 0.08 0.04 0.03 0.02 0.01 0.01 0.01 0.01 0.01 0.01 0.01 0.02
0.11 0.15 0.19 0.23 0.31 0.37 0.14 0.09 0.20 0.30 0.36 0.38 0.29 0.20 0.15 0.09 0.06 0.06 0.06 0.08 0.09 0.10 0.11 0.10 0.11 0.12 0.12 0.10 0.08 0.08 0.07 0.04 0.03 0.02 0.02 0.01 0.01 0.01 0.01 0.01 0.02 0.02 0.03 0.03
0.04 0.07 0.13 0.23 0.32 0.30 0.16 0.15 0.20 0.26 0.35 0.29 0.19 0.11 0.06 0.03 0.02 0.02 0.03 0.05 0.06 0.06 0.06 0.06 0.06 0.06 0.07 0.06 0.06 0.06 0.05 0.04 0.04 0.04 0.04 0.02 0.02 0.01 0.01 0.01 0.02 0.03 0.04 0.03
0.03 0.01 0.03 0.09 0.18 0.18 0.16 0.16 0.16 0.17 0.22 0.18 0.14 0.10 0.05 0.01 0.01 0.02 0.03 0.04 0.04 0.04 0.05 0.05 0.05 0.06 0.07 0.06 0.07 0.08 0.07 0.07 0.09 0.10 0.07 0.04 0.04 0.03 0.02 0.02 0.02 0.03 0.04 0.02
0.02 0.01 0.02 0.07 0.14 0.19 0.23 0.16 0.12 0.12 0.13 0.13 0.13 0.11 0.05 0.01 0.02 0.03 0.03 0.03 0.03 0.04 0.05 0.05 0.06 0.07 0.06 0.05 0.06 0.07 0.08 0.10 0.13 0.12 0.08 0.04 0.03 0.03 0.03 0.04 0.03 0.02 0.03 0.01
0.01 0.01 0.04 0.10 0.13 0.20 0.27 0.19 0.12 0.16 0.17 0.16 0.13 0.10 0.07 0.04 0.03 0.03 0.04 0.05 0.05 0.05 0.05 0.05 0.05 0.04 0.03 0.03 0.03 0.04 0.06 0.07 0.09 0.09 0.06 0.03 0.02 0.03 0.03 0.05 0.07 0.03 0.00 0.00

GEFSCGP_prec_meanprecacc_042.txt.gz
Total_Precipitation_Accumulation
0.00 0.00 0.00 0.00 0.00 0.00 0.00 0.00 0.00 0.00 0.00 0.00 0.00 0.00 0.00 0.00 0.00 0.00 0.00 0.00 0.01 0.04 0.07 0.10 0.14 0.19 0.18 0.17 0.17 0.16 0.16 0.21 0.27 0.37 0.47 0.59 0.71 0.77 0.76 0.80 0.91 1.06 1.13 1.14
0.00 0.00 0.00 0.00 0.00 0.00 0.00 0.00 0.00 0.00 0.00 0.00 0.00 0.00 0.00 0.00 0.00 0.00 0.00 0.00 0.01 0.03 0.05 0.08 0.17 0.33 0.31 0.26 0.23 0.23 0.28 0.43 0.63 0.86 1.06 1.24 1.36 1.45 1.46 1.50 1.58 1.63 1.66 1.64
0.00 0.00 0.00 0.00 0.00 0.00 0.00 0.00 0.00 0.00 0.00 0.00 0.00 0.00 0.00 0.00 0.00 0.00 0.00 0.00 0.01 0.03 0.05 0.07 0.16 0.26 0.34 0.33 0.36 0.36 0.43 0.73 1.09 1.37 1.64 1.87 2.08 2.23 2.22 2.10 2.06 2.06 2.03 1.94
0.00 0.00 0.00 0.00 0.00 0.00 0.00 0.00 0.00 0.00 0.00 0.00 0.00 0.00 0.00 0.00 0.00 0.00 0.00 0.01 0.01 0.02 0.03 0.04 0.12 0.21 0.26 0.37 0.44 0.48 0.62 0.93 1.26 1.59 2.02 2.36 2.55 2.70 2.80 2.63 2.40 2.15 1.94 1.82
0.00 0.00 0.00 0.00 0.00 0.00 0.00 0.00 0.00 0.00 0.00 0.00 0.00 0.00 0.01 0.01 0.01 0.01 0.01 0.01 0.01 0.01 0.02 0.05 0.13 0.22 0.30 0.38 0.39 0.46 0.68 1.06 1.62 2.12 2.47 2.65 2.80 2.87 2.74 2.47 2.17 1.88 1.60 1.31
0.00 0.00 0.00 0.00 0.00 0.00 0.00 0.00 0.00 0.00 0.00 0.00 0.00 0.00 0.01 0.02 0.02 0.02 0.02 0.03 0.04 0.05 0.04 0.06 0.13 0.27 0.39 0.38 0.39 0.51 0.80 1.33 1.90 2.32 2.62 2.76 2.71 2.52 2.29 1.99 1.62 1.39 1.15 0.88
0.00 0.00 0.00 0.00 0.00 0.00 0.00 0.00 0.00 0.00 0.00 0.00 0.00 0.01 0.03 0.04 0.03 0.03 0.04 0.05 0.07 0.09 0.10 0.12 0.18 0.30 0.44 0.46 0.55 0.79 1.10 1.50 1.79 2.03 2.21 2.20 2.09 1.86 1.63 1.40 1.16 0.97 0.74 0.52
0.00 0.00 0.00 0.00 0.00 0.00 0.00 0.00 0.00 0.00 0.00 0.00 0.01 0.02 0.06 0.06 0.04 0.04 0.05 0.07 0.09 0.13 0.15 0.21 0.33 0.44 0.54 0.60 0.65 0.85 1.10 1.36 1.48 1.54 1.63 1.59 1.48 1.33 1.14 0.96 0.76 0.57 0.42 0.31
0.00 0.00 0.00 0.00 0.00 0.00 0.00 0.00 0.00 0.00 0.00 0.00 0.01 0.06 0.11 0.09 0.06 0.05 0.06 0.07 0.10 0.13 0.17 0.26 0.37 0.47 0.55 0.57 0.64 0.76 0.89 1.03 1.11 1.16 1.18 1.13 1.04 0.91 0.76 0.58 0.44 0.34 0.26 0.19
0.01 0.00 0.00 0.00 0.00 0.00 0.00 0.00 0.00 0.00 0.00 0.00 0.01 0.07 0.16 0.17 0.12 0.09 0.09 0.12 0.13 0.15 0.19 0.26 0.32 0.37 0.40 0.42 0.50 0.56 0.62 0.68 0.75 0.79 0.79 0.73 0.63 0.55 0.45 0.35 0.27 0.20 0.15 0.11
0.04 0.02 0.01 0.00 0.00 0.00 0.00 0.00 0.00 0.00 0.00 0.00 0.01 0.11 0.21 0.27 0.25 0.18 0.16 0.18 0.17 0.18 0.23 0.26 0.28 0.29 0.27 0.28 0.35 0.39 0.42 0.51 0.56 0.55 0.50 0.41 0.36 0.30 0.24 0.19 0.15 0.12 0.09 0.08
0.06 0.04 0.03 0.02 0.01 0.00 0.00 0.00 0.00 0.00 0.00 0.00 0.02 0.20 0.31 0.40 0.36 0.26 0.23 0.24 0.25 0.26 0.26 0.24 0.23 0.22 0.20 0.22 0.25 0.28 0.31 0.34 0.34 0.32 0.28 0.24 0.21 0.18 0.16 0.14 0.12 0.10 0.10 0.09
0.02 0.04 0.06 0.07 0.04 0.01 0.00 0.00 0.00 0.00 0.00 0.00 0.03 0.26 0.41 0.46 0.45 0.38 0.38 0.43 0.46 0.41 0.34 0.30 0.28 0.25 0.23 0.23 0.24 0.23 0.22 0.21 0.20 0.18 0.16 0.15 0.14 0.15 0.14 0.14 0.13 0.11 0.10 0.09
0.02 0.03 0.09 0.19 0.17 0.05 0.02 0.01 0.01 0.01 0.01 0.02 0.08 0.27 0.40 0.49 0.54 0.64 0.71 0.66 0.55 0.43 0.36 0.37 0.41 0.39 0.32 0.25 0.22 0.20 0.19 0.17 0.15 0.13 0.12 0.11 0.10 0.10 0.11 0.12 0.12 0.12 0.12 0.12
0.02 0.03 0.04 0.08 0.07 0.06 0.06 0.05 0.05 0.04 0.04 0.10 0.21 0.35 0.53 0.72 0.82 0.90 0.90 0.70 0.52 0.43 0.43 0.49 0.51 0.44 0.37 0.32 0.28 0.24 0.22 0.19 0.16 0.15 0.14 0.13 0.13 0.13 0.14 0.14 0.15 0.16 0.15 0.12
0.01 0.03 0.03 0.05 0.06 0.06 0.11 0.12 0.12 0.16 0.19 0.23 0.38 0.59 0.88 1.01 0.99 1.02 1.01 0.85 0.67 0.60 0.60 0.58 0.55 0.52 0.48 0.44 0.40 0.35 0.32 0.29 0.26 0.25 0.23 0.23 0.22 0.22 0.20 0.18 0.16 0.13 0.10 0.07
0.01 0.02 0.02 0.04 0.06 0.08 0.17 0.19 0.17 0.22 0.28 0.35 0.47 0.62 0.83 0.94 0.99 1.05 1.13 1.05 0.84 0.73 0.70 0.68 0.65 0.62 0.59 0.56 0.53 0.49 0.46 0.41 0.37 0.35 0.33 0.32 0.30 0.26 0.19 0.12 0.08 0.06 0.05 0.04
0.01 0.02 0.03 0.03 0.06 0.15 0.18 0.13 0.17 0.25 0.29 0.35 0.39 0.48 0.60 0.64 0.68 0.72 0.76 0.77 0.74 0.69 0.68 0.69 0.71 0.72 0.68 0.63 0.58 0.54 0.50 0.47 0.44 0.43 0.40 0.35 0.28 0.21 0.13 0.07 0.06 0.05 0.05 0.04
0.01 0.03 0.04 0.05 0.08 0.16 0.20 0.11 0.10 0.22 0.38 0.38 0.38 0.34 0.37 0.37 0.36 0.43 0.50 0.51 0.56 0.66 0.72 0.75 0.75 0.70 0.64 0.56 0.52 0.52 0.52 0.48 0.43 0.38 0.30 0.21 0.14 0.10 0.06 0.04 0.04 0.03 0.03 0.02
0.02 0.03 0.07 0.10 0.16 0.24 0.28 0.11 0.08 0.17 0.49 0.47 0.46 0.40 0.38 0.40 0.40 0.38 0.38 0.40 0.44 0.48 0.50 0.49 0.46 0.42 0.41 0.40 0.39 0.38 0.35 0.30 0.24 0.17 0.11 0.07 0.05 0.04 0.03 0.03 0.02 0.02 0.01 0.01
0.09 0.08 0.11 0.17 0.24 0.30 0.14 0.06 0.13 0.31 0.48 0.55 0.49 0.38 0.34 0.34 0.30 0.27 0.26 0.28 0.28 0.28 0.28 0.25 0.24 0.26 0.27 0.26 0.23 0.20 0.17 0.13 0.09 0.05 0.03 0.03 0.02 0.02 0.01 0.01 0.01 0.01 0.01 0.02
0.11 0.15 0.19 0.23 0.31 0.37 0.14 0.09 0.21 0.30 0.36 0.40 0.32 0.24 0.19 0.13 0.10 0.09 0.09 0.11 0.12 0.13 0.13 0.12 0.13 0.13 0.12 0.11 0.09 0.08 0.07 0.05 0.03 0.02 0.02 0.02 0.01 0.01 0.01 0.01 0.02 0.02 0.03 0.03
0.04 0.07 0.13 0.23 0.32 0.30 0.16 0.15 0.20 0.27 0.35 0.30 0.20 0.11 0.07 0.03 0.02 0.02 0.04 0.05 0.06 0.06 0.07 0.07 0.06 0.06 0.07 0.06 0.06 0.06 0.05 0.04 0.04 0.04 0.04 0.03 0.02 0.01 0.01 0.01 0.02 0.03 0.04 0.03
0.03 0.01 0.03 0.09 0.18 0.18 0.16 0.16 0.16 0.17 0.22 0.18 0.14 0.10 0.05 0.01 0.01 0.02 0.04 0.05 0.04 0.04 0.05 0.05 0.05 0.06 0.07 0.07 0.08 0.08 0.07 0.07 0.10 0.10 0.07 0.04 0.04 0.03 0.03 0.03 0.03 0.03 0.05 0.03
0.02 0.01 0.02 0.07 0.14 0.19 0.23 0.17 0.12 0.12 0.13 0.13 0.13 0.11 0.05 0.01 0.02 0.03 0.03 0.03 0.03 0.04 0.05 0.05 0.06 0.07 0.06 0.05 0.06 0.07 0.08 0.10 0.13 0.12 0.08 0.04 0.03 0.03 0.04 0.05 0.04 0.03 0.03 0.01
0.01 0.01 0.04 0.10 0.13 0.20 0.27 0.19 0.12 0.16 0.17 0.16 0.13 0.10 0.07 0.04 0.03 0.04 0.04 0.05 0.05 0.05 0.05 0.05 0.05 0.04 0.03 0.03 0.03 0.04 0.06 0.07 0.09 0.09 0.06 0.03 0.02 0.03 0.03 0.06 0.07 0.03 0.01 0.00

GEFSCGP_prec_meanprecacc_048.txt.gz
Total_Precipitation_Accumulation
0.00 0.00 0.00 0.00 0.00 0.00 0.00 0.00 0.00 0.00 0.00 0.00 0.00 0.00 0.00 0.00 0.00 0.00 0.00 0.00 0.01 0.04 0.07 0.10 0.15 0.19 0.18 0.18 0.17 0.16 0.16 0.21 0.28 0.37 0.48 0.60 0.73 0.79 0.79 0.85 0.96 1.13 1.24 1.28
0.00 0.00 0.00 0.00 0.00 0.00 0.00 0.00 0.00 0.00 0.00 0.00 0.00 0.00 0.00 0.00 0.00 0.00 0.00 0.00 0.01 0.04 0.05 0.08 0.18 0.33 0.32 0.27 0.23 0.24 0.29 0.43 0.65 0.88 1.10 1.28 1.40 1.49 1.51 1.55 1.65 1.74 1.84 1.87
0.00 0.00 0.00 0.00 0.00 0.00 0.00 0.00 0.00 0.00 0.00 0.00 0.00 0.00 0.00 0.00 0.00 0.00 0.00 0.01 0.01 0.03 0.05 0.07 0.16 0.27 0.35 0.34 0.36 0.37 0.44 0.75 1.13 1.44 1.73 1.97 2.16 2.30 2.30 2.21 2.20 2.24 2.25 2.22
0.00 0.00 0.00 0.00 0.00 0.00 0.00 0.00 0.00 0.00 0.00 0.00 0.00 0.00 0.01 0.01 0.01 0.01 0.01 0.01 0.01 0.02 0.03 0.04 0.12 0.22 0.27 0.38 0.45 0.49 0.64 0.96 1.32 1.66 2.11 2.47 2.66 2.82 2.97 2.87 2.70 2.49 2.30 2.19
0.00 0.00 0.00 0.00 0.00 0.00 0.00 0.00 0.00 0.00 0.00 0.00 0.00 0.01 0.02 0.02 0.02 0.02 0.03 0.03 0.02 0.02 0.03 0.05 0.14 0.23 0.31 0.40 0.41 0.49 0.72 1.13 1.70 2.22 2.60 2.78 2.95 3.07 3.03 2.84 2.58 2.27 1.94 1.59
0.00 0.00 0.00 0.00 0.00 0.00 0.00 0.00 0.00 0.00 0.00 0.00 0.00 0.01 0.03 0.05 0.04 0.04 0.04 0.05 0.06 0.07 0.06 0.08 0.14 0.28 0.40 0.40 0.41 0.56 0.87 1.43 2.01 2.42 2.74 2.90 2.92 2.81 2.64 2.36 1.99 1.68 1.40 1.08
0.00 0.00 0.00 0.00 0.00 0.00 0.00 0.00 0.00 0.00 0.00 0.00 0.01 0.02 0.07 0.09 0.06 0.05 0.06 0.08 0.11 0.12 0.13 0.16 0.22 0.33 0.48 0.50 0.61 0.86 1.19 1.62 1.90 2.15 2.35 2.38 2.34 2.19 2.00 1.77 1.51 1.28 1.00 0.72
0.00 0.00 0.00 0.00 0.00 0.00 0.00 0.00 0.00 0.00 0.00 0.01 0.02 0.05 0.12 0.10 0.07 0.06 0.07 0.09 0.12 0.16 0.19 0.25 0.36 0.48 0.59 0.65 0.71 0.92 1.20 1.48 1.59 1.68 1.78 1.79 1.74 1.66 1.53 1.36 1.14 0.91 0.70 0.53
0.00 0.00 0.00 0.00 0.00 0.00 0.00 0.00 0.00 0.00 0.00 0.02 0.04 0.10 0.17 0.14 0.09 0.07 0.08 0.09 0.13 0.17 0.20 0.29 0.41 0.51 0.58 0.62 0.71 0.84 1.00 1.16 1.25 1.34 1.38 1.36 1.33 1.25 1.13 0.94 0.74 0.60 0.50 0.38
0.02 0.01 0.00 0.00 0.00 0.00 0.00 0.00 0.00 0.00 0.00 0.01 0.04 0.11 0.22 0.23 0.15 0.11 0.11 0.14 0.16 0.17 0.22 0.30 0.36 0.40 0.44 0.46 0.55 0.65 0.74 0.82 0.91 0.96 0.97 0.92 0.85 0.78 0.70 0.59 0.48 0.36 0.29 0.23
0.05 0.03 0.01 0.01 0.00 0.00 0.00 0.00 0.00 0.00 0.00 0.01 0.03 0.15 0.27 0.34 0.29 0.20 0.18 0.20 0.19 0.20 0.25 0.29 0.30 0.32 0.30 0.30 0.38 0.43 0.49 0.60 0.66 0.67 0.62 0.53 0.50 0.44 0.40 0.35 0.31 0.25 0.20 0.18
0.06 0.06 0.04 0.02 0.01 0.00 0.00 0.00 0.00 0.00 0.00 0.00 0.04 0.23 0.36 0.46 0.41 0.30 0.25 0.26 0.27 0.27 0.28 0.26 0.25 0.24 0.21 0.24 0.27 0.31 0.35 0.38 0.40 0.38 0.35 0.32 0.30 0.29 0.27 0.25 0.23 0.20 0.20 0.19
0.03 0.06 0.09 0.10 0.06 0.02 0.01 0.00 0.00 0.00 0.00 0.00 0.04 0.28 0.44 0.49 0.49 0.41 0.40 0.44 0.47 0.42 0.35 0.31 0.29 0.26 0.25 0.25 0.26 0.25 0.25 0.24 0.24 0.23 0.24 0.23 0.24 0.24 0.25 0.26 0.26 0.24 0.23 0.22
0.02 0.04 0.11 0.22 0.20 0.07 0.03 0.01 0.01 0.01 0.01 0.03 0.11 0.29 0.42 0.52 0.57 0.66 0.73 0.67 0.56 0.44 0.37 0.39 0.42 0.41 0.34 0.27 0.25 0.24 0.24 0.21 0.20 0.19 0.19 0.19 0.19 0.21 0.22 0.22 0.23 0.23 0.23 0.24
0.02 0.05 0.06 0.10 0.08 0.08 0.07 0.07 0.05 0.05 0.05 0.12 0.24 0.38 0.58 0.78 0.87 0.95 0.93 0.72 0.53 0.45 0.45 0.50 0.52 0.46 0.40 0.36 0.33 0.29 0.29 0.26 0.24 0.24 0.25 0.24 0.24 0.24 0.25 0.26 0.27 0.27 0.25 0.22
0.01 0.04 0.05 0.08 0.08 0.08 0.12 0.13 0.14 0.17 0.19 0.25 0.40 0.63 0.94 1.09 1.06 1.08 1.06 0.89 0.71 0.63 0.63 0.60 0.58 0.55 0.52 0.49 0.45 0.41 0.38 0.36 0.35 0.36 0.37 0.37 0.37 0.36 0.34 0.30 0.26 0.21 0.17 0.13
0.01 0.03 0.04 0.07 0.08 0.11 0.20 0.20 0.18 0.23 0.30 0.39 0.54 0.68 0.88 1.00 1.07 1.13 1.20 1.11 0.90 0.78 0.75 0.72 0.69 0.66 0.63 0.62 0.58 0.55 0.52 0.49 0.47 0.47 0.48 0.47 0.43 0.38 0.30 0.20 0.14 0.10 0.08 0.06
0.01 0.03 0.04 0.05 0.08 0.18 0.21 0.13 0.18 0.27 0.31 0.38 0.43 0.53 0.66 0.72 0.77 0.81 0.85 0.86 0.82 0.77 0.75 0.74 0.76 0.77 0.73 0.68 0.63 0.60 0.57 0.53 0.50 0.49 0.47 0.41 0.34 0.26 0.17 0.10 0.07 0.06 0.05 0.04
0.01 0.03 0.05 0.06 0.09 0.17 0.22 0.12 0.12 0.26 0.42 0.41 0.41 0.40 0.43 0.43 0.43 0.52 0.60 0.62 0.67 0.76 0.80 0.81 0.81 0.75 0.69 0.62 0.58 0.57 0.57 0.53 0.47 0.41 0.33 0.23 0.16 0.11 0.07 0.05 0.04 0.04 0.03 0.02
0.02 0.03 0.07 0.11 0.17 0.25 0.29 0.12 0.08 0.21 0.54 0.51 0.53 0.51 0.51 0.53 0.51 0.50 0.50 0.50 0.54 0.57 0.59 0.56 0.52 0.48 0.46 0.45 0.44 0.41 0.38 0.32 0.26 0.18 0.12 0.08 0.06 0.04 0.04 0.03 0.03 0.02 0.02 0.02
0.09 0.08 0.11 0.17 0.25 0.31 0.14 0.06 0.14 0.36 0.54 0.59 0.53 0.45 0.45 0.49 0.44 0.37 0.36 0.37 0.37 0.38 0.36 0.32 0.29 0.30 0.31 0.29 0.26 0.22 0.18 0.14 0.09 0.06 0.04 0.03 0.03 0.02 0.02 0.02 0.02 0.02 0.02 0.03
0.11 0.15 0.19 0.23 0.32 0.37 0.14 0.09 0.22 0.32 0.38 0.42 0.35 0.29 0.27 0.23 0.20 0.17 0.16 0.17 0.19 0.20 0.18 0.16 0.16 0.16 0.14 0.12 0.10 0.09 0.08 0.05 0.03 0.02 0.02 0.02 0.01 0.01 0.01 0.02 0.02 0.02 0.03 0.04
0.04 0.07 0.13 0.23 0.33 0.30 0.16 0.15 0.20 0.27 0.36 0.30 0.20 0.13 0.10 0.08 0.07 0.07 0.08 0.09 0.10 0.10 0.09 0.09 0.08 0.07 0.08 0.07 0.07 0.06 0.05 0.04 0.04 0.05 0.04 0.03 0.02 0.01 0.01 0.02 0.03 0.04 0.05 0.04
0.03 0.01 0.03 0.09 0.18 0.18 0.17 0.16 0.16 0.17 0.22 0.19 0.14 0.11 0.05 0.02 0.03 0.04 0.06 0.06 0.06 0.06 0.06 0.06 0.06 0.07 0.08 0.07 0.08 0.09 0.08 0.08 0.10 0.11 0.08 0.05 0.04 0.04 0.04 0.04 0.04 0.05 0.06 0.04
0.02 0.01 0.02 0.07 0.14 0.19 0.24 0.17 0.12 0.12 0.13 0.13 0.13 0.11 0.05 0.02 0.02 0.03 0.04 0.04 0.04 0.05 0.06 0.06 0.07 0.07 0.06 0.06 0.07 0.08 0.09 0.11 0.14 0.13 0.08 0.05 0.04 0.04 0.05 0.06 0.05 0.03 0.04 0.01
0.01 0.01 0.04 0.10 0.13 0.21 0.27 0.19 0.12 0.16 0.17 0.16 0.14 0.10 0.08 0.04 0.04 0.04 0.05 0.05 0.06 0.06 0.05 0.05 0.05 0.04 0.03 0.03 0.03 0.04 0.07 0.08 0.09 0.10 0.06 0.03 0.03 0.03 0.04 0.07 0.08 0.03 0.01 0.00

GEFSCGP_prec_meanprecacc_054.txt.gz
Total_Precipitation_Accumulation
0.00 0.00 0.00 0.00 0.00 0.00 0.00 0.00 0.00 0.00 0.00 0.00 0.00 0.01 0.01 0.00 0.00 0.01 0.02 0.01 0.03 0.05 0.08 0.15 0.18 0.20 0.19 0.20 0.19 0.18 0.17 0.23 0.31 0.41 0.53 0.66 0.80 0.87 0.86 0.92 1.03 1.20 1.33 1.40
0.00 0.00 0.00 0.00 0.00 0.00 0.00 0.00 0.00 0.00 0.00 0.00 0.00 0.01 0.01 0.00 0.01 0.03 0.07 0.08 0.10 0.12 0.13 0.19 0.24 0.36 0.35 0.31 0.27 0.26 0.32 0.47 0.69 0.94 1.17 1.36 1.49 1.58 1.61 1.65 1.76 1.84 1.95 2.02
0.00 0.00 0.00 0.00 0.00 0.00 0.00 0.00 0.00 0.00 0.00 0.00 0.00 0.01 0.01 0.01 0.01 0.02 0.10 0.21 0.22 0.27 0.27 0.19 0.23 0.34 0.42 0.40 0.41 0.42 0.50 0.82 1.21 1.53 1.82 2.08 2.31 2.44 2.43 2.35 2.35 2.38 2.41 2.40
0.00 0.00 0.00 0.00 0.00 0.00 0.00 0.00 0.00 0.00 0.01 0.00 0.01 0.05 0.05 0.04 0.03 0.03 0.09 0.14 0.19 0.27 0.29 0.22 0.22 0.30 0.34 0.44 0.52 0.57 0.71 1.04 1.42 1.77 2.23 2.61 2.83 2.99 3.17 3.09 2.94 2.73 2.51 2.42
0.00 0.00 0.00 0.00 0.00 0.00 0.00 0.00 0.00 0.00 0.00 0.00 0.00 0.06 0.16 0.10 0.09 0.06 0.06 0.07 0.11 0.13 0.17 0.20 0.24 0.32 0.40 0.47 0.49 0.59 0.84 1.24 1.83 2.36 2.76 2.97 3.16 3.29 3.29 3.11 2.86 2.56 2.26 1.90
0.00 0.00 0.00 0.00 0.00 0.00 0.00 0.00 0.00 0.00 0.00 0.00 0.00 0.04 0.20 0.25 0.18 0.10 0.07 0.07 0.09 0.10 0.11 0.13 0.20 0.35 0.47 0.47 0.50 0.68 0.99 1.56 2.15 2.58 2.94 3.15 3.22 3.12 2.94 2.65 2.27 1.99 1.72 1.38
0.02 0.00 0.00 0.00 0.00 0.00 0.00 0.00 0.00 0.00 0.00 0.00 0.01 0.06 0.25 0.36 0.20 0.09 0.08 0.10 0.12 0.13 0.15 0.19 0.25 0.37 0.52 0.57 0.70 0.96 1.30 1.73 2.03 2.31 2.54 2.59 2.58 2.49 2.36 2.17 1.95 1.72 1.42 1.09
0.06 0.03 0.00 0.00 0.00 0.00 0.00 0.00 0.00 0.00 0.00 0.01 0.03 0.13 0.23 0.21 0.13 0.09 0.09 0.11 0.13 0.18 0.21 0.27 0.39 0.51 0.63 0.71 0.77 1.00 1.30 1.59 1.73 1.83 1.96 2.00 1.98 1.99 1.93 1.76 1.55 1.31 1.07 0.86
0.08 0.06 0.01 0.00 0.00 0.00 0.00 0.00 0.00 0.00 0.00 0.04 0.11 0.21 0.28 0.21 0.12 0.09 0.10 0.11 0.15 0.19 0.22 0.31 0.43 0.53 0.61 0.65 0.75 0.88 1.05 1.25 1.37 1.47 1.52 1.52 1.51 1.45 1.38 1.21 1.02 0.87 0.74 0.59
0.09 0.07 0.02 0.00 0.00 0.00 0.00 0.00 0.00 0.00 0.01 0.08 0.17 0.24 0.33 0.31 0.20 0.15 0.13 0.16 0.18 0.20 0.25 0.32 0.38 0.43 0.46 0.49 0.59 0.69 0.80 0.89 1.00 1.07 1.07 1.02 0.95 0.90 0.83 0.73 0.64 0.51 0.41 0.34
0.13 0.13 0.06 0.01 0.00 0.00 0.00 0.00 0.00 0.00 0.01 0.06 0.20 0.43 0.52 0.52 0.41 0.25 0.21 0.23 0.22 0.23 0.28 0.31 0.33 0.35 0.33 0.33 0.41 0.48 0.54 0.66 0.73 0.73 0.68 0.60 0.56 0.51 0.46 0.43 0.39 0.33 0.28 0.25
0.10 0.16 0.13 0.05 0.02 0.01 0.00 0.00 0.00 0.00 0.00 0.02 0.15 0.63 0.79 0.78 0.59 0.38 0.28 0.29 0.29 0.30 0.31 0.29 0.28 0.26 0.24 0.26 0.30 0.34 0.38 0.41 0.43 0.41 0.38 0.35 0.33 0.33 0.32 0.31 0.30 0.28 0.27 0.26
0.05 0.16 0.21 0.20 0.10 0.03 0.01 0.00 0.00 0.00 0.00 0.01 0.12 0.58 0.77 0.76 0.61 0.48 0.44 0.46 0.49 0.45 0.38 0.35 0.32 0.28 0.26 0.27 0.28 0.27 0.27 0.25 0.26 0.25 0.26 0.26 0.27 0.28 0.29 0.31 0.32 0.31 0.29 0.28
0.03 0.15 0.33 0.41 0.34 0.12 0.05 0.02 0.01 0.01 0.02 0.06 0.21 0.49 0.66 0.68 0.65 0.72 0.77 0.70 0.59 0.46 0.39 0.41 0.44 0.42 0.36 0.28 0.26 0.25 0.25 0.22 0.21 0.20 0.21 0.21 0.22 0.24 0.26 0.26 0.27 0.27 0.28 0.29
0.03 0.15 0.18 0.18 0.16 0.13 0.10 0.08 0.06 0.05 0.06 0.18 0.41 0.60 0.83 0.94 0.95 1.00 0.97 0.75 0.56 0.47 0.46 0.52 0.54 0.47 0.41 0.37 0.34 0.31 0.30 0.27 0.25 0.25 0.26 0.26 0.26 0.26 0.27 0.29 0.30 0.30 0.29 0.26
0.03 0.12 0.11 0.11 0.10 0.11 0.14 0.14 0.15 0.18 0.21 0.32 0.54 0.81 1.17 1.27 1.16 1.15 1.12 0.94 0.75 0.66 0.65 0.62 0.59 0.56 0.54 0.50 0.46 0.42 0.40 0.37 0.36 0.37 0.39 0.39 0.38 0.38 0.36 0.33 0.29 0.25 0.21 0.16
0.01 0.06 0.09 0.13 0.10 0.13 0.26 0.22 0.20 0.25 0.33 0.45 0.65 0.80 1.01 1.11 1.16 1.22 1.29 1.20 0.98 0.85 0.80 0.76 0.72 0.69 0.66 0.64 0.60 0.57 0.54 0.50 0.48 0.49 0.49 0.48 0.45 0.39 0.31 0.22 0.16 0.13 0.10 0.08
0.01 0.03 0.06 0.08 0.13 0.28 0.29 0.15 0.19 0.29 0.34 0.42 0.49 0.61 0.76 0.80 0.87 0.93 0.97 0.96 0.91 0.84 0.82 0.80 0.81 0.80 0.76 0.70 0.65 0.62 0.58 0.55 0.52 0.51 0.48 0.43 0.35 0.27 0.18 0.12 0.09 0.08 0.07 0.06
0.01 0.03 0.06 0.08 0.17 0.28 0.28 0.13 0.13 0.31 0.49 0.46 0.46 0.43 0.48 0.48 0.49 0.63 0.72 0.72 0.76 0.84 0.87 0.88 0.86 0.79 0.72 0.65 0.60 0.59 0.59 0.55 0.49 0.42 0.34 0.24 0.17 0.12 0.08 0.07 0.06 0.06 0.05 0.04
0.02 0.03 0.07 0.12 0.22 0.35 0.37 0.14 0.09 0.25 0.65 0.60 0.57 0.54 0.55 0.60 0.60 0.58 0.59 0.59 0.63 0.66 0.67 0.64 0.58 0.53 0.50 0.49 0.47 0.44 0.40 0.34 0.27 0.19 0.13 0.09 0.07 0.05 0.04 0.04 0.05 0.04 0.04 0.04
0.09 0.08 0.11 0.18 0.29 0.38 0.16 0.06 0.16 0.45 0.68 0.67 0.58 0.52 0.55 0.65 0.58 0.45 0.43 0.46 0.47 0.47 0.45 0.40 0.37 0.37 0.36 0.33 0.29 0.25 0.20 0.15 0.10 0.06 0.05 0.04 0.03 0.02 0.02 0.03 0.03 0.03 0.04 0.05
0.11 0.15 0.19 0.25 0.36 0.42 0.14 0.10 0.26 0.38 0.42 0.47 0.40 0.37 0.36 0.30 0.25 0.22 0.23 0.26 0.28 0.29 0.26 0.23 0.22 0.21 0.18 0.15 0.13 0.12 0.09 0.06 0.04 0.03 0.03 0.03 0.02 0.01 0.01 0.03 0.04 0.04 0.06 0.08
0.04 0.07 0.14 0.24 0.35 0.31 0.17 0.16 0.21 0.28 0.38 0.33 0.24 0.17 0.13 0.11 0.10 0.10 0.12 0.14 0.16 0.15 0.15 0.13 0.11 0.10 0.11 0.10 0.10 0.09 0.07 0.06 0.05 0.05 0.05 0.03 0.03 0.02 0.02 0.03 0.05 0.06 0.08 0.07
0.03 0.01 0.03 0.09 0.19 0.18 0.17 0.16 0.17 0.19 0.23 0.20 0.17 0.13 0.07 0.05 0.07 0.07 0.09 0.09 0.09 0.10 0.09 0.09 0.09 0.09 0.10 0.10 0.11 0.12 0.09 0.09 0.11 0.12 0.08 0.05 0.05 0.05 0.05 0.06 0.05 0.06 0.08 0.06
0.02 0.01 0.03 0.08 0.14 0.19 0.24 0.17 0.12 0.13 0.14 0.14 0.14 0.12 0.06 0.03 0.04 0.06 0.07 0.07 0.08 0.09 0.09 0.09 0.11 0.10 0.08 0.07 0.08 0.09 0.10 0.12 0.15 0.14 0.09 0.05 0.04 0.05 0.07 0.09 0.06 0.04 0.05 0.01
0.01 0.01 0.05 0.11 0.13 0.21 0.28 0.19 0.12 0.16 0.17 0.17 0.14 0.11 0.09 0.06 0.05 0.06 0.07 0.08 0.09 0.08 0.07 0.07 0.07 0.05 0.04 0.04 0.05 0.05 0.08 0.08 0.10 0.11 0.07 0.04 0.03 0.05 0.06 0.09 0.10 0.04 0.01 0.00

GEFSCGP_prec_meanprecacc_060.txt.gz
Total_Precipitation_Accumulation
0.00 0.00 0.00 0.00 0.00 0.00 0.00 0.00 0.00 0.00 0.00 0.00 0.01 0.02 0.03 0.02 0.02 0.02 0.03 0.03 0.04 0.10 0.16 0.28 0.42 0.54 0.55 0.51 0.46 0.37 0.28 0.30 0.37 0.46 0.59 0.73 0.89 0.95 0.95 1.03 1.15 1.31 1.43 1.50
0.00 0.00 0.00 0.00 0.00 0.00 0.00 0.00 0.00 0.00 0.01 0.00 0.01 0.04 0.06 0.04 0.03 0.05 0.09 0.11 0.15 0.20 0.27 0.45 0.61 0.87 0.90 0.80 0.73 0.61 0.55 0.63 0.81 1.04 1.25 1.45 1.60 1.72 1.77 1.81 1.94 2.05 2.14 2.20
0.00 0.00 0.00 0.00 0.00 0.00 0.00 0.00 0.00 0.00 0.01 0.01 0.02 0.06 0.07 0.07 0.06 0.06 0.13 0.26 0.33 0.45 0.62 0.75 0.87 0.99 1.08 1.01 0.97 0.88 0.86 1.09 1.44 1.73 2.00 2.23 2.47 2.62 2.63 2.55 2.58 2.63 2.64 2.64
0.00 0.00 0.00 0.00 0.00 0.00 0.00 0.00 0.00 0.00 0.02 0.03 0.02 0.09 0.12 0.11 0.10 0.09 0.14 0.20 0.28 0.46 0.67 0.81 0.96 1.14 1.17 1.16 1.18 1.13 1.12 1.34 1.67 2.01 2.45 2.80 3.02 3.20 3.39 3.34 3.19 3.00 2.80 2.70
0.00 0.00 0.00 0.00 0.00 0.00 0.00 0.00 0.00 0.00 0.01 0.03 0.02 0.10 0.25 0.18 0.19 0.16 0.15 0.13 0.19 0.28 0.43 0.61 0.77 1.01 1.19 1.24 1.18 1.17 1.28 1.60 2.16 2.69 3.07 3.28 3.48 3.61 3.60 3.42 3.17 2.89 2.59 2.22
0.00 0.00 0.00 0.00 0.00 0.00 0.00 0.00 0.00 0.00 0.00 0.01 0.01 0.06 0.28 0.34 0.36 0.33 0.23 0.16 0.16 0.20 0.25 0.33 0.47 0.71 0.96 1.02 1.13 1.27 1.45 1.94 2.54 3.00 3.33 3.53 3.59 3.46 3.27 2.99 2.64 2.39 2.12 1.75
0.02 0.01 0.00 0.00 0.00 0.00 0.00 0.00 0.00 0.00 0.00 0.01 0.02 0.09 0.31 0.46 0.36 0.24 0.19 0.18 0.17 0.17 0.21 0.28 0.36 0.52 0.75 0.87 1.12 1.40 1.72 2.11 2.38 2.69 2.93 2.95 2.95 2.87 2.78 2.63 2.43 2.21 1.87 1.47
0.08 0.04 0.01 0.00 0.00 0.00 0.00 0.00 0.00 0.00 0.01 0.02 0.06 0.19 0.34 0.32 0.23 0.17 0.15 0.14 0.17 0.21 0.23 0.31 0.44 0.59 0.73 0.83 0.98 1.30 1.61 1.94 2.04 2.11 2.24 2.28 2.29 2.32 2.28 2.13 1.92 1.65 1.35 1.10
0.10 0.09 0.02 0.00 0.00 0.00 0.00 0.00 0.00 0.00 0.01 0.05 0.18 0.36 0.53 0.46 0.28 0.21 0.18 0.15 0.18 0.22 0.25 0.34 0.46 0.57 0.65 0.72 0.85 1.01 1.19 1.41 1.59 1.70 1.74 1.73 1.72 1.65 1.58 1.41 1.21 1.04 0.89 0.71
0.11 0.09 0.03 0.01 0.00 0.00 0.00 0.01 0.01 0.00 0.02 0.10 0.23 0.39 0.61 0.68 0.47 0.33 0.23 0.21 0.22 0.23 0.27 0.35 0.41 0.45 0.49 0.53 0.65 0.76 0.88 0.97 1.09 1.17 1.17 1.12 1.07 1.02 0.94 0.84 0.74 0.61 0.49 0.40
0.16 0.15 0.07 0.01 0.01 0.01 0.01 0.01 0.01 0.01 0.02 0.11 0.28 0.59 0.86 1.02 0.89 0.57 0.37 0.31 0.26 0.26 0.30 0.33 0.35 0.37 0.35 0.35 0.44 0.51 0.57 0.70 0.78 0.78 0.72 0.65 0.62 0.57 0.52 0.48 0.44 0.38 0.32 0.29
0.13 0.19 0.15 0.06 0.02 0.01 0.01 0.01 0.01 0.02 0.04 0.10 0.28 0.92 1.31 1.40 1.18 0.80 0.52 0.41 0.35 0.33 0.33 0.31 0.30 0.28 0.26 0.28 0.32 0.36 0.40 0.44 0.45 0.43 0.40 0.37 0.36 0.35 0.35 0.33 0.32 0.30 0.29 0.28
0.08 0.20 0.27 0.24 0.12 0.04 0.02 0.03 0.03 0.05 0.04 0.10 0.26 0.91 1.29 1.24 1.06 0.86 0.70 0.60 0.56 0.49 0.41 0.37 0.34 0.30 0.28 0.29 0.29 0.28 0.28 0.27 0.27 0.27 0.27 0.27 0.28 0.30 0.31 0.32 0.33 0.32 0.30 0.29
0.04 0.19 0.40 0.47 0.38 0.14 0.08 0.07 0.05 0.03 0.06 0.15 0.33 0.66 0.91 0.97 0.94 0.96 0.96 0.82 0.65 0.50 0.42 0.44 0.47 0.44 0.37 0.30 0.27 0.26 0.26 0.23 0.21 0.21 0.22 0.22 0.23 0.25 0.26 0.27 0.27 0.27 0.28 0.30
0.06 0.22 0.25 0.23 0.21 0.17 0.15 0.12 0.10 0.09 0.10 0.25 0.50 0.72 1.02 1.18 1.14 1.13 1.07 0.83 0.61 0.50 0.50 0.54 0.56 0.49 0.42 0.38 0.34 0.31 0.30 0.27 0.25 0.25 0.26 0.26 0.26 0.26 0.27 0.29 0.30 0.30 0.29 0.26
0.04 0.16 0.17 0.17 0.14 0.17 0.21 0.20 0.20 0.23 0.27 0.37 0.61 0.91 1.34 1.46 1.32 1.27 1.21 1.00 0.79 0.70 0.68 0.66 0.63 0.59 0.55 0.51 0.47 0.43 0.40 0.38 0.37 0.38 0.39 0.39 0.38 0.38 0.36 0.33 0.29 0.25 0.21 0.16
0.03 0.10 0.16 0.23 0.17 0.22 0.37 0.32 0.26 0.30 0.38 0.50 0.71 0.93 1.13 1.24 1.29 1.31 1.37 1.25 1.02 0.89 0.84 0.80 0.76 0.72 0.68 0.65 0.61 0.57 0.54 0.51 0.49 0.49 0.49 0.48 0.45 0.39 0.31 0.22 0.16 0.13 0.10 0.08
0.02 0.07 0.14 0.17 0.21 0.44 0.42 0.21 0.23 0.34 0.37 0.46 0.53 0.65 0.83 0.89 0.96 1.01 1.05 1.02 0.95 0.88 0.86 0.84 0.83 0.82 0.77 0.71 0.66 0.62 0.59 0.55 0.53 0.51 0.48 0.43 0.35 0.27 0.18 0.12 0.09 0.08 0.07 0.06
0.02 0.05 0.12 0.14 0.25 0.41 0.36 0.18 0.16 0.33 0.51 0.49 0.49 0.46 0.50 0.53 0.56 0.71 0.82 0.80 0.83 0.89 0.91 0.90 0.88 0.81 0.73 0.66 0.61 0.60 0.59 0.55 0.49 0.43 0.34 0.25 0.17 0.12 0.08 0.07 0.07 0.06 0.05 0.04
0.02 0.05 0.11 0.16 0.27 0.44 0.44 0.18 0.11 0.26 0.68 0.66 0.61 0.56 0.58 0.63 0.64 0.64 0.67 0.66 0.69 0.71 0.72 0.68 0.61 0.55 0.52 0.51 0.48 0.45 0.41 0.34 0.28 0.19 0.13 0.10 0.07 0.05 0.05 0.05 0.05 0.04 0.04 0.04
0.09 0.09 0.13 0.20 0.33 0.41 0.18 0.07 0.17 0.48 0.71 0.71 0.62 0.55 0.58 0.69 0.63 0.48 0.46 0.49 0.51 0.51 0.50 0.45 0.41 0.40 0.38 0.34 0.30 0.25 0.20 0.16 0.11 0.07 0.05 0.04 0.03 0.02 0.02 0.03 0.03 0.03 0.04 0.06
0.12 0.16 0.20 0.27 0.39 0.43 0.15 0.11 0.27 0.39 0.43 0.48 0.43 0.41 0.40 0.34 0.27 0.23 0.24 0.28 0.31 0.32 0.30 0.27 0.25 0.23 0.20 0.17 0.14 0.13 0.10 0.07 0.04 0.03 0.03 0.03 0.02 0.01 0.01 0.03 0.04 0.04 0.06 0.08
0.04 0.07 0.14 0.24 0.36 0.32 0.17 0.16 0.21 0.28 0.38 0.34 0.26 0.19 0.15 0.12 0.11 0.11 0.13 0.16 0.18 0.18 0.18 0.16 0.13 0.12 0.13 0.12 0.11 0.10 0.08 0.06 0.05 0.06 0.05 0.03 0.03 0.02 0.02 0.04 0.05 0.06 0.08 0.08
0.03 0.01 0.03 0.09 0.19 0.19 0.17 0.16 0.17 0.19 0.24 0.21 0.17 0.13 0.07 0.05 0.07 0.09 0.11 0.11 0.11 0.12 0.11 0.11 0.10 0.11 0.12 0.12 0.12 0.12 0.10 0.09 0.11 0.12 0.08 0.05 0.05 0.05 0.05 0.06 0.05 0.06 0.08 0.06
0.02 0.01 0.03 0.08 0.14 0.19 0.24 0.17 0.12 0.13 0.14 0.14 0.14 0.12 0.06 0.03 0.05 0.07 0.09 0.09 0.10 0.11 0.11 0.10 0.12 0.12 0.09 0.08 0.09 0.09 0.10 0.12 0.15 0.14 0.09 0.05 0.04 0.06 0.07 0.09 0.06 0.04 0.05 0.01
0.01 0.01 0.05 0.11 0.13 0.21 0.28 0.19 0.12 0.16 0.17 0.17 0.14 0.11 0.09 0.06 0.05 0.06 0.08 0.10 0.10 0.09 0.08 0.08 0.08 0.06 0.05 0.05 0.06 0.06 0.08 0.09 0.10 0.11 0.07 0.04 0.03 0.05 0.06 0.09 0.10 0.04 0.01 0.00

GEFSCGP_prec_meanprecacc_066.txt.gz
Total_Precipitation_Accumulation
0.00 0.00 0.00 0.00 0.00 0.00 0.00 0.00 0.00 0.00 0.00 0.00 0.01 0.02 0.03 0.03 0.02 0.03 0.04 0.03 0.05 0.11 0.18 0.31 0.47 0.63 0.69 0.71 0.71 0.65 0.58 0.61 0.68 0.77 0.83 0.94 1.06 1.12 1.14 1.21 1.32 1.50 1.64 1.71
0.00 0.00 0.00 0.00 0.00 0.00 0.00 0.00 0.01 0.01 0.01 0.01 0.02 0.06 0.07 0.05 0.04 0.06 0.10 0.12 0.16 0.21 0.29 0.48 0.66 0.95 1.03 0.97 0.97 0.98 0.98 1.09 1.27 1.50 1.67 1.81 1.96 2.06 2.09 2.11 2.23 2.34 2.47 2.54
0.00 0.00 0.00 0.00 0.00 0.00 0.00 0.00 0.01 0.01 0.03 0.03 0.04 0.09 0.10 0.11 0.09 0.09 0.16 0.29 0.36 0.48 0.65 0.79 0.93 1.06 1.21 1.25 1.29 1.35 1.46 1.72 2.06 2.33 2.57 2.72 2.91 3.04 2.97 2.83 2.87 2.96 3.02 3.03
0.00 0.00 0.00 0.00 0.00 0.00 0.00 0.00 0.00 0.00 0.03 0.04 0.04 0.12 0.16 0.16 0.15 0.13 0.19 0.26 0.33 0.51 0.72 0.86 1.01 1.21 1.30 1.38 1.47 1.57 1.77 2.12 2.49 2.80 3.18 3.43 3.52 3.63 3.77 3.67 3.52 3.34 3.15 3.05
0.00 0.00 0.00 0.00 0.00 0.00 0.00 0.00 0.00 0.00 0.01 0.03 0.03 0.12 0.30 0.24 0.24 0.21 0.21 0.20 0.26 0.34 0.49 0.67 0.83 1.10 1.30 1.39 1.40 1.48 1.80 2.28 2.87 3.45 3.81 4.00 4.10 4.09 4.02 3.80 3.53 3.23 2.91 2.53
0.01 0.00 0.00 0.00 0.00 0.00 0.00 0.00 0.00 0.00 0.00 0.02 0.02 0.08 0.32 0.39 0.41 0.38 0.29 0.24 0.24 0.26 0.31 0.39 0.54 0.79 1.05 1.14 1.33 1.54 1.85 2.45 3.10 3.56 3.88 4.09 4.13 3.93 3.68 3.33 2.92 2.66 2.39 2.02
0.02 0.01 0.00 0.00 0.00 0.00 0.00 0.00 0.00 0.00 0.00 0.02 0.04 0.12 0.36 0.52 0.42 0.30 0.26 0.26 0.27 0.24 0.27 0.33 0.42 0.59 0.83 0.98 1.27 1.61 2.00 2.48 2.87 3.26 3.52 3.55 3.52 3.36 3.21 2.99 2.73 2.48 2.12 1.74
0.08 0.04 0.01 0.00 0.00 0.00 0.00 0.00 0.00 0.00 0.01 0.03 0.10 0.25 0.42 0.40 0.30 0.24 0.23 0.21 0.24 0.28 0.31 0.37 0.51 0.66 0.80 0.91 1.07 1.41 1.76 2.17 2.36 2.48 2.66 2.72 2.74 2.73 2.62 2.44 2.20 1.93 1.62 1.36
0.10 0.09 0.02 0.00 0.00 0.00 0.00 0.00 0.00 0.00 0.01 0.05 0.22 0.40 0.62 0.59 0.38 0.30 0.27 0.22 0.24 0.26 0.30 0.39 0.51 0.63 0.71 0.77 0.92 1.10 1.29 1.53 1.75 1.90 1.94 1.96 1.98 1.89 1.80 1.65 1.43 1.25 1.09 0.88
0.11 0.09 0.03 0.01 0.01 0.00 0.01 0.01 0.01 0.01 0.02 0.10 0.27 0.45 0.69 0.83 0.62 0.48 0.33 0.29 0.29 0.28 0.32 0.40 0.45 0.49 0.53 0.57 0.69 0.81 0.95 1.07 1.20 1.27 1.27 1.24 1.21 1.17 1.09 0.99 0.90 0.74 0.58 0.46
0.16 0.15 0.07 0.02 0.01 0.02 0.01 0.01 0.01 0.02 0.03 0.11 0.30 0.63 0.93 1.13 1.07 0.79 0.52 0.40 0.32 0.32 0.36 0.37 0.38 0.41 0.38 0.39 0.48 0.56 0.63 0.76 0.84 0.85 0.80 0.72 0.70 0.65 0.60 0.55 0.52 0.44 0.36 0.31
0.13 0.19 0.15 0.06 0.03 0.02 0.01 0.02 0.02 0.02 0.05 0.10 0.29 0.95 1.39 1.51 1.38 1.04 0.72 0.53 0.44 0.39 0.38 0.36 0.33 0.31 0.28 0.30 0.34 0.39 0.43 0.48 0.50 0.48 0.45 0.41 0.40 0.39 0.38 0.36 0.34 0.32 0.31 0.29
0.08 0.20 0.27 0.24 0.13 0.04 0.03 0.03 0.04 0.06 0.05 0.11 0.27 0.95 1.35 1.31 1.16 0.98 0.81 0.71 0.66 0.58 0.47 0.42 0.38 0.33 0.31 0.31 0.31 0.30 0.30 0.29 0.30 0.30 0.30 0.30 0.30 0.31 0.32 0.33 0.34 0.33 0.32 0.30
0.04 0.19 0.40 0.47 0.38 0.15 0.09 0.08 0.06 0.04 0.06 0.15 0.34 0.68 0.96 1.03 1.01 1.04 1.05 0.91 0.75 0.60 0.50 0.50 0.52 0.48 0.40 0.32 0.29 0.27 0.27 0.25 0.23 0.23 0.23 0.23 0.24 0.25 0.27 0.28 0.28 0.28 0.29 0.30
0.06 0.22 0.25 0.24 0.22 0.18 0.17 0.14 0.11 0.09 0.10 0.26 0.52 0.73 1.03 1.21 1.19 1.19 1.15 0.94 0.75 0.63 0.59 0.62 0.62 0.55 0.46 0.41 0.36 0.33 0.32 0.29 0.27 0.26 0.27 0.27 0.27 0.27 0.28 0.30 0.31 0.31 0.29 0.27
0.05 0.17 0.18 0.19 0.16 0.19 0.23 0.22 0.21 0.24 0.28 0.38 0.62 0.92 1.35 1.49 1.37 1.31 1.26 1.09 0.93 0.84 0.80 0.76 0.70 0.64 0.59 0.54 0.49 0.45 0.42 0.39 0.38 0.39 0.40 0.40 0.39 0.38 0.36 0.33 0.29 0.25 0.21 0.16
0.03 0.10 0.17 0.24 0.19 0.24 0.38 0.33 0.27 0.31 0.39 0.51 0.72 0.94 1.15 1.27 1.33 1.36 1.42 1.33 1.12 1.00 0.94 0.90 0.87 0.80 0.73 0.68 0.62 0.58 0.55 0.51 0.49 0.49 0.50 0.49 0.45 0.39 0.31 0.22 0.16 0.13 0.10 0.08
0.03 0.07 0.15 0.18 0.23 0.46 0.43 0.22 0.25 0.35 0.39 0.48 0.54 0.66 0.84 0.92 1.00 1.07 1.12 1.11 1.05 0.96 0.93 0.91 0.89 0.88 0.82 0.75 0.68 0.63 0.59 0.56 0.53 0.51 0.49 0.43 0.35 0.27 0.18 0.12 0.09 0.08 0.07 0.06
0.02 0.06 0.12 0.15 0.26 0.42 0.37 0.19 0.18 0.36 0.54 0.51 0.50 0.47 0.52 0.55 0.59 0.77 0.89 0.91 0.94 1.00 1.00 0.97 0.91 0.82 0.75 0.68 0.63 0.61 0.60 0.56 0.49 0.43 0.34 0.25 0.17 0.12 0.08 0.07 0.07 0.06 0.05 0.04
0.02 0.05 0.11 0.16 0.29 0.44 0.44 0.19 0.12 0.28 0.72 0.70 0.63 0.58 0.59 0.65 0.67 0.69 0.73 0.74 0.80 0.84 0.83 0.76 0.66 0.57 0.53 0.52 0.49 0.45 0.41 0.35 0.28 0.20 0.13 0.10 0.07 0.05 0.05 0.05 0.05 0.04 0.04 0.04
0.09 0.09 0.13 0.20 0.33 0.41 0.18 0.08 0.18 0.49 0.74 0.78 0.65 0.57 0.60 0.72 0.66 0.52 0.50 0.55 0.57 0.60 0.58 0.52 0.46 0.43 0.40 0.36 0.31 0.26 0.21 0.16 0.11 0.07 0.05 0.04 0.03 0.02 0.02 0.03 0.03 0.03 0.04 0.06
0.12 0.16 0.20 0.27 0.39 0.43 0.15 0.11 0.28 0.40 0.44 0.52 0.47 0.44 0.43 0.38 0.32 0.28 0.28 0.32 0.35 0.36 0.35 0.32 0.30 0.27 0.23 0.19 0.15 0.14 0.11 0.07 0.04 0.03 0.03 0.03 0.02 0.01 0.01 0.03 0.04 0.04 0.06 0.08
0.05 0.07 0.14 0.24 0.36 0.32 0.17 0.16 0.21 0.28 0.39 0.36 0.28 0.21 0.16 0.14 0.13 0.13 0.16 0.18 0.21 0.21 0.22 0.21 0.17 0.15 0.15 0.13 0.12 0.10 0.08 0.06 0.05 0.06 0.05 0.03 0.03 0.02 0.02 0.04 0.05 0.06 0.08 0.08
0.03 0.01 0.03 0.09 0.19 0.19 0.17 0.16 0.17 0.19 0.24 0.21 0.17 0.13 0.07 0.06 0.08 0.10 0.12 0.14 0.14 0.15 0.14 0.13 0.13 0.13 0.13 0.13 0.13 0.12 0.10 0.09 0.11 0.12 0.08 0.05 0.05 0.05 0.05 0.06 0.05 0.06 0.08 0.06
0.02 0.01 0.03 0.08 0.14 0.19 0.24 0.17 0.13 0.13 0.14 0.14 0.14 0.12 0.07 0.03 0.05 0.08 0.10 0.11 0.12 0.13 0.13 0.12 0.13 0.12 0.10 0.09 0.09 0.10 0.10 0.12 0.15 0.14 0.09 0.05 0.04 0.06 0.07 0.09 0.06 0.04 0.05 0.01
0.01 0.01 0.05 0.11 0.13 0.21 0.28 0.19 0.12 0.16 0.17 0.17 0.14 0.11 0.09 0.06 0.06 0.06 0.09 0.12 0.12 0.11 0.09 0.09 0.09 0.06 0.05 0.06 0.06 0.07 0.09 0.09 0.10 0.11 0.07 0.04 0.03 0.05 0.06 0.09 0.10 0.04 0.01 0.00

GEFSCGP_prec_meanprecacc_072.txt.gz
Total_Precipitation_Accumulation
0.00 0.00 0.00 0.00 0.00 0.00 0.00 0.00 0.00 0.00 0.00 0.00 0.01 0.03 0.04 0.03 0.03 0.04 0.05 0.04 0.06 0.12 0.20 0.34 0.50 0.67 0.74 0.78 0.78 0.76 0.72 0.78 0.88 1.05 1.18 1.20 1.27 1.27 1.26 1.33 1.44 1.63 1.77 1.84
0.00 0.00 0.00 0.00 0.00 0.00 0.00 0.00 0.01 0.01 0.02 0.02 0.03 0.07 0.08 0.06 0.05 0.07 0.11 0.13 0.17 0.22 0.31 0.51 0.69 0.99 1.08 1.02 1.02 1.06 1.09 1.22 1.39 1.64 1.86 2.03 2.18 2.27 2.28 2.29 2.40 2.52 2.64 2.72
0.00 0.00 0.00 0.00 0.00 0.00 0.00 0.00 0.01 0.01 0.03 0.04 0.06 0.12 0.13 0.13 0.11 0.10 0.18 0.31 0.37 0.49 0.67 0.82 0.95 1.09 1.26 1.31 1.35 1.42 1.56 1.85 2.20 2.50 2.80 3.03 3.27 3.37 3.27 3.10 3.10 3.19 3.23 3.26
0.00 0.00 0.00 0.00 0.00 0.00 0.00 0.00 0.00 0.01 0.03 0.06 0.06 0.15 0.19 0.19 0.17 0.15 0.22 0.29 0.36 0.53 0.74 0.89 1.04 1.24 1.34 1.44 1.56 1.65 1.86 2.25 2.63 2.99 3.41 3.74 3.91 4.06 4.16 4.02 3.84 3.63 3.42 3.32
0.00 0.00 0.00 0.00 0.00 0.00 0.00 0.00 0.00 0.00 0.02 0.04 0.04 0.15 0.34 0.29 0.28 0.25 0.24 0.24 0.29 0.37 0.52 0.69 0.85 1.12 1.34 1.44 1.46 1.54 1.87 2.36 2.99 3.60 4.01 4.27 4.46 4.54 4.47 4.20 3.89 3.54 3.17 2.76
0.01 0.00 0.00 0.00 0.00 0.00 0.00 0.00 0.00 0.00 0.01 0.03 0.03 0.11 0.37 0.46 0.47 0.42 0.32 0.28 0.28 0.30 0.34 0.42 0.56 0.81 1.08 1.18 1.37 1.58 1.90 2.52 3.19 3.67 4.05 4.31 4.47 4.37 4.16 3.81 3.33 3.01 2.67 2.24
0.02 0.01 0.00 0.00 0.00 0.00 0.00 0.00 0.00 0.01 0.01 0.03 0.05 0.16 0.41 0.58 0.48 0.37 0.32 0.30 0.31 0.28 0.30 0.36 0.45 0.62 0.87 1.01 1.31 1.65 2.03 2.53 2.94 3.37 3.69 3.79 3.88 3.85 3.73 3.51 3.17 2.84 2.40 1.96
0.08 0.04 0.01 0.00 0.00 0.00 0.00 0.00 0.01 0.01 0.02 0.05 0.13 0.30 0.47 0.43 0.35 0.32 0.31 0.27 0.29 0.32 0.35 0.43 0.57 0.71 0.85 0.94 1.11 1.45 1.80 2.22 2.44 2.62 2.85 2.95 3.01 3.04 2.93 2.74 2.48 2.17 1.85 1.57
0.10 0.09 0.02 0.00 0.00 0.00 0.00 0.01 0.00 0.00 0.01 0.07 0.26 0.45 0.66 0.63 0.44 0.40 0.38 0.31 0.31 0.31 0.34 0.45 0.57 0.68 0.76 0.81 0.95 1.13 1.33 1.59 1.85 2.04 2.12 2.13 2.13 2.05 1.98 1.82 1.61 1.43 1.26 1.04
0.11 0.09 0.03 0.01 0.01 0.00 0.01 0.01 0.01 0.01 0.03 0.12 0.30 0.50 0.74 0.88 0.70 0.62 0.48 0.39 0.36 0.33 0.37 0.45 0.50 0.52 0.56 0.60 0.72 0.85 0.99 1.12 1.28 1.39 1.41 1.37 1.31 1.27 1.18 1.09 1.00 0.83 0.67 0.54
0.16 0.15 0.07 0.02 0.01 0.02 0.01 0.01 0.02 0.02 0.03 0.13 0.33 0.68 0.98 1.21 1.14 0.89 0.65 0.50 0.39 0.38 0.42 0.43 0.44 0.44 0.41 0.42 0.51 0.59 0.67 0.81 0.90 0.92 0.89 0.81 0.78 0.72 0.68 0.62 0.58 0.50 0.42 0.37
0.13 0.19 0.15 0.06 0.03 0.02 0.02 0.02 0.03 0.04 0.06 0.12 0.32 0.99 1.43 1.57 1.46 1.13 0.81 0.61 0.49 0.44 0.42 0.39 0.38 0.35 0.32 0.33 0.37 0.41 0.46 0.52 0.55 0.52 0.48 0.46 0.46 0.45 0.44 0.42 0.39 0.36 0.35 0.32
0.08 0.20 0.28 0.25 0.14 0.05 0.03 0.04 0.04 0.07 0.07 0.13 0.30 1.00 1.42 1.37 1.25 1.11 0.92 0.78 0.70 0.62 0.50 0.44 0.41 0.36 0.34 0.33 0.33 0.33 0.32 0.32 0.33 0.33 0.33 0.33 0.34 0.35 0.36 0.37 0.37 0.35 0.34 0.32
0.04 0.19 0.41 0.49 0.40 0.16 0.10 0.09 0.07 0.06 0.10 0.19 0.37 0.72 0.99 1.07 1.07 1.14 1.14 0.98 0.80 0.65 0.54 0.54 0.56 0.52 0.43 0.35 0.32 0.30 0.30 0.27 0.26 0.25 0.25 0.25 0.26 0.28 0.30 0.30 0.30 0.30 0.30 0.32
0.06 0.23 0.26 0.24 0.22 0.19 0.18 0.15 0.12 0.12 0.12 0.29 0.55 0.76 1.06 1.24 1.22 1.23 1.20 0.99 0.79 0.68 0.66 0.68 0.67 0.59 0.51 0.46 0.41 0.37 0.35 0.33 0.30 0.30 0.30 0.29 0.28 0.28 0.29 0.30 0.32 0.31 0.30 0.27
0.05 0.18 0.19 0.20 0.17 0.19 0.24 0.23 0.22 0.26 0.30 0.40 0.65 0.95 1.37 1.51 1.39 1.35 1.31 1.17 0.99 0.91 0.89 0.86 0.77 0.69 0.65 0.60 0.55 0.50 0.46 0.43 0.42 0.42 0.43 0.43 0.41 0.40 0.38 0.34 0.30 0.26 0.21 0.16
0.03 0.12 0.20 0.27 0.20 0.26 0.42 0.34 0.29 0.34 0.40 0.53 0.76 0.97 1.17 1.29 1.36 1.41 1.48 1.41 1.20 1.08 1.03 1.02 0.98 0.88 0.79 0.73 0.68 0.63 0.59 0.55 0.53 0.52 0.51 0.51 0.46 0.41 0.32 0.23 0.16 0.13 0.10 0.08
0.03 0.09 0.17 0.22 0.26 0.50 0.46 0.23 0.25 0.36 0.40 0.50 0.56 0.68 0.86 0.94 1.05 1.12 1.19 1.20 1.14 1.04 1.02 1.02 1.00 0.97 0.90 0.80 0.72 0.68 0.65 0.60 0.57 0.54 0.50 0.44 0.36 0.28 0.19 0.13 0.10 0.08 0.07 0.06
0.02 0.07 0.14 0.17 0.28 0.44 0.38 0.20 0.18 0.37 0.56 0.53 0.52 0.48 0.54 0.58 0.64 0.84 0.98 1.00 1.04 1.11 1.12 1.08 1.00 0.90 0.84 0.76 0.69 0.67 0.67 0.62 0.55 0.47 0.36 0.26 0.18 0.13 0.09 0.07 0.07 0.07 0.06 0.05
0.03 0.05 0.13 0.18 0.31 0.46 0.45 0.19 0.12 0.29 0.74 0.73 0.64 0.59 0.60 0.68 0.72 0.75 0.81 0.83 0.88 0.93 0.94 0.86 0.76 0.65 0.60 0.59 0.56 0.51 0.49 0.43 0.34 0.24 0.15 0.11 0.08 0.06 0.05 0.05 0.05 0.05 0.05 0.05
0.10 0.10 0.14 0.22 0.34 0.41 0.19 0.08 0.18 0.50 0.76 0.80 0.69 0.59 0.61 0.75 0.72 0.57 0.56 0.62 0.65 0.67 0.64 0.58 0.54 0.50 0.47 0.41 0.35 0.30 0.25 0.21 0.15 0.10 0.07 0.06 0.04 0.03 0.03 0.03 0.04 0.04 0.05 0.06
0.13 0.16 0.21 0.27 0.40 0.44 0.15 0.11 0.28 0.41 0.45 0.55 0.55 0.50 0.47 0.42 0.36 0.35 0.34 0.37 0.39 0.40 0.38 0.35 0.33 0.30 0.27 0.23 0.19 0.17 0.14 0.09 0.06 0.05 0.05 0.04 0.03 0.01 0.02 0.04 0.05 0.05 0.06 0.09
0.05 0.07 0.14 0.25 0.36 0.32 0.17 0.16 0.21 0.29 0.41 0.39 0.35 0.29 0.22 0.19 0.19 0.19 0.20 0.21 0.23 0.23 0.24 0.24 0.20 0.17 0.17 0.16 0.15 0.13 0.10 0.07 0.06 0.07 0.06 0.04 0.03 0.03 0.03 0.04 0.06 0.07 0.08 0.08
0.03 0.01 0.03 0.09 0.19 0.19 0.17 0.16 0.17 0.19 0.25 0.23 0.21 0.19 0.13 0.11 0.12 0.15 0.16 0.16 0.17 0.18 0.18 0.17 0.15 0.16 0.16 0.15 0.15 0.14 0.11 0.10 0.12 0.13 0.09 0.06 0.06 0.06 0.06 0.06 0.05 0.06 0.08 0.06
0.02 0.01 0.03 0.08 0.14 0.19 0.24 0.17 0.13 0.13 0.14 0.14 0.15 0.14 0.09 0.05 0.07 0.09 0.12 0.14 0.15 0.16 0.15 0.14 0.16 0.16 0.12 0.11 0.11 0.11 0.11 0.13 0.16 0.15 0.10 0.06 0.05 0.06 0.08 0.09 0.06 0.04 0.05 0.01
0.01 0.01 0.05 0.11 0.13 0.21 0.28 0.19 0.12 0.16 0.17 0.17 0.14 0.11 0.10 0.06 0.06 0.07 0.10 0.14 0.15 0.13 0.11 0.12 0.12 0.09 0.08 0.08 0.08 0.08 0.09 0.10 0.13 0.14 0.09 0.05 0.04 0.05 0.06 0.09 0.10 0.04 0.01 0.00

GEFSCGP_prec_meanprecacc_078.txt.gz
Total_Precipitation_Accumulation
0.00 0.00 0.00 0.00 0.00 0.00 0.00 0.00 0.00 0.00 0.00 0.00 0.01 0.04 0.06 0.07 0.05 0.09 0.12 0.10 0.14 0.19 0.22 0.37 0.56 0.72 0.82 0.88 0.92 0.95 0.95 1.04 1.17 1.42 1.63 1.65 1.68 1.82 1.87 1.88 1.92 2.02 2.11 2.21
0.00 0.00 0.00 0.00 0.00 0.00 0.00 0.00 0.01 0.01 0.02 0.02 0.04 0.08 0.12 0.11 0.09 0.14 0.17 0.16 0.20 0.25 0.35 0.60 0.80 1.08 1.16 1.13 1.14 1.20 1.26 1.44 1.63 1.91 2.21 2.51 2.60 2.70 2.72 2.73 2.83 2.87 2.96 3.05
0.00 0.00 0.00 0.00 0.00 0.00 0.00 0.00 0.01 0.01 0.03 0.04 0.07 0.16 0.20 0.20 0.15 0.15 0.22 0.33 0.39 0.51 0.71 0.92 1.08 1.16 1.34 1.42 1.48 1.54 1.71 2.05 2.43 2.78 3.11 3.44 3.67 3.71 3.60 3.39 3.38 3.46 3.50 3.57
0.00 0.00 0.00 0.00 0.00 0.00 0.00 0.00 0.00 0.01 0.03 0.06 0.08 0.22 0.34 0.36 0.28 0.21 0.27 0.32 0.38 0.54 0.76 0.92 1.11 1.31 1.41 1.53 1.68 1.76 1.99 2.44 2.85 3.23 3.72 4.13 4.31 4.45 4.52 4.33 4.06 3.84 3.61 3.54
0.00 0.00 0.00 0.00 0.00 0.00 0.00 0.00 0.00 0.00 0.02 0.06 0.06 0.19 0.49 0.51 0.49 0.39 0.33 0.29 0.32 0.39 0.53 0.71 0.88 1.19 1.44 1.51 1.53 1.62 1.97 2.50 3.17 3.79 4.24 4.61 4.83 4.89 4.80 4.46 4.08 3.69 3.33 2.94
0.01 0.00 0.00 0.00 0.00 0.00 0.00 0.00 0.00 0.01 0.02 0.05 0.05 0.14 0.48 0.71 0.77 0.68 0.46 0.34 0.31 0.32 0.36 0.44 0.59 0.85 1.16 1.24 1.41 1.63 1.96 2.61 3.31 3.82 4.25 4.54 4.74 4.68 4.39 3.97 3.47 3.13 2.78 2.39
0.03 0.01 0.01 0.00 0.00 0.00 0.00 0.01 0.05 0.08 0.07 0.07 0.07 0.20 0.53 0.73 0.67 0.58 0.47 0.38 0.35 0.30 0.32 0.39 0.47 0.64 0.90 1.08 1.36 1.69 2.08 2.59 3.04 3.50 3.84 4.01 4.13 4.08 3.96 3.69 3.31 2.98 2.55 2.11
0.08 0.05 0.01 0.00 0.00 0.00 0.00 0.01 0.07 0.13 0.12 0.14 0.20 0.38 0.65 0.59 0.46 0.44 0.43 0.35 0.34 0.36 0.38 0.46 0.60 0.74 0.88 1.01 1.20 1.50 1.85 2.27 2.51 2.71 2.98 3.13 3.23 3.22 3.07 2.88 2.61 2.30 1.97 1.70
0.10 0.09 0.02 0.00 0.00 0.00 0.00 0.01 0.01 0.03 0.05 0.14 0.36 0.59 0.83 0.78 0.51 0.45 0.43 0.35 0.35 0.34 0.37 0.48 0.61 0.71 0.80 0.88 1.04 1.20 1.38 1.64 1.90 2.10 2.21 2.27 2.29 2.19 2.08 1.91 1.70 1.53 1.35 1.13
0.11 0.09 0.04 0.01 0.01 0.00 0.01 0.01 0.01 0.02 0.07 0.20 0.40 0.68 0.98 1.07 0.79 0.66 0.52 0.43 0.40 0.36 0.40 0.48 0.54 0.57 0.61 0.65 0.78 0.92 1.03 1.17 1.35 1.47 1.50 1.45 1.41 1.36 1.26 1.14 1.04 0.89 0.75 0.62
0.16 0.15 0.07 0.02 0.01 0.02 0.01 0.01 0.02 0.03 0.05 0.20 0.47 0.88 1.19 1.39 1.26 0.95 0.69 0.55 0.44 0.42 0.45 0.46 0.47 0.48 0.45 0.46 0.55 0.64 0.71 0.85 0.96 0.98 0.95 0.87 0.82 0.77 0.72 0.66 0.62 0.53 0.46 0.40
0.13 0.19 0.16 0.07 0.04 0.02 0.02 0.02 0.03 0.08 0.10 0.17 0.43 1.18 1.56 1.72 1.58 1.20 0.86 0.69 0.56 0.49 0.47 0.43 0.41 0.39 0.37 0.39 0.43 0.46 0.51 0.56 0.59 0.57 0.52 0.50 0.49 0.48 0.47 0.45 0.42 0.39 0.37 0.34
0.08 0.21 0.32 0.32 0.21 0.07 0.04 0.04 0.05 0.09 0.12 0.20 0.44 1.19 1.54 1.48 1.34 1.18 1.00 0.85 0.75 0.65 0.54 0.48 0.46 0.41 0.40 0.42 0.40 0.36 0.35 0.35 0.36 0.36 0.35 0.35 0.37 0.38 0.39 0.41 0.41 0.39 0.37 0.35
0.04 0.19 0.45 0.61 0.52 0.20 0.12 0.09 0.08 0.08 0.17 0.27 0.49 0.86 1.12 1.17 1.15 1.22 1.25 1.06 0.85 0.68 0.56 0.56 0.58 0.55 0.48 0.43 0.41 0.37 0.34 0.30 0.28 0.28 0.27 0.27 0.28 0.30 0.32 0.33 0.32 0.32 0.33 0.34
0.06 0.23 0.26 0.25 0.24 0.20 0.19 0.16 0.13 0.13 0.15 0.34 0.63 0.87 1.19 1.37 1.31 1.31 1.29 1.05 0.82 0.71 0.69 0.70 0.69 0.62 0.54 0.51 0.48 0.43 0.40 0.36 0.33 0.32 0.32 0.31 0.30 0.30 0.32 0.33 0.33 0.33 0.31 0.28
0.05 0.18 0.20 0.21 0.17 0.20 0.24 0.23 0.23 0.28 0.31 0.41 0.71 1.06 1.48 1.58 1.45 1.39 1.35 1.19 1.01 0.93 0.92 0.89 0.82 0.74 0.70 0.67 0.63 0.57 0.51 0.48 0.46 0.45 0.45 0.45 0.43 0.42 0.40 0.36 0.31 0.27 0.22 0.16
0.04 0.15 0.27 0.32 0.21 0.28 0.46 0.35 0.29 0.35 0.41 0.56 0.83 1.06 1.24 1.34 1.40 1.44 1.50 1.44 1.24 1.11 1.06 1.05 1.02 0.94 0.86 0.81 0.77 0.73 0.66 0.60 0.57 0.56 0.55 0.54 0.49 0.43 0.34 0.25 0.18 0.14 0.11 0.09
0.04 0.14 0.24 0.29 0.32 0.60 0.52 0.23 0.25 0.37 0.41 0.52 0.62 0.74 0.91 0.98 1.08 1.15 1.23 1.24 1.19 1.08 1.06 1.05 1.04 1.02 0.98 0.89 0.80 0.76 0.70 0.64 0.60 0.58 0.53 0.48 0.39 0.30 0.22 0.15 0.12 0.10 0.09 0.07
0.02 0.10 0.20 0.26 0.41 0.52 0.44 0.21 0.19 0.39 0.60 0.55 0.55 0.52 0.56 0.60 0.66 0.89 1.02 1.04 1.09 1.15 1.18 1.13 1.07 0.98 0.92 0.85 0.77 0.73 0.71 0.65 0.58 0.51 0.40 0.30 0.22 0.16 0.12 0.10 0.10 0.09 0.08 0.06
0.03 0.06 0.18 0.26 0.45 0.58 0.54 0.21 0.12 0.31 0.82 0.77 0.67 0.61 0.62 0.70 0.76 0.80 0.85 0.86 0.93 0.99 1.00 0.93 0.83 0.73 0.67 0.66 0.63 0.58 0.54 0.47 0.38 0.29 0.21 0.16 0.14 0.11 0.09 0.08 0.08 0.07 0.07 0.06
0.13 0.13 0.19 0.29 0.44 0.53 0.23 0.09 0.18 0.55 0.86 0.83 0.71 0.62 0.64 0.80 0.79 0.62 0.60 0.65 0.69 0.74 0.72 0.66 0.61 0.58 0.54 0.49 0.43 0.37 0.31 0.27 0.20 0.16 0.14 0.12 0.10 0.08 0.07 0.07 0.06 0.06 0.06 0.08
0.17 0.20 0.25 0.33 0.49 0.56 0.18 0.12 0.30 0.45 0.47 0.57 0.57 0.54 0.53 0.49 0.40 0.37 0.38 0.41 0.44 0.46 0.46 0.42 0.41 0.38 0.34 0.30 0.26 0.24 0.20 0.15 0.11 0.11 0.12 0.11 0.08 0.04 0.05 0.08 0.08 0.07 0.09 0.11
0.07 0.10 0.17 0.30 0.44 0.37 0.18 0.16 0.22 0.29 0.42 0.40 0.37 0.33 0.26 0.23 0.21 0.22 0.24 0.26 0.28 0.28 0.30 0.30 0.26 0.23 0.23 0.22 0.21 0.19 0.15 0.12 0.10 0.11 0.12 0.10 0.07 0.06 0.05 0.07 0.08 0.09 0.10 0.09
0.05 0.02 0.04 0.10 0.19 0.19 0.17 0.17 0.17 0.19 0.25 0.23 0.22 0.21 0.16 0.15 0.18 0.20 0.22 0.21 0.21 0.23 0.23 0.23 0.21 0.20 0.20 0.19 0.19 0.18 0.14 0.14 0.16 0.18 0.14 0.11 0.10 0.08 0.07 0.08 0.07 0.07 0.09 0.07
0.11 0.07 0.04 0.09 0.15 0.20 0.25 0.17 0.13 0.13 0.14 0.15 0.17 0.16 0.13 0.10 0.13 0.16 0.19 0.20 0.21 0.21 0.21 0.20 0.22 0.20 0.16 0.15 0.15 0.13 0.14 0.16 0.21 0.21 0.15 0.11 0.09 0.09 0.10 0.10 0.06 0.04 0.05 0.02
0.03 0.04 0.06 0.13 0.14 0.21 0.28 0.19 0.12 0.16 0.17 0.17 0.15 0.13 0.13 0.10 0.10 0.13 0.16 0.20 0.20 0.17 0.16 0.19 0.19 0.15 0.13 0.12 0.12 0.11 0.12 0.14 0.18 0.20 0.14 0.08 0.06 0.07 0.07 0.10 0.11 0.04 0.01 0.00

GEFSCGP_prec_meanprecacc_084.txt.gz
Total_Precipitation_Accumulation
0.00 0.00 0.00 0.00 0.00 0.00 0.00 0.00 0.00 0.00 0.00 0.01 0.02 0.05 0.08 0.14 0.15 0.16 0.16 0.14 0.18 0.25 0.31 0.45 0.64 0.85 1.07 1.16 1.19 1.23 1.24 1.37 1.56 1.83 2.06 2.19 2.24 2.41 2.50 2.54 2.66 2.65 2.58 2.64
0.00 0.00 0.00 0.00 0.00 0.00 0.00 0.00 0.01 0.01 0.02 0.02 0.04 0.09 0.15 0.16 0.16 0.23 0.25 0.22 0.25 0.33 0.47 0.74 0.95 1.28 1.42 1.44 1.41 1.47 1.51 1.66 1.88 2.20 2.57 2.95 3.06 3.18 3.22 3.21 3.37 3.47 3.44 3.49
0.00 0.00 0.00 0.00 0.00 0.00 0.00 0.00 0.01 0.01 0.03 0.04 0.07 0.17 0.25 0.27 0.25 0.25 0.31 0.39 0.44 0.56 0.79 1.00 1.18 1.32 1.49 1.59 1.64 1.68 1.89 2.22 2.61 3.01 3.41 3.77 4.03 4.07 4.02 3.78 3.74 3.84 3.89 3.91
0.00 0.00 0.00 0.00 0.00 0.01 0.00 0.00 0.00 0.01 0.03 0.06 0.08 0.23 0.37 0.41 0.39 0.34 0.39 0.44 0.45 0.60 0.81 0.96 1.15 1.36 1.48 1.61 1.76 1.86 2.12 2.57 3.00 3.42 3.95 4.38 4.61 4.79 4.89 4.68 4.37 4.14 3.97 3.86
0.00 0.00 0.00 0.01 0.01 0.01 0.00 0.00 0.00 0.00 0.02 0.06 0.07 0.20 0.51 0.56 0.59 0.55 0.48 0.44 0.40 0.43 0.57 0.75 0.91 1.23 1.48 1.56 1.59 1.69 2.07 2.62 3.30 3.95 4.41 4.82 5.09 5.16 5.11 4.75 4.38 3.98 3.62 3.20
0.01 0.01 0.01 0.01 0.00 0.00 0.00 0.00 0.00 0.01 0.02 0.06 0.06 0.15 0.52 0.77 0.89 0.89 0.63 0.44 0.36 0.35 0.41 0.50 0.64 0.89 1.21 1.30 1.46 1.69 2.02 2.68 3.41 3.95 4.39 4.71 4.94 4.89 4.60 4.18 3.69 3.40 3.06 2.62
0.03 0.02 0.01 0.01 0.00 0.00 0.00 0.01 0.05 0.09 0.08 0.09 0.10 0.24 0.63 0.86 0.80 0.72 0.57 0.46 0.40 0.34 0.36 0.42 0.50 0.68 0.93 1.12 1.41 1.77 2.16 2.66 3.11 3.59 3.96 4.12 4.25 4.24 4.14 3.88 3.49 3.16 2.78 2.36
0.08 0.05 0.02 0.00 0.00 0.00 0.00 0.01 0.09 0.16 0.16 0.17 0.24 0.47 0.81 0.77 0.61 0.58 0.54 0.44 0.42 0.43 0.45 0.53 0.64 0.78 0.91 1.03 1.23 1.57 1.92 2.33 2.57 2.78 3.07 3.23 3.36 3.36 3.22 3.04 2.78 2.43 2.08 1.82
0.10 0.09 0.02 0.01 0.00 0.00 0.01 0.01 0.02 0.05 0.08 0.20 0.45 0.71 1.00 1.01 0.67 0.54 0.53 0.43 0.40 0.39 0.41 0.53 0.65 0.75 0.82 0.90 1.07 1.25 1.42 1.68 1.95 2.16 2.29 2.37 2.41 2.31 2.20 2.03 1.81 1.63 1.43 1.20
0.11 0.09 0.04 0.01 0.01 0.01 0.01 0.02 0.02 0.04 0.12 0.27 0.49 0.81 1.17 1.29 0.96 0.78 0.60 0.50 0.45 0.40 0.43 0.51 0.57 0.63 0.66 0.69 0.83 0.96 1.09 1.22 1.40 1.52 1.55 1.50 1.49 1.47 1.34 1.21 1.11 0.96 0.80 0.67
0.16 0.16 0.07 0.02 0.02 0.03 0.03 0.03 0.03 0.05 0.08 0.27 0.55 0.99 1.29 1.50 1.42 1.12 0.79 0.61 0.52 0.53 0.50 0.49 0.50 0.51 0.49 0.50 0.59 0.69 0.75 0.89 1.00 1.04 1.03 0.95 0.89 0.84 0.78 0.71 0.68 0.58 0.49 0.44
0.13 0.19 0.16 0.07 0.05 0.03 0.03 0.03 0.05 0.11 0.14 0.20 0.49 1.25 1.62 1.80 1.70 1.36 0.94 0.74 0.65 0.59 0.54 0.47 0.44 0.40 0.39 0.42 0.46 0.51 0.57 0.61 0.64 0.61 0.57 0.56 0.53 0.52 0.51 0.48 0.45 0.43 0.40 0.36
0.09 0.21 0.33 0.33 0.24 0.08 0.05 0.05 0.07 0.11 0.15 0.24 0.49 1.26 1.60 1.56 1.44 1.27 1.05 0.88 0.77 0.67 0.56 0.50 0.47 0.42 0.42 0.44 0.43 0.40 0.41 0.43 0.43 0.40 0.39 0.39 0.40 0.41 0.42 0.43 0.43 0.41 0.38 0.36
0.04 0.20 0.46 0.64 0.58 0.23 0.14 0.11 0.10 0.11 0.21 0.32 0.54 0.92 1.18 1.24 1.22 1.26 1.28 1.08 0.86 0.70 0.58 0.58 0.60 0.57 0.50 0.46 0.45 0.41 0.39 0.36 0.36 0.33 0.31 0.30 0.30 0.32 0.34 0.34 0.34 0.33 0.34 0.35
0.07 0.23 0.26 0.26 0.26 0.23 0.21 0.18 0.15 0.15 0.18 0.38 0.66 0.91 1.23 1.42 1.35 1.33 1.31 1.09 0.85 0.73 0.70 0.71 0.71 0.64 0.57 0.54 0.51 0.47 0.46 0.43 0.39 0.37 0.38 0.36 0.33 0.32 0.33 0.33 0.34 0.33 0.32 0.29
0.07 0.20 0.22 0.23 0.18 0.22 0.26 0.26 0.27 0.31 0.34 0.45 0.73 1.09 1.52 1.62 1.48 1.40 1.36 1.21 1.03 0.94 0.93 0.90 0.83 0.76 0.71 0.69 0.64 0.60 0.56 0.53 0.51 0.49 0.50 0.50 0.47 0.45 0.42 0.37 0.32 0.27 0.22 0.17
0.07 0.18 0.30 0.34 0.22 0.31 0.51 0.40 0.33 0.38 0.45 0.59 0.86 1.09 1.27 1.36 1.42 1.46 1.52 1.45 1.25 1.11 1.07 1.06 1.03 0.95 0.88 0.83 0.80 0.76 0.69 0.64 0.62 0.60 0.58 0.57 0.53 0.46 0.37 0.27 0.19 0.15 0.12 0.09
0.07 0.18 0.28 0.33 0.35 0.67 0.60 0.30 0.29 0.40 0.47 0.55 0.64 0.77 0.93 1.00 1.10 1.17 1.24 1.24 1.19 1.09 1.07 1.06 1.05 1.04 1.00 0.91 0.83 0.79 0.74 0.67 0.63 0.60 0.56 0.51 0.42 0.33 0.24 0.17 0.13 0.11 0.09 0.08
0.04 0.13 0.26 0.32 0.48 0.59 0.51 0.26 0.23 0.44 0.74 0.63 0.58 0.55 0.58 0.61 0.68 0.90 1.03 1.05 1.09 1.16 1.19 1.15 1.08 1.00 0.95 0.89 0.81 0.77 0.75 0.69 0.61 0.53 0.42 0.32 0.25 0.18 0.14 0.12 0.11 0.10 0.09 0.07
0.05 0.09 0.24 0.34 0.52 0.68 0.64 0.26 0.17 0.36 0.88 0.82 0.69 0.63 0.63 0.71 0.77 0.81 0.85 0.87 0.94 1.00 1.02 0.95 0.86 0.76 0.71 0.69 0.67 0.62 0.57 0.50 0.41 0.30 0.22 0.18 0.16 0.14 0.12 0.10 0.10 0.09 0.08 0.07
0.17 0.17 0.27 0.39 0.58 0.71 0.33 0.13 0.22 0.60 0.90 0.86 0.73 0.64 0.65 0.81 0.80 0.63 0.60 0.65 0.70 0.75 0.74 0.68 0.64 0.62 0.59 0.52 0.45 0.39 0.34 0.30 0.22 0.17 0.15 0.13 0.12 0.10 0.10 0.10 0.09 0.09 0.08 0.08
0.27 0.29 0.35 0.45 0.64 0.72 0.23 0.14 0.32 0.47 0.48 0.58 0.58 0.56 0.55 0.50 0.40 0.38 0.38 0.42 0.46 0.48 0.47 0.44 0.44 0.42 0.38 0.33 0.28 0.26 0.23 0.18 0.14 0.13 0.14 0.14 0.11 0.07 0.08 0.10 0.10 0.09 0.10 0.11
0.23 0.28 0.36 0.44 0.55 0.43 0.20 0.18 0.23 0.30 0.42 0.41 0.38 0.36 0.29 0.24 0.22 0.23 0.24 0.26 0.29 0.30 0.32 0.33 0.28 0.26 0.26 0.25 0.23 0.21 0.18 0.15 0.13 0.14 0.15 0.13 0.10 0.09 0.08 0.09 0.10 0.10 0.11 0.10
0.28 0.21 0.21 0.24 0.27 0.23 0.20 0.18 0.18 0.20 0.25 0.24 0.25 0.26 0.18 0.17 0.19 0.21 0.22 0.21 0.22 0.25 0.24 0.25 0.23 0.22 0.23 0.22 0.21 0.19 0.16 0.15 0.18 0.20 0.17 0.13 0.12 0.10 0.09 0.10 0.08 0.08 0.10 0.07
0.32 0.24 0.16 0.19 0.23 0.25 0.28 0.19 0.13 0.13 0.15 0.16 0.20 0.19 0.15 0.12 0.15 0.17 0.20 0.21 0.21 0.23 0.22 0.22 0.24 0.22 0.17 0.16 0.16 0.15 0.16 0.18 0.23 0.23 0.18 0.13 0.11 0.10 0.11 0.11 0.07 0.05 0.05 0.02
0.17 0.20 0.18 0.21 0.20 0.27 0.32 0.20 0.12 0.16 0.18 0.18 0.16 0.15 0.16 0.12 0.11 0.13 0.17 0.21 0.21 0.19 0.18 0.20 0.20 0.17 0.14 0.13 0.14 0.13 0.14 0.15 0.19 0.22 0.16 0.10 0.07 0.08 0.08 0.10 0.11 0.04 0.01 0.00

GEFSCGP_prec_meanprecacc_090.txt.gz
Total_Precipitation_Accumulation
0.00 0.00 0.00 0.00 0.00 0.00 0.00 0.00 0.00 0.00 0.00 0.01 0.02 0.05 0.09 0.14 0.16 0.17 0.17 0.15 0.18 0.25 0.31 0.47 0.68 0.92 1.15 1.24 1.27 1.33 1.35 1.54 1.75 2.03 2.28 2.41 2.49 2.69 2.78 2.83 2.94 2.93 2.87 2.92
0.00 0.00 0.00 0.00 0.00 0.00 0.00 0.00 0.01 0.01 0.02 0.02 0.04 0.10 0.15 0.18 0.18 0.24 0.26 0.23 0.25 0.33 0.48 0.76 1.03 1.38 1.51 1.52 1.50 1.56 1.62 1.81 2.06 2.42 2.80 3.19 3.33 3.46 3.48 3.49 3.66 3.77 3.76 3.81
0.00 0.00 0.00 0.00 0.00 0.00 0.00 0.00 0.01 0.01 0.03 0.04 0.07 0.18 0.25 0.28 0.26 0.26 0.32 0.40 0.44 0.58 0.80 1.02 1.22 1.35 1.53 1.64 1.71 1.77 2.01 2.36 2.76 3.19 3.66 4.04 4.28 4.30 4.23 4.00 3.99 4.11 4.12 4.14
0.00 0.00 0.00 0.00 0.01 0.01 0.00 0.00 0.00 0.01 0.03 0.06 0.08 0.23 0.37 0.42 0.40 0.35 0.40 0.45 0.47 0.61 0.82 0.98 1.18 1.39 1.50 1.64 1.81 1.92 2.20 2.70 3.13 3.56 4.14 4.59 4.80 4.97 5.05 4.84 4.54 4.33 4.17 4.07
0.00 0.00 0.00 0.01 0.01 0.01 0.00 0.00 0.00 0.01 0.02 0.06 0.07 0.20 0.52 0.56 0.59 0.57 0.49 0.45 0.42 0.44 0.58 0.75 0.92 1.24 1.50 1.59 1.62 1.72 2.10 2.67 3.38 4.03 4.53 4.97 5.26 5.32 5.25 4.91 4.56 4.17 3.80 3.40
0.01 0.01 0.01 0.01 0.01 0.01 0.00 0.00 0.00 0.01 0.02 0.06 0.06 0.15 0.52 0.78 0.91 0.90 0.64 0.46 0.38 0.37 0.42 0.51 0.64 0.90 1.22 1.32 1.47 1.71 2.05 2.72 3.45 4.02 4.47 4.80 5.09 5.04 4.73 4.30 3.84 3.55 3.19 2.76
0.03 0.02 0.01 0.01 0.00 0.01 0.01 0.01 0.06 0.09 0.09 0.09 0.10 0.24 0.64 0.87 0.80 0.73 0.59 0.47 0.41 0.35 0.37 0.43 0.51 0.69 0.95 1.14 1.42 1.79 2.18 2.69 3.15 3.64 4.01 4.20 4.34 4.35 4.23 3.96 3.57 3.24 2.87 2.49
0.08 0.05 0.02 0.01 0.01 0.01 0.01 0.01 0.09 0.16 0.16 0.17 0.24 0.47 0.82 0.78 0.61 0.58 0.55 0.45 0.43 0.44 0.45 0.53 0.65 0.78 0.92 1.05 1.25 1.60 1.94 2.35 2.60 2.81 3.11 3.29 3.42 3.43 3.30 3.12 2.84 2.50 2.17 1.92
0.10 0.09 0.02 0.01 0.00 0.01 0.01 0.01 0.03 0.05 0.08 0.20 0.45 0.71 1.00 1.01 0.68 0.55 0.53 0.44 0.41 0.39 0.42 0.54 0.66 0.75 0.83 0.91 1.09 1.26 1.44 1.70 1.98 2.19 2.31 2.41 2.45 2.36 2.26 2.08 1.86 1.67 1.49 1.26
0.11 0.09 0.04 0.01 0.01 0.01 0.02 0.02 0.03 0.05 0.12 0.27 0.49 0.82 1.17 1.29 0.96 0.78 0.61 0.50 0.45 0.40 0.44 0.52 0.58 0.63 0.67 0.70 0.84 0.98 1.11 1.25 1.43 1.56 1.59 1.54 1.53 1.51 1.38 1.25 1.14 0.99 0.84 0.72
0.17 0.16 0.07 0.02 0.02 0.03 0.03 0.03 0.04 0.06 0.09 0.27 0.55 0.99 1.29 1.50 1.42 1.13 0.79 0.61 0.52 0.53 0.51 0.50 0.51 0.52 0.50 0.51 0.61 0.71 0.78 0.92 1.03 1.08 1.08 0.99 0.94 0.87 0.81 0.74 0.71 0.62 0.53 0.49
0.13 0.20 0.16 0.07 0.05 0.04 0.04 0.05 0.06 0.12 0.14 0.20 0.49 1.25 1.62 1.80 1.71 1.36 0.95 0.74 0.65 0.59 0.54 0.48 0.44 0.41 0.40 0.43 0.47 0.53 0.60 0.65 0.67 0.66 0.62 0.60 0.57 0.55 0.54 0.51 0.48 0.48 0.45 0.42
0.09 0.22 0.33 0.33 0.24 0.09 0.06 0.07 0.09 0.12 0.16 0.24 0.49 1.26 1.60 1.56 1.44 1.27 1.05 0.88 0.78 0.68 0.56 0.51 0.47 0.43 0.42 0.45 0.44 0.42 0.44 0.46 0.48 0.46 0.45 0.43 0.44 0.45 0.46 0.46 0.45 0.45 0.44 0.41
0.05 0.20 0.47 0.64 0.58 0.24 0.15 0.12 0.12 0.13 0.22 0.33 0.55 0.92 1.18 1.25 1.22 1.26 1.28 1.08 0.86 0.70 0.58 0.58 0.61 0.57 0.51 0.47 0.46 0.42 0.41 0.39 0.40 0.39 0.38 0.35 0.33 0.35 0.38 0.38 0.37 0.36 0.37 0.39
0.08 0.24 0.27 0.27 0.27 0.24 0.23 0.19 0.17 0.17 0.19 0.39 0.67 0.91 1.23 1.42 1.35 1.33 1.31 1.10 0.85 0.74 0.70 0.71 0.72 0.65 0.58 0.55 0.52 0.49 0.48 0.46 0.44 0.43 0.44 0.41 0.36 0.35 0.37 0.38 0.39 0.36 0.34 0.31
0.09 0.22 0.23 0.23 0.19 0.23 0.27 0.27 0.28 0.32 0.35 0.46 0.74 1.09 1.52 1.62 1.48 1.41 1.36 1.22 1.03 0.95 0.93 0.90 0.83 0.76 0.72 0.70 0.66 0.62 0.58 0.56 0.55 0.54 0.54 0.54 0.52 0.50 0.46 0.41 0.37 0.30 0.25 0.19
0.09 0.20 0.31 0.35 0.22 0.31 0.52 0.41 0.34 0.39 0.47 0.60 0.86 1.10 1.27 1.36 1.42 1.46 1.52 1.45 1.25 1.12 1.08 1.06 1.03 0.96 0.89 0.84 0.81 0.78 0.72 0.67 0.65 0.64 0.62 0.60 0.56 0.50 0.41 0.30 0.24 0.19 0.15 0.12
0.07 0.19 0.29 0.33 0.36 0.67 0.60 0.31 0.30 0.40 0.48 0.56 0.65 0.77 0.93 1.00 1.10 1.17 1.24 1.25 1.20 1.09 1.07 1.07 1.05 1.05 1.00 0.92 0.84 0.81 0.77 0.70 0.67 0.65 0.60 0.54 0.44 0.35 0.27 0.21 0.18 0.14 0.12 0.10
0.05 0.13 0.26 0.33 0.48 0.59 0.52 0.27 0.24 0.45 0.75 0.64 0.59 0.55 0.58 0.61 0.68 0.91 1.04 1.05 1.10 1.17 1.20 1.16 1.09 1.01 0.97 0.91 0.83 0.80 0.78 0.73 0.64 0.57 0.46 0.37 0.28 0.21 0.15 0.14 0.14 0.13 0.11 0.08
0.05 0.09 0.24 0.35 0.53 0.68 0.65 0.27 0.18 0.38 0.90 0.82 0.69 0.64 0.64 0.71 0.77 0.82 0.86 0.87 0.94 1.01 1.03 0.96 0.87 0.78 0.74 0.73 0.69 0.64 0.60 0.55 0.46 0.34 0.25 0.21 0.19 0.17 0.14 0.12 0.12 0.11 0.10 0.09
0.18 0.18 0.28 0.40 0.59 0.72 0.34 0.14 0.24 0.63 0.91 0.86 0.73 0.64 0.65 0.82 0.80 0.63 0.61 0.66 0.70 0.76 0.75 0.70 0.66 0.66 0.63 0.55 0.47 0.42 0.37 0.33 0.27 0.21 0.18 0.16 0.14 0.11 0.12 0.12 0.11 0.10 0.10 0.11
0.28 0.30 0.36 0.46 0.65 0.72 0.24 0.16 0.34 0.48 0.49 0.58 0.58 0.57 0.56 0.51 0.42 0.38 0.39 0.43 0.46 0.49 0.50 0.47 0.47 0.48 0.44 0.36 0.31 0.30 0.27 0.21 0.17 0.17 0.17 0.16 0.13 0.09 0.09 0.12 0.12 0.11 0.12 0.14
0.25 0.30 0.38 0.47 0.57 0.45 0.22 0.19 0.24 0.31 0.43 0.41 0.38 0.37 0.30 0.26 0.23 0.23 0.25 0.27 0.30 0.32 0.35 0.36 0.32 0.30 0.30 0.29 0.27 0.25 0.22 0.18 0.17 0.19 0.19 0.17 0.13 0.11 0.10 0.11 0.12 0.12 0.13 0.12
0.31 0.24 0.24 0.27 0.30 0.25 0.21 0.20 0.19 0.21 0.26 0.24 0.25 0.27 0.20 0.18 0.20 0.22 0.23 0.22 0.23 0.26 0.27 0.28 0.26 0.25 0.26 0.24 0.24 0.24 0.20 0.20 0.24 0.25 0.21 0.16 0.14 0.12 0.10 0.11 0.09 0.09 0.11 0.08
0.34 0.26 0.18 0.22 0.25 0.27 0.30 0.20 0.14 0.14 0.15 0.16 0.21 0.21 0.16 0.13 0.16 0.18 0.20 0.21 0.22 0.24 0.25 0.25 0.26 0.24 0.20 0.18 0.18 0.18 0.20 0.23 0.29 0.27 0.20 0.15 0.12 0.11 0.12 0.11 0.07 0.05 0.06 0.02
0.19 0.22 0.20 0.23 0.22 0.29 0.34 0.22 0.13 0.17 0.18 0.18 0.17 0.16 0.16 0.13 0.13 0.14 0.18 0.21 0.21 0.20 0.20 0.23 0.24 0.19 0.16 0.15 0.15 0.15 0.17 0.18 0.22 0.24 0.18 0.11 0.08 0.08 0.08 0.11 0.11 0.05 0.01 0.01

GEFSCGP_prec_meanprecacc_096.txt.gz
Total_Precipitation_Accumulation
0.00 0.00 0.00 0.00 0.00 0.00 0.00 0.00 0.00 0.00 0.00 0.01 0.02 0.05 0.09 0.15 0.16 0.17 0.17 0.15 0.19 0.26 0.32 0.48 0.70 0.94 1.18 1.29 1.32 1.38 1.44 1.65 1.86 2.13 2.39 2.52 2.57 2.78 2.87 2.92 3.06 3.05 3.00 3.06
0.00 0.00 0.00 0.00 0.00 0.00 0.00 0.00 0.01 0.01 0.02 0.02 0.04 0.10 0.16 0.18 0.18 0.24 0.26 0.23 0.25 0.34 0.49 0.77 1.03 1.40 1.57 1.60 1.58 1.67 1.73 1.93 2.16 2.51 2.89 3.28 3.44 3.57 3.56 3.58 3.77 3.89 3.90 4.00
0.00 0.00 0.00 0.00 0.00 0.00 0.00 0.00 0.01 0.01 0.03 0.04 0.07 0.18 0.26 0.28 0.26 0.26 0.32 0.41 0.45 0.58 0.81 1.03 1.23 1.36 1.54 1.66 1.73 1.81 2.07 2.43 2.83 3.25 3.72 4.10 4.37 4.40 4.33 4.09 4.12 4.25 4.25 4.27
0.00 0.00 0.00 0.00 0.01 0.01 0.00 0.00 0.00 0.01 0.03 0.06 0.08 0.24 0.38 0.42 0.40 0.36 0.40 0.46 0.48 0.62 0.83 0.99 1.19 1.40 1.51 1.65 1.82 1.93 2.22 2.73 3.17 3.60 4.18 4.64 4.88 5.05 5.14 4.94 4.65 4.50 4.36 4.24
0.00 0.00 0.00 0.01 0.01 0.01 0.00 0.00 0.00 0.01 0.02 0.06 0.07 0.20 0.52 0.56 0.60 0.57 0.49 0.46 0.43 0.45 0.59 0.76 0.93 1.25 1.51 1.60 1.64 1.73 2.11 2.69 3.41 4.09 4.59 5.03 5.33 5.40 5.34 5.01 4.66 4.28 3.96 3.57
0.01 0.01 0.01 0.01 0.01 0.01 0.00 0.00 0.00 0.01 0.02 0.06 0.06 0.15 0.53 0.78 0.91 0.91 0.65 0.46 0.39 0.37 0.43 0.52 0.65 0.90 1.22 1.32 1.49 1.73 2.07 2.74 3.49 4.07 4.54 4.87 5.16 5.14 4.82 4.41 3.94 3.64 3.29 2.87
0.03 0.02 0.01 0.01 0.01 0.01 0.01 0.01 0.06 0.09 0.09 0.09 0.10 0.24 0.64 0.87 0.81 0.73 0.60 0.48 0.42 0.35 0.38 0.43 0.51 0.69 0.95 1.15 1.44 1.81 2.20 2.71 3.17 3.67 4.07 4.27 4.42 4.44 4.33 4.06 3.66 3.33 2.96 2.57
0.08 0.05 0.02 0.01 0.01 0.01 0.01 0.01 0.09 0.16 0.16 0.17 0.24 0.47 0.82 0.78 0.62 0.59 0.55 0.46 0.43 0.44 0.46 0.54 0.65 0.79 0.93 1.07 1.27 1.63 1.96 2.37 2.61 2.84 3.15 3.35 3.48 3.49 3.39 3.21 2.92 2.57 2.23 1.99
0.10 0.09 0.02 0.01 0.01 0.01 0.01 0.01 0.03 0.05 0.08 0.21 0.46 0.72 1.00 1.01 0.68 0.55 0.53 0.44 0.41 0.39 0.42 0.54 0.66 0.75 0.83 0.92 1.10 1.28 1.46 1.72 2.00 2.22 2.34 2.44 2.49 2.40 2.31 2.15 1.93 1.74 1.54 1.31
0.11 0.10 0.04 0.01 0.01 0.01 0.02 0.02 0.03 0.05 0.13 0.28 0.50 0.82 1.17 1.29 0.96 0.78 0.61 0.50 0.45 0.40 0.44 0.53 0.59 0.64 0.67 0.71 0.86 0.99 1.14 1.28 1.45 1.58 1.62 1.56 1.56 1.54 1.42 1.30 1.21 1.05 0.88 0.76
0.17 0.16 0.07 0.02 0.02 0.03 0.03 0.03 0.05 0.06 0.09 0.28 0.56 0.99 1.29 1.50 1.42 1.13 0.79 0.61 0.53 0.53 0.51 0.50 0.51 0.52 0.51 0.51 0.62 0.72 0.80 0.94 1.05 1.10 1.10 1.01 0.96 0.90 0.84 0.77 0.75 0.65 0.56 0.52
0.14 0.20 0.16 0.07 0.05 0.04 0.04 0.05 0.06 0.12 0.16 0.21 0.50 1.26 1.62 1.80 1.71 1.36 0.95 0.74 0.65 0.59 0.54 0.48 0.44 0.41 0.41 0.44 0.48 0.54 0.60 0.66 0.69 0.68 0.64 0.62 0.59 0.57 0.56 0.54 0.52 0.52 0.48 0.44
0.09 0.23 0.34 0.34 0.25 0.09 0.06 0.07 0.09 0.13 0.17 0.26 0.51 1.27 1.60 1.56 1.44 1.27 1.05 0.88 0.78 0.68 0.56 0.51 0.48 0.43 0.42 0.45 0.44 0.42 0.45 0.49 0.50 0.48 0.47 0.44 0.45 0.47 0.48 0.49 0.48 0.47 0.45 0.42
0.06 0.22 0.48 0.66 0.60 0.25 0.15 0.12 0.13 0.14 0.24 0.34 0.55 0.93 1.19 1.25 1.22 1.26 1.28 1.08 0.86 0.70 0.58 0.58 0.61 0.58 0.51 0.47 0.47 0.43 0.42 0.42 0.46 0.44 0.42 0.38 0.36 0.37 0.39 0.40 0.40 0.39 0.39 0.42
0.09 0.25 0.27 0.27 0.27 0.24 0.23 0.19 0.18 0.17 0.19 0.40 0.68 0.92 1.25 1.43 1.36 1.33 1.31 1.10 0.85 0.74 0.71 0.72 0.72 0.65 0.58 0.55 0.53 0.50 0.49 0.47 0.46 0.47 0.48 0.45 0.40 0.37 0.38 0.39 0.43 0.42 0.37 0.34
0.09 0.22 0.23 0.23 0.19 0.23 0.27 0.27 0.28 0.32 0.36 0.47 0.76 1.12 1.53 1.63 1.48 1.41 1.36 1.22 1.04 0.96 0.93 0.90 0.83 0.76 0.73 0.70 0.66 0.62 0.59 0.57 0.56 0.56 0.57 0.57 0.55 0.52 0.48 0.43 0.39 0.34 0.30 0.24
0.09 0.20 0.31 0.35 0.22 0.31 0.52 0.42 0.35 0.40 0.47 0.61 0.91 1.14 1.29 1.37 1.42 1.46 1.53 1.46 1.26 1.13 1.08 1.07 1.04 0.96 0.90 0.86 0.82 0.78 0.73 0.68 0.66 0.66 0.64 0.63 0.58 0.52 0.44 0.33 0.27 0.22 0.19 0.18
0.08 0.19 0.30 0.34 0.37 0.69 0.62 0.31 0.30 0.41 0.49 0.57 0.67 0.79 0.93 1.01 1.11 1.17 1.25 1.26 1.20 1.10 1.08 1.07 1.06 1.05 1.02 0.94 0.86 0.82 0.78 0.72 0.69 0.67 0.63 0.56 0.46 0.38 0.29 0.24 0.21 0.18 0.16 0.17
0.05 0.14 0.28 0.35 0.50 0.61 0.53 0.28 0.25 0.48 0.79 0.65 0.60 0.56 0.59 0.61 0.68 0.91 1.04 1.06 1.11 1.18 1.21 1.17 1.09 1.01 0.97 0.92 0.85 0.82 0.80 0.75 0.66 0.59 0.49 0.39 0.31 0.24 0.19 0.17 0.17 0.16 0.14 0.13
0.06 0.10 0.26 0.37 0.55 0.71 0.67 0.27 0.19 0.40 0.96 0.84 0.70 0.64 0.64 0.71 0.78 0.82 0.86 0.88 0.95 1.02 1.04 0.97 0.88 0.79 0.76 0.75 0.72 0.66 0.62 0.57 0.48 0.36 0.29 0.25 0.23 0.20 0.18 0.16 0.15 0.14 0.13 0.12
0.19 0.20 0.29 0.42 0.62 0.75 0.35 0.14 0.26 0.69 0.97 0.88 0.74 0.64 0.66 0.82 0.81 0.64 0.61 0.66 0.71 0.77 0.76 0.71 0.66 0.68 0.67 0.59 0.50 0.44 0.39 0.36 0.30 0.24 0.21 0.19 0.17 0.14 0.15 0.16 0.14 0.14 0.13 0.14
0.31 0.34 0.40 0.50 0.70 0.77 0.26 0.17 0.37 0.52 0.50 0.59 0.59 0.57 0.56 0.52 0.42 0.39 0.39 0.43 0.47 0.50 0.51 0.49 0.50 0.52 0.49 0.40 0.34 0.33 0.29 0.24 0.20 0.20 0.20 0.19 0.16 0.12 0.13 0.17 0.16 0.14 0.15 0.18
0.28 0.33 0.41 0.51 0.63 0.48 0.24 0.20 0.26 0.32 0.44 0.42 0.39 0.37 0.30 0.27 0.24 0.24 0.27 0.28 0.31 0.33 0.36 0.38 0.35 0.34 0.34 0.33 0.31 0.30 0.26 0.21 0.21 0.22 0.23 0.20 0.16 0.15 0.16 0.17 0.17 0.16 0.17 0.15
0.33 0.25 0.25 0.29 0.32 0.28 0.24 0.21 0.20 0.21 0.27 0.25 0.26 0.27 0.20 0.19 0.21 0.23 0.25 0.23 0.24 0.28 0.29 0.30 0.28 0.28 0.29 0.28 0.27 0.27 0.23 0.23 0.27 0.29 0.25 0.19 0.18 0.17 0.17 0.16 0.13 0.13 0.14 0.11
0.34 0.27 0.20 0.24 0.28 0.30 0.33 0.22 0.15 0.15 0.15 0.17 0.21 0.21 0.17 0.13 0.17 0.18 0.21 0.22 0.23 0.25 0.26 0.27 0.29 0.27 0.23 0.21 0.21 0.20 0.23 0.27 0.33 0.32 0.25 0.18 0.16 0.16 0.16 0.15 0.10 0.07 0.07 0.04
0.19 0.23 0.21 0.26 0.24 0.31 0.37 0.24 0.14 0.17 0.19 0.19 0.17 0.17 0.18 0.15 0.14 0.15 0.18 0.22 0.22 0.20 0.21 0.25 0.26 0.21 0.19 0.18 0.18 0.17 0.20 0.23 0.27 0.30 0.21 0.14 0.11 0.11 0.10 0.12 0.12 0.05 0.02 0.01

GEFSCGP_prec_meanprecacc_102.txt.gz
Total_Precipitation_Accumulation
0.00 0.00 0.00 0.00 0.00 0.00 0.00 0.00 0.00 0.00 0.00 0.01 0.02 0.05 0.10 0.15 0.16 0.20 0.20 0.15 0.19 0.26 0.32 0.49 0.71 0.95 1.20 1.34 1.36 1.41 1.46 1.67 1.88 2.17 2.44 2.59 2.66 2.89 2.98 3.01 3.15 3.15 3.10 3.18
0.00 0.00 0.00 0.00 0.00 0.00 0.00 0.00 0.01 0.01 0.02 0.02 0.04 0.10 0.16 0.18 0.18 0.24 0.26 0.23 0.25 0.34 0.49 0.77 1.04 1.41 1.58 1.61 1.59 1.68 1.75 1.95 2.20 2.55 2.94 3.35 3.53 3.68 3.67 3.68 3.87 3.99 4.00 4.12
0.00 0.00 0.00 0.00 0.00 0.00 0.00 0.00 0.01 0.02 0.03 0.04 0.08 0.20 0.27 0.30 0.28 0.28 0.33 0.41 0.45 0.59 0.81 1.03 1.23 1.36 1.55 1.66 1.74 1.83 2.09 2.46 2.89 3.34 3.79 4.18 4.46 4.51 4.45 4.19 4.21 4.33 4.33 4.36
0.00 0.00 0.00 0.00 0.01 0.01 0.01 0.00 0.00 0.01 0.03 0.07 0.09 0.28 0.46 0.49 0.48 0.40 0.42 0.46 0.48 0.62 0.83 0.99 1.19 1.40 1.52 1.66 1.84 1.96 2.26 2.77 3.22 3.67 4.28 4.74 5.00 5.15 5.24 5.04 4.74 4.58 4.43 4.31
0.00 0.00 0.00 0.01 0.01 0.01 0.01 0.00 0.00 0.01 0.02 0.06 0.07 0.22 0.61 0.67 0.72 0.63 0.52 0.48 0.44 0.45 0.59 0.76 0.93 1.25 1.51 1.60 1.65 1.76 2.15 2.73 3.45 4.14 4.64 5.10 5.43 5.51 5.44 5.11 4.74 4.36 4.04 3.66
0.01 0.01 0.01 0.01 0.01 0.01 0.00 0.01 0.00 0.01 0.03 0.08 0.09 0.17 0.60 0.92 1.03 1.02 0.71 0.51 0.43 0.38 0.43 0.52 0.65 0.90 1.23 1.33 1.50 1.74 2.09 2.76 3.51 4.10 4.57 4.91 5.22 5.22 4.92 4.50 4.03 3.72 3.37 2.95
0.03 0.02 0.01 0.01 0.01 0.01 0.01 0.02 0.09 0.15 0.16 0.15 0.14 0.27 0.69 0.92 0.88 0.80 0.65 0.51 0.46 0.36 0.38 0.44 0.52 0.70 0.96 1.16 1.45 1.82 2.21 2.73 3.18 3.68 4.08 4.30 4.46 4.49 4.39 4.12 3.73 3.43 3.06 2.65
0.08 0.06 0.02 0.01 0.01 0.01 0.01 0.02 0.14 0.22 0.23 0.25 0.31 0.53 0.88 0.80 0.64 0.62 0.57 0.46 0.44 0.44 0.46 0.54 0.65 0.79 0.93 1.08 1.28 1.64 1.98 2.39 2.63 2.86 3.18 3.39 3.52 3.53 3.43 3.26 2.99 2.67 2.37 2.11
0.11 0.10 0.03 0.01 0.01 0.01 0.01 0.02 0.05 0.07 0.12 0.27 0.53 0.80 1.08 1.07 0.70 0.56 0.54 0.44 0.41 0.40 0.42 0.54 0.66 0.75 0.84 0.93 1.12 1.29 1.48 1.74 2.01 2.25 2.39 2.48 2.53 2.44 2.36 2.20 1.98 1.79 1.61 1.41
0.12 0.11 0.05 0.01 0.01 0.01 0.02 0.03 0.03 0.06 0.17 0.36 0.59 0.94 1.32 1.41 1.01 0.80 0.62 0.51 0.45 0.40 0.44 0.53 0.59 0.64 0.68 0.72 0.86 1.00 1.15 1.30 1.47 1.61 1.65 1.59 1.59 1.57 1.44 1.32 1.23 1.09 0.94 0.82
0.17 0.16 0.08 0.03 0.02 0.04 0.03 0.04 0.05 0.07 0.11 0.33 0.66 1.12 1.45 1.66 1.50 1.16 0.81 0.62 0.53 0.53 0.51 0.50 0.51 0.52 0.51 0.52 0.62 0.73 0.82 0.97 1.07 1.11 1.12 1.04 0.99 0.92 0.85 0.78 0.77 0.69 0.61 0.58
0.14 0.21 0.17 0.08 0.05 0.04 0.04 0.05 0.06 0.14 0.17 0.23 0.55 1.35 1.71 1.93 1.79 1.39 0.95 0.75 0.65 0.59 0.54 0.48 0.45 0.41 0.41 0.44 0.48 0.54 0.62 0.67 0.70 0.68 0.65 0.63 0.60 0.58 0.57 0.55 0.53 0.54 0.51 0.48
0.10 0.25 0.37 0.39 0.30 0.11 0.07 0.08 0.09 0.13 0.18 0.28 0.57 1.37 1.68 1.64 1.52 1.31 1.06 0.88 0.78 0.68 0.56 0.51 0.48 0.43 0.43 0.45 0.45 0.43 0.46 0.50 0.50 0.49 0.49 0.46 0.46 0.47 0.49 0.51 0.49 0.49 0.47 0.45
0.06 0.23 0.53 0.78 0.72 0.32 0.19 0.14 0.13 0.14 0.27 0.37 0.59 1.01 1.29 1.33 1.29 1.32 1.31 1.09 0.87 0.71 0.59 0.59 0.61 0.58 0.52 0.47 0.47 0.43 0.43 0.43 0.46 0.45 0.43 0.39 0.37 0.38 0.40 0.41 0.41 0.41 0.41 0.43
0.09 0.26 0.29 0.29 0.30 0.27 0.26 0.20 0.19 0.18 0.19 0.41 0.70 0.97 1.33 1.51 1.42 1.39 1.35 1.11 0.86 0.75 0.71 0.72 0.72 0.65 0.58 0.55 0.53 0.50 0.49 0.47 0.47 0.48 0.50 0.47 0.42 0.39 0.39 0.40 0.44 0.43 0.38 0.35
0.09 0.23 0.24 0.25 0.20 0.23 0.28 0.28 0.29 0.33 0.36 0.47 0.78 1.20 1.60 1.68 1.52 1.44 1.39 1.25 1.07 0.97 0.94 0.91 0.84 0.77 0.73 0.71 0.66 0.63 0.60 0.58 0.57 0.58 0.58 0.59 0.58 0.55 0.51 0.46 0.41 0.36 0.31 0.25
0.09 0.22 0.33 0.38 0.23 0.33 0.55 0.44 0.36 0.41 0.48 0.62 0.98 1.24 1.35 1.41 1.46 1.51 1.58 1.51 1.29 1.14 1.09 1.08 1.04 0.97 0.90 0.87 0.82 0.79 0.74 0.69 0.68 0.67 0.66 0.65 0.61 0.56 0.46 0.36 0.29 0.24 0.22 0.20
0.09 0.22 0.32 0.37 0.41 0.76 0.68 0.34 0.32 0.44 0.53 0.60 0.74 0.86 0.98 1.03 1.13 1.20 1.28 1.29 1.22 1.12 1.09 1.08 1.06 1.06 1.02 0.95 0.87 0.84 0.79 0.74 0.70 0.69 0.64 0.59 0.51 0.43 0.34 0.27 0.23 0.20 0.20 0.21
0.05 0.16 0.31 0.39 0.56 0.71 0.63 0.33 0.30 0.57 0.91 0.71 0.69 0.64 0.62 0.63 0.71 0.94 1.06 1.07 1.12 1.19 1.22 1.17 1.10 1.02 0.98 0.93 0.87 0.84 0.83 0.78 0.69 0.62 0.53 0.43 0.35 0.30 0.25 0.22 0.20 0.20 0.19 0.18
0.07 0.12 0.31 0.42 0.64 0.85 0.82 0.33 0.21 0.46 1.13 0.93 0.77 0.71 0.67 0.74 0.86 0.90 0.89 0.89 0.97 1.03 1.05 0.98 0.89 0.80 0.78 0.78 0.75 0.69 0.65 0.61 0.53 0.41 0.33 0.29 0.27 0.26 0.24 0.21 0.19 0.18 0.18 0.16
0.27 0.27 0.36 0.50 0.73 0.91 0.44 0.16 0.28 0.81 1.11 0.97 0.80 0.71 0.71 0.89 0.88 0.67 0.63 0.67 0.72 0.78 0.77 0.72 0.68 0.70 0.70 0.62 0.53 0.48 0.43 0.40 0.33 0.27 0.24 0.22 0.21 0.19 0.21 0.22 0.20 0.19 0.18 0.18
0.39 0.44 0.50 0.62 0.84 0.93 0.33 0.19 0.43 0.60 0.57 0.65 0.64 0.63 0.61 0.56 0.45 0.41 0.41 0.45 0.48 0.51 0.52 0.51 0.53 0.55 0.52 0.43 0.37 0.36 0.34 0.27 0.22 0.23 0.25 0.24 0.20 0.15 0.18 0.25 0.24 0.22 0.23 0.24
0.34 0.40 0.51 0.63 0.77 0.62 0.31 0.24 0.28 0.34 0.47 0.47 0.43 0.40 0.32 0.29 0.26 0.26 0.28 0.30 0.32 0.34 0.38 0.41 0.38 0.38 0.37 0.35 0.34 0.34 0.31 0.25 0.24 0.27 0.30 0.26 0.20 0.18 0.21 0.25 0.26 0.25 0.25 0.22
0.37 0.27 0.30 0.39 0.46 0.37 0.30 0.24 0.21 0.23 0.30 0.28 0.28 0.28 0.21 0.20 0.23 0.25 0.27 0.25 0.25 0.29 0.31 0.33 0.31 0.31 0.32 0.32 0.32 0.32 0.29 0.28 0.34 0.38 0.33 0.25 0.23 0.22 0.23 0.22 0.20 0.18 0.20 0.17
0.39 0.31 0.26 0.33 0.38 0.39 0.41 0.25 0.16 0.16 0.17 0.17 0.22 0.22 0.18 0.15 0.19 0.20 0.23 0.24 0.25 0.27 0.28 0.29 0.31 0.30 0.26 0.25 0.25 0.24 0.27 0.32 0.42 0.40 0.32 0.25 0.21 0.21 0.21 0.18 0.12 0.09 0.08 0.06
0.24 0.27 0.26 0.32 0.30 0.36 0.42 0.27 0.16 0.19 0.19 0.19 0.18 0.18 0.19 0.16 0.16 0.18 0.20 0.23 0.24 0.22 0.23 0.27 0.29 0.25 0.23 0.22 0.22 0.21 0.25 0.29 0.37 0.38 0.27 0.20 0.16 0.15 0.13 0.14 0.13 0.07 0.03 0.02

GEFSCGP_prec_meanprecacc_108.txt.gz
Total_Precipitation_Accumulation
0.00 0.00 0.00 0.00 0.00 0.00 0.00 0.00 0.00 0.01 0.01 0.01 0.02 0.06 0.13 0.24 0.29 0.30 0.28 0.20 0.21 0.27 0.33 0.50 0.72 0.96 1.22 1.38 1.42 1.51 1.63 1.80 1.97 2.26 2.52 2.66 2.74 2.97 3.07 3.14 3.26 3.24 3.18 3.26
0.00 0.00 0.00 0.00 0.00 0.00 0.00 0.00 0.01 0.02 0.02 0.02 0.05 0.12 0.20 0.27 0.26 0.32 0.35 0.28 0.28 0.36 0.50 0.78 1.04 1.41 1.59 1.64 1.63 1.70 1.79 2.01 2.26 2.61 3.00 3.41 3.60 3.76 3.75 3.77 3.95 4.05 4.07 4.19
0.00 0.00 0.00 0.00 0.00 0.00 0.00 0.01 0.02 0.03 0.04 0.05 0.09 0.26 0.36 0.39 0.39 0.42 0.47 0.50 0.50 0.61 0.83 1.04 1.24 1.37 1.55 1.67 1.76 1.85 2.12 2.50 2.94 3.39 3.85 4.24 4.52 4.57 4.51 4.26 4.28 4.40 4.39 4.43
0.00 0.00 0.00 0.00 0.01 0.01 0.01 0.01 0.01 0.02 0.04 0.08 0.10 0.35 0.62 0.67 0.65 0.56 0.55 0.55 0.54 0.65 0.85 1.00 1.20 1.41 1.53 1.67 1.85 1.97 2.28 2.80 3.26 3.71 4.33 4.81 5.07 5.23 5.33 5.12 4.82 4.64 4.48 4.36
0.01 0.00 0.00 0.01 0.01 0.01 0.01 0.01 0.01 0.01 0.03 0.08 0.09 0.27 0.71 0.83 0.88 0.77 0.63 0.58 0.49 0.47 0.60 0.77 0.93 1.26 1.52 1.61 1.67 1.77 2.17 2.75 3.47 4.17 4.68 5.14 5.49 5.61 5.54 5.19 4.82 4.42 4.10 3.71
0.01 0.01 0.01 0.01 0.01 0.01 0.01 0.01 0.01 0.02 0.04 0.11 0.12 0.23 0.70 1.04 1.17 1.15 0.81 0.60 0.49 0.39 0.43 0.52 0.65 0.91 1.23 1.33 1.50 1.75 2.09 2.78 3.53 4.12 4.59 4.93 5.25 5.27 4.99 4.58 4.12 3.81 3.43 3.01
0.03 0.02 0.01 0.01 0.01 0.01 0.01 0.02 0.10 0.17 0.19 0.20 0.18 0.32 0.77 0.99 0.94 0.88 0.73 0.58 0.54 0.39 0.39 0.44 0.52 0.70 0.96 1.16 1.45 1.82 2.21 2.74 3.20 3.69 4.10 4.31 4.47 4.50 4.42 4.17 3.80 3.51 3.13 2.71
0.09 0.06 0.02 0.01 0.01 0.01 0.01 0.03 0.16 0.25 0.27 0.30 0.35 0.62 1.06 0.92 0.70 0.70 0.65 0.53 0.49 0.47 0.47 0.54 0.65 0.79 0.94 1.08 1.28 1.64 1.98 2.40 2.64 2.87 3.19 3.41 3.52 3.54 3.44 3.28 3.02 2.71 2.41 2.15
0.12 0.11 0.04 0.01 0.01 0.01 0.01 0.02 0.06 0.09 0.16 0.33 0.60 0.97 1.37 1.32 0.89 0.69 0.64 0.52 0.46 0.43 0.43 0.55 0.67 0.76 0.84 0.93 1.12 1.29 1.48 1.75 2.02 2.25 2.40 2.50 2.54 2.45 2.38 2.21 1.99 1.80 1.62 1.42
0.12 0.11 0.06 0.02 0.02 0.02 0.02 0.04 0.05 0.09 0.24 0.50 0.71 1.10 1.58 1.63 1.21 0.95 0.73 0.58 0.51 0.44 0.46 0.54 0.59 0.64 0.68 0.72 0.86 1.00 1.16 1.30 1.48 1.62 1.66 1.60 1.60 1.58 1.45 1.33 1.24 1.10 0.95 0.83
0.18 0.17 0.09 0.03 0.04 0.05 0.05 0.05 0.07 0.10 0.15 0.44 0.78 1.23 1.56 1.80 1.64 1.34 0.98 0.72 0.59 0.57 0.53 0.52 0.52 0.52 0.51 0.52 0.63 0.73 0.82 0.97 1.08 1.12 1.13 1.05 0.99 0.92 0.85 0.79 0.78 0.70 0.63 0.60
0.15 0.22 0.17 0.09 0.07 0.06 0.06 0.07 0.09 0.17 0.21 0.29 0.63 1.44 1.77 2.02 1.91 1.61 1.19 0.88 0.73 0.65 0.58 0.51 0.46 0.42 0.41 0.44 0.48 0.54 0.62 0.67 0.70 0.69 0.66 0.63 0.60 0.58 0.57 0.55 0.54 0.54 0.52 0.49
0.11 0.25 0.39 0.41 0.32 0.13 0.09 0.10 0.11 0.15 0.21 0.32 0.64 1.47 1.78 1.74 1.68 1.60 1.37 1.08 0.87 0.73 0.59 0.53 0.50 0.44 0.43 0.45 0.45 0.43 0.46 0.50 0.51 0.49 0.49 0.46 0.46 0.47 0.49 0.51 0.50 0.49 0.48 0.45
0.06 0.24 0.56 0.80 0.74 0.34 0.21 0.15 0.15 0.16 0.30 0.41 0.65 1.11 1.42 1.47 1.45 1.57 1.58 1.26 0.95 0.76 0.64 0.64 0.64 0.59 0.52 0.47 0.47 0.43 0.43 0.43 0.46 0.45 0.43 0.39 0.37 0.38 0.40 0.41 0.41 0.41 0.41 0.43
0.09 0.27 0.30 0.30 0.31 0.28 0.27 0.21 0.20 0.20 0.23 0.46 0.75 1.05 1.44 1.64 1.55 1.51 1.44 1.19 0.93 0.82 0.79 0.78 0.74 0.66 0.59 0.55 0.53 0.50 0.49 0.47 0.47 0.49 0.51 0.48 0.43 0.40 0.40 0.41 0.44 0.43 0.38 0.35
0.09 0.24 0.25 0.25 0.21 0.25 0.29 0.30 0.32 0.36 0.40 0.52 0.84 1.30 1.74 1.82 1.66 1.57 1.49 1.32 1.15 1.06 1.00 0.94 0.86 0.78 0.74 0.71 0.67 0.63 0.60 0.58 0.57 0.58 0.60 0.61 0.59 0.56 0.52 0.47 0.42 0.37 0.31 0.25
0.10 0.23 0.34 0.39 0.24 0.34 0.59 0.49 0.42 0.48 0.55 0.70 1.08 1.38 1.51 1.58 1.62 1.64 1.66 1.56 1.36 1.24 1.14 1.10 1.06 0.98 0.92 0.87 0.83 0.79 0.74 0.69 0.68 0.68 0.67 0.66 0.63 0.57 0.48 0.37 0.30 0.26 0.23 0.20
0.09 0.22 0.33 0.39 0.43 0.80 0.77 0.44 0.43 0.55 0.64 0.74 0.90 1.05 1.15 1.17 1.24 1.29 1.36 1.39 1.31 1.20 1.14 1.11 1.09 1.08 1.04 0.96 0.88 0.84 0.79 0.74 0.70 0.70 0.66 0.61 0.53 0.45 0.36 0.29 0.25 0.22 0.21 0.22
0.06 0.17 0.33 0.41 0.60 0.77 0.73 0.42 0.38 0.68 1.08 0.89 0.84 0.79 0.73 0.70 0.77 1.02 1.15 1.15 1.19 1.23 1.25 1.19 1.12 1.03 1.00 0.95 0.88 0.85 0.84 0.79 0.70 0.64 0.55 0.46 0.38 0.33 0.27 0.24 0.22 0.21 0.20 0.18
0.08 0.14 0.33 0.45 0.70 0.95 0.93 0.40 0.27 0.56 1.30 1.08 0.89 0.79 0.73 0.79 0.91 0.96 0.95 0.94 1.00 1.06 1.06 0.99 0.90 0.81 0.78 0.79 0.76 0.70 0.67 0.62 0.54 0.43 0.35 0.31 0.30 0.28 0.26 0.23 0.21 0.20 0.19 0.17
0.30 0.31 0.40 0.55 0.81 1.02 0.53 0.20 0.32 0.88 1.22 1.05 0.88 0.77 0.75 0.92 0.91 0.71 0.66 0.71 0.75 0.80 0.79 0.73 0.69 0.71 0.70 0.63 0.53 0.49 0.44 0.40 0.34 0.28 0.26 0.24 0.23 0.21 0.22 0.23 0.22 0.21 0.20 0.20
0.42 0.49 0.56 0.68 0.93 1.04 0.41 0.24 0.49 0.66 0.61 0.69 0.69 0.65 0.62 0.58 0.47 0.44 0.44 0.48 0.51 0.53 0.54 0.52 0.54 0.56 0.53 0.43 0.38 0.37 0.34 0.28 0.23 0.24 0.26 0.25 0.21 0.16 0.19 0.27 0.26 0.24 0.25 0.26
0.38 0.45 0.55 0.69 0.86 0.71 0.36 0.28 0.32 0.37 0.50 0.49 0.46 0.42 0.33 0.30 0.27 0.29 0.31 0.32 0.34 0.36 0.40 0.43 0.41 0.39 0.39 0.37 0.36 0.36 0.33 0.26 0.25 0.28 0.31 0.27 0.21 0.19 0.22 0.26 0.27 0.25 0.26 0.23
0.40 0.29 0.33 0.46 0.57 0.45 0.35 0.28 0.26 0.27 0.33 0.30 0.30 0.29 0.22 0.21 0.24 0.27 0.29 0.26 0.27 0.31 0.33 0.35 0.34 0.33 0.34 0.34 0.35 0.36 0.31 0.29 0.34 0.39 0.34 0.26 0.24 0.23 0.24 0.23 0.20 0.19 0.20 0.17
0.41 0.33 0.30 0.43 0.50 0.46 0.45 0.28 0.21 0.20 0.18 0.18 0.23 0.22 0.18 0.16 0.21 0.23 0.25 0.26 0.27 0.28 0.29 0.31 0.33 0.32 0.28 0.26 0.27 0.26 0.29 0.33 0.43 0.42 0.33 0.26 0.23 0.22 0.22 0.18 0.12 0.09 0.08 0.06
0.26 0.30 0.30 0.37 0.36 0.41 0.46 0.29 0.18 0.21 0.20 0.19 0.18 0.18 0.20 0.18 0.19 0.20 0.22 0.25 0.26 0.23 0.24 0.28 0.29 0.27 0.24 0.23 0.23 0.22 0.26 0.30 0.38 0.39 0.28 0.21 0.17 0.16 0.14 0.14 0.13 0.07 0.03 0.02

GEFSCGP_prec_meanprecacc_114.txt.gz
Total_Precipitation_Accumulation
0.00 0.00 0.00 0.00 0.00 0.00 0.00 0.00 0.00 0.01 0.01 0.01 0.02 0.07 0.14 0.25 0.32 0.34 0.32 0.24 0.24 0.30 0.35 0.52 0.73 0.98 1.25 1.41 1.45 1.55 1.69 1.86 2.03 2.31 2.59 2.73 2.82 3.07 3.19 3.30 3.43 3.39 3.31 3.38
0.00 0.00 0.00 0.00 0.00 0.00 0.00 0.01 0.01 0.02 0.02 0.03 0.05 0.13 0.22 0.29 0.30 0.36 0.40 0.34 0.32 0.38 0.52 0.80 1.06 1.43 1.61 1.66 1.65 1.72 1.82 2.04 2.29 2.64 3.06 3.49 3.68 3.85 3.87 3.91 4.09 4.18 4.20 4.32
0.00 0.00 0.00 0.00 0.00 0.00 0.01 0.01 0.02 0.03 0.04 0.05 0.10 0.28 0.38 0.42 0.42 0.46 0.52 0.58 0.56 0.65 0.85 1.06 1.26 1.39 1.57 1.68 1.77 1.86 2.14 2.52 2.95 3.41 3.89 4.32 4.62 4.65 4.59 4.35 4.39 4.50 4.49 4.54
0.00 0.00 0.00 0.00 0.01 0.01 0.01 0.01 0.01 0.02 0.04 0.08 0.11 0.37 0.65 0.71 0.70 0.61 0.60 0.62 0.62 0.71 0.88 1.03 1.22 1.43 1.54 1.68 1.86 1.98 2.29 2.81 3.27 3.73 4.36 4.87 5.17 5.31 5.39 5.20 4.89 4.72 4.56 4.45
0.01 0.00 0.00 0.01 0.01 0.01 0.01 0.01 0.01 0.01 0.03 0.08 0.09 0.28 0.73 0.87 0.93 0.83 0.67 0.64 0.58 0.54 0.64 0.81 0.95 1.27 1.53 1.62 1.67 1.78 2.18 2.76 3.49 4.19 4.71 5.17 5.55 5.68 5.61 5.28 4.90 4.49 4.16 3.77
0.01 0.01 0.01 0.01 0.01 0.01 0.01 0.01 0.01 0.02 0.05 0.11 0.13 0.24 0.71 1.07 1.23 1.20 0.87 0.68 0.58 0.48 0.49 0.55 0.67 0.92 1.25 1.35 1.51 1.76 2.11 2.79 3.55 4.14 4.62 4.96 5.29 5.31 5.05 4.65 4.19 3.88 3.51 3.09
0.03 0.02 0.02 0.01 0.01 0.01 0.01 0.02 0.10 0.17 0.20 0.20 0.18 0.32 0.78 1.01 0.97 0.92 0.78 0.64 0.62 0.47 0.44 0.47 0.53 0.71 0.96 1.16 1.45 1.83 2.22 2.75 3.21 3.71 4.12 4.34 4.50 4.53 4.45 4.21 3.84 3.55 3.18 2.79
0.09 0.06 0.02 0.01 0.01 0.01 0.01 0.03 0.16 0.25 0.27 0.30 0.35 0.62 1.06 0.93 0.71 0.72 0.70 0.59 0.56 0.54 0.53 0.58 0.67 0.79 0.94 1.08 1.29 1.64 1.98 2.40 2.64 2.87 3.20 3.42 3.54 3.55 3.46 3.29 3.04 2.74 2.45 2.19
0.12 0.11 0.04 0.01 0.01 0.01 0.01 0.03 0.06 0.09 0.16 0.33 0.61 0.97 1.38 1.33 0.91 0.72 0.69 0.58 0.52 0.50 0.49 0.58 0.68 0.77 0.84 0.93 1.12 1.29 1.48 1.75 2.03 2.26 2.41 2.51 2.55 2.47 2.39 2.22 2.00 1.82 1.65 1.46
0.12 0.11 0.06 0.02 0.02 0.02 0.03 0.04 0.06 0.10 0.25 0.51 0.71 1.10 1.58 1.64 1.23 0.99 0.78 0.65 0.58 0.52 0.52 0.58 0.62 0.66 0.68 0.72 0.87 1.00 1.16 1.31 1.48 1.63 1.67 1.61 1.60 1.59 1.46 1.34 1.25 1.10 0.96 0.86
0.18 0.17 0.09 0.04 0.04 0.06 0.05 0.06 0.08 0.11 0.16 0.44 0.78 1.24 1.57 1.81 1.66 1.37 1.02 0.77 0.68 0.65 0.60 0.57 0.55 0.54 0.52 0.53 0.63 0.74 0.82 0.97 1.08 1.12 1.13 1.05 0.99 0.92 0.86 0.79 0.78 0.70 0.63 0.62
0.15 0.22 0.17 0.09 0.08 0.06 0.07 0.08 0.09 0.18 0.22 0.30 0.63 1.44 1.78 2.03 1.93 1.64 1.22 0.93 0.81 0.74 0.66 0.56 0.49 0.44 0.42 0.44 0.48 0.54 0.62 0.67 0.70 0.69 0.66 0.64 0.60 0.58 0.57 0.55 0.54 0.55 0.53 0.51
0.11 0.25 0.39 0.41 0.32 0.13 0.09 0.11 0.12 0.15 0.22 0.33 0.64 1.47 1.79 1.75 1.70 1.62 1.40 1.13 0.93 0.81 0.67 0.59 0.53 0.47 0.45 0.46 0.45 0.43 0.46 0.50 0.51 0.50 0.49 0.46 0.46 0.47 0.49 0.51 0.50 0.49 0.49 0.47
0.06 0.24 0.56 0.80 0.74 0.34 0.21 0.16 0.15 0.17 0.31 0.42 0.66 1.12 1.44 1.49 1.48 1.60 1.60 1.28 0.99 0.80 0.68 0.68 0.67 0.61 0.54 0.48 0.47 0.44 0.43 0.43 0.47 0.46 0.44 0.39 0.37 0.38 0.40 0.41 0.41 0.41 0.41 0.44
0.09 0.27 0.30 0.30 0.31 0.29 0.27 0.22 0.21 0.21 0.24 0.47 0.78 1.08 1.47 1.67 1.58 1.54 1.46 1.22 0.97 0.86 0.82 0.80 0.77 0.69 0.61 0.57 0.54 0.50 0.49 0.47 0.47 0.49 0.52 0.49 0.43 0.40 0.40 0.41 0.44 0.43 0.39 0.36
0.10 0.24 0.25 0.26 0.21 0.26 0.31 0.31 0.33 0.37 0.42 0.55 0.87 1.33 1.76 1.85 1.69 1.60 1.53 1.36 1.18 1.10 1.04 0.98 0.90 0.83 0.78 0.74 0.68 0.63 0.60 0.58 0.57 0.59 0.62 0.63 0.61 0.57 0.52 0.47 0.43 0.37 0.33 0.27
0.10 0.23 0.34 0.39 0.24 0.35 0.60 0.50 0.44 0.50 0.57 0.72 1.10 1.41 1.54 1.62 1.66 1.68 1.72 1.62 1.42 1.30 1.21 1.15 1.10 1.02 0.96 0.92 0.87 0.81 0.75 0.70 0.68 0.68 0.69 0.68 0.64 0.58 0.49 0.38 0.32 0.28 0.25 0.22
0.10 0.23 0.33 0.39 0.43 0.81 0.80 0.47 0.45 0.57 0.66 0.76 0.92 1.09 1.21 1.22 1.28 1.34 1.43 1.47 1.40 1.27 1.20 1.16 1.14 1.12 1.10 1.00 0.92 0.86 0.80 0.74 0.71 0.71 0.68 0.63 0.55 0.48 0.38 0.31 0.27 0.25 0.23 0.23
0.07 0.18 0.33 0.41 0.60 0.79 0.76 0.45 0.41 0.71 1.11 0.92 0.87 0.81 0.77 0.75 0.83 1.09 1.24 1.27 1.29 1.32 1.31 1.24 1.16 1.08 1.04 0.99 0.92 0.87 0.84 0.79 0.71 0.66 0.57 0.47 0.40 0.35 0.29 0.26 0.24 0.23 0.21 0.20
0.08 0.14 0.33 0.46 0.71 0.96 0.95 0.42 0.29 0.58 1.33 1.10 0.92 0.83 0.77 0.83 0.97 1.02 1.01 0.99 1.05 1.11 1.12 1.05 0.94 0.85 0.82 0.82 0.79 0.72 0.68 0.64 0.56 0.45 0.37 0.32 0.30 0.29 0.27 0.24 0.23 0.22 0.21 0.20
0.30 0.31 0.41 0.56 0.83 1.04 0.54 0.22 0.35 0.92 1.23 1.07 0.91 0.80 0.77 0.94 0.93 0.73 0.68 0.73 0.76 0.82 0.81 0.76 0.72 0.74 0.73 0.66 0.56 0.51 0.45 0.41 0.35 0.29 0.26 0.25 0.24 0.21 0.23 0.24 0.23 0.23 0.22 0.23
0.42 0.49 0.56 0.68 0.94 1.05 0.42 0.26 0.50 0.67 0.62 0.70 0.72 0.68 0.63 0.58 0.48 0.44 0.45 0.49 0.52 0.55 0.56 0.55 0.56 0.59 0.57 0.46 0.40 0.39 0.35 0.28 0.23 0.24 0.26 0.26 0.22 0.17 0.20 0.27 0.27 0.25 0.28 0.30
0.38 0.45 0.55 0.69 0.87 0.71 0.37 0.29 0.33 0.38 0.51 0.50 0.47 0.42 0.33 0.30 0.27 0.29 0.32 0.33 0.36 0.38 0.42 0.45 0.43 0.43 0.43 0.40 0.38 0.37 0.34 0.26 0.25 0.29 0.31 0.27 0.22 0.20 0.23 0.27 0.27 0.26 0.27 0.25
0.40 0.29 0.34 0.46 0.58 0.46 0.36 0.28 0.26 0.28 0.34 0.30 0.30 0.30 0.22 0.22 0.25 0.27 0.30 0.29 0.29 0.32 0.34 0.37 0.36 0.35 0.37 0.36 0.36 0.37 0.32 0.30 0.36 0.40 0.36 0.27 0.25 0.24 0.24 0.24 0.21 0.19 0.20 0.18
0.41 0.33 0.30 0.44 0.51 0.47 0.46 0.28 0.22 0.20 0.19 0.18 0.23 0.23 0.19 0.16 0.21 0.24 0.27 0.28 0.29 0.30 0.32 0.33 0.34 0.33 0.28 0.27 0.28 0.28 0.31 0.35 0.45 0.44 0.34 0.27 0.24 0.23 0.22 0.19 0.13 0.09 0.09 0.07
0.26 0.30 0.30 0.38 0.36 0.42 0.47 0.30 0.20 0.22 0.21 0.19 0.18 0.19 0.21 0.19 0.20 0.21 0.23 0.26 0.27 0.25 0.26 0.30 0.31 0.28 0.25 0.24 0.24 0.25 0.30 0.32 0.39 0.40 0.29 0.22 0.18 0.16 0.14 0.14 0.14 0.07 0.03 0.03

GEFSCGP_prec_meanprecacc_120.txt.gz
Total_Precipitation_Accumulation
0.00 0.00 0.00 0.00 0.00 0.00 0.00 0.00 0.00 0.01 0.01 0.01 0.02 0.07 0.14 0.26 0.33 0.36 0.35 0.28 0.27 0.33 0.38 0.53 0.75 1.00 1.27 1.44 1.50 1.60 1.74 1.92 2.10 2.38 2.68 2.81 2.89 3.14 3.27 3.36 3.50 3.47 3.39 3.46
0.00 0.00 0.00 0.00 0.00 0.00 0.00 0.01 0.01 0.02 0.02 0.03 0.05 0.14 0.23 0.30 0.32 0.39 0.44 0.42 0.37 0.40 0.53 0.81 1.07 1.44 1.62 1.68 1.68 1.75 1.85 2.09 2.36 2.70 3.11 3.53 3.72 3.89 3.93 3.98 4.16 4.25 4.27 4.39
0.00 0.00 0.00 0.00 0.00 0.01 0.01 0.01 0.02 0.03 0.04 0.06 0.10 0.28 0.39 0.43 0.44 0.49 0.56 0.67 0.62 0.66 0.86 1.07 1.27 1.40 1.58 1.70 1.79 1.89 2.17 2.57 2.99 3.45 3.93 4.37 4.66 4.70 4.66 4.42 4.46 4.58 4.55 4.60
0.00 0.00 0.00 0.01 0.01 0.01 0.01 0.01 0.01 0.02 0.04 0.08 0.11 0.38 0.66 0.72 0.71 0.63 0.63 0.67 0.66 0.74 0.91 1.05 1.23 1.44 1.55 1.69 1.87 1.99 2.31 2.85 3.33 3.77 4.40 4.91 5.21 5.36 5.43 5.24 4.93 4.77 4.61 4.50
0.01 0.00 0.01 0.01 0.01 0.01 0.01 0.01 0.01 0.01 0.03 0.08 0.10 0.29 0.74 0.87 0.94 0.85 0.71 0.68 0.62 0.57 0.67 0.84 0.98 1.29 1.54 1.63 1.69 1.79 2.19 2.79 3.52 4.23 4.74 5.21 5.58 5.70 5.63 5.29 4.92 4.51 4.19 3.80
0.01 0.01 0.01 0.01 0.01 0.01 0.01 0.01 0.01 0.02 0.05 0.12 0.13 0.24 0.73 1.09 1.24 1.23 0.90 0.70 0.62 0.53 0.54 0.60 0.71 0.94 1.26 1.36 1.53 1.77 2.12 2.81 3.57 4.17 4.64 4.98 5.31 5.32 5.05 4.65 4.20 3.90 3.53 3.11
0.03 0.02 0.02 0.01 0.01 0.01 0.01 0.02 0.10 0.17 0.20 0.20 0.18 0.33 0.79 1.02 0.98 0.92 0.80 0.67 0.66 0.52 0.49 0.52 0.57 0.73 0.98 1.18 1.47 1.84 2.23 2.76 3.22 3.72 4.13 4.35 4.52 4.54 4.46 4.22 3.84 3.56 3.20 2.80
0.09 0.06 0.03 0.01 0.01 0.01 0.01 0.03 0.16 0.26 0.27 0.31 0.35 0.63 1.07 0.93 0.71 0.72 0.71 0.62 0.59 0.58 0.57 0.63 0.72 0.83 0.96 1.10 1.30 1.65 1.99 2.41 2.65 2.88 3.21 3.43 3.54 3.56 3.47 3.30 3.05 2.75 2.46 2.20
0.12 0.11 0.04 0.01 0.01 0.01 0.02 0.03 0.06 0.09 0.16 0.34 0.61 0.97 1.38 1.33 0.91 0.72 0.70 0.60 0.54 0.52 0.53 0.63 0.73 0.80 0.86 0.95 1.13 1.30 1.49 1.76 2.03 2.27 2.41 2.52 2.56 2.47 2.40 2.23 2.01 1.83 1.65 1.46
0.12 0.11 0.06 0.03 0.02 0.02 0.03 0.05 0.06 0.10 0.26 0.52 0.72 1.11 1.60 1.65 1.24 0.99 0.79 0.67 0.61 0.55 0.56 0.64 0.67 0.70 0.71 0.74 0.88 1.01 1.17 1.32 1.49 1.64 1.68 1.62 1.61 1.60 1.47 1.35 1.26 1.11 0.97 0.86
0.18 0.17 0.09 0.04 0.04 0.06 0.06 0.06 0.09 0.12 0.16 0.45 0.80 1.26 1.58 1.83 1.66 1.38 1.03 0.79 0.70 0.69 0.65 0.64 0.62 0.60 0.55 0.55 0.65 0.75 0.83 0.98 1.09 1.13 1.14 1.06 1.00 0.93 0.87 0.79 0.78 0.71 0.64 0.63
0.15 0.22 0.17 0.09 0.08 0.06 0.07 0.08 0.10 0.19 0.23 0.31 0.65 1.47 1.78 2.04 1.93 1.64 1.23 0.94 0.83 0.79 0.71 0.63 0.56 0.50 0.46 0.48 0.50 0.56 0.64 0.69 0.71 0.70 0.67 0.65 0.61 0.59 0.58 0.56 0.54 0.55 0.53 0.51
0.11 0.26 0.40 0.42 0.33 0.14 0.09 0.11 0.12 0.16 0.23 0.35 0.67 1.50 1.80 1.76 1.71 1.63 1.42 1.15 0.97 0.86 0.75 0.69 0.62 0.53 0.49 0.49 0.47 0.44 0.47 0.51 0.51 0.50 0.51 0.48 0.48 0.49 0.50 0.51 0.50 0.50 0.49 0.48
0.06 0.24 0.56 0.81 0.75 0.35 0.22 0.16 0.16 0.18 0.34 0.45 0.69 1.15 1.46 1.51 1.49 1.61 1.62 1.31 1.03 0.84 0.72 0.74 0.74 0.67 0.57 0.50 0.49 0.45 0.44 0.44 0.48 0.47 0.45 0.41 0.38 0.39 0.41 0.42 0.42 0.42 0.42 0.44
0.10 0.28 0.31 0.30 0.31 0.29 0.28 0.23 0.22 0.23 0.25 0.50 0.81 1.11 1.49 1.69 1.60 1.55 1.47 1.24 1.00 0.88 0.85 0.83 0.80 0.73 0.65 0.61 0.57 0.52 0.50 0.48 0.48 0.51 0.53 0.50 0.44 0.41 0.41 0.42 0.45 0.44 0.40 0.37
0.10 0.25 0.26 0.26 0.22 0.27 0.32 0.32 0.34 0.38 0.43 0.57 0.90 1.37 1.77 1.86 1.70 1.61 1.54 1.39 1.22 1.13 1.07 1.03 0.96 0.88 0.84 0.78 0.71 0.65 0.61 0.59 0.59 0.60 0.63 0.64 0.62 0.58 0.54 0.48 0.43 0.39 0.35 0.29
0.10 0.24 0.36 0.41 0.25 0.38 0.63 0.53 0.46 0.51 0.58 0.74 1.13 1.44 1.56 1.63 1.68 1.70 1.74 1.66 1.49 1.37 1.28 1.23 1.17 1.08 1.02 0.96 0.90 0.85 0.78 0.72 0.70 0.70 0.72 0.71 0.66 0.60 0.50 0.39 0.33 0.30 0.26 0.24
0.11 0.24 0.35 0.41 0.46 0.86 0.84 0.50 0.48 0.59 0.68 0.77 0.94 1.10 1.22 1.23 1.29 1.36 1.46 1.52 1.47 1.36 1.29 1.25 1.21 1.19 1.17 1.08 1.00 0.93 0.86 0.79 0.75 0.75 0.71 0.66 0.57 0.49 0.39 0.33 0.29 0.27 0.24 0.25
0.07 0.19 0.35 0.44 0.64 0.84 0.81 0.48 0.45 0.76 1.15 0.96 0.89 0.83 0.78 0.76 0.85 1.11 1.27 1.32 1.36 1.39 1.38 1.32 1.23 1.15 1.12 1.08 1.02 0.95 0.90 0.83 0.74 0.69 0.60 0.50 0.42 0.36 0.31 0.28 0.27 0.26 0.24 0.22
0.09 0.15 0.35 0.48 0.73 1.00 0.98 0.44 0.31 0.62 1.39 1.13 0.95 0.84 0.77 0.84 0.98 1.04 1.04 1.03 1.08 1.14 1.15 1.09 1.00 0.93 0.91 0.93 0.89 0.81 0.75 0.68 0.59 0.48 0.39 0.34 0.32 0.30 0.30 0.27 0.25 0.24 0.24 0.22
0.31 0.33 0.42 0.58 0.85 1.06 0.54 0.23 0.38 0.97 1.28 1.09 0.93 0.81 0.78 0.95 0.95 0.75 0.71 0.76 0.79 0.84 0.83 0.79 0.76 0.81 0.83 0.76 0.66 0.59 0.52 0.46 0.37 0.31 0.28 0.27 0.26 0.22 0.24 0.26 0.25 0.25 0.24 0.25
0.43 0.50 0.57 0.69 0.96 1.08 0.43 0.27 0.53 0.69 0.64 0.71 0.74 0.71 0.66 0.61 0.50 0.47 0.47 0.50 0.53 0.56 0.58 0.57 0.59 0.65 0.63 0.53 0.45 0.45 0.42 0.33 0.26 0.27 0.29 0.28 0.24 0.17 0.21 0.29 0.28 0.27 0.30 0.33
0.38 0.45 0.55 0.70 0.88 0.73 0.38 0.30 0.34 0.38 0.51 0.51 0.50 0.46 0.36 0.32 0.29 0.31 0.33 0.34 0.37 0.39 0.44 0.47 0.46 0.48 0.49 0.44 0.43 0.45 0.40 0.30 0.28 0.32 0.35 0.30 0.23 0.21 0.24 0.28 0.29 0.28 0.29 0.28
0.40 0.30 0.34 0.47 0.59 0.47 0.36 0.29 0.27 0.28 0.34 0.31 0.32 0.31 0.23 0.22 0.26 0.29 0.32 0.30 0.30 0.34 0.36 0.39 0.39 0.39 0.40 0.38 0.41 0.42 0.36 0.33 0.38 0.44 0.39 0.29 0.26 0.25 0.25 0.25 0.22 0.21 0.22 0.21
0.42 0.33 0.31 0.45 0.52 0.48 0.46 0.29 0.22 0.21 0.19 0.19 0.23 0.23 0.19 0.17 0.23 0.26 0.28 0.30 0.31 0.32 0.33 0.34 0.37 0.35 0.30 0.29 0.31 0.31 0.33 0.38 0.49 0.48 0.38 0.30 0.26 0.24 0.23 0.19 0.13 0.10 0.10 0.08
0.26 0.31 0.32 0.39 0.37 0.43 0.48 0.31 0.20 0.22 0.21 0.20 0.18 0.19 0.22 0.20 0.21 0.22 0.24 0.27 0.29 0.27 0.27 0.32 0.33 0.29 0.27 0.26 0.26 0.27 0.32 0.35 0.43 0.44 0.33 0.25 0.20 0.17 0.14 0.14 0.14 0.07 0.04 0.03

GEFSCGP_prec_meanprecacc_126.txt.gz
Total_Precipitation_Accumulation
0.00 0.00 0.00 0.01 0.01 0.02 0.03 0.03 0.07 0.03 0.02 0.02 0.04 0.12 0.20 0.29 0.34 0.37 0.36 0.29 0.29 0.36 0.42 0.55 0.77 1.01 1.28 1.46 1.52 1.63 1.76 1.95 2.15 2.44 2.77 2.97 3.08 3.31 3.42 3.50 3.64 3.59 3.52 3.59
0.00 0.00 0.00 0.00 0.00 0.00 0.01 0.03 0.05 0.05 0.06 0.07 0.11 0.19 0.30 0.34 0.34 0.41 0.45 0.44 0.40 0.43 0.55 0.83 1.09 1.46 1.64 1.70 1.71 1.79 1.88 2.12 2.41 2.77 3.20 3.64 3.87 4.06 4.08 4.11 4.30 4.40 4.39 4.52
0.01 0.00 0.00 0.00 0.00 0.01 0.01 0.02 0.04 0.07 0.07 0.09 0.18 0.38 0.49 0.46 0.47 0.51 0.57 0.69 0.64 0.68 0.88 1.10 1.30 1.42 1.60 1.71 1.81 1.91 2.20 2.61 3.06 3.53 4.03 4.48 4.79 4.87 4.81 4.54 4.60 4.72 4.68 4.72
0.01 0.00 0.00 0.01 0.01 0.02 0.01 0.01 0.03 0.05 0.06 0.10 0.15 0.46 0.74 0.75 0.74 0.66 0.65 0.69 0.69 0.76 0.93 1.08 1.26 1.46 1.55 1.70 1.88 2.00 2.33 2.89 3.39 3.85 4.50 5.02 5.33 5.50 5.60 5.36 5.04 4.88 4.71 4.58
0.01 0.01 0.02 0.02 0.01 0.02 0.02 0.01 0.01 0.02 0.04 0.10 0.13 0.34 0.82 0.93 0.99 0.88 0.75 0.72 0.64 0.60 0.72 0.87 1.01 1.31 1.55 1.64 1.69 1.80 2.21 2.80 3.54 4.27 4.80 5.27 5.65 5.78 5.75 5.39 5.00 4.58 4.24 3.84
0.01 0.01 0.01 0.01 0.01 0.01 0.01 0.01 0.01 0.02 0.06 0.15 0.16 0.30 0.81 1.17 1.35 1.32 0.96 0.74 0.65 0.58 0.59 0.64 0.74 0.96 1.28 1.37 1.54 1.78 2.13 2.82 3.59 4.18 4.69 5.05 5.38 5.42 5.15 4.73 4.27 3.95 3.56 3.13
0.03 0.02 0.02 0.01 0.01 0.01 0.01 0.03 0.13 0.23 0.27 0.27 0.22 0.37 0.87 1.11 1.09 1.02 0.86 0.71 0.69 0.57 0.53 0.57 0.63 0.77 1.01 1.20 1.48 1.85 2.24 2.77 3.23 3.74 4.16 4.40 4.58 4.63 4.56 4.30 3.92 3.63 3.23 2.82
0.11 0.09 0.03 0.01 0.02 0.03 0.02 0.05 0.24 0.35 0.36 0.40 0.42 0.71 1.19 1.01 0.78 0.78 0.76 0.66 0.62 0.61 0.61 0.68 0.77 0.87 0.99 1.12 1.32 1.66 2.01 2.42 2.66 2.90 3.24 3.46 3.58 3.61 3.53 3.36 3.10 2.79 2.48 2.21
0.15 0.15 0.05 0.02 0.01 0.01 0.03 0.06 0.12 0.16 0.21 0.41 0.70 1.08 1.50 1.39 0.95 0.76 0.73 0.64 0.57 0.56 0.56 0.67 0.78 0.84 0.90 0.98 1.15 1.32 1.51 1.77 2.05 2.29 2.43 2.54 2.58 2.50 2.43 2.27 2.04 1.84 1.66 1.46
0.14 0.13 0.08 0.04 0.02 0.02 0.03 0.06 0.08 0.15 0.31 0.58 0.80 1.24 1.77 1.79 1.33 1.04 0.82 0.70 0.64 0.58 0.59 0.68 0.73 0.76 0.76 0.78 0.91 1.03 1.18 1.33 1.50 1.65 1.70 1.63 1.62 1.62 1.49 1.37 1.27 1.13 0.98 0.87
0.19 0.18 0.10 0.04 0.04 0.07 0.06 0.07 0.10 0.16 0.22 0.52 0.91 1.46 1.75 1.97 1.79 1.45 1.07 0.81 0.73 0.71 0.69 0.69 0.67 0.65 0.61 0.60 0.67 0.76 0.84 0.99 1.10 1.15 1.16 1.08 1.01 0.95 0.88 0.81 0.79 0.73 0.66 0.65
0.16 0.22 0.20 0.11 0.09 0.07 0.07 0.08 0.11 0.24 0.30 0.37 0.76 1.64 1.88 2.11 1.99 1.71 1.27 0.96 0.85 0.82 0.76 0.67 0.61 0.56 0.54 0.53 0.54 0.59 0.66 0.71 0.73 0.73 0.70 0.68 0.64 0.61 0.60 0.57 0.55 0.58 0.55 0.53
0.11 0.26 0.43 0.46 0.37 0.16 0.10 0.11 0.12 0.16 0.26 0.43 0.81 1.68 1.91 1.84 1.77 1.70 1.49 1.19 1.00 0.91 0.81 0.77 0.72 0.63 0.59 0.59 0.56 0.51 0.52 0.55 0.55 0.54 0.56 0.52 0.51 0.51 0.52 0.53 0.52 0.53 0.52 0.49
0.06 0.26 0.59 0.87 0.82 0.40 0.24 0.17 0.16 0.20 0.40 0.53 0.79 1.30 1.59 1.60 1.56 1.69 1.71 1.37 1.08 0.89 0.78 0.83 0.87 0.82 0.71 0.62 0.60 0.53 0.48 0.47 0.51 0.51 0.49 0.44 0.41 0.41 0.43 0.44 0.44 0.44 0.44 0.46
0.10 0.30 0.32 0.32 0.33 0.31 0.30 0.24 0.23 0.24 0.29 0.56 0.88 1.21 1.60 1.76 1.66 1.61 1.52 1.29 1.04 0.91 0.87 0.88 0.88 0.85 0.77 0.70 0.65 0.60 0.56 0.53 0.53 0.55 0.57 0.53 0.46 0.43 0.43 0.44 0.46 0.46 0.42 0.39
0.11 0.29 0.28 0.28 0.23 0.28 0.33 0.34 0.35 0.39 0.45 0.61 0.96 1.44 1.84 1.92 1.75 1.66 1.58 1.43 1.26 1.17 1.11 1.08 1.03 0.98 0.95 0.88 0.78 0.70 0.66 0.64 0.63 0.65 0.69 0.67 0.63 0.60 0.56 0.51 0.46 0.41 0.37 0.31
0.11 0.27 0.39 0.44 0.27 0.40 0.68 0.55 0.48 0.53 0.60 0.77 1.20 1.50 1.59 1.67 1.71 1.74 1.77 1.69 1.52 1.42 1.35 1.29 1.25 1.18 1.12 1.05 0.98 0.91 0.83 0.78 0.75 0.76 0.78 0.75 0.68 0.62 0.53 0.42 0.36 0.32 0.29 0.27
0.12 0.28 0.39 0.46 0.51 0.95 0.92 0.52 0.50 0.61 0.70 0.80 0.97 1.13 1.24 1.25 1.31 1.39 1.49 1.55 1.51 1.39 1.34 1.31 1.27 1.26 1.24 1.15 1.07 1.00 0.92 0.86 0.82 0.82 0.77 0.70 0.59 0.51 0.42 0.36 0.32 0.30 0.28 0.28
0.08 0.22 0.40 0.50 0.73 0.94 0.87 0.50 0.47 0.80 1.20 0.99 0.92 0.85 0.80 0.78 0.87 1.14 1.29 1.33 1.38 1.42 1.41 1.36 1.28 1.21 1.18 1.13 1.07 1.02 0.98 0.90 0.82 0.76 0.66 0.54 0.44 0.38 0.34 0.31 0.31 0.29 0.28 0.27
0.10 0.17 0.40 0.55 0.84 1.14 1.08 0.47 0.32 0.67 1.46 1.17 0.97 0.86 0.79 0.87 1.02 1.08 1.06 1.05 1.12 1.18 1.18 1.11 1.03 0.95 0.95 0.97 0.95 0.91 0.86 0.78 0.68 0.55 0.44 0.38 0.35 0.34 0.33 0.30 0.28 0.27 0.28 0.27
0.36 0.38 0.49 0.65 0.96 1.19 0.59 0.24 0.40 1.04 1.37 1.12 0.94 0.83 0.81 0.99 0.99 0.77 0.73 0.79 0.82 0.87 0.85 0.80 0.79 0.85 0.87 0.81 0.73 0.70 0.65 0.58 0.45 0.37 0.32 0.30 0.28 0.25 0.27 0.29 0.29 0.28 0.27 0.29
0.47 0.55 0.62 0.75 1.05 1.17 0.46 0.29 0.57 0.74 0.66 0.73 0.75 0.72 0.67 0.64 0.52 0.49 0.51 0.54 0.56 0.59 0.61 0.60 0.64 0.71 0.70 0.60 0.53 0.55 0.51 0.40 0.30 0.31 0.33 0.31 0.26 0.19 0.23 0.32 0.32 0.30 0.34 0.37
0.40 0.49 0.59 0.74 0.94 0.77 0.40 0.32 0.35 0.39 0.53 0.52 0.50 0.46 0.37 0.33 0.31 0.35 0.37 0.37 0.41 0.41 0.46 0.51 0.52 0.55 0.56 0.52 0.51 0.53 0.48 0.36 0.32 0.38 0.41 0.34 0.25 0.23 0.26 0.31 0.32 0.31 0.33 0.31
0.42 0.31 0.36 0.49 0.61 0.48 0.38 0.32 0.28 0.29 0.35 0.32 0.32 0.32 0.24 0.23 0.28 0.32 0.35 0.33 0.33 0.36 0.39 0.43 0.43 0.43 0.44 0.42 0.45 0.48 0.41 0.38 0.45 0.52 0.44 0.32 0.29 0.27 0.28 0.27 0.24 0.23 0.25 0.24
0.43 0.35 0.34 0.48 0.54 0.49 0.47 0.30 0.23 0.21 0.20 0.19 0.23 0.23 0.20 0.19 0.26 0.28 0.31 0.33 0.34 0.35 0.36 0.38 0.41 0.39 0.33 0.32 0.36 0.35 0.38 0.44 0.59 0.57 0.43 0.34 0.29 0.26 0.26 0.21 0.15 0.11 0.10 0.08
0.28 0.33 0.36 0.43 0.38 0.44 0.49 0.32 0.20 0.22 0.21 0.20 0.18 0.19 0.23 0.22 0.24 0.24 0.26 0.29 0.31 0.30 0.30 0.35 0.37 0.33 0.30 0.30 0.29 0.30 0.35 0.39 0.50 0.51 0.38 0.29 0.24 0.21 0.17 0.16 0.16 0.08 0.04 0.03

GEFSCGP_prec_meanprecacc_132.txt.gz
Total_Precipitation_Accumulation
0.00 0.00 0.00 0.01 0.01 0.02 0.04 0.04 0.08 0.06 0.05 0.06 0.10 0.23 0.34 0.44 0.54 0.55 0.49 0.42 0.42 0.45 0.53 0.65 0.81 1.04 1.31 1.49 1.54 1.66 1.80 2.00 2.20 2.51 2.86 3.04 3.13 3.36 3.50 3.60 3.74 3.70 3.64 3.72
0.00 0.00 0.00 0.00 0.00 0.00 0.01 0.04 0.07 0.07 0.08 0.11 0.18 0.31 0.43 0.49 0.54 0.61 0.60 0.56 0.51 0.55 0.63 0.89 1.12 1.47 1.66 1.72 1.72 1.80 1.90 2.16 2.44 2.81 3.26 3.72 3.93 4.12 4.15 4.19 4.39 4.48 4.49 4.65
0.01 0.00 0.00 0.00 0.00 0.01 0.01 0.03 0.05 0.08 0.08 0.13 0.27 0.49 0.63 0.60 0.65 0.69 0.72 0.83 0.77 0.79 0.93 1.13 1.33 1.44 1.62 1.73 1.82 1.92 2.21 2.64 3.09 3.55 4.05 4.51 4.83 4.92 4.87 4.59 4.66 4.79 4.77 4.84
0.01 0.00 0.00 0.01 0.01 0.02 0.02 0.02 0.03 0.05 0.07 0.15 0.23 0.54 0.84 0.85 0.86 0.79 0.82 0.91 0.86 0.88 1.00 1.12 1.30 1.49 1.58 1.72 1.90 2.01 2.33 2.90 3.39 3.86 4.51 5.03 5.35 5.54 5.65 5.42 5.11 4.95 4.79 4.66
0.01 0.01 0.02 0.02 0.02 0.02 0.02 0.01 0.02 0.03 0.05 0.12 0.17 0.41 0.91 1.04 1.10 1.02 0.94 0.96 0.85 0.76 0.81 0.94 1.05 1.35 1.59 1.66 1.71 1.81 2.21 2.80 3.54 4.27 4.81 5.28 5.66 5.81 5.79 5.45 5.06 4.66 4.32 3.92
0.01 0.01 0.01 0.02 0.01 0.01 0.01 0.01 0.01 0.03 0.07 0.16 0.18 0.35 0.91 1.27 1.49 1.52 1.19 0.98 0.85 0.75 0.71 0.72 0.81 1.02 1.32 1.39 1.55 1.79 2.13 2.82 3.59 4.19 4.70 5.07 5.40 5.44 5.18 4.77 4.33 4.03 3.64 3.19
0.04 0.03 0.02 0.02 0.01 0.01 0.02 0.03 0.14 0.25 0.30 0.29 0.25 0.43 0.99 1.26 1.25 1.20 1.12 1.03 0.93 0.76 0.69 0.68 0.71 0.83 1.05 1.22 1.50 1.87 2.25 2.78 3.23 3.74 4.17 4.41 4.59 4.64 4.58 4.33 3.98 3.72 3.31 2.88
0.12 0.11 0.05 0.01 0.02 0.03 0.02 0.05 0.25 0.38 0.40 0.43 0.49 0.81 1.31 1.18 0.96 0.94 0.98 0.92 0.81 0.78 0.76 0.82 0.87 0.95 1.05 1.16 1.35 1.69 2.03 2.44 2.67 2.91 3.24 3.46 3.59 3.62 3.53 3.38 3.13 2.85 2.56 2.30
0.16 0.16 0.06 0.02 0.02 0.02 0.04 0.07 0.13 0.17 0.23 0.44 0.77 1.18 1.64 1.59 1.13 0.95 0.97 0.90 0.79 0.75 0.74 0.84 0.90 0.93 0.98 1.03 1.19 1.35 1.53 1.80 2.07 2.31 2.44 2.54 2.59 2.50 2.43 2.27 2.06 1.87 1.70 1.52
0.15 0.14 0.08 0.04 0.03 0.04 0.06 0.08 0.10 0.17 0.35 0.63 0.86 1.34 1.93 1.96 1.54 1.23 1.12 1.02 0.86 0.76 0.76 0.83 0.86 0.86 0.84 0.84 0.95 1.06 1.21 1.36 1.52 1.66 1.71 1.64 1.63 1.63 1.49 1.37 1.28 1.14 1.00 0.90
0.20 0.18 0.10 0.06 0.07 0.09 0.08 0.09 0.14 0.22 0.27 0.60 1.02 1.59 1.91 2.14 2.02 1.67 1.25 1.00 0.90 0.86 0.82 0.82 0.79 0.76 0.71 0.67 0.72 0.79 0.87 1.02 1.12 1.16 1.18 1.09 1.03 0.96 0.89 0.81 0.80 0.73 0.67 0.65
0.17 0.23 0.21 0.12 0.11 0.09 0.09 0.11 0.14 0.28 0.34 0.42 0.82 1.74 2.02 2.34 2.26 1.93 1.44 1.09 0.98 0.94 0.86 0.76 0.69 0.65 0.63 0.61 0.60 0.63 0.70 0.75 0.76 0.75 0.72 0.70 0.65 0.62 0.60 0.57 0.56 0.58 0.56 0.53
0.13 0.28 0.45 0.49 0.39 0.18 0.12 0.12 0.14 0.18 0.29 0.47 0.85 1.76 2.05 2.06 1.97 1.89 1.63 1.31 1.11 1.00 0.88 0.83 0.79 0.70 0.67 0.67 0.64 0.58 0.59 0.62 0.60 0.58 0.59 0.54 0.53 0.52 0.53 0.53 0.53 0.53 0.52 0.49
0.07 0.28 0.62 0.91 0.85 0.43 0.26 0.19 0.17 0.21 0.43 0.56 0.83 1.36 1.68 1.72 1.73 1.84 1.82 1.46 1.15 0.93 0.81 0.86 0.91 0.87 0.77 0.69 0.69 0.62 0.56 0.54 0.57 0.57 0.54 0.47 0.43 0.43 0.44 0.44 0.45 0.44 0.44 0.46
0.10 0.32 0.34 0.33 0.34 0.33 0.33 0.27 0.25 0.26 0.30 0.58 0.91 1.24 1.65 1.82 1.74 1.67 1.57 1.33 1.09 0.96 0.91 0.90 0.91 0.88 0.81 0.75 0.71 0.66 0.61 0.57 0.58 0.60 0.61 0.55 0.47 0.44 0.44 0.45 0.47 0.46 0.42 0.40
0.12 0.30 0.30 0.30 0.25 0.29 0.35 0.36 0.37 0.42 0.46 0.63 0.99 1.48 1.88 1.97 1.80 1.71 1.64 1.49 1.31 1.21 1.14 1.11 1.05 1.01 0.98 0.91 0.81 0.74 0.71 0.68 0.69 0.71 0.73 0.70 0.65 0.61 0.58 0.52 0.47 0.42 0.38 0.31
0.12 0.29 0.43 0.47 0.30 0.42 0.72 0.57 0.49 0.54 0.61 0.79 1.23 1.54 1.62 1.70 1.74 1.78 1.82 1.73 1.56 1.45 1.38 1.32 1.27 1.20 1.15 1.08 1.01 0.95 0.87 0.81 0.79 0.82 0.83 0.78 0.71 0.64 0.54 0.43 0.36 0.33 0.29 0.27
0.13 0.29 0.43 0.51 0.56 1.01 0.97 0.55 0.52 0.63 0.72 0.81 0.99 1.15 1.26 1.27 1.34 1.43 1.54 1.58 1.54 1.42 1.37 1.33 1.29 1.28 1.27 1.18 1.10 1.04 0.96 0.89 0.85 0.86 0.81 0.73 0.61 0.53 0.44 0.37 0.33 0.31 0.28 0.29
0.09 0.24 0.44 0.55 0.79 1.02 0.93 0.53 0.50 0.83 1.23 1.01 0.95 0.88 0.82 0.80 0.90 1.18 1.35 1.38 1.43 1.46 1.44 1.38 1.30 1.22 1.20 1.15 1.10 1.05 1.00 0.92 0.85 0.80 0.69 0.56 0.45 0.40 0.36 0.33 0.32 0.31 0.29 0.27
0.10 0.19 0.44 0.60 0.92 1.21 1.14 0.50 0.35 0.69 1.50 1.21 1.01 0.88 0.81 0.89 1.04 1.09 1.08 1.08 1.15 1.21 1.21 1.14 1.05 0.97 0.96 0.98 0.97 0.93 0.89 0.81 0.72 0.59 0.47 0.40 0.38 0.36 0.34 0.32 0.29 0.28 0.28 0.27
0.38 0.41 0.53 0.70 1.02 1.24 0.62 0.25 0.41 1.07 1.40 1.16 0.98 0.85 0.82 1.00 0.99 0.78 0.74 0.80 0.84 0.89 0.87 0.82 0.81 0.87 0.90 0.85 0.76 0.73 0.69 0.62 0.50 0.42 0.37 0.34 0.31 0.27 0.28 0.30 0.30 0.29 0.28 0.29
0.49 0.59 0.67 0.81 1.11 1.22 0.48 0.30 0.58 0.76 0.67 0.74 0.77 0.73 0.68 0.64 0.53 0.50 0.51 0.54 0.57 0.60 0.62 0.62 0.66 0.73 0.73 0.63 0.57 0.58 0.54 0.43 0.33 0.35 0.36 0.33 0.28 0.20 0.23 0.33 0.34 0.31 0.35 0.38
0.42 0.51 0.61 0.78 0.97 0.80 0.42 0.33 0.37 0.42 0.54 0.54 0.52 0.48 0.37 0.34 0.32 0.35 0.37 0.38 0.41 0.42 0.47 0.52 0.53 0.57 0.59 0.55 0.55 0.56 0.52 0.40 0.37 0.43 0.45 0.36 0.26 0.25 0.28 0.32 0.33 0.32 0.33 0.32
0.45 0.33 0.37 0.50 0.62 0.49 0.38 0.33 0.29 0.30 0.36 0.33 0.33 0.33 0.24 0.24 0.29 0.32 0.35 0.33 0.33 0.37 0.39 0.43 0.44 0.44 0.46 0.45 0.48 0.51 0.45 0.41 0.48 0.56 0.47 0.34 0.30 0.29 0.29 0.28 0.24 0.23 0.25 0.24
0.46 0.36 0.35 0.49 0.55 0.49 0.48 0.31 0.24 0.22 0.21 0.20 0.24 0.25 0.20 0.19 0.26 0.29 0.32 0.33 0.34 0.35 0.37 0.39 0.41 0.40 0.34 0.33 0.37 0.36 0.39 0.46 0.61 0.58 0.45 0.36 0.30 0.27 0.26 0.22 0.15 0.11 0.11 0.08
0.29 0.34 0.37 0.44 0.39 0.45 0.51 0.35 0.22 0.23 0.22 0.20 0.19 0.20 0.23 0.23 0.25 0.25 0.27 0.30 0.31 0.31 0.31 0.36 0.37 0.34 0.32 0.32 0.32 0.32 0.37 0.41 0.52 0.52 0.40 0.31 0.26 0.22 0.18 0.17 0.16 0.09 0.04 0.03

GEFSCGP_prec_meanprecacc_138.txt.gz
Total_Precipitation_Accumulation
0.00 0.00 0.00 0.01 0.01 0.02 0.04 0.04 0.08 0.06 0.06 0.07 0.11 0.24 0.37 0.49 0.62 0.64 0.57 0.51 0.51 0.53 0.60 0.74 0.91 1.13 1.39 1.58 1.63 1.72 1.86 2.06 2.26 2.57 2.91 3.09 3.20 3.42 3.58 3.71 3.87 3.85 3.80 3.87
0.00 0.00 0.00 0.00 0.00 0.00 0.01 0.04 0.07 0.07 0.08 0.11 0.19 0.33 0.46 0.53 0.59 0.69 0.70 0.68 0.64 0.67 0.73 0.99 1.25 1.60 1.75 1.80 1.82 1.89 1.96 2.21 2.49 2.86 3.30 3.75 3.97 4.15 4.19 4.25 4.46 4.58 4.60 4.75
0.01 0.00 0.00 0.00 0.01 0.01 0.01 0.03 0.05 0.08 0.08 0.13 0.27 0.50 0.65 0.64 0.70 0.75 0.81 0.95 0.90 0.92 1.06 1.24 1.46 1.57 1.73 1.82 1.91 2.00 2.27 2.69 3.13 3.59 4.09 4.54 4.84 4.93 4.88 4.61 4.69 4.84 4.81 4.89
0.01 0.00 0.00 0.01 0.01 0.02 0.02 0.02 0.04 0.05 0.07 0.15 0.23 0.56 0.85 0.87 0.90 0.84 0.88 0.99 0.96 0.99 1.10 1.22 1.42 1.60 1.70 1.83 2.00 2.09 2.39 2.94 3.44 3.90 4.56 5.07 5.38 5.56 5.66 5.43 5.12 4.97 4.81 4.69
0.01 0.01 0.02 0.02 0.02 0.02 0.02 0.01 0.02 0.03 0.05 0.12 0.17 0.41 0.92 1.06 1.15 1.07 1.02 1.08 0.94 0.86 0.92 1.05 1.19 1.48 1.71 1.80 1.83 1.90 2.28 2.86 3.59 4.30 4.84 5.31 5.68 5.83 5.81 5.46 5.07 4.68 4.34 3.94
0.01 0.01 0.01 0.02 0.01 0.01 0.01 0.01 0.01 0.03 0.07 0.16 0.19 0.36 0.91 1.27 1.51 1.56 1.25 1.08 0.95 0.85 0.83 0.86 0.97 1.18 1.47 1.54 1.66 1.87 2.19 2.87 3.62 4.21 4.73 5.09 5.42 5.47 5.21 4.79 4.34 4.04 3.66 3.22
0.04 0.03 0.02 0.02 0.01 0.01 0.02 0.04 0.15 0.25 0.30 0.29 0.25 0.43 0.99 1.26 1.25 1.21 1.15 1.10 1.02 0.85 0.80 0.82 0.86 0.98 1.19 1.35 1.61 1.94 2.30 2.81 3.26 3.76 4.20 4.44 4.62 4.67 4.60 4.36 4.00 3.73 3.33 2.91
0.12 0.11 0.05 0.02 0.02 0.03 0.02 0.05 0.26 0.38 0.40 0.43 0.49 0.81 1.31 1.18 0.97 0.95 1.00 0.98 0.93 0.88 0.85 0.95 1.03 1.11 1.20 1.31 1.46 1.77 2.09 2.48 2.70 2.93 3.26 3.47 3.60 3.64 3.55 3.39 3.14 2.86 2.58 2.33
0.16 0.16 0.06 0.02 0.02 0.02 0.04 0.07 0.14 0.17 0.23 0.44 0.77 1.18 1.64 1.59 1.14 0.97 0.99 0.94 0.89 0.87 0.85 0.98 1.07 1.10 1.12 1.16 1.31 1.44 1.59 1.84 2.10 2.32 2.45 2.55 2.60 2.52 2.44 2.28 2.06 1.88 1.71 1.53
0.15 0.14 0.09 0.04 0.04 0.05 0.06 0.09 0.11 0.18 0.35 0.63 0.87 1.34 1.93 1.97 1.55 1.25 1.14 1.07 0.92 0.85 0.87 0.97 1.01 1.02 0.98 0.94 1.03 1.13 1.26 1.39 1.55 1.68 1.72 1.65 1.64 1.64 1.51 1.38 1.29 1.15 1.01 0.90
0.21 0.19 0.11 0.06 0.07 0.10 0.08 0.09 0.15 0.22 0.28 0.60 1.02 1.60 1.93 2.16 2.05 1.70 1.29 1.03 0.93 0.91 0.89 0.91 0.90 0.88 0.82 0.76 0.80 0.88 0.94 1.07 1.15 1.19 1.20 1.11 1.04 0.97 0.90 0.82 0.81 0.74 0.67 0.65
0.18 0.24 0.21 0.12 0.11 0.09 0.10 0.11 0.15 0.28 0.34 0.42 0.83 1.75 2.05 2.37 2.32 1.97 1.50 1.13 1.02 0.97 0.90 0.83 0.78 0.74 0.70 0.67 0.66 0.69 0.76 0.80 0.81 0.79 0.76 0.73 0.67 0.64 0.62 0.59 0.57 0.59 0.56 0.53
0.13 0.29 0.46 0.49 0.40 0.18 0.12 0.13 0.15 0.18 0.29 0.47 0.86 1.77 2.06 2.08 2.01 1.93 1.67 1.37 1.16 1.05 0.93 0.89 0.84 0.75 0.72 0.73 0.70 0.64 0.65 0.67 0.65 0.64 0.64 0.58 0.56 0.55 0.55 0.55 0.53 0.54 0.52 0.49
0.07 0.28 0.63 0.91 0.86 0.43 0.26 0.19 0.18 0.21 0.43 0.57 0.84 1.38 1.70 1.75 1.76 1.87 1.86 1.54 1.19 0.98 0.85 0.90 0.95 0.91 0.81 0.75 0.75 0.68 0.63 0.62 0.64 0.62 0.57 0.49 0.46 0.46 0.47 0.46 0.46 0.45 0.44 0.46
0.11 0.33 0.34 0.34 0.35 0.34 0.33 0.27 0.25 0.26 0.30 0.58 0.91 1.25 1.66 1.83 1.75 1.69 1.63 1.42 1.14 1.01 0.97 0.95 0.94 0.92 0.86 0.79 0.74 0.70 0.66 0.64 0.67 0.69 0.66 0.59 0.50 0.47 0.46 0.47 0.48 0.47 0.43 0.40
0.13 0.31 0.31 0.30 0.25 0.30 0.36 0.36 0.38 0.42 0.46 0.63 0.99 1.49 1.90 1.98 1.82 1.74 1.68 1.54 1.36 1.27 1.20 1.15 1.09 1.05 1.02 0.94 0.84 0.77 0.74 0.73 0.77 0.81 0.83 0.78 0.71 0.65 0.60 0.54 0.48 0.42 0.38 0.32
0.13 0.30 0.44 0.48 0.30 0.43 0.73 0.59 0.50 0.54 0.61 0.80 1.23 1.55 1.63 1.71 1.75 1.79 1.84 1.76 1.59 1.49 1.42 1.36 1.31 1.24 1.19 1.11 1.03 0.97 0.90 0.85 0.84 0.87 0.88 0.83 0.75 0.67 0.57 0.46 0.38 0.34 0.30 0.28
0.14 0.30 0.44 0.51 0.57 1.02 0.99 0.56 0.53 0.64 0.72 0.81 0.99 1.16 1.27 1.28 1.35 1.44 1.55 1.60 1.56 1.44 1.40 1.37 1.33 1.32 1.30 1.20 1.12 1.06 1.00 0.93 0.89 0.91 0.86 0.78 0.66 0.57 0.47 0.39 0.35 0.32 0.29 0.30
0.09 0.24 0.44 0.55 0.80 1.03 0.94 0.53 0.51 0.84 1.23 1.02 0.95 0.88 0.83 0.81 0.91 1.19 1.36 1.39 1.44 1.48 1.47 1.43 1.34 1.25 1.22 1.17 1.12 1.07 1.03 0.95 0.89 0.85 0.74 0.60 0.49 0.44 0.40 0.36 0.34 0.32 0.29 0.28
0.12 0.20 0.44 0.60 0.92 1.22 1.15 0.50 0.35 0.69 1.51 1.22 1.02 0.89 0.81 0.89 1.04 1.10 1.08 1.09 1.17 1.22 1.24 1.17 1.08 1.00 0.98 1.00 0.98 0.94 0.90 0.83 0.75 0.62 0.50 0.42 0.40 0.38 0.37 0.34 0.31 0.29 0.29 0.28
0.39 0.42 0.53 0.70 1.02 1.24 0.62 0.26 0.41 1.08 1.40 1.16 0.99 0.85 0.82 1.00 1.00 0.78 0.74 0.81 0.85 0.90 0.89 0.84 0.83 0.90 0.93 0.87 0.78 0.74 0.71 0.64 0.53 0.44 0.39 0.36 0.33 0.29 0.30 0.32 0.31 0.30 0.29 0.30
0.50 0.59 0.67 0.81 1.11 1.22 0.48 0.31 0.59 0.76 0.67 0.75 0.78 0.74 0.69 0.64 0.53 0.50 0.51 0.55 0.58 0.61 0.63 0.63 0.67 0.75 0.75 0.66 0.61 0.62 0.58 0.48 0.37 0.38 0.39 0.36 0.31 0.24 0.27 0.35 0.35 0.33 0.36 0.39
0.43 0.51 0.62 0.78 0.98 0.80 0.42 0.34 0.37 0.42 0.54 0.54 0.53 0.49 0.38 0.34 0.32 0.35 0.37 0.38 0.42 0.42 0.47 0.52 0.54 0.58 0.60 0.57 0.58 0.61 0.57 0.44 0.41 0.46 0.48 0.38 0.29 0.27 0.29 0.33 0.34 0.33 0.34 0.32
0.46 0.33 0.37 0.50 0.62 0.49 0.38 0.33 0.30 0.30 0.36 0.33 0.34 0.33 0.25 0.24 0.29 0.32 0.35 0.33 0.34 0.37 0.39 0.44 0.45 0.45 0.47 0.46 0.51 0.54 0.47 0.44 0.52 0.59 0.51 0.38 0.34 0.31 0.31 0.29 0.25 0.24 0.26 0.24
0.46 0.36 0.35 0.49 0.55 0.49 0.48 0.31 0.24 0.22 0.21 0.20 0.24 0.25 0.20 0.19 0.27 0.29 0.32 0.33 0.35 0.36 0.37 0.39 0.41 0.40 0.35 0.34 0.38 0.38 0.41 0.48 0.64 0.61 0.48 0.38 0.32 0.29 0.29 0.24 0.16 0.12 0.11 0.09
0.30 0.34 0.37 0.44 0.39 0.45 0.51 0.35 0.22 0.23 0.22 0.21 0.19 0.20 0.23 0.23 0.25 0.25 0.27 0.30 0.32 0.31 0.31 0.36 0.38 0.34 0.33 0.33 0.33 0.33 0.38 0.43 0.55 0.55 0.41 0.32 0.28 0.23 0.19 0.18 0.17 0.09 0.05 0.03

GEFSCGP_prec_meanprecacc_144.txt.gz
Total_Precipitation_Accumulation
0.00 0.00 0.00 0.01 0.01 0.02 0.04 0.04 0.08 0.06 0.06 0.07 0.12 0.25 0.38 0.51 0.64 0.66 0.59 0.53 0.54 0.57 0.65 0.80 0.98 1.20 1.45 1.64 1.69 1.79 1.93 2.13 2.34 2.64 2.98 3.14 3.23 3.46 3.62 3.75 3.92 3.89 3.85 3.95
0.00 0.00 0.00 0.00 0.00 0.00 0.01 0.04 0.07 0.07 0.08 0.11 0.19 0.33 0.46 0.54 0.61 0.71 0.72 0.70 0.67 0.71 0.79 1.06 1.34 1.68 1.82 1.86 1.89 1.96 2.06 2.32 2.59 2.93 3.37 3.81 4.02 4.19 4.23 4.30 4.50 4.62 4.64 4.80
0.01 0.00 0.00 0.00 0.01 0.01 0.01 0.03 0.05 0.08 0.08 0.13 0.27 0.50 0.65 0.64 0.71 0.78 0.83 0.97 0.92 0.94 1.09 1.32 1.55 1.66 1.81 1.89 1.99 2.09 2.37 2.80 3.23 3.68 4.17 4.61 4.91 4.98 4.92 4.64 4.73 4.87 4.84 4.92
0.01 0.00 0.00 0.01 0.01 0.02 0.02 0.02 0.04 0.05 0.07 0.15 0.24 0.57 0.86 0.88 0.91 0.85 0.90 1.02 0.98 1.01 1.14 1.28 1.49 1.69 1.80 1.91 2.09 2.20 2.52 3.07 3.55 3.99 4.63 5.13 5.43 5.61 5.71 5.47 5.16 5.01 4.84 4.72
0.01 0.01 0.02 0.02 0.02 0.02 0.02 0.01 0.02 0.03 0.05 0.12 0.17 0.42 0.92 1.06 1.15 1.08 1.04 1.11 0.98 0.89 0.96 1.11 1.24 1.54 1.81 1.90 1.93 2.01 2.41 3.01 3.73 4.41 4.92 5.37 5.73 5.88 5.86 5.50 5.11 4.71 4.36 3.95
0.01 0.01 0.01 0.02 0.01 0.01 0.01 0.01 0.02 0.03 0.07 0.17 0.19 0.36 0.92 1.28 1.51 1.57 1.26 1.10 0.98 0.88 0.87 0.90 1.01 1.24 1.56 1.63 1.76 1.95 2.28 2.96 3.70 4.29 4.80 5.15 5.48 5.51 5.24 4.82 4.36 4.06 3.68 3.23
0.04 0.03 0.02 0.02 0.01 0.01 0.02 0.04 0.15 0.26 0.31 0.29 0.25 0.44 1.00 1.26 1.26 1.22 1.17 1.17 1.08 0.87 0.82 0.85 0.91 1.05 1.28 1.42 1.68 2.01 2.39 2.88 3.30 3.80 4.24 4.47 4.66 4.71 4.63 4.39 4.03 3.76 3.36 2.93
0.12 0.12 0.05 0.02 0.03 0.03 0.02 0.05 0.26 0.39 0.41 0.44 0.50 0.82 1.32 1.19 0.99 0.97 1.04 1.05 0.99 0.91 0.89 1.01 1.11 1.19 1.30 1.41 1.54 1.85 2.17 2.54 2.75 2.97 3.30 3.51 3.65 3.70 3.62 3.45 3.19 2.91 2.62 2.36
0.16 0.16 0.06 0.02 0.02 0.02 0.04 0.07 0.14 0.17 0.23 0.46 0.78 1.19 1.65 1.61 1.18 1.01 1.03 1.00 0.93 0.91 0.90 1.04 1.16 1.22 1.26 1.30 1.43 1.55 1.68 1.91 2.14 2.35 2.48 2.57 2.62 2.56 2.50 2.36 2.14 1.93 1.75 1.56
0.15 0.14 0.09 0.04 0.04 0.05 0.07 0.09 0.11 0.19 0.37 0.65 0.88 1.37 1.96 2.01 1.59 1.28 1.19 1.12 0.98 0.92 0.96 1.06 1.09 1.12 1.12 1.08 1.15 1.24 1.35 1.47 1.60 1.71 1.74 1.68 1.67 1.68 1.56 1.43 1.34 1.19 1.05 0.94
0.21 0.19 0.11 0.06 0.08 0.10 0.09 0.10 0.16 0.23 0.29 0.63 1.06 1.64 1.96 2.20 2.09 1.73 1.32 1.08 0.99 0.97 0.95 0.97 0.97 0.97 0.95 0.87 0.89 0.95 1.01 1.14 1.21 1.23 1.23 1.14 1.08 1.01 0.94 0.85 0.85 0.78 0.71 0.68
0.18 0.25 0.22 0.13 0.11 0.10 0.10 0.12 0.16 0.31 0.36 0.44 0.86 1.81 2.08 2.39 2.34 1.99 1.52 1.18 1.07 1.03 0.97 0.89 0.83 0.79 0.76 0.72 0.71 0.74 0.81 0.86 0.87 0.85 0.81 0.77 0.72 0.67 0.66 0.63 0.62 0.63 0.60 0.56
0.13 0.30 0.47 0.51 0.41 0.19 0.12 0.13 0.15 0.19 0.31 0.49 0.89 1.83 2.13 2.12 2.04 1.95 1.70 1.40 1.19 1.09 0.97 0.92 0.88 0.79 0.75 0.77 0.73 0.66 0.67 0.70 0.69 0.69 0.69 0.63 0.61 0.60 0.59 0.59 0.57 0.57 0.56 0.52
0.08 0.29 0.64 0.92 0.88 0.45 0.28 0.20 0.18 0.22 0.45 0.59 0.87 1.42 1.73 1.78 1.79 1.90 1.89 1.55 1.20 1.00 0.88 0.92 0.97 0.94 0.85 0.78 0.77 0.70 0.65 0.65 0.68 0.67 0.64 0.55 0.51 0.51 0.52 0.51 0.51 0.50 0.49 0.50
0.12 0.34 0.35 0.34 0.36 0.34 0.34 0.28 0.26 0.27 0.31 0.60 0.93 1.26 1.67 1.84 1.76 1.71 1.64 1.43 1.15 1.03 0.99 0.96 0.97 0.95 0.89 0.81 0.76 0.71 0.68 0.67 0.72 0.76 0.76 0.67 0.56 0.52 0.50 0.50 0.51 0.50 0.46 0.43
0.14 0.32 0.32 0.31 0.26 0.30 0.36 0.36 0.38 0.42 0.46 0.63 1.00 1.51 1.91 1.98 1.82 1.74 1.70 1.56 1.39 1.29 1.22 1.18 1.12 1.08 1.05 0.96 0.86 0.78 0.75 0.75 0.80 0.87 0.92 0.90 0.82 0.72 0.66 0.58 0.53 0.48 0.44 0.36
0.14 0.30 0.45 0.49 0.31 0.43 0.74 0.59 0.50 0.55 0.62 0.80 1.25 1.56 1.64 1.71 1.75 1.80 1.85 1.78 1.63 1.52 1.46 1.40 1.35 1.28 1.22 1.14 1.06 1.00 0.93 0.87 0.87 0.91 0.93 0.90 0.83 0.74 0.64 0.53 0.45 0.41 0.36 0.32
0.15 0.31 0.46 0.53 0.58 1.04 0.99 0.57 0.53 0.64 0.73 0.81 1.00 1.16 1.27 1.28 1.35 1.45 1.56 1.62 1.59 1.46 1.42 1.41 1.38 1.36 1.33 1.23 1.15 1.10 1.03 0.96 0.92 0.94 0.90 0.83 0.72 0.63 0.53 0.46 0.42 0.38 0.35 0.34
0.10 0.26 0.46 0.57 0.81 1.04 0.95 0.54 0.52 0.84 1.24 1.02 0.95 0.89 0.83 0.81 0.91 1.20 1.36 1.39 1.45 1.49 1.49 1.45 1.36 1.28 1.25 1.20 1.15 1.09 1.06 0.99 0.92 0.89 0.79 0.65 0.55 0.50 0.47 0.43 0.41 0.38 0.36 0.33
0.12 0.22 0.47 0.62 0.94 1.23 1.16 0.50 0.35 0.70 1.52 1.22 1.02 0.89 0.82 0.89 1.05 1.10 1.09 1.09 1.17 1.23 1.25 1.18 1.09 1.02 1.01 1.03 1.01 0.97 0.93 0.86 0.79 0.66 0.54 0.47 0.43 0.42 0.41 0.40 0.38 0.35 0.34 0.33
0.41 0.44 0.55 0.72 1.04 1.25 0.63 0.26 0.42 1.09 1.41 1.16 0.99 0.85 0.82 1.00 1.00 0.78 0.75 0.82 0.86 0.91 0.90 0.85 0.84 0.91 0.95 0.91 0.82 0.78 0.75 0.69 0.58 0.48 0.43 0.39 0.36 0.32 0.33 0.34 0.34 0.34 0.33 0.34
0.52 0.61 0.69 0.82 1.12 1.24 0.49 0.31 0.59 0.77 0.68 0.75 0.79 0.75 0.69 0.65 0.53 0.50 0.52 0.56 0.59 0.62 0.64 0.64 0.68 0.76 0.77 0.69 0.65 0.67 0.62 0.53 0.43 0.45 0.45 0.41 0.35 0.28 0.30 0.38 0.38 0.35 0.39 0.42
0.44 0.52 0.63 0.79 0.99 0.81 0.43 0.34 0.38 0.42 0.54 0.55 0.54 0.49 0.39 0.35 0.32 0.35 0.38 0.39 0.42 0.43 0.48 0.53 0.55 0.59 0.62 0.60 0.61 0.65 0.60 0.48 0.45 0.53 0.53 0.43 0.34 0.35 0.35 0.37 0.37 0.35 0.36 0.34
0.47 0.34 0.38 0.51 0.62 0.49 0.38 0.34 0.30 0.30 0.36 0.34 0.34 0.33 0.25 0.24 0.29 0.33 0.35 0.34 0.34 0.38 0.40 0.44 0.45 0.46 0.50 0.49 0.53 0.56 0.50 0.47 0.56 0.64 0.55 0.41 0.36 0.35 0.34 0.32 0.28 0.26 0.28 0.27
0.47 0.37 0.36 0.50 0.55 0.50 0.48 0.32 0.24 0.22 0.21 0.20 0.24 0.25 0.20 0.19 0.27 0.29 0.32 0.34 0.35 0.36 0.38 0.40 0.43 0.42 0.37 0.37 0.41 0.39 0.42 0.51 0.67 0.64 0.51 0.41 0.34 0.32 0.31 0.26 0.18 0.14 0.13 0.10
0.30 0.34 0.38 0.45 0.40 0.45 0.51 0.35 0.22 0.23 0.22 0.21 0.19 0.20 0.23 0.23 0.25 0.25 0.27 0.30 0.32 0.31 0.32 0.38 0.39 0.35 0.35 0.36 0.36 0.35 0.39 0.45 0.57 0.57 0.43 0.34 0.30 0.26 0.22 0.20 0.19 0.10 0.06 0.04

GEFSCGP_prec_meanprecacc_150.txt.gz
Total_Precipitation_Accumulation
0.00 0.00 0.01 0.02 0.01 0.03 0.04 0.04 0.08 0.08 0.07 0.07 0.13 0.29 0.47 0.54 0.66 0.67 0.60 0.56 0.58 0.61 0.70 0.85 1.01 1.23 1.50 1.70 1.78 1.91 2.06 2.27 2.48 2.78 3.10 3.26 3.34 3.55 3.70 3.83 3.98 3.95 3.91 4.01
0.00 0.00 0.00 0.00 0.00 0.00 0.01 0.04 0.07 0.07 0.09 0.11 0.20 0.34 0.48 0.55 0.62 0.71 0.73 0.73 0.70 0.73 0.82 1.11 1.38 1.72 1.85 1.92 1.96 2.07 2.19 2.46 2.74 3.12 3.57 3.99 4.16 4.29 4.31 4.36 4.58 4.69 4.71 4.87
0.01 0.00 0.00 0.00 0.01 0.01 0.01 0.03 0.06 0.09 0.08 0.13 0.28 0.51 0.66 0.65 0.72 0.79 0.85 0.99 0.94 0.96 1.11 1.35 1.60 1.74 1.89 1.96 2.06 2.18 2.50 2.91 3.35 3.83 4.35 4.77 5.04 5.09 5.02 4.73 4.84 4.98 4.94 5.01
0.01 0.00 0.00 0.01 0.01 0.02 0.02 0.02 0.04 0.06 0.08 0.15 0.24 0.58 0.88 0.89 0.93 0.87 0.92 1.04 1.00 1.03 1.16 1.33 1.55 1.77 1.85 1.98 2.16 2.29 2.63 3.18 3.65 4.12 4.78 5.29 5.57 5.74 5.84 5.60 5.30 5.15 4.97 4.83
0.01 0.01 0.02 0.02 0.02 0.02 0.02 0.01 0.02 0.03 0.05 0.13 0.17 0.44 0.98 1.10 1.18 1.09 1.05 1.12 0.99 0.92 1.02 1.17 1.30 1.59 1.85 1.94 1.98 2.07 2.49 3.09 3.81 4.52 5.07 5.54 5.91 6.04 5.98 5.63 5.26 4.84 4.48 4.06
0.01 0.01 0.01 0.02 0.01 0.01 0.01 0.01 0.02 0.03 0.07 0.18 0.19 0.39 1.00 1.33 1.54 1.59 1.28 1.11 0.99 0.91 0.92 0.95 1.05 1.29 1.60 1.66 1.79 2.01 2.35 3.02 3.76 4.37 4.91 5.29 5.62 5.65 5.37 4.94 4.48 4.19 3.81 3.33
0.04 0.03 0.02 0.02 0.01 0.01 0.02 0.04 0.17 0.29 0.35 0.33 0.28 0.50 1.09 1.31 1.29 1.25 1.20 1.21 1.11 0.91 0.86 0.91 0.96 1.08 1.30 1.45 1.71 2.08 2.46 2.94 3.38 3.87 4.34 4.59 4.78 4.82 4.74 4.50 4.15 3.87 3.46 3.02
0.13 0.12 0.05 0.02 0.03 0.03 0.02 0.06 0.29 0.45 0.48 0.50 0.55 0.89 1.39 1.23 1.02 1.00 1.07 1.09 1.03 0.97 0.95 1.09 1.18 1.23 1.33 1.44 1.59 1.91 2.25 2.63 2.84 3.07 3.41 3.63 3.76 3.82 3.74 3.56 3.30 3.01 2.72 2.45
0.17 0.17 0.06 0.02 0.02 0.02 0.04 0.07 0.14 0.18 0.25 0.49 0.84 1.26 1.70 1.65 1.22 1.03 1.06 1.02 0.96 0.95 0.95 1.10 1.24 1.28 1.31 1.36 1.50 1.61 1.75 1.98 2.22 2.43 2.56 2.66 2.71 2.65 2.59 2.45 2.24 2.04 1.86 1.66
0.15 0.14 0.09 0.04 0.04 0.05 0.07 0.09 0.12 0.20 0.41 0.71 0.93 1.45 2.08 2.11 1.66 1.32 1.22 1.15 1.02 0.95 0.99 1.09 1.14 1.19 1.19 1.16 1.22 1.31 1.42 1.52 1.66 1.77 1.80 1.74 1.75 1.76 1.64 1.52 1.44 1.29 1.13 1.01
0.22 0.21 0.12 0.07 0.08 0.11 0.10 0.11 0.17 0.26 0.32 0.69 1.13 1.75 2.06 2.27 2.13 1.78 1.36 1.11 1.02 1.00 0.98 0.99 0.99 0.99 0.98 0.91 0.94 1.00 1.07 1.19 1.27 1.30 1.31 1.22 1.16 1.09 1.01 0.93 0.92 0.85 0.77 0.74
0.18 0.27 0.26 0.15 0.12 0.10 0.11 0.13 0.19 0.36 0.40 0.49 0.93 1.90 2.13 2.41 2.36 2.01 1.55 1.20 1.10 1.06 0.99 0.90 0.85 0.81 0.78 0.75 0.75 0.78 0.85 0.90 0.91 0.91 0.88 0.85 0.79 0.75 0.73 0.70 0.68 0.71 0.68 0.62
0.13 0.31 0.51 0.55 0.45 0.21 0.12 0.13 0.15 0.21 0.36 0.55 0.96 1.91 2.17 2.14 2.06 1.97 1.71 1.42 1.21 1.10 0.98 0.94 0.89 0.81 0.78 0.80 0.77 0.70 0.71 0.75 0.75 0.75 0.75 0.70 0.70 0.69 0.68 0.66 0.64 0.66 0.63 0.57
0.08 0.32 0.68 0.97 0.92 0.47 0.29 0.20 0.19 0.24 0.50 0.64 0.92 1.48 1.78 1.81 1.82 1.93 1.91 1.57 1.21 1.02 0.89 0.93 0.99 0.96 0.86 0.80 0.79 0.72 0.68 0.69 0.72 0.71 0.68 0.60 0.58 0.60 0.61 0.59 0.58 0.56 0.55 0.55
0.13 0.38 0.37 0.35 0.36 0.35 0.35 0.28 0.26 0.28 0.33 0.63 0.96 1.30 1.70 1.87 1.81 1.74 1.66 1.44 1.16 1.04 1.01 0.98 0.98 0.97 0.91 0.83 0.78 0.73 0.70 0.70 0.75 0.79 0.78 0.70 0.61 0.58 0.57 0.57 0.58 0.57 0.52 0.47
0.16 0.35 0.33 0.32 0.26 0.30 0.36 0.37 0.38 0.43 0.47 0.65 1.02 1.54 1.93 2.00 1.85 1.79 1.72 1.57 1.40 1.30 1.24 1.20 1.14 1.10 1.08 0.99 0.88 0.80 0.78 0.79 0.84 0.90 0.94 0.94 0.87 0.79 0.73 0.65 0.59 0.54 0.49 0.41
0.16 0.33 0.49 0.52 0.31 0.44 0.75 0.59 0.51 0.56 0.63 0.82 1.28 1.61 1.65 1.73 1.81 1.88 1.91 1.81 1.66 1.53 1.47 1.42 1.37 1.31 1.25 1.16 1.09 1.03 0.95 0.90 0.90 0.93 0.95 0.93 0.87 0.79 0.69 0.58 0.50 0.48 0.44 0.39
0.17 0.34 0.49 0.57 0.62 1.09 1.02 0.57 0.53 0.65 0.74 0.83 1.02 1.20 1.30 1.29 1.38 1.47 1.57 1.63 1.60 1.48 1.44 1.43 1.41 1.40 1.37 1.26 1.18 1.12 1.06 1.00 0.95 0.96 0.93 0.85 0.75 0.66 0.57 0.51 0.48 0.46 0.43 0.43
0.11 0.29 0.51 0.61 0.88 1.08 0.96 0.54 0.52 0.86 1.27 1.04 0.97 0.91 0.85 0.82 0.92 1.21 1.37 1.40 1.46 1.50 1.51 1.48 1.40 1.32 1.29 1.23 1.18 1.13 1.09 1.03 0.95 0.91 0.81 0.68 0.58 0.55 0.52 0.49 0.48 0.46 0.43 0.41
0.13 0.23 0.52 0.68 1.01 1.30 1.20 0.51 0.36 0.71 1.56 1.24 1.03 0.91 0.82 0.90 1.08 1.12 1.09 1.10 1.18 1.24 1.26 1.19 1.11 1.05 1.07 1.09 1.06 1.02 0.98 0.91 0.83 0.70 0.56 0.49 0.47 0.46 0.46 0.44 0.43 0.41 0.42 0.41
0.43 0.46 0.60 0.78 1.11 1.32 0.65 0.28 0.44 1.14 1.46 1.18 1.01 0.88 0.84 1.01 1.02 0.79 0.75 0.83 0.87 0.93 0.91 0.86 0.84 0.93 0.99 0.97 0.89 0.86 0.80 0.74 0.62 0.54 0.48 0.44 0.40 0.36 0.37 0.39 0.39 0.40 0.39 0.41
0.56 0.65 0.73 0.88 1.21 1.31 0.51 0.34 0.63 0.81 0.69 0.76 0.80 0.76 0.70 0.65 0.53 0.50 0.52 0.58 0.61 0.64 0.65 0.64 0.69 0.77 0.79 0.72 0.70 0.74 0.68 0.58 0.47 0.50 0.52 0.48 0.41 0.32 0.35 0.45 0.46 0.44 0.47 0.50
0.48 0.58 0.69 0.86 1.06 0.86 0.45 0.36 0.39 0.43 0.55 0.56 0.55 0.50 0.39 0.35 0.32 0.36 0.39 0.40 0.43 0.44 0.49 0.54 0.56 0.60 0.64 0.61 0.64 0.69 0.65 0.53 0.50 0.57 0.57 0.47 0.38 0.39 0.40 0.43 0.43 0.40 0.41 0.39
0.51 0.38 0.46 0.59 0.68 0.52 0.40 0.34 0.30 0.31 0.37 0.34 0.35 0.33 0.25 0.24 0.29 0.34 0.36 0.34 0.34 0.38 0.40 0.45 0.47 0.48 0.51 0.51 0.55 0.60 0.54 0.51 0.62 0.69 0.59 0.43 0.38 0.38 0.37 0.35 0.31 0.29 0.32 0.31
0.51 0.41 0.43 0.57 0.61 0.54 0.52 0.34 0.25 0.23 0.21 0.20 0.25 0.25 0.20 0.19 0.27 0.30 0.32 0.34 0.35 0.36 0.39 0.42 0.44 0.43 0.39 0.40 0.45 0.42 0.45 0.54 0.71 0.69 0.55 0.44 0.37 0.35 0.34 0.28 0.20 0.16 0.15 0.13
0.32 0.38 0.42 0.51 0.46 0.50 0.56 0.39 0.25 0.25 0.24 0.21 0.19 0.20 0.23 0.23 0.25 0.26 0.27 0.31 0.32 0.32 0.34 0.39 0.40 0.37 0.36 0.38 0.38 0.37 0.41 0.47 0.60 0.60 0.46 0.38 0.33 0.29 0.24 0.22 0.20 0.12 0.07 0.05

GEFSCGP_prec_meanprecacc_156.txt.gz
Total_Precipitation_Accumulation
0.00 0.00 0.01 0.02 0.02 0.04 0.06 0.06 0.10 0.10 0.08 0.09 0.16 0.33 0.51 0.61 0.77 0.85 0.73 0.65 0.70 0.71 0.80 1.03 1.21 1.36 1.61 1.81 1.88 1.99 2.14 2.35 2.55 2.85 3.19 3.34 3.42 3.64 3.78 3.89 4.03 3.99 3.96 4.08
0.00 0.00 0.00 0.00 0.00 0.01 0.02 0.05 0.08 0.09 0.11 0.12 0.22 0.37 0.52 0.60 0.69 0.82 0.81 0.80 0.78 0.83 0.92 1.22 1.49 1.87 2.02 2.05 2.08 2.16 2.28 2.54 2.83 3.21 3.66 4.08 4.25 4.38 4.41 4.45 4.66 4.76 4.79 4.96
0.01 0.00 0.00 0.00 0.01 0.01 0.01 0.04 0.06 0.10 0.10 0.15 0.30 0.56 0.72 0.71 0.80 0.86 0.92 1.06 1.01 1.05 1.23 1.46 1.72 1.89 2.00 2.04 2.13 2.26 2.57 2.99 3.43 3.91 4.42 4.86 5.13 5.17 5.11 4.83 4.95 5.09 5.06 5.13
0.01 0.00 0.00 0.01 0.01 0.02 0.02 0.03 0.04 0.06 0.09 0.16 0.26 0.64 0.98 0.98 1.02 0.94 0.98 1.09 1.05 1.08 1.25 1.47 1.67 1.89 1.97 2.06 2.23 2.36 2.70 3.24 3.72 4.18 4.85 5.37 5.65 5.82 5.92 5.71 5.43 5.28 5.11 4.97
0.01 0.01 0.02 0.02 0.02 0.02 0.02 0.01 0.02 0.03 0.05 0.13 0.18 0.46 1.05 1.19 1.26 1.16 1.10 1.16 1.03 0.97 1.10 1.33 1.45 1.69 1.96 2.04 2.05 2.13 2.54 3.13 3.86 4.57 5.12 5.61 5.99 6.15 6.10 5.75 5.39 4.99 4.64 4.21
0.02 0.02 0.02 0.02 0.01 0.01 0.02 0.01 0.02 0.03 0.07 0.18 0.20 0.41 1.06 1.44 1.64 1.66 1.34 1.16 1.03 0.95 0.99 1.05 1.13 1.33 1.65 1.71 1.85 2.07 2.40 3.06 3.80 4.41 4.96 5.34 5.70 5.75 5.49 5.06 4.61 4.30 3.93 3.46
0.05 0.04 0.03 0.02 0.02 0.02 0.02 0.04 0.17 0.30 0.35 0.34 0.31 0.53 1.16 1.39 1.37 1.34 1.29 1.27 1.14 0.94 0.90 0.97 1.00 1.12 1.32 1.48 1.75 2.13 2.50 2.99 3.41 3.92 4.39 4.66 4.85 4.90 4.81 4.57 4.24 3.96 3.54 3.10
0.14 0.13 0.05 0.02 0.03 0.04 0.03 0.06 0.30 0.47 0.50 0.55 0.62 0.94 1.44 1.29 1.10 1.09 1.15 1.14 1.07 1.01 0.98 1.12 1.22 1.29 1.39 1.50 1.63 1.96 2.30 2.68 2.89 3.12 3.47 3.69 3.82 3.88 3.79 3.61 3.36 3.08 2.79 2.52
0.17 0.18 0.07 0.03 0.03 0.02 0.04 0.08 0.15 0.20 0.27 0.53 0.90 1.33 1.78 1.73 1.30 1.12 1.13 1.07 1.00 0.99 0.98 1.14 1.27 1.36 1.43 1.47 1.59 1.66 1.82 2.03 2.27 2.48 2.61 2.71 2.75 2.68 2.62 2.48 2.27 2.08 1.91 1.70
0.16 0.15 0.09 0.05 0.05 0.06 0.07 0.10 0.13 0.23 0.45 0.76 1.00 1.52 2.14 2.16 1.70 1.35 1.26 1.19 1.05 0.99 1.03 1.12 1.17 1.24 1.24 1.20 1.27 1.35 1.46 1.57 1.71 1.83 1.86 1.78 1.79 1.79 1.68 1.56 1.48 1.34 1.19 1.06
0.22 0.22 0.13 0.08 0.10 0.12 0.11 0.12 0.18 0.27 0.35 0.72 1.16 1.78 2.10 2.30 2.15 1.79 1.38 1.14 1.06 1.03 1.01 1.02 1.01 1.02 1.02 0.94 0.95 1.03 1.12 1.26 1.34 1.37 1.38 1.29 1.22 1.15 1.07 1.00 0.99 0.92 0.83 0.78
0.19 0.28 0.27 0.16 0.13 0.11 0.12 0.14 0.20 0.37 0.42 0.51 0.95 1.94 2.17 2.45 2.37 2.03 1.61 1.27 1.13 1.08 1.01 0.92 0.87 0.83 0.80 0.77 0.77 0.81 0.89 0.95 0.96 0.95 0.93 0.90 0.84 0.80 0.78 0.76 0.76 0.80 0.76 0.69
0.14 0.33 0.53 0.57 0.47 0.22 0.13 0.14 0.17 0.23 0.37 0.57 0.98 1.94 2.19 2.17 2.08 2.00 1.76 1.46 1.24 1.13 1.00 0.96 0.91 0.82 0.79 0.82 0.80 0.74 0.76 0.80 0.80 0.79 0.79 0.75 0.74 0.73 0.72 0.72 0.73 0.75 0.71 0.64
0.09 0.33 0.70 1.01 0.95 0.49 0.30 0.21 0.20 0.26 0.52 0.65 0.94 1.50 1.80 1.84 1.85 1.97 1.96 1.61 1.24 1.04 0.92 0.95 1.01 0.97 0.88 0.82 0.82 0.78 0.74 0.74 0.78 0.76 0.72 0.64 0.61 0.63 0.65 0.64 0.64 0.63 0.61 0.61
0.15 0.40 0.40 0.37 0.37 0.36 0.36 0.30 0.27 0.29 0.34 0.64 0.97 1.31 1.72 1.89 1.83 1.78 1.70 1.48 1.19 1.07 1.05 1.01 1.01 0.99 0.93 0.85 0.81 0.77 0.76 0.75 0.80 0.82 0.81 0.73 0.64 0.61 0.61 0.61 0.62 0.60 0.55 0.50
0.18 0.38 0.36 0.34 0.27 0.31 0.37 0.37 0.39 0.44 0.48 0.66 1.04 1.56 1.94 2.03 1.89 1.82 1.76 1.60 1.47 1.37 1.29 1.25 1.17 1.14 1.11 1.02 0.90 0.83 0.82 0.83 0.87 0.93 0.98 0.98 0.90 0.81 0.75 0.68 0.62 0.58 0.53 0.44
0.19 0.37 0.52 0.55 0.32 0.46 0.77 0.60 0.51 0.57 0.64 0.82 1.30 1.63 1.67 1.75 1.85 1.92 1.96 1.86 1.72 1.60 1.53 1.48 1.42 1.35 1.28 1.19 1.11 1.05 0.97 0.93 0.92 0.95 0.98 0.95 0.89 0.80 0.71 0.61 0.53 0.51 0.48 0.44
0.21 0.39 0.54 0.61 0.65 1.12 1.04 0.59 0.55 0.66 0.76 0.84 1.04 1.23 1.33 1.33 1.42 1.51 1.61 1.67 1.64 1.50 1.47 1.47 1.46 1.44 1.41 1.29 1.20 1.14 1.07 1.02 0.97 0.98 0.94 0.87 0.76 0.67 0.58 0.52 0.50 0.49 0.46 0.47
0.14 0.33 0.56 0.67 0.93 1.12 0.98 0.56 0.54 0.88 1.30 1.07 1.01 0.95 0.88 0.85 0.95 1.24 1.42 1.45 1.53 1.55 1.53 1.51 1.44 1.36 1.33 1.25 1.20 1.14 1.11 1.05 0.97 0.92 0.82 0.69 0.60 0.56 0.53 0.50 0.49 0.48 0.46 0.44
0.16 0.26 0.55 0.73 1.07 1.35 1.22 0.53 0.37 0.74 1.61 1.28 1.08 0.94 0.86 0.93 1.11 1.15 1.13 1.14 1.23 1.27 1.30 1.23 1.13 1.08 1.10 1.11 1.08 1.04 1.00 0.94 0.85 0.71 0.57 0.50 0.48 0.49 0.49 0.47 0.45 0.44 0.44 0.44
0.48 0.51 0.64 0.82 1.17 1.36 0.68 0.31 0.46 1.18 1.53 1.24 1.05 0.91 0.87 1.05 1.06 0.84 0.79 0.86 0.92 0.95 0.93 0.87 0.86 0.94 1.00 1.00 0.93 0.89 0.83 0.77 0.65 0.56 0.49 0.45 0.42 0.39 0.41 0.42 0.43 0.43 0.42 0.45
0.60 0.71 0.79 0.93 1.26 1.35 0.54 0.36 0.66 0.85 0.74 0.83 0.86 0.81 0.74 0.70 0.57 0.53 0.56 0.61 0.64 0.66 0.67 0.66 0.70 0.78 0.79 0.73 0.74 0.80 0.74 0.62 0.50 0.53 0.54 0.49 0.43 0.36 0.40 0.50 0.49 0.46 0.50 0.54
0.53 0.62 0.74 0.92 1.12 0.89 0.47 0.38 0.42 0.49 0.60 0.61 0.61 0.57 0.46 0.40 0.35 0.37 0.40 0.41 0.44 0.45 0.50 0.55 0.56 0.61 0.65 0.62 0.65 0.71 0.70 0.58 0.54 0.60 0.59 0.48 0.39 0.42 0.45 0.49 0.47 0.42 0.43 0.40
0.55 0.43 0.50 0.64 0.74 0.58 0.47 0.40 0.37 0.37 0.41 0.39 0.39 0.39 0.31 0.28 0.31 0.35 0.38 0.36 0.35 0.39 0.41 0.46 0.48 0.48 0.52 0.52 0.56 0.60 0.55 0.53 0.63 0.71 0.60 0.44 0.39 0.39 0.39 0.38 0.33 0.30 0.32 0.31
0.57 0.47 0.48 0.63 0.67 0.62 0.61 0.42 0.31 0.28 0.26 0.26 0.28 0.29 0.26 0.25 0.31 0.31 0.33 0.35 0.36 0.37 0.39 0.42 0.45 0.44 0.40 0.40 0.45 0.44 0.46 0.55 0.73 0.70 0.56 0.45 0.38 0.35 0.34 0.28 0.21 0.17 0.16 0.13
0.35 0.42 0.47 0.56 0.50 0.57 0.64 0.47 0.31 0.29 0.26 0.24 0.22 0.23 0.27 0.29 0.30 0.28 0.28 0.31 0.33 0.33 0.34 0.40 0.41 0.37 0.36 0.38 0.39 0.38 0.43 0.49 0.62 0.62 0.48 0.39 0.34 0.29 0.24 0.22 0.20 0.12 0.07 0.06

GEFSCGP_prec_meanprecacc_162.txt.gz
Total_Precipitation_Accumulation
0.00 0.00 0.01 0.02 0.02 0.04 0.06 0.07 0.11 0.11 0.09 0.10 0.17 0.34 0.54 0.66 0.84 0.91 0.79 0.76 0.81 0.79 0.87 1.09 1.26 1.42 1.68 1.87 1.94 2.05 2.22 2.43 2.64 2.95 3.29 3.47 3.57 3.79 3.93 4.02 4.12 4.08 4.05 4.18
0.00 0.00 0.00 0.00 0.00 0.01 0.03 0.06 0.09 0.10 0.12 0.13 0.23 0.39 0.54 0.66 0.79 0.90 0.88 0.87 0.84 0.90 0.96 1.26 1.55 1.93 2.11 2.14 2.16 2.23 2.35 2.62 2.91 3.30 3.77 4.19 4.36 4.49 4.51 4.54 4.74 4.85 4.89 5.06
0.01 0.00 0.00 0.00 0.01 0.01 0.02 0.05 0.07 0.11 0.12 0.17 0.31 0.58 0.74 0.73 0.86 0.92 0.96 1.09 1.05 1.09 1.27 1.50 1.78 1.96 2.09 2.15 2.23 2.33 2.65 3.07 3.51 4.00 4.52 4.95 5.20 5.24 5.17 4.90 5.02 5.17 5.14 5.23
0.01 0.00 0.00 0.01 0.01 0.02 0.02 0.03 0.05 0.07 0.11 0.18 0.27 0.65 1.00 1.00 1.05 0.97 1.01 1.12 1.08 1.12 1.28 1.51 1.73 1.96 2.04 2.14 2.32 2.44 2.77 3.31 3.79 4.25 4.91 5.43 5.69 5.88 5.99 5.76 5.47 5.33 5.18 5.06
0.01 0.01 0.02 0.02 0.02 0.02 0.02 0.02 0.03 0.03 0.05 0.14 0.19 0.47 1.06 1.20 1.28 1.17 1.11 1.19 1.06 1.00 1.13 1.36 1.50 1.74 2.00 2.08 2.11 2.20 2.63 3.22 3.94 4.65 5.20 5.67 6.04 6.20 6.15 5.81 5.45 5.04 4.70 4.28
0.02 0.02 0.02 0.02 0.02 0.02 0.02 0.02 0.02 0.04 0.08 0.18 0.20 0.41 1.07 1.45 1.65 1.68 1.35 1.18 1.06 0.98 1.02 1.08 1.18 1.38 1.68 1.74 1.88 2.11 2.48 3.16 3.89 4.49 5.04 5.42 5.76 5.80 5.54 5.11 4.66 4.34 3.97 3.52
0.05 0.04 0.03 0.02 0.02 0.02 0.02 0.04 0.18 0.30 0.36 0.34 0.31 0.53 1.16 1.39 1.37 1.36 1.33 1.33 1.19 0.97 0.92 1.00 1.04 1.15 1.35 1.51 1.78 2.16 2.56 3.07 3.51 4.00 4.45 4.71 4.90 4.95 4.88 4.63 4.29 4.01 3.59 3.15
0.14 0.13 0.05 0.02 0.03 0.04 0.03 0.06 0.30 0.47 0.50 0.55 0.62 0.94 1.45 1.30 1.11 1.11 1.18 1.18 1.10 1.02 1.00 1.15 1.25 1.33 1.43 1.54 1.67 2.01 2.39 2.76 2.97 3.20 3.53 3.75 3.88 3.94 3.85 3.66 3.40 3.12 2.84 2.57
0.17 0.18 0.07 0.03 0.03 0.03 0.05 0.08 0.15 0.20 0.27 0.53 0.90 1.33 1.79 1.73 1.30 1.12 1.14 1.08 1.01 1.00 1.00 1.17 1.31 1.41 1.49 1.52 1.64 1.72 1.91 2.11 2.35 2.55 2.68 2.77 2.80 2.73 2.66 2.52 2.32 2.13 1.95 1.75
0.16 0.15 0.09 0.05 0.05 0.06 0.07 0.10 0.13 0.24 0.45 0.76 1.00 1.52 2.15 2.17 1.70 1.36 1.27 1.19 1.05 0.99 1.04 1.14 1.20 1.27 1.29 1.25 1.32 1.40 1.53 1.63 1.76 1.87 1.89 1.81 1.81 1.82 1.70 1.59 1.51 1.38 1.23 1.11
0.22 0.22 0.13 0.08 0.10 0.13 0.11 0.12 0.18 0.27 0.35 0.72 1.16 1.79 2.10 2.30 2.15 1.80 1.38 1.14 1.06 1.04 1.02 1.03 1.03 1.05 1.06 0.99 1.00 1.07 1.15 1.29 1.36 1.39 1.41 1.32 1.25 1.17 1.09 1.02 1.02 0.96 0.87 0.83
0.20 0.28 0.27 0.16 0.13 0.11 0.12 0.14 0.20 0.38 0.43 0.51 0.96 1.94 2.18 2.45 2.38 2.03 1.61 1.27 1.13 1.09 1.02 0.94 0.89 0.86 0.84 0.81 0.80 0.84 0.91 0.97 0.98 0.97 0.95 0.93 0.88 0.84 0.81 0.78 0.79 0.84 0.80 0.74
0.15 0.34 0.54 0.57 0.48 0.23 0.14 0.15 0.17 0.24 0.38 0.57 0.98 1.94 2.20 2.17 2.08 2.01 1.77 1.47 1.25 1.14 1.02 0.98 0.94 0.85 0.83 0.86 0.83 0.76 0.78 0.81 0.82 0.81 0.81 0.77 0.77 0.76 0.75 0.76 0.77 0.79 0.76 0.71
0.10 0.35 0.71 1.01 0.96 0.50 0.31 0.22 0.21 0.27 0.53 0.66 0.94 1.50 1.80 1.84 1.85 1.97 1.97 1.62 1.25 1.06 0.94 0.98 1.03 1.00 0.91 0.86 0.85 0.80 0.76 0.76 0.79 0.78 0.75 0.67 0.64 0.66 0.68 0.67 0.67 0.66 0.64 0.66
0.16 0.42 0.41 0.38 0.38 0.37 0.36 0.30 0.28 0.31 0.35 0.65 0.98 1.31 1.72 1.90 1.84 1.79 1.71 1.49 1.20 1.08 1.06 1.03 1.02 1.02 0.95 0.88 0.83 0.79 0.78 0.77 0.81 0.84 0.83 0.75 0.67 0.64 0.64 0.64 0.64 0.62 0.56 0.53
0.19 0.39 0.37 0.35 0.28 0.32 0.37 0.38 0.40 0.44 0.49 0.67 1.05 1.57 1.95 2.04 1.91 1.84 1.77 1.62 1.48 1.38 1.31 1.26 1.19 1.16 1.14 1.06 0.95 0.87 0.87 0.88 0.89 0.94 1.00 1.01 0.94 0.85 0.79 0.72 0.65 0.61 0.57 0.49
0.20 0.38 0.53 0.56 0.33 0.46 0.77 0.61 0.53 0.58 0.65 0.84 1.31 1.64 1.68 1.77 1.86 1.94 1.98 1.88 1.74 1.63 1.55 1.50 1.45 1.38 1.32 1.24 1.17 1.11 1.03 0.98 0.96 0.97 1.00 1.00 0.94 0.84 0.75 0.65 0.57 0.55 0.53 0.48
0.22 0.40 0.55 0.62 0.65 1.13 1.04 0.59 0.56 0.68 0.77 0.86 1.06 1.24 1.34 1.34 1.44 1.53 1.64 1.69 1.67 1.53 1.49 1.49 1.49 1.47 1.45 1.33 1.24 1.18 1.11 1.07 1.01 1.00 0.96 0.91 0.81 0.70 0.59 0.54 0.52 0.51 0.50 0.50
0.16 0.34 0.58 0.68 0.94 1.13 0.98 0.57 0.55 0.89 1.32 1.09 1.03 0.96 0.91 0.88 0.97 1.27 1.44 1.48 1.57 1.58 1.56 1.54 1.48 1.40 1.36 1.28 1.22 1.16 1.14 1.08 1.00 0.95 0.84 0.72 0.63 0.59 0.55 0.52 0.52 0.51 0.48 0.46
0.17 0.28 0.57 0.74 1.08 1.35 1.23 0.54 0.38 0.75 1.62 1.30 1.10 0.97 0.88 0.98 1.16 1.21 1.19 1.20 1.29 1.33 1.33 1.26 1.17 1.11 1.11 1.13 1.09 1.05 1.03 0.97 0.88 0.73 0.59 0.52 0.50 0.51 0.52 0.50 0.47 0.45 0.46 0.45
0.50 0.52 0.65 0.83 1.18 1.36 0.69 0.33 0.48 1.20 1.55 1.26 1.08 0.95 0.90 1.08 1.11 0.93 0.88 0.97 1.00 1.03 1.00 0.93 0.89 0.96 1.02 1.02 0.95 0.91 0.85 0.79 0.67 0.57 0.51 0.46 0.44 0.41 0.43 0.45 0.44 0.44 0.43 0.46
0.64 0.74 0.81 0.94 1.27 1.36 0.55 0.38 0.68 0.87 0.76 0.85 0.88 0.84 0.78 0.73 0.60 0.60 0.64 0.70 0.70 0.70 0.71 0.69 0.72 0.79 0.81 0.75 0.75 0.81 0.75 0.63 0.52 0.54 0.54 0.51 0.44 0.37 0.42 0.52 0.51 0.47 0.51 0.55
0.55 0.66 0.77 0.94 1.14 0.91 0.49 0.40 0.44 0.51 0.62 0.63 0.63 0.60 0.49 0.44 0.39 0.42 0.45 0.44 0.46 0.46 0.52 0.57 0.58 0.62 0.66 0.63 0.66 0.72 0.71 0.59 0.56 0.61 0.60 0.49 0.40 0.44 0.47 0.52 0.50 0.43 0.43 0.41
0.56 0.44 0.51 0.66 0.75 0.60 0.48 0.42 0.39 0.40 0.43 0.41 0.42 0.43 0.34 0.32 0.34 0.37 0.40 0.38 0.36 0.39 0.42 0.48 0.49 0.49 0.53 0.52 0.56 0.61 0.56 0.55 0.66 0.73 0.62 0.47 0.41 0.41 0.42 0.41 0.36 0.31 0.33 0.32
0.59 0.50 0.50 0.64 0.68 0.64 0.63 0.44 0.34 0.30 0.28 0.28 0.31 0.31 0.27 0.27 0.32 0.32 0.34 0.36 0.38 0.39 0.41 0.44 0.47 0.45 0.40 0.41 0.46 0.44 0.48 0.58 0.77 0.74 0.60 0.49 0.41 0.38 0.36 0.30 0.22 0.18 0.16 0.14
0.37 0.45 0.50 0.58 0.52 0.60 0.67 0.49 0.34 0.33 0.29 0.27 0.24 0.24 0.28 0.30 0.31 0.29 0.28 0.32 0.34 0.35 0.36 0.42 0.42 0.38 0.37 0.38 0.39 0.38 0.43 0.50 0.65 0.65 0.49 0.41 0.37 0.32 0.26 0.23 0.21 0.13 0.08 0.07

GEFSCGP_prec_meanprecacc_168.txt.gz
Total_Precipitation_Accumulation
0.00 0.00 0.01 0.02 0.02 0.04 0.07 0.07 0.11 0.11 0.10 0.10 0.17 0.35 0.54 0.67 0.87 0.97 0.85 0.80 0.84 0.82 0.91 1.15 1.32 1.47 1.71 1.92 2.00 2.11 2.27 2.49 2.70 3.01 3.36 3.55 3.66 3.88 4.02 4.10 4.21 4.16 4.13 4.26
0.00 0.00 0.00 0.00 0.00 0.01 0.03 0.06 0.09 0.11 0.12 0.14 0.24 0.40 0.55 0.67 0.81 0.93 0.92 0.90 0.87 0.93 0.99 1.29 1.61 1.98 2.15 2.20 2.21 2.29 2.40 2.67 2.97 3.37 3.85 4.27 4.44 4.57 4.59 4.62 4.82 4.93 4.97 5.14
0.01 0.00 0.00 0.00 0.01 0.01 0.02 0.05 0.08 0.11 0.13 0.17 0.32 0.59 0.75 0.74 0.87 0.94 0.98 1.11 1.06 1.10 1.29 1.52 1.81 2.01 2.14 2.19 2.27 2.39 2.70 3.11 3.56 4.05 4.58 5.02 5.28 5.30 5.23 4.97 5.09 5.24 5.21 5.31
0.01 0.00 0.01 0.01 0.02 0.02 0.03 0.04 0.05 0.08 0.12 0.19 0.29 0.68 1.01 1.01 1.06 0.98 1.02 1.13 1.10 1.14 1.30 1.53 1.75 1.99 2.06 2.16 2.34 2.48 2.81 3.34 3.83 4.28 4.95 5.49 5.76 5.95 6.06 5.84 5.54 5.39 5.23 5.12
0.01 0.01 0.02 0.02 0.02 0.03 0.03 0.02 0.03 0.04 0.06 0.15 0.20 0.49 1.06 1.21 1.28 1.18 1.12 1.19 1.07 1.02 1.15 1.39 1.52 1.76 2.02 2.10 2.13 2.22 2.66 3.24 3.97 4.68 5.23 5.72 6.11 6.27 6.22 5.86 5.50 5.09 4.75 4.32
0.02 0.02 0.02 0.02 0.02 0.02 0.02 0.02 0.03 0.04 0.08 0.19 0.21 0.42 1.07 1.45 1.65 1.69 1.36 1.19 1.08 1.00 1.04 1.11 1.19 1.39 1.70 1.76 1.90 2.12 2.49 3.18 3.92 4.52 5.07 5.48 5.83 5.88 5.60 5.16 4.70 4.39 4.01 3.56
0.05 0.04 0.03 0.02 0.02 0.02 0.02 0.05 0.18 0.31 0.36 0.35 0.31 0.53 1.16 1.39 1.38 1.36 1.35 1.35 1.21 0.99 0.94 1.00 1.05 1.16 1.36 1.53 1.79 2.17 2.58 3.10 3.54 4.04 4.51 4.79 4.99 5.02 4.93 4.67 4.33 4.04 3.62 3.18
0.14 0.13 0.05 0.02 0.03 0.04 0.03 0.06 0.30 0.48 0.51 0.55 0.62 0.94 1.45 1.30 1.11 1.11 1.19 1.20 1.10 1.03 1.00 1.16 1.26 1.34 1.44 1.56 1.69 2.02 2.40 2.79 3.01 3.24 3.60 3.83 3.97 4.02 3.91 3.70 3.44 3.16 2.87 2.60
0.17 0.18 0.07 0.03 0.03 0.03 0.05 0.08 0.15 0.20 0.27 0.53 0.90 1.33 1.79 1.73 1.31 1.13 1.14 1.08 1.01 1.00 1.01 1.17 1.32 1.42 1.50 1.54 1.66 1.74 1.93 2.15 2.41 2.61 2.75 2.85 2.89 2.81 2.71 2.54 2.34 2.17 1.99 1.78
0.16 0.15 0.10 0.05 0.05 0.06 0.08 0.10 0.13 0.24 0.46 0.77 1.00 1.52 2.15 2.17 1.70 1.36 1.27 1.19 1.05 0.99 1.04 1.14 1.21 1.29 1.31 1.27 1.34 1.42 1.57 1.68 1.82 1.95 1.99 1.90 1.89 1.89 1.76 1.62 1.54 1.41 1.26 1.15
0.23 0.22 0.14 0.08 0.10 0.13 0.11 0.12 0.18 0.28 0.36 0.73 1.17 1.79 2.10 2.30 2.16 1.80 1.38 1.14 1.06 1.04 1.02 1.03 1.04 1.06 1.08 1.01 1.02 1.10 1.20 1.34 1.41 1.44 1.47 1.39 1.32 1.22 1.13 1.06 1.05 0.98 0.90 0.86
0.20 0.29 0.28 0.16 0.14 0.11 0.12 0.15 0.20 0.39 0.43 0.52 0.97 1.95 2.18 2.45 2.38 2.04 1.61 1.28 1.13 1.10 1.02 0.94 0.90 0.87 0.86 0.83 0.82 0.87 0.94 1.01 1.02 1.01 0.99 0.97 0.92 0.87 0.84 0.82 0.82 0.86 0.82 0.76
0.15 0.35 0.55 0.59 0.49 0.24 0.15 0.15 0.18 0.24 0.39 0.58 0.99 1.95 2.20 2.17 2.08 2.01 1.77 1.47 1.25 1.14 1.03 0.99 0.96 0.87 0.85 0.88 0.86 0.79 0.81 0.84 0.85 0.84 0.83 0.80 0.80 0.78 0.77 0.79 0.79 0.81 0.79 0.73
0.11 0.36 0.73 1.03 0.98 0.51 0.32 0.23 0.22 0.28 0.55 0.67 0.95 1.50 1.81 1.84 1.85 1.98 1.97 1.62 1.26 1.06 0.94 1.00 1.06 1.02 0.93 0.89 0.89 0.84 0.79 0.78 0.82 0.80 0.77 0.69 0.66 0.68 0.70 0.70 0.70 0.68 0.67 0.68
0.16 0.43 0.42 0.39 0.39 0.38 0.37 0.31 0.29 0.32 0.36 0.66 0.98 1.32 1.72 1.90 1.84 1.79 1.71 1.49 1.21 1.10 1.08 1.05 1.04 1.04 0.98 0.91 0.86 0.81 0.80 0.80 0.84 0.86 0.85 0.77 0.69 0.67 0.67 0.67 0.68 0.64 0.59 0.55
0.20 0.40 0.38 0.35 0.29 0.33 0.38 0.38 0.41 0.45 0.50 0.67 1.05 1.57 1.95 2.04 1.91 1.85 1.78 1.63 1.49 1.40 1.32 1.29 1.22 1.19 1.17 1.08 0.97 0.90 0.89 0.90 0.91 0.96 1.01 1.03 0.98 0.90 0.83 0.76 0.69 0.64 0.61 0.53
0.21 0.39 0.55 0.57 0.34 0.47 0.78 0.63 0.55 0.60 0.66 0.85 1.33 1.65 1.69 1.77 1.87 1.95 1.99 1.89 1.76 1.65 1.58 1.53 1.48 1.41 1.34 1.27 1.20 1.15 1.07 1.01 0.98 1.00 1.02 1.02 0.98 0.90 0.81 0.69 0.61 0.60 0.58 0.53
0.23 0.41 0.56 0.63 0.67 1.15 1.06 0.61 0.57 0.71 0.81 0.88 1.07 1.26 1.36 1.36 1.45 1.54 1.65 1.71 1.69 1.56 1.52 1.53 1.52 1.51 1.48 1.36 1.27 1.22 1.15 1.10 1.04 1.03 0.99 0.94 0.85 0.75 0.63 0.57 0.55 0.55 0.54 0.54
0.16 0.35 0.59 0.69 0.96 1.15 1.00 0.57 0.56 0.91 1.35 1.10 1.05 0.98 0.92 0.89 0.99 1.29 1.47 1.51 1.59 1.61 1.60 1.57 1.51 1.44 1.40 1.31 1.25 1.20 1.17 1.10 1.03 0.99 0.88 0.76 0.67 0.63 0.58 0.55 0.54 0.53 0.50 0.49
0.18 0.28 0.59 0.76 1.11 1.38 1.26 0.56 0.40 0.78 1.65 1.32 1.11 0.98 0.89 1.00 1.19 1.25 1.24 1.25 1.33 1.37 1.39 1.31 1.22 1.15 1.16 1.17 1.13 1.08 1.05 0.99 0.92 0.79 0.65 0.56 0.55 0.55 0.55 0.52 0.49 0.48 0.48 0.47
0.51 0.54 0.67 0.85 1.20 1.40 0.72 0.36 0.52 1.26 1.60 1.29 1.10 0.97 0.92 1.10 1.15 0.98 0.96 1.04 1.05 1.09 1.07 0.99 0.94 1.00 1.05 1.05 0.98 0.94 0.88 0.82 0.71 0.62 0.54 0.50 0.48 0.44 0.46 0.46 0.45 0.45 0.45 0.49
0.65 0.77 0.83 0.97 1.30 1.40 0.58 0.41 0.74 0.93 0.79 0.87 0.89 0.85 0.79 0.75 0.64 0.66 0.72 0.77 0.74 0.75 0.76 0.73 0.76 0.82 0.84 0.77 0.78 0.83 0.78 0.66 0.55 0.57 0.57 0.53 0.47 0.39 0.43 0.53 0.52 0.48 0.53 0.57
0.56 0.68 0.80 0.97 1.16 0.94 0.51 0.43 0.48 0.55 0.64 0.64 0.65 0.62 0.51 0.45 0.42 0.49 0.52 0.50 0.50 0.50 0.56 0.59 0.60 0.64 0.68 0.66 0.68 0.74 0.72 0.60 0.57 0.64 0.62 0.51 0.41 0.45 0.48 0.53 0.51 0.45 0.44 0.42
0.58 0.45 0.53 0.67 0.77 0.61 0.50 0.44 0.42 0.42 0.45 0.42 0.43 0.44 0.35 0.33 0.37 0.42 0.45 0.41 0.39 0.41 0.44 0.49 0.51 0.50 0.54 0.54 0.59 0.64 0.58 0.57 0.69 0.75 0.64 0.48 0.42 0.42 0.42 0.42 0.37 0.33 0.34 0.33
0.60 0.51 0.52 0.66 0.69 0.65 0.64 0.45 0.36 0.31 0.29 0.28 0.31 0.32 0.28 0.28 0.34 0.35 0.37 0.38 0.39 0.39 0.41 0.45 0.48 0.46 0.42 0.43 0.48 0.46 0.49 0.60 0.79 0.75 0.61 0.50 0.42 0.39 0.37 0.30 0.23 0.18 0.17 0.15
0.38 0.46 0.53 0.60 0.54 0.62 0.68 0.50 0.36 0.34 0.29 0.27 0.25 0.25 0.29 0.31 0.33 0.31 0.30 0.33 0.36 0.36 0.37 0.43 0.44 0.39 0.39 0.41 0.42 0.41 0.45 0.52 0.68 0.68 0.52 0.43 0.38 0.33 0.27 0.24 0.22 0.14 0.09 0.07

GEFSCGP_prec_meanprecacc_174.txt.gz
Total_Precipitation_Accumulation
0.00 0.00 0.01 0.02 0.03 0.06 0.07 0.07 0.12 0.12 0.11 0.13 0.20 0.39 0.57 0.69 0.88 0.98 0.87 0.83 0.88 0.88 1.01 1.23 1.38 1.52 1.76 1.96 2.04 2.16 2.32 2.54 2.76 3.08 3.44 3.62 3.73 3.94 4.08 4.16 4.27 4.23 4.20 4.34
0.00 0.00 0.00 0.00 0.01 0.02 0.03 0.07 0.10 0.11 0.12 0.14 0.25 0.42 0.58 0.68 0.81 0.94 0.92 0.91 0.90 0.97 1.04 1.34 1.65 2.04 2.22 2.26 2.28 2.35 2.47 2.74 3.03 3.43 3.92 4.34 4.51 4.63 4.67 4.70 4.90 5.00 5.05 5.23
0.01 0.00 0.00 0.01 0.01 0.01 0.03 0.05 0.08 0.12 0.13 0.18 0.33 0.61 0.78 0.76 0.88 0.94 0.98 1.12 1.08 1.13 1.31 1.55 1.85 2.05 2.19 2.24 2.33 2.47 2.79 3.19 3.63 4.11 4.64 5.08 5.33 5.37 5.32 5.05 5.16 5.32 5.29 5.38
0.01 0.00 0.01 0.01 0.02 0.02 0.03 0.04 0.05 0.08 0.13 0.21 0.30 0.71 1.05 1.04 1.09 0.99 1.03 1.14 1.11 1.15 1.32 1.55 1.77 2.01 2.09 2.20 2.39 2.55 2.90 3.44 3.90 4.34 5.01 5.54 5.82 6.03 6.13 5.92 5.62 5.46 5.28 5.17
0.01 0.01 0.02 0.02 0.02 0.03 0.03 0.03 0.04 0.04 0.08 0.19 0.22 0.53 1.13 1.26 1.33 1.22 1.16 1.21 1.08 1.03 1.17 1.41 1.54 1.78 2.06 2.13 2.17 2.28 2.76 3.36 4.05 4.73 5.29 5.79 6.17 6.34 6.29 5.93 5.56 5.13 4.79 4.36
0.02 0.02 0.02 0.02 0.02 0.02 0.03 0.03 0.04 0.06 0.13 0.24 0.24 0.45 1.13 1.51 1.70 1.73 1.39 1.20 1.09 1.00 1.06 1.12 1.21 1.41 1.73 1.80 1.94 2.16 2.55 3.24 3.98 4.58 5.13 5.55 5.92 5.97 5.68 5.23 4.75 4.44 4.07 3.62
0.05 0.04 0.03 0.02 0.02 0.02 0.03 0.08 0.22 0.35 0.41 0.38 0.33 0.57 1.23 1.44 1.39 1.38 1.36 1.36 1.22 1.00 0.94 1.02 1.06 1.17 1.39 1.56 1.83 2.20 2.62 3.15 3.60 4.10 4.58 4.86 5.09 5.12 5.02 4.74 4.39 4.11 3.69 3.25
0.14 0.13 0.06 0.02 0.03 0.05 0.04 0.10 0.35 0.52 0.55 0.58 0.64 0.98 1.51 1.34 1.12 1.12 1.20 1.20 1.11 1.03 1.00 1.16 1.27 1.36 1.46 1.59 1.74 2.07 2.45 2.85 3.06 3.29 3.66 3.91 4.05 4.11 4.01 3.79 3.51 3.24 2.95 2.67
0.18 0.18 0.07 0.03 0.03 0.03 0.05 0.10 0.17 0.21 0.29 0.57 0.94 1.36 1.83 1.76 1.31 1.13 1.14 1.08 1.01 1.00 1.01 1.17 1.32 1.43 1.51 1.56 1.69 1.78 1.97 2.20 2.46 2.66 2.81 2.93 2.98 2.91 2.83 2.63 2.41 2.24 2.07 1.85
0.17 0.16 0.10 0.05 0.06 0.07 0.08 0.10 0.13 0.24 0.48 0.80 1.05 1.57 2.20 2.19 1.71 1.36 1.27 1.19 1.06 1.00 1.04 1.15 1.21 1.29 1.31 1.29 1.36 1.46 1.62 1.74 1.89 2.02 2.07 1.98 1.97 1.96 1.82 1.67 1.57 1.45 1.29 1.18
0.25 0.24 0.14 0.08 0.11 0.14 0.12 0.13 0.19 0.28 0.38 0.79 1.24 1.88 2.15 2.32 2.17 1.81 1.39 1.15 1.07 1.04 1.02 1.04 1.04 1.07 1.10 1.03 1.04 1.14 1.26 1.43 1.52 1.54 1.55 1.47 1.39 1.27 1.17 1.09 1.07 1.00 0.93 0.89
0.23 0.31 0.29 0.16 0.14 0.11 0.13 0.15 0.21 0.41 0.46 0.56 1.03 2.03 2.21 2.48 2.39 2.05 1.63 1.31 1.16 1.11 1.03 0.95 0.91 0.89 0.88 0.85 0.86 0.92 1.00 1.07 1.10 1.10 1.06 1.04 0.98 0.91 0.87 0.85 0.85 0.89 0.86 0.80
0.16 0.37 0.59 0.62 0.51 0.24 0.15 0.16 0.19 0.26 0.42 0.62 1.06 2.02 2.22 2.19 2.09 2.01 1.78 1.50 1.29 1.17 1.04 1.00 0.96 0.88 0.86 0.90 0.88 0.83 0.85 0.88 0.90 0.90 0.88 0.85 0.84 0.82 0.81 0.83 0.85 0.86 0.83 0.78
0.11 0.38 0.76 1.08 1.02 0.52 0.34 0.25 0.23 0.30 0.59 0.71 0.99 1.55 1.85 1.86 1.87 1.99 1.98 1.64 1.27 1.08 0.96 1.01 1.07 1.03 0.95 0.91 0.93 0.88 0.84 0.82 0.86 0.84 0.81 0.74 0.70 0.71 0.73 0.74 0.74 0.73 0.71 0.72
0.17 0.44 0.43 0.41 0.41 0.39 0.39 0.33 0.31 0.35 0.39 0.69 1.01 1.36 1.76 1.92 1.86 1.81 1.73 1.51 1.22 1.11 1.10 1.08 1.06 1.06 1.00 0.94 0.91 0.86 0.86 0.85 0.90 0.93 0.91 0.82 0.74 0.72 0.71 0.72 0.71 0.68 0.63 0.59
0.22 0.43 0.39 0.37 0.29 0.34 0.39 0.39 0.42 0.47 0.51 0.69 1.08 1.61 1.98 2.06 1.93 1.87 1.80 1.64 1.51 1.42 1.35 1.32 1.26 1.22 1.19 1.12 1.02 0.95 0.97 0.99 0.99 1.03 1.10 1.11 1.04 0.96 0.89 0.81 0.74 0.71 0.69 0.60
0.23 0.41 0.57 0.58 0.34 0.48 0.80 0.64 0.58 0.64 0.69 0.87 1.36 1.68 1.70 1.79 1.89 1.98 2.01 1.91 1.79 1.68 1.61 1.57 1.51 1.44 1.37 1.31 1.26 1.21 1.14 1.10 1.08 1.10 1.11 1.09 1.06 0.99 0.89 0.79 0.70 0.70 0.68 0.63
0.24 0.44 0.60 0.65 0.70 1.19 1.10 0.62 0.60 0.75 0.85 0.90 1.09 1.28 1.38 1.40 1.50 1.59 1.68 1.74 1.74 1.62 1.56 1.56 1.56 1.55 1.53 1.41 1.33 1.30 1.24 1.18 1.12 1.13 1.09 1.03 0.92 0.82 0.69 0.65 0.64 0.63 0.60 0.60
0.16 0.37 0.63 0.74 1.02 1.20 1.05 0.61 0.59 0.95 1.40 1.14 1.07 1.00 0.95 0.94 1.04 1.34 1.51 1.58 1.73 1.74 1.65 1.61 1.56 1.50 1.46 1.38 1.32 1.27 1.26 1.20 1.14 1.09 0.98 0.86 0.79 0.73 0.66 0.62 0.60 0.58 0.56 0.54
0.18 0.30 0.62 0.80 1.16 1.45 1.33 0.61 0.43 0.82 1.74 1.36 1.14 1.01 0.93 1.05 1.25 1.32 1.30 1.31 1.40 1.46 1.46 1.38 1.28 1.21 1.23 1.24 1.21 1.15 1.13 1.08 1.02 0.87 0.71 0.62 0.62 0.63 0.61 0.57 0.53 0.52 0.53 0.52
0.53 0.57 0.71 0.89 1.25 1.45 0.76 0.39 0.56 1.35 1.70 1.34 1.13 1.00 0.96 1.15 1.21 1.04 1.02 1.09 1.10 1.14 1.12 1.04 0.99 1.05 1.11 1.11 1.04 1.01 0.95 0.89 0.80 0.71 0.59 0.55 0.54 0.51 0.50 0.51 0.50 0.50 0.49 0.53
0.67 0.78 0.85 1.00 1.36 1.46 0.61 0.47 0.82 1.02 0.86 0.90 0.92 0.87 0.82 0.78 0.68 0.71 0.79 0.84 0.80 0.79 0.81 0.78 0.80 0.86 0.88 0.83 0.83 0.90 0.86 0.74 0.64 0.67 0.62 0.58 0.52 0.44 0.47 0.57 0.55 0.53 0.56 0.60
0.58 0.70 0.82 0.99 1.20 0.97 0.54 0.48 0.55 0.59 0.67 0.67 0.67 0.63 0.53 0.48 0.45 0.52 0.56 0.55 0.54 0.54 0.60 0.63 0.63 0.67 0.72 0.70 0.74 0.79 0.79 0.66 0.64 0.71 0.68 0.57 0.47 0.51 0.53 0.57 0.54 0.48 0.47 0.44
0.59 0.46 0.54 0.69 0.78 0.62 0.51 0.48 0.45 0.43 0.46 0.43 0.45 0.46 0.37 0.35 0.39 0.44 0.48 0.44 0.40 0.43 0.46 0.52 0.54 0.54 0.58 0.58 0.63 0.68 0.62 0.61 0.74 0.81 0.71 0.55 0.48 0.47 0.47 0.45 0.39 0.34 0.35 0.33
0.61 0.52 0.53 0.68 0.71 0.67 0.66 0.46 0.37 0.32 0.29 0.29 0.33 0.33 0.30 0.29 0.36 0.36 0.38 0.40 0.40 0.41 0.43 0.47 0.50 0.49 0.45 0.46 0.52 0.49 0.52 0.64 0.84 0.81 0.66 0.53 0.44 0.41 0.38 0.32 0.24 0.19 0.18 0.15
0.39 0.47 0.55 0.63 0.57 0.66 0.71 0.52 0.36 0.34 0.29 0.28 0.26 0.26 0.30 0.32 0.34 0.32 0.31 0.33 0.36 0.38 0.39 0.45 0.46 0.42 0.42 0.45 0.46 0.45 0.48 0.55 0.72 0.72 0.54 0.44 0.39 0.34 0.28 0.25 0.24 0.16 0.11 0.09

GEFSCGP_prec_meanprecacc_180.txt.gz
Total_Precipitation_Accumulation
0.00 0.00 0.02 0.02 0.03 0.06 0.08 0.08 0.12 0.12 0.11 0.14 0.23 0.43 0.63 0.74 0.94 1.05 0.92 0.86 0.91 0.91 1.04 1.28 1.47 1.66 1.91 2.08 2.15 2.29 2.52 2.78 2.96 3.27 3.61 3.77 3.85 4.04 4.16 4.24 4.34 4.31 4.28 4.40
0.00 0.01 0.00 0.00 0.01 0.02 0.04 0.07 0.10 0.11 0.13 0.15 0.27 0.44 0.62 0.71 0.85 0.99 0.97 0.95 0.93 1.00 1.08 1.38 1.71 2.13 2.33 2.40 2.41 2.56 2.79 3.00 3.19 3.59 4.09 4.50 4.64 4.74 4.77 4.79 4.98 5.08 5.12 5.30
0.01 0.01 0.00 0.01 0.01 0.01 0.03 0.06 0.09 0.12 0.15 0.20 0.36 0.64 0.82 0.83 0.95 1.02 1.05 1.17 1.11 1.16 1.34 1.58 1.88 2.12 2.29 2.39 2.49 2.68 2.98 3.33 3.76 4.26 4.77 5.19 5.44 5.49 5.42 5.14 5.24 5.40 5.37 5.44
0.01 0.00 0.01 0.01 0.02 0.03 0.04 0.05 0.06 0.10 0.15 0.24 0.33 0.76 1.12 1.16 1.20 1.09 1.10 1.20 1.15 1.18 1.35 1.58 1.81 2.07 2.17 2.33 2.56 2.74 3.06 3.62 4.08 4.47 5.12 5.65 5.94 6.14 6.23 5.99 5.68 5.52 5.34 5.22
0.01 0.01 0.02 0.03 0.03 0.03 0.04 0.03 0.06 0.08 0.10 0.21 0.24 0.56 1.20 1.34 1.42 1.30 1.22 1.28 1.13 1.06 1.21 1.48 1.59 1.83 2.12 2.25 2.35 2.50 2.96 3.56 4.26 4.91 5.44 5.92 6.30 6.47 6.41 6.02 5.64 5.20 4.84 4.42
0.02 0.02 0.02 0.02 0.02 0.02 0.03 0.04 0.07 0.10 0.15 0.27 0.26 0.46 1.18 1.59 1.78 1.82 1.48 1.28 1.14 1.05 1.11 1.20 1.29 1.46 1.79 1.91 2.12 2.33 2.69 3.39 4.13 4.77 5.32 5.72 6.05 6.08 5.77 5.30 4.82 4.51 4.14 3.68
0.05 0.04 0.03 0.02 0.02 0.02 0.03 0.09 0.25 0.40 0.44 0.42 0.35 0.59 1.28 1.51 1.46 1.42 1.42 1.42 1.26 1.03 0.98 1.07 1.10 1.24 1.45 1.63 1.92 2.28 2.71 3.26 3.70 4.22 4.71 4.98 5.19 5.22 5.11 4.81 4.45 4.17 3.75 3.33
0.15 0.14 0.06 0.02 0.03 0.05 0.04 0.11 0.39 0.56 0.60 0.64 0.70 1.03 1.57 1.38 1.17 1.15 1.24 1.25 1.15 1.06 1.03 1.19 1.30 1.38 1.50 1.63 1.79 2.12 2.52 2.92 3.14 3.39 3.77 4.02 4.15 4.22 4.11 3.88 3.57 3.30 3.02 2.75
0.18 0.18 0.07 0.03 0.03 0.03 0.06 0.11 0.18 0.24 0.33 0.61 0.99 1.44 1.91 1.82 1.36 1.17 1.18 1.13 1.05 1.05 1.05 1.21 1.36 1.46 1.55 1.60 1.74 1.84 2.04 2.25 2.51 2.73 2.90 3.03 3.08 3.02 2.92 2.71 2.48 2.30 2.13 1.91
0.18 0.17 0.11 0.05 0.06 0.07 0.09 0.12 0.15 0.26 0.52 0.84 1.10 1.62 2.27 2.27 1.78 1.41 1.32 1.26 1.12 1.06 1.08 1.18 1.25 1.32 1.36 1.35 1.43 1.53 1.67 1.79 1.94 2.08 2.14 2.06 2.06 2.04 1.91 1.74 1.64 1.51 1.34 1.22
0.25 0.25 0.16 0.09 0.11 0.15 0.13 0.14 0.21 0.31 0.40 0.83 1.28 1.93 2.20 2.38 2.21 1.84 1.44 1.22 1.13 1.09 1.06 1.08 1.09 1.10 1.13 1.08 1.11 1.19 1.33 1.52 1.60 1.59 1.60 1.53 1.46 1.34 1.24 1.16 1.14 1.07 0.97 0.92
0.24 0.32 0.31 0.18 0.15 0.12 0.13 0.16 0.23 0.43 0.48 0.60 1.06 2.08 2.26 2.54 2.43 2.08 1.67 1.36 1.22 1.16 1.08 1.01 0.96 0.92 0.90 0.88 0.88 0.96 1.06 1.15 1.17 1.16 1.12 1.10 1.05 0.99 0.95 0.93 0.91 0.94 0.90 0.83
0.18 0.39 0.61 0.64 0.52 0.25 0.16 0.17 0.20 0.27 0.44 0.66 1.12 2.10 2.31 2.25 2.14 2.06 1.83 1.54 1.34 1.23 1.10 1.06 1.00 0.91 0.89 0.92 0.90 0.87 0.92 0.96 0.97 0.99 0.94 0.91 0.93 0.92 0.90 0.91 0.91 0.92 0.88 0.82
0.12 0.39 0.78 1.09 1.03 0.53 0.35 0.26 0.25 0.31 0.61 0.73 1.01 1.59 1.90 1.92 1.92 2.03 2.03 1.68 1.30 1.13 1.01 1.06 1.11 1.07 0.99 0.95 0.95 0.91 0.88 0.90 0.96 0.95 0.88 0.78 0.75 0.78 0.81 0.80 0.81 0.80 0.77 0.77
0.19 0.45 0.44 0.42 0.41 0.39 0.39 0.34 0.33 0.37 0.40 0.71 1.04 1.42 1.82 1.95 1.89 1.86 1.77 1.54 1.24 1.13 1.12 1.11 1.10 1.09 1.04 1.00 0.98 0.90 0.89 0.92 1.05 1.04 0.98 0.88 0.79 0.78 0.78 0.77 0.77 0.74 0.70 0.65
0.23 0.44 0.41 0.38 0.30 0.34 0.40 0.40 0.43 0.49 0.53 0.73 1.14 1.69 2.04 2.10 1.96 1.90 1.85 1.68 1.53 1.43 1.36 1.33 1.28 1.26 1.23 1.17 1.15 1.05 1.04 1.06 1.08 1.14 1.19 1.18 1.09 1.02 0.98 0.89 0.80 0.77 0.74 0.65
0.24 0.43 0.59 0.61 0.35 0.49 0.83 0.67 0.61 0.67 0.74 0.93 1.45 1.77 1.78 1.85 1.94 2.03 2.08 1.96 1.82 1.69 1.62 1.58 1.53 1.46 1.40 1.34 1.32 1.29 1.22 1.19 1.17 1.18 1.20 1.17 1.12 1.06 1.00 0.90 0.79 0.77 0.76 0.72
0.25 0.45 0.62 0.68 0.72 1.23 1.13 0.64 0.62 0.79 0.90 0.97 1.17 1.34 1.44 1.48 1.58 1.66 1.76 1.82 1.80 1.65 1.58 1.58 1.59 1.57 1.55 1.44 1.37 1.34 1.29 1.24 1.21 1.21 1.16 1.09 1.00 0.91 0.82 0.79 0.75 0.72 0.69 0.69
0.17 0.38 0.65 0.76 1.03 1.23 1.07 0.63 0.60 0.99 1.47 1.18 1.11 1.04 0.99 0.99 1.11 1.42 1.60 1.67 1.81 1.79 1.69 1.65 1.59 1.53 1.49 1.41 1.36 1.32 1.31 1.28 1.21 1.18 1.07 0.93 0.87 0.83 0.75 0.72 0.67 0.63 0.60 0.58
0.19 0.31 0.64 0.83 1.19 1.49 1.36 0.63 0.45 0.86 1.83 1.42 1.20 1.05 0.96 1.09 1.31 1.39 1.38 1.39 1.47 1.54 1.54 1.43 1.32 1.25 1.27 1.28 1.25 1.22 1.19 1.14 1.08 0.93 0.78 0.69 0.70 0.71 0.66 0.62 0.58 0.55 0.54 0.53
0.54 0.58 0.73 0.92 1.29 1.50 0.80 0.41 0.58 1.39 1.80 1.41 1.18 1.03 0.98 1.19 1.26 1.09 1.06 1.14 1.16 1.20 1.17 1.09 1.04 1.09 1.15 1.15 1.09 1.06 1.00 0.94 0.86 0.78 0.67 0.62 0.59 0.56 0.55 0.53 0.53 0.52 0.50 0.54
0.68 0.80 0.86 1.01 1.38 1.51 0.64 0.49 0.87 1.08 0.91 0.95 0.95 0.90 0.83 0.80 0.71 0.75 0.82 0.87 0.85 0.85 0.85 0.83 0.85 0.90 0.92 0.87 0.88 0.95 0.90 0.78 0.70 0.74 0.70 0.65 0.56 0.48 0.49 0.59 0.57 0.54 0.58 0.61
0.61 0.72 0.83 1.00 1.22 0.99 0.56 0.53 0.61 0.65 0.71 0.70 0.69 0.64 0.54 0.50 0.47 0.58 0.58 0.57 0.57 0.58 0.63 0.67 0.67 0.70 0.76 0.75 0.78 0.83 0.82 0.72 0.71 0.78 0.76 0.64 0.52 0.55 0.56 0.60 0.57 0.50 0.49 0.45
0.61 0.48 0.56 0.71 0.80 0.64 0.53 0.51 0.48 0.45 0.47 0.45 0.46 0.47 0.38 0.36 0.41 0.48 0.50 0.47 0.43 0.45 0.48 0.55 0.56 0.56 0.60 0.62 0.66 0.70 0.64 0.64 0.79 0.86 0.78 0.61 0.51 0.50 0.50 0.49 0.42 0.36 0.36 0.35
0.63 0.54 0.55 0.70 0.73 0.69 0.68 0.48 0.38 0.33 0.30 0.30 0.33 0.34 0.31 0.30 0.38 0.39 0.41 0.42 0.42 0.42 0.45 0.49 0.52 0.50 0.47 0.49 0.54 0.51 0.53 0.66 0.88 0.84 0.70 0.57 0.46 0.43 0.41 0.34 0.26 0.22 0.20 0.18
0.40 0.48 0.56 0.64 0.58 0.69 0.74 0.53 0.37 0.34 0.30 0.28 0.26 0.27 0.31 0.33 0.37 0.35 0.33 0.35 0.38 0.39 0.41 0.47 0.48 0.43 0.43 0.46 0.48 0.47 0.49 0.57 0.75 0.75 0.57 0.46 0.40 0.36 0.30 0.27 0.25 0.17 0.12 0.10

GEFSCGP_prec_meanprecacc_186.txt.gz
Total_Precipitation_Accumulation
0.00 0.00 0.02 0.02 0.03 0.07 0.08 0.08 0.12 0.13 0.12 0.15 0.24 0.45 0.67 0.77 0.96 1.07 0.95 0.88 0.94 0.95 1.10 1.34 1.55 1.77 2.03 2.21 2.29 2.44 2.70 2.98 3.18 3.48 3.81 3.98 4.04 4.23 4.34 4.38 4.47 4.43 4.39 4.51
0.00 0.01 0.01 0.00 0.01 0.02 0.04 0.07 0.10 0.11 0.13 0.16 0.28 0.46 0.67 0.77 0.87 1.02 1.02 0.99 0.96 1.03 1.12 1.44 1.78 2.21 2.43 2.53 2.54 2.73 3.00 3.23 3.42 3.78 4.25 4.65 4.79 4.88 4.90 4.92 5.12 5.21 5.24 5.39
0.01 0.01 0.00 0.01 0.01 0.02 0.03 0.06 0.09 0.12 0.15 0.21 0.37 0.65 0.84 0.88 0.99 1.07 1.10 1.21 1.15 1.19 1.38 1.62 1.93 2.18 2.37 2.47 2.58 2.79 3.17 3.55 3.96 4.42 4.92 5.31 5.56 5.59 5.52 5.25 5.38 5.56 5.50 5.54
0.01 0.00 0.01 0.01 0.02 0.03 0.04 0.05 0.07 0.10 0.15 0.25 0.34 0.77 1.14 1.19 1.23 1.15 1.16 1.25 1.20 1.23 1.39 1.63 1.85 2.11 2.22 2.38 2.62 2.83 3.17 3.76 4.22 4.61 5.25 5.78 6.06 6.26 6.36 6.14 5.84 5.66 5.47 5.34
0.01 0.01 0.02 0.03 0.03 0.03 0.04 0.04 0.06 0.08 0.11 0.21 0.24 0.57 1.22 1.38 1.46 1.35 1.27 1.32 1.17 1.11 1.27 1.53 1.62 1.86 2.15 2.28 2.40 2.60 3.07 3.66 4.36 5.01 5.55 6.03 6.43 6.64 6.58 6.17 5.76 5.29 4.94 4.53
0.02 0.02 0.02 0.02 0.02 0.02 0.03 0.04 0.07 0.10 0.15 0.28 0.27 0.47 1.19 1.61 1.82 1.84 1.51 1.30 1.17 1.09 1.16 1.25 1.33 1.49 1.82 1.95 2.16 2.40 2.77 3.47 4.21 4.84 5.43 5.85 6.21 6.26 5.95 5.43 4.92 4.60 4.22 3.76
0.05 0.04 0.03 0.02 0.02 0.02 0.03 0.09 0.26 0.40 0.45 0.43 0.36 0.59 1.29 1.52 1.47 1.43 1.45 1.46 1.29 1.07 1.02 1.11 1.14 1.28 1.50 1.67 1.96 2.32 2.77 3.31 3.77 4.30 4.80 5.08 5.31 5.38 5.30 4.98 4.56 4.25 3.82 3.40
0.15 0.14 0.06 0.02 0.04 0.05 0.04 0.12 0.39 0.57 0.61 0.65 0.70 1.04 1.58 1.40 1.18 1.16 1.27 1.30 1.18 1.10 1.07 1.23 1.32 1.42 1.55 1.68 1.84 2.18 2.58 2.98 3.21 3.47 3.86 4.11 4.24 4.30 4.18 3.94 3.62 3.35 3.07 2.81
0.19 0.19 0.07 0.03 0.03 0.03 0.06 0.11 0.19 0.25 0.34 0.61 1.00 1.45 1.93 1.85 1.38 1.18 1.20 1.15 1.08 1.09 1.09 1.24 1.39 1.51 1.61 1.68 1.85 1.95 2.14 2.34 2.58 2.80 2.98 3.11 3.15 3.07 2.96 2.75 2.52 2.33 2.16 1.94
0.19 0.18 0.11 0.06 0.06 0.07 0.09 0.12 0.16 0.27 0.52 0.85 1.11 1.63 2.30 2.31 1.80 1.42 1.34 1.28 1.15 1.08 1.10 1.20 1.28 1.39 1.45 1.43 1.53 1.62 1.79 1.87 1.99 2.13 2.18 2.11 2.10 2.08 1.93 1.77 1.67 1.54 1.38 1.27
0.26 0.26 0.16 0.09 0.12 0.15 0.13 0.14 0.21 0.31 0.41 0.85 1.29 1.94 2.24 2.42 2.24 1.87 1.47 1.24 1.15 1.11 1.07 1.09 1.11 1.16 1.20 1.14 1.15 1.24 1.38 1.58 1.66 1.65 1.66 1.58 1.51 1.38 1.27 1.19 1.16 1.09 1.03 1.00
0.24 0.32 0.31 0.18 0.15 0.12 0.13 0.17 0.24 0.45 0.50 0.61 1.08 2.11 2.31 2.59 2.48 2.12 1.70 1.37 1.25 1.19 1.10 1.03 0.98 0.95 0.95 0.91 0.92 0.99 1.09 1.18 1.22 1.23 1.19 1.18 1.12 1.04 0.99 0.97 0.95 0.97 0.93 0.88
0.18 0.39 0.61 0.64 0.52 0.25 0.16 0.17 0.21 0.29 0.46 0.68 1.14 2.13 2.34 2.29 2.19 2.11 1.86 1.56 1.36 1.26 1.12 1.08 1.02 0.94 0.92 0.95 0.93 0.89 0.93 0.98 1.01 1.03 1.00 0.97 1.00 0.97 0.94 0.95 0.96 0.95 0.91 0.86
0.13 0.39 0.78 1.10 1.03 0.54 0.36 0.27 0.26 0.33 0.63 0.76 1.04 1.63 1.94 1.97 1.98 2.07 2.05 1.71 1.33 1.16 1.05 1.09 1.14 1.10 1.01 0.97 0.97 0.93 0.89 0.92 1.02 0.99 0.92 0.83 0.79 0.81 0.84 0.86 0.87 0.85 0.81 0.80
0.19 0.45 0.44 0.42 0.42 0.40 0.40 0.35 0.34 0.38 0.43 0.73 1.06 1.46 1.87 2.02 1.97 1.91 1.80 1.59 1.30 1.17 1.16 1.15 1.13 1.12 1.06 1.01 1.00 0.92 0.91 0.93 1.07 1.08 1.02 0.93 0.84 0.82 0.84 0.83 0.81 0.77 0.73 0.68
0.24 0.44 0.41 0.38 0.30 0.35 0.40 0.41 0.44 0.50 0.55 0.75 1.18 1.74 2.09 2.16 2.02 1.95 1.88 1.72 1.60 1.49 1.39 1.36 1.31 1.29 1.26 1.19 1.16 1.06 1.05 1.07 1.11 1.17 1.24 1.25 1.18 1.09 1.05 0.96 0.85 0.81 0.77 0.67
0.25 0.44 0.59 0.61 0.35 0.49 0.84 0.69 0.64 0.71 0.77 0.97 1.50 1.82 1.83 1.91 2.00 2.08 2.12 2.01 1.88 1.76 1.66 1.62 1.57 1.50 1.42 1.36 1.34 1.31 1.24 1.20 1.21 1.24 1.27 1.24 1.23 1.20 1.12 1.00 0.86 0.81 0.78 0.74
0.26 0.46 0.62 0.68 0.73 1.23 1.15 0.65 0.64 0.83 0.94 1.00 1.21 1.38 1.47 1.51 1.62 1.70 1.81 1.87 1.84 1.69 1.62 1.63 1.62 1.60 1.58 1.46 1.39 1.37 1.32 1.27 1.26 1.27 1.26 1.22 1.12 1.06 0.97 0.90 0.85 0.77 0.72 0.72
0.17 0.38 0.65 0.77 1.04 1.23 1.08 0.64 0.62 1.01 1.51 1.21 1.14 1.07 1.02 1.01 1.14 1.49 1.67 1.72 1.85 1.83 1.72 1.68 1.63 1.56 1.51 1.43 1.38 1.35 1.35 1.31 1.29 1.26 1.17 1.07 0.99 0.95 0.87 0.83 0.76 0.68 0.61 0.60
0.19 0.31 0.64 0.83 1.20 1.50 1.37 0.64 0.46 0.87 1.85 1.45 1.23 1.09 1.00 1.12 1.35 1.44 1.43 1.44 1.51 1.58 1.57 1.46 1.34 1.28 1.29 1.30 1.28 1.26 1.27 1.24 1.19 1.02 0.85 0.77 0.79 0.79 0.75 0.70 0.62 0.57 0.56 0.55
0.54 0.59 0.73 0.92 1.29 1.51 0.80 0.42 0.58 1.40 1.83 1.45 1.22 1.08 1.03 1.23 1.31 1.13 1.08 1.16 1.19 1.23 1.21 1.12 1.05 1.11 1.17 1.17 1.11 1.09 1.06 1.03 0.95 0.87 0.74 0.69 0.68 0.62 0.60 0.58 0.57 0.54 0.51 0.54
0.69 0.81 0.87 1.02 1.38 1.51 0.65 0.50 0.88 1.10 0.95 0.97 0.96 0.91 0.86 0.83 0.75 0.78 0.84 0.90 0.87 0.87 0.89 0.85 0.86 0.91 0.94 0.89 0.91 0.98 0.96 0.85 0.77 0.81 0.76 0.71 0.62 0.51 0.52 0.61 0.59 0.55 0.58 0.62
0.61 0.73 0.84 1.01 1.22 1.00 0.57 0.53 0.62 0.66 0.72 0.71 0.70 0.65 0.56 0.51 0.49 0.59 0.59 0.59 0.59 0.60 0.66 0.69 0.68 0.71 0.78 0.78 0.82 0.88 0.87 0.76 0.74 0.81 0.79 0.67 0.55 0.56 0.57 0.60 0.57 0.50 0.49 0.46
0.62 0.48 0.56 0.71 0.80 0.64 0.54 0.51 0.48 0.45 0.48 0.46 0.47 0.48 0.40 0.38 0.43 0.49 0.51 0.48 0.45 0.46 0.49 0.56 0.58 0.57 0.62 0.65 0.70 0.75 0.68 0.66 0.80 0.88 0.79 0.63 0.53 0.51 0.50 0.49 0.42 0.37 0.37 0.36
0.63 0.54 0.55 0.70 0.73 0.69 0.68 0.48 0.38 0.33 0.30 0.31 0.34 0.36 0.33 0.32 0.38 0.40 0.41 0.43 0.43 0.44 0.46 0.50 0.53 0.51 0.49 0.52 0.58 0.54 0.55 0.67 0.89 0.86 0.72 0.58 0.47 0.43 0.41 0.34 0.27 0.22 0.21 0.19
0.41 0.49 0.56 0.64 0.58 0.69 0.74 0.53 0.37 0.35 0.30 0.29 0.27 0.28 0.33 0.35 0.38 0.35 0.33 0.36 0.38 0.40 0.42 0.49 0.49 0.44 0.45 0.48 0.50 0.48 0.50 0.58 0.77 0.77 0.58 0.47 0.41 0.36 0.30 0.27 0.26 0.18 0.13 0.11

GEFSCGP_prec_meanprecacc_192.txt.gz
Total_Precipitation_Accumulation
0.00 0.00 0.02 0.02 0.03 0.07 0.08 0.08 0.13 0.13 0.12 0.15 0.24 0.45 0.67 0.78 0.97 1.09 0.96 0.90 0.95 0.96 1.11 1.36 1.59 1.81 2.07 2.24 2.32 2.49 2.76 3.05 3.26 3.57 3.89 4.04 4.10 4.29 4.41 4.45 4.52 4.52 4.51 4.61
0.00 0.01 0.01 0.00 0.01 0.02 0.04 0.08 0.11 0.12 0.14 0.16 0.28 0.47 0.68 0.78 0.89 1.03 1.04 1.00 0.98 1.04 1.14 1.47 1.82 2.27 2.48 2.56 2.57 2.77 3.05 3.29 3.48 3.86 4.31 4.70 4.85 4.94 4.97 4.99 5.19 5.31 5.34 5.49
0.01 0.01 0.00 0.01 0.01 0.02 0.04 0.07 0.09 0.13 0.16 0.22 0.37 0.66 0.86 0.89 1.01 1.09 1.12 1.24 1.18 1.22 1.41 1.65 1.98 2.23 2.41 2.50 2.61 2.83 3.22 3.60 4.01 4.49 4.97 5.36 5.63 5.66 5.58 5.31 5.45 5.63 5.57 5.63
0.01 0.00 0.01 0.01 0.02 0.03 0.04 0.06 0.07 0.11 0.16 0.25 0.34 0.78 1.15 1.21 1.26 1.18 1.21 1.32 1.25 1.26 1.42 1.66 1.89 2.14 2.25 2.41 2.65 2.86 3.21 3.81 4.27 4.66 5.30 5.83 6.12 6.32 6.43 6.22 5.95 5.77 5.56 5.44
0.01 0.01 0.02 0.03 0.03 0.03 0.04 0.04 0.07 0.08 0.11 0.22 0.25 0.58 1.23 1.39 1.49 1.41 1.37 1.41 1.22 1.14 1.30 1.56 1.65 1.88 2.17 2.29 2.42 2.62 3.10 3.69 4.38 5.03 5.59 6.07 6.49 6.71 6.65 6.26 5.87 5.38 5.02 4.61
0.02 0.02 0.02 0.02 0.02 0.02 0.03 0.04 0.08 0.11 0.16 0.29 0.27 0.48 1.20 1.63 1.85 1.90 1.61 1.38 1.22 1.14 1.20 1.28 1.35 1.50 1.83 1.95 2.17 2.41 2.79 3.49 4.23 4.87 5.48 5.90 6.26 6.32 6.01 5.49 4.98 4.66 4.28 3.83
0.06 0.04 0.03 0.02 0.02 0.02 0.04 0.09 0.27 0.41 0.46 0.44 0.36 0.60 1.31 1.57 1.52 1.49 1.53 1.54 1.36 1.12 1.06 1.14 1.16 1.30 1.51 1.69 1.98 2.35 2.81 3.34 3.79 4.32 4.82 5.12 5.37 5.44 5.35 5.03 4.60 4.29 3.87 3.46
0.15 0.14 0.06 0.02 0.04 0.05 0.04 0.12 0.40 0.58 0.61 0.66 0.71 1.06 1.61 1.49 1.23 1.20 1.32 1.37 1.23 1.13 1.10 1.25 1.35 1.45 1.57 1.71 1.88 2.24 2.68 3.05 3.23 3.48 3.88 4.16 4.30 4.37 4.25 4.01 3.67 3.38 3.11 2.85
0.19 0.19 0.07 0.03 0.03 0.04 0.06 0.11 0.19 0.25 0.34 0.62 1.01 1.46 1.98 1.91 1.43 1.23 1.25 1.19 1.11 1.12 1.12 1.28 1.42 1.55 1.66 1.72 1.89 2.01 2.22 2.40 2.61 2.82 3.00 3.15 3.19 3.12 3.02 2.81 2.57 2.37 2.18 1.96
0.19 0.18 0.11 0.06 0.06 0.08 0.09 0.12 0.16 0.28 0.54 0.87 1.12 1.65 2.36 2.37 1.85 1.47 1.39 1.32 1.18 1.12 1.14 1.24 1.31 1.45 1.53 1.50 1.58 1.66 1.83 1.90 2.02 2.16 2.21 2.14 2.14 2.12 1.97 1.80 1.71 1.57 1.41 1.29
0.26 0.26 0.16 0.09 0.12 0.15 0.13 0.14 0.22 0.32 0.42 0.86 1.31 1.99 2.30 2.48 2.31 1.94 1.53 1.29 1.19 1.15 1.11 1.12 1.14 1.20 1.26 1.21 1.23 1.30 1.43 1.62 1.70 1.68 1.69 1.61 1.55 1.43 1.32 1.22 1.19 1.13 1.06 1.03
0.24 0.32 0.31 0.18 0.15 0.12 0.13 0.17 0.25 0.46 0.51 0.63 1.11 2.14 2.35 2.65 2.54 2.19 1.78 1.45 1.31 1.25 1.14 1.05 1.00 0.98 0.98 0.96 0.96 1.03 1.11 1.21 1.25 1.25 1.22 1.21 1.16 1.07 1.03 0.99 0.97 1.00 0.96 0.91
0.19 0.39 0.61 0.64 0.53 0.25 0.16 0.17 0.21 0.30 0.47 0.70 1.17 2.17 2.38 2.33 2.23 2.15 1.94 1.65 1.44 1.32 1.15 1.10 1.04 0.96 0.94 0.98 0.96 0.92 0.96 1.01 1.03 1.05 1.02 1.00 1.03 1.00 0.97 0.98 0.99 0.99 0.95 0.90
0.13 0.39 0.78 1.10 1.04 0.54 0.36 0.27 0.26 0.34 0.65 0.78 1.06 1.66 1.98 2.01 2.03 2.12 2.13 1.79 1.40 1.23 1.09 1.12 1.16 1.12 1.05 1.01 1.00 0.95 0.92 0.94 1.03 1.01 0.95 0.87 0.83 0.85 0.88 0.90 0.91 0.88 0.85 0.85
0.19 0.46 0.44 0.42 0.42 0.40 0.40 0.35 0.34 0.39 0.44 0.75 1.09 1.50 1.93 2.08 2.03 1.96 1.86 1.64 1.35 1.24 1.25 1.19 1.14 1.15 1.11 1.05 1.03 0.94 0.94 0.96 1.11 1.12 1.06 0.97 0.88 0.85 0.87 0.86 0.84 0.81 0.77 0.71
0.24 0.44 0.41 0.38 0.30 0.35 0.40 0.41 0.44 0.51 0.56 0.77 1.21 1.78 2.13 2.20 2.08 2.02 1.95 1.77 1.64 1.55 1.47 1.41 1.33 1.31 1.30 1.23 1.19 1.08 1.07 1.09 1.13 1.19 1.27 1.27 1.20 1.12 1.09 0.99 0.87 0.84 0.81 0.73
0.25 0.44 0.59 0.61 0.35 0.50 0.85 0.69 0.64 0.72 0.79 0.99 1.53 1.85 1.84 1.93 2.05 2.17 2.22 2.08 1.92 1.81 1.71 1.66 1.60 1.52 1.46 1.40 1.37 1.33 1.25 1.22 1.22 1.27 1.30 1.26 1.25 1.23 1.17 1.04 0.92 0.88 0.85 0.80
0.26 0.46 0.63 0.68 0.73 1.24 1.16 0.65 0.65 0.84 0.96 1.02 1.23 1.39 1.48 1.53 1.66 1.77 1.87 1.93 1.90 1.74 1.66 1.65 1.65 1.64 1.61 1.48 1.42 1.39 1.32 1.28 1.28 1.30 1.29 1.25 1.15 1.11 1.03 0.97 0.95 0.89 0.81 0.78
0.17 0.39 0.66 0.77 1.04 1.24 1.08 0.64 0.62 1.03 1.52 1.22 1.15 1.08 1.02 1.02 1.16 1.52 1.70 1.76 1.88 1.88 1.76 1.70 1.65 1.58 1.53 1.46 1.40 1.37 1.36 1.33 1.31 1.28 1.19 1.12 1.04 0.99 0.92 0.91 0.84 0.75 0.68 0.65
0.19 0.31 0.65 0.84 1.21 1.51 1.38 0.64 0.46 0.88 1.88 1.46 1.24 1.09 1.01 1.13 1.38 1.46 1.46 1.46 1.53 1.61 1.62 1.50 1.36 1.29 1.32 1.33 1.32 1.30 1.30 1.27 1.22 1.05 0.89 0.82 0.84 0.84 0.80 0.74 0.67 0.62 0.60 0.59
0.55 0.60 0.75 0.93 1.30 1.52 0.80 0.42 0.59 1.42 1.85 1.45 1.22 1.08 1.03 1.25 1.34 1.16 1.11 1.18 1.21 1.24 1.22 1.14 1.07 1.12 1.19 1.20 1.15 1.13 1.10 1.08 1.00 0.91 0.78 0.73 0.72 0.67 0.64 0.62 0.60 0.57 0.53 0.57
0.69 0.82 0.88 1.03 1.40 1.53 0.65 0.50 0.89 1.12 0.96 0.97 0.97 0.91 0.87 0.84 0.76 0.80 0.86 0.91 0.88 0.88 0.90 0.86 0.86 0.92 0.96 0.93 0.95 1.02 1.00 0.90 0.84 0.87 0.81 0.75 0.66 0.55 0.54 0.64 0.61 0.57 0.60 0.63
0.62 0.73 0.84 1.01 1.23 1.01 0.57 0.53 0.62 0.66 0.73 0.72 0.70 0.66 0.56 0.52 0.50 0.61 0.61 0.61 0.60 0.60 0.67 0.70 0.70 0.73 0.81 0.81 0.84 0.90 0.91 0.80 0.79 0.86 0.84 0.72 0.58 0.59 0.59 0.62 0.59 0.52 0.50 0.47
0.62 0.48 0.57 0.72 0.80 0.64 0.54 0.51 0.48 0.45 0.48 0.46 0.48 0.48 0.41 0.39 0.44 0.51 0.52 0.49 0.45 0.47 0.49 0.57 0.59 0.59 0.66 0.68 0.73 0.78 0.73 0.70 0.83 0.92 0.84 0.67 0.55 0.52 0.51 0.50 0.44 0.38 0.38 0.37
0.64 0.55 0.56 0.70 0.73 0.69 0.68 0.48 0.38 0.33 0.31 0.31 0.34 0.36 0.33 0.33 0.40 0.41 0.42 0.43 0.43 0.44 0.46 0.51 0.55 0.54 0.51 0.54 0.60 0.57 0.58 0.69 0.92 0.89 0.74 0.60 0.48 0.44 0.42 0.35 0.28 0.23 0.21 0.19
0.41 0.49 0.57 0.64 0.59 0.69 0.75 0.53 0.37 0.35 0.31 0.29 0.27 0.29 0.33 0.35 0.38 0.35 0.33 0.36 0.39 0.41 0.42 0.50 0.50 0.45 0.46 0.51 0.53 0.50 0.51 0.60 0.79 0.79 0.60 0.48 0.42 0.37 0.31 0.27 0.26 0.18 0.13 0.11

GEFSCGP_prec_meanprecacc_198.txt.gz
Total_Precipitation_Accumulation
0.00 0.01 0.04 0.05 0.05 0.09 0.09 0.10 0.14 0.14 0.13 0.16 0.24 0.46 0.69 0.79 0.98 1.11 0.99 0.92 0.98 1.00 1.14 1.39 1.61 1.83 2.09 2.26 2.35 2.53 2.81 3.12 3.31 3.62 3.93 4.10 4.17 4.36 4.47 4.52 4.59 4.58 4.58 4.69
0.00 0.01 0.01 0.02 0.02 0.03 0.05 0.09 0.13 0.13 0.14 0.16 0.29 0.48 0.70 0.80 0.91 1.06 1.07 1.03 1.01 1.07 1.17 1.50 1.85 2.29 2.51 2.59 2.61 2.82 3.09 3.34 3.53 3.90 4.37 4.77 4.93 5.02 5.05 5.06 5.25 5.37 5.39 5.55
0.02 0.01 0.01 0.01 0.01 0.02 0.04 0.08 0.10 0.14 0.16 0.23 0.38 0.70 0.91 0.93 1.06 1.15 1.16 1.26 1.20 1.23 1.43 1.69 2.01 2.27 2.45 2.54 2.65 2.85 3.25 3.64 4.06 4.54 5.03 5.43 5.70 5.73 5.65 5.38 5.53 5.69 5.63 5.70
0.02 0.01 0.01 0.02 0.02 0.03 0.05 0.06 0.07 0.11 0.17 0.27 0.36 0.83 1.22 1.26 1.32 1.25 1.25 1.35 1.27 1.28 1.46 1.70 1.93 2.18 2.29 2.45 2.70 2.90 3.26 3.87 4.33 4.72 5.37 5.90 6.19 6.40 6.51 6.32 6.03 5.83 5.62 5.51
0.02 0.01 0.03 0.03 0.03 0.03 0.04 0.04 0.07 0.09 0.12 0.23 0.26 0.62 1.31 1.46 1.54 1.44 1.41 1.46 1.27 1.18 1.34 1.60 1.69 1.91 2.20 2.32 2.46 2.68 3.17 3.77 4.46 5.10 5.65 6.15 6.58 6.80 6.76 6.36 5.96 5.46 5.08 4.67
0.02 0.02 0.02 0.02 0.02 0.02 0.03 0.05 0.09 0.11 0.17 0.32 0.30 0.53 1.29 1.69 1.87 1.94 1.66 1.43 1.27 1.17 1.22 1.30 1.38 1.53 1.86 1.98 2.20 2.45 2.84 3.55 4.30 4.93 5.53 5.97 6.34 6.41 6.10 5.58 5.08 4.75 4.35 3.89
0.06 0.04 0.03 0.02 0.02 0.03 0.04 0.11 0.30 0.45 0.51 0.51 0.40 0.64 1.37 1.61 1.55 1.54 1.60 1.61 1.43 1.15 1.08 1.17 1.21 1.33 1.54 1.71 2.00 2.37 2.85 3.40 3.84 4.38 4.88 5.19 5.43 5.51 5.43 5.10 4.67 4.37 3.94 3.51
0.15 0.14 0.06 0.02 0.04 0.05 0.05 0.14 0.44 0.63 0.68 0.71 0.74 1.10 1.67 1.52 1.26 1.23 1.35 1.42 1.29 1.18 1.14 1.30 1.40 1.49 1.60 1.72 1.89 2.26 2.72 3.12 3.30 3.54 3.95 4.22 4.36 4.43 4.32 4.08 3.73 3.45 3.17 2.91
0.19 0.19 0.07 0.03 0.03 0.04 0.07 0.12 0.20 0.29 0.38 0.66 1.05 1.52 2.07 1.98 1.48 1.27 1.29 1.24 1.18 1.17 1.16 1.33 1.48 1.59 1.69 1.74 1.90 2.03 2.29 2.50 2.69 2.89 3.06 3.19 3.24 3.18 3.08 2.87 2.62 2.42 2.23 2.02
0.19 0.18 0.11 0.06 0.06 0.08 0.10 0.14 0.17 0.31 0.58 0.92 1.20 1.77 2.51 2.50 1.93 1.51 1.43 1.37 1.24 1.16 1.19 1.30 1.37 1.49 1.56 1.52 1.60 1.69 1.88 1.98 2.10 2.23 2.29 2.18 2.19 2.17 2.03 1.86 1.77 1.62 1.45 1.34
0.26 0.26 0.16 0.10 0.12 0.15 0.13 0.16 0.25 0.35 0.45 0.92 1.42 2.14 2.43 2.59 2.37 1.97 1.58 1.35 1.25 1.19 1.15 1.16 1.19 1.24 1.29 1.23 1.25 1.32 1.47 1.67 1.75 1.74 1.77 1.68 1.61 1.49 1.40 1.30 1.26 1.18 1.11 1.08
0.24 0.32 0.31 0.18 0.15 0.12 0.14 0.18 0.29 0.53 0.56 0.68 1.19 2.26 2.43 2.71 2.59 2.23 1.84 1.52 1.38 1.30 1.17 1.09 1.05 1.02 1.03 1.00 1.00 1.08 1.16 1.26 1.30 1.33 1.31 1.28 1.23 1.14 1.10 1.07 1.03 1.04 1.01 0.96
0.19 0.40 0.63 0.66 0.54 0.26 0.16 0.18 0.22 0.33 0.52 0.76 1.23 2.25 2.45 2.39 2.28 2.21 2.00 1.71 1.49 1.37 1.20 1.15 1.08 1.01 1.01 1.04 1.01 0.97 1.00 1.05 1.08 1.12 1.11 1.06 1.10 1.07 1.04 1.06 1.06 1.05 1.00 0.96
0.13 0.40 0.80 1.13 1.06 0.54 0.36 0.27 0.26 0.36 0.69 0.82 1.11 1.74 2.05 2.06 2.09 2.18 2.19 1.84 1.44 1.27 1.15 1.18 1.21 1.17 1.10 1.07 1.07 1.03 0.98 0.99 1.08 1.06 1.02 0.94 0.91 0.93 0.96 0.97 0.99 0.96 0.92 0.91
0.20 0.46 0.45 0.42 0.42 0.40 0.40 0.35 0.34 0.39 0.46 0.78 1.14 1.57 1.98 2.11 2.06 2.01 1.91 1.70 1.40 1.30 1.33 1.26 1.21 1.21 1.14 1.10 1.09 1.02 1.01 1.01 1.19 1.18 1.12 1.03 0.93 0.91 0.93 0.93 0.91 0.87 0.82 0.76
0.24 0.45 0.41 0.38 0.30 0.35 0.40 0.41 0.45 0.51 0.56 0.77 1.24 1.82 2.16 2.21 2.09 2.05 1.99 1.82 1.71 1.62 1.54 1.47 1.37 1.35 1.33 1.26 1.22 1.12 1.11 1.13 1.21 1.27 1.32 1.32 1.24 1.17 1.13 1.04 0.93 0.90 0.87 0.79
0.25 0.45 0.61 0.62 0.35 0.50 0.86 0.69 0.65 0.73 0.80 1.00 1.55 1.87 1.85 1.94 2.06 2.19 2.26 2.13 1.98 1.86 1.75 1.69 1.63 1.56 1.50 1.43 1.40 1.35 1.28 1.25 1.26 1.33 1.35 1.31 1.30 1.28 1.23 1.08 0.97 0.94 0.91 0.87
0.27 0.48 0.64 0.69 0.74 1.28 1.18 0.66 0.68 0.86 0.96 1.02 1.24 1.40 1.49 1.54 1.67 1.78 1.91 1.99 1.97 1.79 1.69 1.67 1.68 1.66 1.64 1.52 1.45 1.41 1.35 1.32 1.33 1.35 1.34 1.30 1.19 1.16 1.08 1.01 0.99 0.95 0.88 0.85
0.18 0.40 0.68 0.79 1.07 1.27 1.12 0.65 0.64 1.05 1.55 1.23 1.16 1.09 1.03 1.02 1.18 1.54 1.73 1.79 1.93 1.93 1.81 1.74 1.67 1.60 1.57 1.50 1.43 1.40 1.38 1.37 1.37 1.34 1.25 1.18 1.09 1.04 0.97 0.94 0.88 0.81 0.74 0.71
0.20 0.32 0.67 0.87 1.25 1.55 1.43 0.65 0.46 0.89 1.93 1.48 1.25 1.10 1.01 1.14 1.41 1.50 1.48 1.49 1.56 1.65 1.68 1.55 1.39 1.31 1.34 1.37 1.36 1.33 1.34 1.32 1.29 1.11 0.94 0.88 0.90 0.88 0.84 0.78 0.71 0.67 0.66 0.65
0.56 0.61 0.77 0.96 1.33 1.55 0.83 0.43 0.59 1.46 1.90 1.47 1.23 1.09 1.04 1.26 1.36 1.18 1.13 1.20 1.22 1.26 1.25 1.16 1.09 1.15 1.22 1.23 1.19 1.17 1.13 1.11 1.05 0.94 0.81 0.77 0.76 0.70 0.67 0.65 0.65 0.61 0.57 0.60
0.70 0.84 0.90 1.05 1.43 1.57 0.66 0.51 0.91 1.16 0.98 0.99 0.98 0.92 0.88 0.85 0.77 0.82 0.88 0.92 0.89 0.89 0.92 0.87 0.88 0.95 1.00 0.97 0.97 1.04 1.03 0.93 0.87 0.89 0.83 0.77 0.68 0.56 0.56 0.65 0.63 0.60 0.62 0.66
0.63 0.75 0.86 1.03 1.26 1.03 0.58 0.54 0.63 0.67 0.74 0.72 0.71 0.67 0.58 0.53 0.51 0.61 0.62 0.61 0.60 0.62 0.68 0.71 0.72 0.76 0.85 0.85 0.87 0.93 0.94 0.83 0.81 0.88 0.86 0.74 0.60 0.61 0.60 0.64 0.61 0.54 0.53 0.50
0.64 0.49 0.57 0.72 0.81 0.65 0.54 0.51 0.48 0.45 0.48 0.46 0.48 0.50 0.42 0.41 0.46 0.52 0.52 0.50 0.46 0.48 0.51 0.58 0.61 0.61 0.69 0.71 0.76 0.81 0.75 0.72 0.85 0.95 0.88 0.71 0.59 0.56 0.54 0.52 0.47 0.41 0.41 0.40
0.65 0.56 0.58 0.72 0.75 0.71 0.69 0.48 0.39 0.33 0.31 0.31 0.35 0.38 0.36 0.35 0.41 0.42 0.43 0.43 0.44 0.46 0.48 0.52 0.56 0.55 0.53 0.56 0.63 0.61 0.61 0.71 0.93 0.92 0.78 0.65 0.53 0.47 0.44 0.36 0.29 0.25 0.22 0.20
0.42 0.51 0.59 0.67 0.60 0.70 0.75 0.54 0.37 0.36 0.31 0.29 0.28 0.30 0.34 0.36 0.40 0.36 0.34 0.37 0.40 0.42 0.43 0.51 0.51 0.46 0.48 0.54 0.56 0.53 0.53 0.61 0.81 0.81 0.63 0.52 0.46 0.39 0.32 0.28 0.26 0.18 0.14 0.11

GEFSCGP_prec_meanprecacc_204.txt.gz
Total_Precipitation_Accumulation
0.01 0.02 0.05 0.07 0.07 0.10 0.10 0.12 0.16 0.15 0.14 0.18 0.27 0.48 0.71 0.83 1.02 1.15 1.07 1.01 1.09 1.14 1.29 1.52 1.71 1.89 2.14 2.33 2.44 2.61 2.88 3.20 3.41 3.73 4.02 4.17 4.25 4.44 4.54 4.57 4.65 4.65 4.65 4.75
0.01 0.02 0.02 0.03 0.03 0.05 0.05 0.10 0.14 0.14 0.15 0.18 0.30 0.50 0.72 0.81 0.94 1.11 1.15 1.14 1.13 1.23 1.33 1.64 1.94 2.36 2.57 2.65 2.68 2.90 3.21 3.51 3.68 4.05 4.48 4.85 5.00 5.09 5.12 5.13 5.32 5.44 5.47 5.62
0.02 0.02 0.01 0.01 0.02 0.02 0.05 0.08 0.10 0.16 0.18 0.25 0.40 0.72 0.93 0.95 1.09 1.20 1.23 1.37 1.33 1.35 1.55 1.79 2.10 2.36 2.53 2.62 2.71 2.90 3.32 3.78 4.23 4.68 5.12 5.50 5.76 5.78 5.70 5.44 5.59 5.75 5.69 5.76
0.02 0.01 0.01 0.02 0.02 0.03 0.05 0.06 0.08 0.12 0.18 0.30 0.38 0.85 1.25 1.30 1.38 1.31 1.32 1.43 1.37 1.36 1.54 1.78 1.99 2.23 2.37 2.52 2.75 2.94 3.29 3.92 4.43 4.82 5.43 5.95 6.24 6.46 6.58 6.39 6.09 5.88 5.66 5.55
0.02 0.02 0.03 0.03 0.03 0.04 0.04 0.04 0.08 0.09 0.13 0.25 0.29 0.67 1.36 1.54 1.61 1.50 1.46 1.51 1.33 1.24 1.40 1.66 1.76 1.98 2.27 2.38 2.51 2.72 3.20 3.80 4.50 5.14 5.70 6.20 6.64 6.87 6.82 6.42 6.01 5.52 5.15 4.74
0.02 0.02 0.02 0.02 0.02 0.03 0.04 0.05 0.10 0.12 0.19 0.35 0.34 0.59 1.37 1.78 1.96 2.02 1.71 1.48 1.33 1.22 1.28 1.36 1.45 1.61 1.93 2.04 2.24 2.48 2.89 3.60 4.34 4.98 5.60 6.05 6.43 6.47 6.15 5.62 5.11 4.79 4.42 3.95
0.06 0.05 0.03 0.02 0.02 0.03 0.04 0.12 0.31 0.46 0.54 0.54 0.43 0.70 1.44 1.69 1.62 1.61 1.64 1.66 1.47 1.20 1.16 1.24 1.27 1.38 1.57 1.73 2.01 2.39 2.87 3.44 3.91 4.42 4.93 5.26 5.49 5.57 5.49 5.16 4.72 4.42 3.98 3.55
0.16 0.15 0.06 0.03 0.04 0.06 0.05 0.14 0.46 0.66 0.70 0.73 0.76 1.15 1.76 1.60 1.31 1.26 1.39 1.46 1.34 1.24 1.24 1.37 1.45 1.52 1.62 1.75 1.92 2.29 2.75 3.16 3.37 3.59 3.98 4.26 4.41 4.48 4.37 4.13 3.78 3.50 3.21 2.94
0.19 0.20 0.08 0.03 0.04 0.05 0.08 0.13 0.24 0.32 0.40 0.69 1.11 1.60 2.14 2.02 1.51 1.31 1.34 1.30 1.23 1.23 1.23 1.40 1.54 1.63 1.71 1.76 1.91 2.05 2.31 2.54 2.77 2.95 3.11 3.23 3.27 3.22 3.11 2.90 2.66 2.45 2.27 2.05
0.20 0.19 0.12 0.06 0.06 0.08 0.11 0.16 0.21 0.35 0.62 0.96 1.26 1.83 2.56 2.53 1.97 1.57 1.47 1.41 1.29 1.22 1.26 1.38 1.44 1.53 1.58 1.53 1.62 1.70 1.90 2.00 2.16 2.30 2.32 2.22 2.23 2.22 2.07 1.90 1.81 1.68 1.50 1.39
0.26 0.26 0.16 0.10 0.12 0.16 0.14 0.17 0.27 0.39 0.48 0.95 1.49 2.21 2.47 2.63 2.41 2.01 1.60 1.37 1.27 1.23 1.21 1.24 1.26 1.28 1.31 1.25 1.26 1.35 1.50 1.70 1.79 1.79 1.81 1.73 1.67 1.55 1.46 1.35 1.31 1.23 1.14 1.12
0.24 0.32 0.31 0.19 0.15 0.13 0.14 0.19 0.30 0.55 0.59 0.71 1.24 2.32 2.46 2.74 2.62 2.25 1.86 1.54 1.40 1.33 1.22 1.15 1.11 1.07 1.07 1.03 1.05 1.13 1.20 1.30 1.34 1.36 1.36 1.35 1.29 1.20 1.16 1.11 1.07 1.07 1.04 1.00
0.19 0.40 0.64 0.66 0.55 0.26 0.17 0.18 0.23 0.34 0.54 0.78 1.28 2.30 2.48 2.40 2.30 2.22 2.01 1.73 1.51 1.43 1.24 1.20 1.13 1.04 1.05 1.10 1.12 1.03 1.04 1.10 1.11 1.14 1.14 1.11 1.15 1.12 1.09 1.10 1.11 1.09 1.04 1.00
0.13 0.40 0.81 1.15 1.07 0.55 0.37 0.27 0.27 0.36 0.70 0.85 1.15 1.77 2.08 2.09 2.11 2.20 2.21 1.86 1.46 1.32 1.20 1.23 1.26 1.22 1.14 1.14 1.23 1.13 1.03 1.03 1.11 1.09 1.07 0.98 0.95 0.98 1.00 1.02 1.04 1.01 0.96 0.95
0.20 0.47 0.45 0.43 0.42 0.40 0.41 0.36 0.34 0.40 0.46 0.79 1.17 1.61 2.01 2.14 2.09 2.04 1.93 1.72 1.42 1.32 1.36 1.30 1.25 1.26 1.20 1.15 1.18 1.13 1.08 1.05 1.24 1.21 1.17 1.07 0.97 0.97 0.98 0.98 0.95 0.91 0.86 0.80
0.24 0.45 0.42 0.39 0.31 0.35 0.41 0.42 0.45 0.52 0.57 0.78 1.25 1.84 2.18 2.23 2.12 2.07 2.01 1.84 1.73 1.64 1.56 1.52 1.42 1.40 1.39 1.29 1.25 1.18 1.17 1.17 1.25 1.30 1.36 1.38 1.29 1.22 1.18 1.07 0.96 0.94 0.92 0.83
0.26 0.46 0.61 0.63 0.36 0.51 0.87 0.70 0.66 0.74 0.81 1.02 1.59 1.90 1.87 1.95 2.07 2.20 2.27 2.15 1.99 1.88 1.79 1.75 1.68 1.60 1.54 1.47 1.43 1.39 1.32 1.29 1.30 1.36 1.41 1.38 1.36 1.35 1.29 1.12 1.00 0.98 0.94 0.91
0.27 0.49 0.65 0.70 0.75 1.30 1.22 0.67 0.68 0.88 1.02 1.10 1.34 1.46 1.51 1.55 1.68 1.79 1.92 2.01 1.99 1.83 1.73 1.71 1.72 1.69 1.67 1.56 1.49 1.44 1.37 1.34 1.36 1.37 1.38 1.34 1.24 1.24 1.17 1.07 1.03 0.99 0.91 0.88
0.18 0.41 0.69 0.80 1.08 1.30 1.14 0.67 0.69 1.08 1.59 1.29 1.21 1.13 1.04 1.04 1.19 1.55 1.74 1.81 1.95 1.96 1.84 1.77 1.71 1.62 1.58 1.52 1.45 1.41 1.40 1.39 1.39 1.37 1.28 1.21 1.12 1.10 1.03 1.00 0.93 0.84 0.77 0.74
0.20 0.33 0.68 0.88 1.29 1.58 1.45 0.68 0.51 0.92 1.95 1.50 1.27 1.12 1.03 1.16 1.44 1.54 1.50 1.50 1.57 1.66 1.70 1.57 1.41 1.32 1.35 1.38 1.36 1.34 1.34 1.34 1.31 1.13 0.96 0.91 0.92 0.92 0.88 0.81 0.74 0.70 0.67 0.66
0.57 0.62 0.79 0.98 1.37 1.60 0.88 0.46 0.61 1.48 1.91 1.48 1.25 1.10 1.05 1.28 1.41 1.23 1.16 1.22 1.24 1.28 1.25 1.17 1.10 1.16 1.23 1.24 1.19 1.18 1.13 1.13 1.07 0.96 0.83 0.80 0.78 0.73 0.70 0.68 0.67 0.62 0.58 0.61
0.71 0.85 0.92 1.07 1.46 1.62 0.71 0.53 0.94 1.18 0.99 0.99 0.98 0.93 0.89 0.86 0.82 0.86 0.90 0.93 0.90 0.90 0.92 0.88 0.90 0.96 1.01 0.98 0.98 1.04 1.03 0.94 0.88 0.90 0.84 0.79 0.69 0.59 0.59 0.68 0.65 0.60 0.63 0.66
0.64 0.76 0.88 1.05 1.29 1.06 0.59 0.56 0.64 0.69 0.75 0.73 0.73 0.68 0.59 0.54 0.52 0.62 0.64 0.63 0.62 0.63 0.68 0.71 0.73 0.77 0.86 0.86 0.88 0.93 0.94 0.84 0.83 0.89 0.87 0.76 0.62 0.63 0.63 0.65 0.62 0.55 0.53 0.50
0.65 0.49 0.58 0.74 0.84 0.69 0.56 0.52 0.49 0.47 0.49 0.47 0.50 0.51 0.44 0.42 0.47 0.53 0.53 0.50 0.47 0.49 0.52 0.59 0.62 0.62 0.69 0.72 0.77 0.82 0.76 0.73 0.86 0.96 0.89 0.74 0.61 0.57 0.54 0.53 0.47 0.42 0.41 0.40
0.65 0.57 0.59 0.73 0.76 0.72 0.69 0.49 0.40 0.34 0.32 0.33 0.36 0.39 0.37 0.36 0.42 0.43 0.43 0.44 0.45 0.47 0.49 0.54 0.58 0.57 0.54 0.57 0.64 0.61 0.62 0.72 0.95 0.94 0.81 0.68 0.54 0.48 0.44 0.37 0.30 0.25 0.22 0.20
0.42 0.51 0.60 0.68 0.61 0.71 0.76 0.54 0.38 0.36 0.32 0.30 0.29 0.30 0.35 0.37 0.40 0.37 0.35 0.38 0.41 0.43 0.44 0.52 0.52 0.47 0.49 0.55 0.57 0.54 0.54 0.63 0.82 0.84 0.65 0.54 0.46 0.39 0.32 0.28 0.26 0.19 0.14 0.12

GEFSCGP_prec_meanprecacc_210.txt.gz
Total_Precipitation_Accumulation
0.01 0.02 0.06 0.07 0.08 0.10 0.10 0.12 0.17 0.16 0.15 0.19 0.28 0.49 0.72 0.85 1.04 1.17 1.09 1.05 1.13 1.18 1.36 1.61 1.81 2.02 2.25 2.44 2.55 2.72 2.97 3.28 3.51 3.84 4.14 4.28 4.36 4.56 4.63 4.63 4.69 4.69 4.71 4.84
0.01 0.02 0.02 0.03 0.03 0.05 0.06 0.10 0.14 0.14 0.16 0.18 0.31 0.51 0.73 0.83 0.96 1.13 1.18 1.17 1.17 1.25 1.37 1.73 2.04 2.48 2.71 2.78 2.80 3.01 3.33 3.63 3.80 4.19 4.65 5.04 5.18 5.25 5.27 5.25 5.40 5.51 5.53 5.67
0.02 0.02 0.01 0.02 0.02 0.03 0.05 0.08 0.10 0.16 0.19 0.26 0.41 0.73 0.94 0.96 1.10 1.21 1.25 1.39 1.35 1.37 1.59 1.86 2.19 2.46 2.63 2.73 2.83 3.00 3.41 3.87 4.32 4.80 5.29 5.71 5.94 5.97 5.87 5.59 5.68 5.82 5.74 5.80
0.02 0.01 0.01 0.02 0.03 0.03 0.05 0.06 0.08 0.12 0.18 0.31 0.39 0.86 1.26 1.32 1.39 1.32 1.33 1.45 1.39 1.39 1.58 1.83 2.04 2.31 2.45 2.61 2.85 3.03 3.38 4.01 4.52 4.90 5.52 6.09 6.36 6.57 6.69 6.49 6.18 5.94 5.71 5.58
0.02 0.02 0.03 0.03 0.03 0.04 0.04 0.05 0.08 0.09 0.13 0.25 0.29 0.67 1.39 1.57 1.64 1.51 1.48 1.53 1.36 1.28 1.43 1.71 1.81 2.05 2.34 2.46 2.58 2.79 3.28 3.89 4.56 5.19 5.75 6.29 6.72 6.92 6.87 6.47 6.06 5.56 5.19 4.76
0.03 0.02 0.02 0.02 0.02 0.03 0.04 0.05 0.10 0.12 0.19 0.35 0.34 0.59 1.38 1.80 1.98 2.04 1.73 1.50 1.34 1.24 1.30 1.40 1.51 1.67 1.98 2.09 2.29 2.53 2.93 3.65 4.38 5.01 5.62 6.10 6.49 6.53 6.19 5.65 5.14 4.82 4.45 3.98
0.06 0.05 0.04 0.03 0.03 0.03 0.04 0.12 0.31 0.47 0.54 0.54 0.44 0.70 1.46 1.71 1.64 1.62 1.66 1.68 1.49 1.22 1.18 1.27 1.31 1.44 1.63 1.79 2.07 2.42 2.90 3.46 3.92 4.43 4.94 5.28 5.54 5.61 5.53 5.19 4.75 4.45 4.02 3.60
0.16 0.15 0.06 0.03 0.04 0.06 0.05 0.14 0.46 0.66 0.70 0.73 0.76 1.16 1.78 1.61 1.32 1.28 1.40 1.48 1.36 1.26 1.26 1.40 1.49 1.57 1.66 1.78 1.96 2.32 2.76 3.17 3.38 3.60 3.99 4.27 4.44 4.52 4.41 4.16 3.80 3.52 3.24 2.96
0.19 0.20 0.08 0.04 0.04 0.05 0.08 0.13 0.24 0.32 0.40 0.69 1.11 1.61 2.15 2.03 1.52 1.32 1.35 1.31 1.24 1.24 1.25 1.43 1.58 1.67 1.75 1.79 1.94 2.07 2.32 2.55 2.78 2.96 3.12 3.24 3.29 3.23 3.13 2.92 2.68 2.48 2.29 2.06
0.20 0.19 0.12 0.06 0.07 0.09 0.12 0.16 0.21 0.36 0.62 0.96 1.26 1.84 2.57 2.54 1.97 1.58 1.49 1.42 1.30 1.23 1.29 1.43 1.48 1.57 1.61 1.56 1.64 1.72 1.92 2.02 2.18 2.31 2.34 2.22 2.23 2.22 2.08 1.92 1.83 1.69 1.51 1.39
0.26 0.26 0.16 0.10 0.12 0.16 0.14 0.18 0.28 0.39 0.48 0.96 1.49 2.21 2.47 2.63 2.41 2.02 1.62 1.39 1.29 1.25 1.23 1.26 1.29 1.33 1.34 1.27 1.28 1.36 1.51 1.72 1.81 1.81 1.82 1.74 1.68 1.56 1.47 1.37 1.33 1.24 1.16 1.13
0.24 0.33 0.32 0.19 0.15 0.13 0.14 0.19 0.31 0.55 0.59 0.72 1.25 2.33 2.46 2.74 2.62 2.26 1.87 1.55 1.41 1.35 1.24 1.17 1.13 1.11 1.10 1.06 1.07 1.15 1.20 1.30 1.35 1.38 1.37 1.36 1.30 1.21 1.17 1.12 1.08 1.09 1.05 1.02
0.19 0.40 0.64 0.66 0.55 0.26 0.17 0.19 0.23 0.34 0.54 0.79 1.29 2.31 2.49 2.41 2.31 2.23 2.02 1.74 1.52 1.44 1.27 1.23 1.15 1.08 1.08 1.13 1.15 1.05 1.05 1.10 1.12 1.14 1.15 1.11 1.16 1.13 1.09 1.11 1.12 1.10 1.06 1.02
0.13 0.40 0.81 1.15 1.07 0.55 0.37 0.28 0.27 0.36 0.70 0.85 1.16 1.78 2.09 2.10 2.11 2.21 2.22 1.87 1.47 1.33 1.22 1.25 1.27 1.24 1.16 1.16 1.27 1.16 1.05 1.04 1.12 1.10 1.07 0.98 0.95 0.98 1.00 1.02 1.05 1.02 0.98 0.98
0.20 0.47 0.45 0.43 0.42 0.41 0.41 0.36 0.35 0.40 0.47 0.81 1.18 1.62 2.02 2.14 2.10 2.05 1.94 1.72 1.42 1.34 1.38 1.32 1.27 1.28 1.22 1.18 1.21 1.18 1.13 1.07 1.25 1.22 1.17 1.07 0.97 0.97 0.99 0.99 0.96 0.92 0.88 0.83
0.24 0.45 0.42 0.39 0.31 0.35 0.41 0.42 0.45 0.52 0.57 0.79 1.25 1.85 2.19 2.24 2.13 2.08 2.01 1.84 1.73 1.65 1.59 1.55 1.45 1.43 1.42 1.34 1.32 1.24 1.21 1.19 1.27 1.31 1.37 1.39 1.29 1.23 1.19 1.09 0.97 0.95 0.93 0.85
0.26 0.46 0.61 0.63 0.36 0.51 0.88 0.71 0.66 0.75 0.82 1.03 1.60 1.91 1.88 1.96 2.08 2.21 2.28 2.16 2.01 1.91 1.82 1.79 1.72 1.66 1.64 1.60 1.53 1.44 1.35 1.31 1.31 1.37 1.41 1.38 1.36 1.35 1.30 1.15 1.02 1.00 0.96 0.93
0.27 0.49 0.65 0.70 0.75 1.31 1.22 0.68 0.69 0.89 1.02 1.12 1.37 1.48 1.52 1.57 1.69 1.80 1.92 2.02 2.00 1.85 1.76 1.75 1.78 1.76 1.74 1.63 1.54 1.48 1.40 1.37 1.38 1.39 1.39 1.35 1.24 1.24 1.18 1.09 1.06 1.01 0.93 0.91
0.18 0.41 0.69 0.80 1.08 1.31 1.15 0.68 0.69 1.09 1.60 1.31 1.24 1.14 1.06 1.05 1.20 1.56 1.74 1.81 1.96 1.98 1.87 1.81 1.76 1.66 1.63 1.58 1.50 1.45 1.43 1.41 1.40 1.38 1.30 1.22 1.13 1.11 1.04 1.01 0.95 0.87 0.80 0.77
0.21 0.33 0.68 0.89 1.29 1.58 1.46 0.68 0.51 0.93 1.96 1.51 1.28 1.14 1.04 1.16 1.44 1.54 1.50 1.50 1.57 1.68 1.71 1.60 1.45 1.35 1.38 1.42 1.40 1.37 1.37 1.36 1.33 1.14 0.97 0.92 0.93 0.92 0.88 0.82 0.76 0.72 0.70 0.69
0.57 0.63 0.79 0.98 1.37 1.60 0.88 0.46 0.62 1.49 1.93 1.49 1.25 1.12 1.07 1.29 1.42 1.24 1.16 1.22 1.24 1.28 1.26 1.18 1.12 1.17 1.24 1.26 1.21 1.19 1.15 1.14 1.08 0.97 0.84 0.80 0.78 0.73 0.70 0.68 0.68 0.66 0.61 0.63
0.71 0.85 0.92 1.07 1.46 1.63 0.71 0.53 0.94 1.18 1.00 1.00 0.99 0.94 0.89 0.87 0.83 0.88 0.91 0.94 0.91 0.90 0.92 0.88 0.91 0.97 1.01 0.98 0.98 1.05 1.05 0.97 0.90 0.92 0.85 0.79 0.70 0.59 0.59 0.69 0.68 0.66 0.66 0.69
0.64 0.77 0.88 1.05 1.30 1.07 0.60 0.56 0.65 0.69 0.75 0.73 0.73 0.69 0.59 0.54 0.53 0.63 0.65 0.64 0.63 0.63 0.69 0.72 0.73 0.78 0.86 0.86 0.88 0.94 0.95 0.85 0.84 0.90 0.88 0.76 0.63 0.64 0.64 0.68 0.67 0.59 0.56 0.52
0.65 0.50 0.59 0.74 0.85 0.69 0.56 0.53 0.50 0.47 0.50 0.48 0.51 0.52 0.44 0.42 0.48 0.54 0.54 0.51 0.48 0.50 0.53 0.60 0.62 0.62 0.70 0.72 0.77 0.83 0.76 0.73 0.87 0.97 0.90 0.75 0.63 0.59 0.56 0.55 0.50 0.43 0.42 0.41
0.65 0.57 0.59 0.73 0.77 0.72 0.69 0.49 0.40 0.35 0.33 0.33 0.37 0.40 0.37 0.37 0.43 0.44 0.44 0.45 0.46 0.47 0.50 0.55 0.59 0.58 0.55 0.58 0.65 0.62 0.62 0.73 0.96 0.95 0.82 0.69 0.56 0.49 0.45 0.38 0.31 0.26 0.23 0.20
0.42 0.51 0.60 0.68 0.61 0.71 0.76 0.55 0.39 0.37 0.32 0.31 0.29 0.31 0.35 0.37 0.41 0.38 0.36 0.38 0.41 0.44 0.46 0.53 0.53 0.48 0.50 0.55 0.57 0.54 0.55 0.64 0.84 0.86 0.68 0.55 0.47 0.40 0.32 0.28 0.27 0.20 0.15 0.12

GEFSCGP_prec_meanprecacc_216.txt.gz
Total_Precipitation_Accumulation
0.01 0.02 0.06 0.07 0.08 0.10 0.10 0.12 0.17 0.16 0.15 0.19 0.28 0.50 0.73 0.85 1.05 1.17 1.11 1.07 1.17 1.21 1.39 1.63 1.83 2.04 2.27 2.45 2.57 2.75 3.01 3.32 3.54 3.86 4.16 4.32 4.41 4.59 4.66 4.66 4.72 4.73 4.74 4.88
0.01 0.02 0.02 0.03 0.04 0.05 0.06 0.10 0.14 0.14 0.16 0.19 0.31 0.51 0.73 0.83 0.97 1.14 1.19 1.20 1.20 1.30 1.40 1.76 2.08 2.51 2.75 2.81 2.83 3.05 3.37 3.67 3.83 4.22 4.69 5.08 5.20 5.28 5.31 5.28 5.43 5.54 5.57 5.70
0.03 0.02 0.01 0.02 0.02 0.03 0.05 0.08 0.11 0.16 0.19 0.27 0.42 0.74 0.95 0.96 1.11 1.22 1.26 1.41 1.37 1.40 1.63 1.89 2.24 2.51 2.68 2.78 2.88 3.05 3.48 3.94 4.38 4.85 5.36 5.79 6.01 6.05 5.94 5.65 5.72 5.85 5.77 5.82
0.02 0.01 0.01 0.02 0.03 0.03 0.05 0.06 0.08 0.12 0.19 0.32 0.39 0.88 1.27 1.32 1.39 1.32 1.34 1.46 1.40 1.40 1.61 1.89 2.11 2.38 2.52 2.66 2.89 3.08 3.45 4.10 4.60 4.97 5.59 6.19 6.45 6.65 6.77 6.55 6.22 5.97 5.73 5.60
0.02 0.02 0.03 0.03 0.04 0.04 0.05 0.05 0.08 0.09 0.13 0.25 0.29 0.68 1.40 1.58 1.65 1.52 1.48 1.53 1.37 1.29 1.46 1.76 1.87 2.12 2.40 2.50 2.62 2.85 3.38 3.98 4.65 5.28 5.82 6.35 6.78 6.97 6.95 6.56 6.13 5.61 5.22 4.80
0.03 0.02 0.02 0.03 0.03 0.03 0.05 0.05 0.10 0.12 0.19 0.36 0.34 0.60 1.40 1.81 2.00 2.05 1.74 1.51 1.35 1.25 1.33 1.43 1.54 1.71 2.02 2.13 2.33 2.59 3.02 3.77 4.49 5.09 5.69 6.15 6.54 6.57 6.25 5.73 5.23 4.91 4.53 4.04
0.06 0.05 0.04 0.03 0.04 0.04 0.05 0.12 0.31 0.47 0.55 0.55 0.44 0.71 1.47 1.72 1.65 1.64 1.66 1.68 1.50 1.22 1.19 1.29 1.33 1.47 1.66 1.82 2.10 2.46 2.96 3.56 4.03 4.53 5.02 5.35 5.59 5.66 5.57 5.23 4.81 4.51 4.09 3.65
0.16 0.15 0.07 0.03 0.05 0.07 0.06 0.14 0.47 0.67 0.71 0.74 0.77 1.17 1.79 1.63 1.34 1.29 1.41 1.49 1.36 1.26 1.26 1.41 1.51 1.59 1.69 1.82 1.99 2.35 2.81 3.23 3.45 3.68 4.06 4.34 4.49 4.55 4.44 4.19 3.84 3.57 3.28 2.99
0.19 0.20 0.08 0.04 0.05 0.05 0.08 0.13 0.24 0.33 0.41 0.70 1.12 1.63 2.17 2.04 1.53 1.33 1.37 1.33 1.25 1.25 1.26 1.44 1.59 1.70 1.78 1.82 1.96 2.09 2.35 2.58 2.81 3.00 3.16 3.27 3.32 3.26 3.15 2.95 2.70 2.51 2.33 2.09
0.20 0.19 0.12 0.06 0.07 0.09 0.12 0.16 0.21 0.37 0.64 0.97 1.28 1.86 2.58 2.55 1.99 1.59 1.50 1.44 1.31 1.24 1.30 1.44 1.51 1.59 1.64 1.58 1.66 1.74 1.93 2.04 2.20 2.33 2.36 2.24 2.25 2.24 2.10 1.94 1.85 1.71 1.54 1.42
0.26 0.26 0.16 0.10 0.12 0.17 0.15 0.18 0.28 0.40 0.50 0.97 1.50 2.23 2.48 2.64 2.42 2.03 1.63 1.40 1.29 1.25 1.24 1.27 1.31 1.35 1.37 1.30 1.30 1.38 1.53 1.73 1.82 1.82 1.84 1.75 1.69 1.57 1.47 1.38 1.34 1.26 1.18 1.15
0.24 0.33 0.32 0.19 0.15 0.13 0.15 0.20 0.32 0.56 0.60 0.73 1.27 2.35 2.47 2.75 2.63 2.27 1.88 1.57 1.42 1.36 1.25 1.18 1.15 1.13 1.13 1.09 1.09 1.16 1.22 1.31 1.35 1.39 1.38 1.37 1.31 1.22 1.17 1.13 1.09 1.10 1.07 1.04
0.19 0.40 0.64 0.67 0.55 0.26 0.17 0.19 0.24 0.35 0.55 0.80 1.30 2.32 2.50 2.43 2.32 2.24 2.03 1.74 1.53 1.45 1.28 1.24 1.17 1.10 1.11 1.17 1.18 1.06 1.06 1.11 1.13 1.15 1.15 1.13 1.17 1.14 1.10 1.12 1.13 1.11 1.07 1.05
0.13 0.40 0.81 1.15 1.07 0.55 0.37 0.28 0.27 0.37 0.71 0.87 1.17 1.79 2.10 2.11 2.13 2.23 2.23 1.88 1.48 1.34 1.25 1.28 1.29 1.26 1.19 1.19 1.29 1.18 1.06 1.05 1.13 1.10 1.08 0.99 0.96 0.99 1.01 1.03 1.06 1.03 0.99 1.00
0.20 0.47 0.46 0.43 0.42 0.41 0.41 0.36 0.35 0.40 0.47 0.82 1.20 1.64 2.04 2.16 2.11 2.06 1.95 1.73 1.43 1.34 1.40 1.36 1.29 1.30 1.25 1.19 1.22 1.19 1.14 1.08 1.25 1.22 1.18 1.08 0.98 0.98 1.00 1.00 0.97 0.93 0.89 0.84
0.24 0.46 0.43 0.40 0.31 0.35 0.41 0.42 0.45 0.52 0.58 0.80 1.27 1.86 2.20 2.25 2.14 2.09 2.02 1.85 1.74 1.66 1.60 1.57 1.47 1.45 1.44 1.36 1.33 1.26 1.22 1.20 1.27 1.32 1.38 1.40 1.30 1.24 1.21 1.11 0.99 0.96 0.95 0.87
0.26 0.46 0.62 0.63 0.36 0.52 0.88 0.71 0.66 0.76 0.83 1.04 1.61 1.92 1.89 1.97 2.09 2.21 2.28 2.16 2.02 1.92 1.83 1.81 1.75 1.68 1.66 1.62 1.54 1.45 1.36 1.32 1.32 1.38 1.42 1.40 1.38 1.37 1.32 1.16 1.03 1.01 0.97 0.94
0.27 0.49 0.65 0.70 0.75 1.32 1.23 0.68 0.69 0.90 1.03 1.13 1.37 1.48 1.52 1.58 1.69 1.80 1.93 2.02 2.01 1.86 1.78 1.77 1.80 1.78 1.76 1.66 1.57 1.50 1.41 1.38 1.38 1.40 1.41 1.37 1.26 1.26 1.20 1.10 1.07 1.02 0.94 0.92
0.19 0.42 0.69 0.80 1.09 1.31 1.16 0.69 0.70 1.10 1.61 1.32 1.25 1.15 1.07 1.06 1.21 1.57 1.74 1.81 1.96 1.99 1.89 1.84 1.79 1.69 1.66 1.61 1.54 1.48 1.46 1.43 1.42 1.40 1.31 1.24 1.15 1.13 1.06 1.03 0.96 0.88 0.81 0.79
0.21 0.33 0.69 0.89 1.30 1.60 1.48 0.69 0.51 0.94 1.97 1.51 1.29 1.15 1.06 1.18 1.47 1.56 1.51 1.51 1.58 1.68 1.73 1.62 1.48 1.39 1.42 1.45 1.44 1.42 1.41 1.39 1.36 1.17 0.99 0.93 0.94 0.93 0.89 0.83 0.78 0.74 0.72 0.71
0.57 0.63 0.80 0.99 1.39 1.62 0.89 0.47 0.62 1.50 1.94 1.49 1.25 1.12 1.08 1.31 1.43 1.24 1.17 1.23 1.25 1.29 1.27 1.19 1.14 1.19 1.26 1.27 1.22 1.22 1.18 1.17 1.11 1.00 0.86 0.82 0.80 0.75 0.72 0.70 0.70 0.67 0.63 0.66
0.71 0.85 0.93 1.08 1.48 1.64 0.72 0.54 0.95 1.19 1.00 1.00 0.99 0.94 0.90 0.87 0.83 0.88 0.91 0.95 0.91 0.91 0.93 0.89 0.92 0.98 1.02 0.99 0.99 1.07 1.07 0.98 0.90 0.92 0.86 0.81 0.71 0.60 0.60 0.70 0.70 0.67 0.68 0.71
0.65 0.77 0.88 1.06 1.30 1.07 0.60 0.57 0.65 0.69 0.75 0.74 0.73 0.69 0.59 0.54 0.53 0.63 0.65 0.64 0.63 0.64 0.69 0.72 0.74 0.79 0.86 0.87 0.89 0.95 0.96 0.87 0.85 0.91 0.89 0.77 0.64 0.65 0.65 0.69 0.69 0.62 0.59 0.54
0.65 0.50 0.59 0.74 0.85 0.69 0.56 0.53 0.50 0.47 0.50 0.48 0.51 0.52 0.44 0.43 0.48 0.54 0.54 0.52 0.48 0.51 0.54 0.61 0.63 0.63 0.71 0.73 0.77 0.83 0.77 0.74 0.89 0.98 0.92 0.77 0.66 0.61 0.58 0.57 0.52 0.47 0.46 0.44
0.65 0.57 0.59 0.73 0.77 0.72 0.69 0.49 0.40 0.35 0.33 0.33 0.37 0.40 0.37 0.37 0.43 0.44 0.44 0.46 0.47 0.49 0.52 0.56 0.61 0.60 0.57 0.59 0.65 0.63 0.63 0.74 0.97 0.96 0.84 0.72 0.59 0.52 0.48 0.39 0.32 0.28 0.26 0.24
0.42 0.52 0.61 0.68 0.61 0.71 0.76 0.55 0.39 0.37 0.33 0.31 0.29 0.31 0.35 0.38 0.41 0.38 0.37 0.39 0.42 0.44 0.46 0.54 0.54 0.49 0.52 0.57 0.59 0.56 0.56 0.65 0.85 0.87 0.69 0.57 0.48 0.41 0.34 0.30 0.27 0.20 0.15 0.13

GEFSCGP_prec_meanprecacc_222.txt.gz
Total_Precipitation_Accumulation
0.02 0.02 0.07 0.10 0.11 0.13 0.14 0.16 0.21 0.17 0.17 0.21 0.29 0.52 0.76 0.88 1.06 1.19 1.13 1.09 1.18 1.23 1.40 1.65 1.86 2.07 2.31 2.49 2.61 2.80 3.05 3.36 3.58 3.91 4.22 4.37 4.45 4.63 4.70 4.70 4.76 4.78 4.79 4.92
0.03 0.04 0.04 0.06 0.05 0.07 0.09 0.13 0.17 0.18 0.19 0.21 0.32 0.53 0.77 0.87 1.00 1.16 1.21 1.22 1.22 1.32 1.44 1.82 2.14 2.58 2.80 2.86 2.88 3.09 3.42 3.72 3.89 4.28 4.77 5.14 5.26 5.33 5.36 5.33 5.49 5.60 5.62 5.75
0.05 0.04 0.02 0.03 0.03 0.04 0.07 0.09 0.11 0.18 0.22 0.28 0.43 0.78 1.02 1.02 1.14 1.24 1.27 1.43 1.42 1.45 1.69 1.97 2.32 2.60 2.75 2.84 2.93 3.10 3.53 3.98 4.42 4.91 5.46 5.89 6.09 6.12 6.00 5.72 5.79 5.91 5.81 5.86
0.04 0.03 0.02 0.03 0.03 0.04 0.06 0.07 0.08 0.13 0.22 0.34 0.42 0.94 1.33 1.41 1.46 1.36 1.36 1.48 1.46 1.46 1.67 1.97 2.19 2.45 2.60 2.72 2.94 3.13 3.50 4.14 4.64 5.01 5.67 6.28 6.54 6.72 6.83 6.61 6.29 6.04 5.79 5.64
0.03 0.03 0.04 0.05 0.05 0.05 0.06 0.05 0.08 0.10 0.15 0.27 0.31 0.73 1.46 1.63 1.74 1.58 1.50 1.54 1.38 1.32 1.49 1.81 1.94 2.19 2.48 2.58 2.70 2.92 3.42 4.02 4.70 5.33 5.88 6.42 6.84 7.03 7.01 6.62 6.19 5.68 5.30 4.87
0.03 0.02 0.02 0.04 0.03 0.03 0.05 0.05 0.10 0.12 0.20 0.40 0.38 0.66 1.48 1.88 2.06 2.09 1.75 1.51 1.36 1.26 1.34 1.46 1.57 1.75 2.07 2.18 2.40 2.70 3.10 3.82 4.53 5.14 5.75 6.22 6.60 6.64 6.31 5.80 5.31 4.97 4.59 4.10
0.07 0.05 0.04 0.03 0.04 0.04 0.05 0.13 0.34 0.50 0.60 0.61 0.47 0.76 1.54 1.75 1.66 1.64 1.67 1.69 1.50 1.23 1.20 1.33 1.37 1.51 1.70 1.85 2.14 2.51 3.02 3.62 4.08 4.59 5.11 5.44 5.66 5.73 5.64 5.31 4.90 4.58 4.16 3.72
0.17 0.16 0.07 0.03 0.05 0.07 0.06 0.15 0.50 0.72 0.77 0.79 0.81 1.21 1.84 1.65 1.34 1.29 1.42 1.50 1.39 1.29 1.28 1.44 1.54 1.64 1.74 1.84 2.02 2.40 2.85 3.28 3.51 3.74 4.14 4.43 4.57 4.62 4.50 4.26 3.93 3.64 3.36 3.09
0.20 0.20 0.08 0.04 0.05 0.05 0.09 0.13 0.25 0.36 0.46 0.75 1.18 1.68 2.21 2.07 1.55 1.34 1.38 1.35 1.30 1.30 1.29 1.46 1.62 1.72 1.81 1.85 2.00 2.15 2.40 2.64 2.88 3.05 3.21 3.34 3.39 3.32 3.22 3.02 2.78 2.58 2.39 2.15
0.20 0.19 0.12 0.06 0.07 0.09 0.12 0.16 0.22 0.40 0.68 1.02 1.33 1.92 2.64 2.60 2.03 1.62 1.53 1.46 1.35 1.31 1.34 1.47 1.53 1.61 1.66 1.61 1.68 1.76 1.98 2.10 2.26 2.38 2.41 2.30 2.31 2.30 2.18 2.02 1.92 1.78 1.59 1.47
0.27 0.27 0.17 0.10 0.13 0.17 0.15 0.19 0.30 0.42 0.52 1.00 1.55 2.29 2.52 2.68 2.45 2.05 1.65 1.41 1.31 1.27 1.26 1.30 1.34 1.37 1.39 1.31 1.32 1.41 1.56 1.76 1.86 1.85 1.88 1.82 1.75 1.62 1.53 1.43 1.40 1.31 1.22 1.19
0.24 0.33 0.32 0.19 0.15 0.13 0.15 0.20 0.33 0.58 0.62 0.76 1.31 2.40 2.50 2.77 2.65 2.28 1.90 1.58 1.43 1.37 1.25 1.19 1.16 1.15 1.15 1.11 1.10 1.18 1.24 1.33 1.37 1.40 1.41 1.39 1.34 1.24 1.20 1.15 1.12 1.13 1.10 1.07
0.19 0.41 0.65 0.68 0.56 0.26 0.17 0.19 0.25 0.36 0.56 0.83 1.35 2.36 2.54 2.45 2.35 2.27 2.06 1.77 1.55 1.46 1.30 1.26 1.18 1.12 1.13 1.19 1.20 1.07 1.08 1.12 1.14 1.17 1.17 1.15 1.18 1.16 1.12 1.15 1.15 1.13 1.09 1.07
0.13 0.41 0.82 1.17 1.09 0.55 0.37 0.28 0.28 0.37 0.73 0.89 1.20 1.82 2.13 2.14 2.16 2.27 2.27 1.91 1.50 1.36 1.26 1.29 1.32 1.29 1.21 1.20 1.31 1.19 1.07 1.06 1.14 1.11 1.09 1.01 0.97 1.01 1.04 1.06 1.08 1.05 1.01 1.02
0.20 0.47 0.46 0.44 0.43 0.41 0.41 0.36 0.36 0.41 0.48 0.83 1.22 1.66 2.06 2.19 2.14 2.09 1.98 1.76 1.44 1.35 1.41 1.37 1.31 1.32 1.26 1.21 1.24 1.21 1.16 1.09 1.27 1.24 1.20 1.10 1.00 1.00 1.02 1.02 0.99 0.95 0.91 0.86
0.24 0.46 0.43 0.41 0.31 0.36 0.42 0.42 0.45 0.53 0.58 0.80 1.28 1.87 2.21 2.27 2.17 2.11 2.04 1.86 1.76 1.67 1.62 1.59 1.49 1.47 1.45 1.37 1.34 1.27 1.24 1.21 1.29 1.35 1.41 1.42 1.32 1.26 1.23 1.14 1.01 0.99 0.98 0.90
0.26 0.47 0.63 0.65 0.36 0.53 0.90 0.71 0.66 0.76 0.83 1.04 1.62 1.92 1.89 1.98 2.11 2.24 2.31 2.18 2.03 1.94 1.87 1.84 1.77 1.71 1.68 1.64 1.56 1.47 1.37 1.33 1.34 1.41 1.45 1.43 1.41 1.39 1.34 1.18 1.05 1.03 1.00 0.98
0.27 0.50 0.66 0.72 0.77 1.35 1.25 0.69 0.69 0.90 1.04 1.14 1.38 1.49 1.53 1.59 1.72 1.82 1.95 2.03 2.02 1.87 1.79 1.80 1.83 1.81 1.79 1.69 1.59 1.51 1.42 1.39 1.40 1.42 1.43 1.40 1.30 1.29 1.22 1.12 1.09 1.05 0.97 0.95
0.19 0.42 0.70 0.82 1.13 1.35 1.18 0.70 0.70 1.12 1.63 1.32 1.26 1.16 1.07 1.06 1.22 1.59 1.76 1.82 1.97 2.00 1.90 1.85 1.80 1.71 1.68 1.64 1.57 1.51 1.47 1.45 1.44 1.41 1.33 1.25 1.17 1.15 1.08 1.05 0.99 0.91 0.85 0.83
0.21 0.34 0.70 0.91 1.34 1.63 1.51 0.71 0.53 0.96 2.01 1.53 1.31 1.17 1.07 1.18 1.50 1.59 1.52 1.51 1.58 1.69 1.74 1.64 1.49 1.40 1.43 1.47 1.46 1.44 1.42 1.41 1.38 1.18 1.00 0.94 0.96 0.96 0.92 0.87 0.81 0.77 0.75 0.74
0.58 0.64 0.82 1.02 1.43 1.65 0.91 0.48 0.64 1.54 1.99 1.52 1.27 1.14 1.10 1.33 1.45 1.25 1.18 1.24 1.26 1.30 1.28 1.21 1.15 1.20 1.28 1.29 1.24 1.24 1.20 1.19 1.13 1.02 0.87 0.84 0.83 0.77 0.75 0.74 0.74 0.71 0.66 0.69
0.72 0.87 0.95 1.11 1.52 1.68 0.73 0.56 0.99 1.23 1.02 1.01 0.99 0.94 0.91 0.89 0.84 0.89 0.93 0.96 0.92 0.92 0.94 0.90 0.92 0.99 1.04 1.00 1.00 1.08 1.09 1.01 0.93 0.95 0.88 0.83 0.74 0.64 0.63 0.75 0.74 0.70 0.71 0.74
0.66 0.79 0.91 1.09 1.34 1.10 0.62 0.58 0.67 0.71 0.77 0.76 0.75 0.70 0.59 0.54 0.53 0.64 0.66 0.66 0.64 0.64 0.70 0.73 0.75 0.80 0.88 0.89 0.91 0.97 0.98 0.88 0.87 0.93 0.91 0.80 0.68 0.69 0.69 0.74 0.73 0.65 0.63 0.58
0.67 0.51 0.62 0.78 0.88 0.72 0.59 0.56 0.52 0.48 0.51 0.50 0.54 0.55 0.45 0.43 0.48 0.55 0.55 0.52 0.50 0.52 0.54 0.61 0.65 0.66 0.73 0.75 0.79 0.86 0.78 0.76 0.90 1.01 0.96 0.81 0.71 0.66 0.61 0.60 0.54 0.50 0.50 0.49
0.67 0.58 0.61 0.76 0.80 0.74 0.72 0.53 0.44 0.36 0.33 0.34 0.38 0.41 0.38 0.37 0.44 0.45 0.46 0.48 0.50 0.51 0.54 0.59 0.63 0.62 0.59 0.60 0.66 0.64 0.64 0.76 1.00 0.99 0.88 0.76 0.63 0.56 0.51 0.43 0.36 0.32 0.31 0.30
0.44 0.54 0.63 0.71 0.64 0.72 0.77 0.56 0.42 0.38 0.34 0.33 0.31 0.32 0.36 0.39 0.42 0.40 0.39 0.41 0.44 0.47 0.48 0.56 0.57 0.52 0.54 0.58 0.59 0.56 0.58 0.67 0.87 0.90 0.72 0.60 0.51 0.44 0.37 0.33 0.32 0.25 0.20 0.17

GEFSCGP_prec_meanprecacc_228.txt.gz
Total_Precipitation_Accumulation
0.02 0.03 0.07 0.10 0.11 0.14 0.16 0.18 0.23 0.20 0.18 0.23 0.32 0.54 0.78 0.91 1.09 1.25 1.21 1.18 1.25 1.30 1.55 1.78 1.95 2.17 2.38 2.56 2.70 2.90 3.14 3.43 3.64 3.97 4.29 4.47 4.59 4.74 4.79 4.78 4.82 4.84 4.86 4.97
0.04 0.05 0.05 0.07 0.07 0.09 0.11 0.15 0.19 0.20 0.21 0.23 0.34 0.55 0.80 0.90 1.04 1.24 1.30 1.34 1.32 1.39 1.53 1.89 2.20 2.63 2.84 2.94 2.98 3.18 3.50 3.78 3.93 4.32 4.81 5.20 5.34 5.40 5.42 5.41 5.55 5.65 5.68 5.81
0.06 0.05 0.05 0.05 0.04 0.05 0.08 0.11 0.13 0.20 0.24 0.30 0.45 0.81 1.06 1.07 1.20 1.33 1.36 1.50 1.50 1.52 1.77 2.02 2.38 2.65 2.79 2.88 3.00 3.16 3.59 4.03 4.46 4.95 5.49 5.91 6.12 6.17 6.05 5.77 5.84 5.97 5.89 5.95
0.05 0.04 0.03 0.04 0.04 0.05 0.07 0.08 0.09 0.14 0.23 0.37 0.44 0.97 1.37 1.46 1.51 1.43 1.44 1.53 1.51 1.52 1.74 2.02 2.25 2.52 2.65 2.76 2.99 3.19 3.56 4.19 4.68 5.05 5.70 6.31 6.57 6.78 6.88 6.65 6.33 6.10 5.85 5.73
0.03 0.03 0.05 0.06 0.06 0.06 0.06 0.06 0.09 0.11 0.16 0.31 0.35 0.77 1.50 1.68 1.80 1.64 1.57 1.60 1.43 1.36 1.55 1.87 2.00 2.24 2.54 2.64 2.76 3.00 3.51 4.08 4.74 5.36 5.91 6.45 6.89 7.12 7.08 6.66 6.23 5.72 5.35 4.93
0.03 0.02 0.03 0.04 0.04 0.04 0.05 0.06 0.12 0.15 0.24 0.45 0.44 0.72 1.55 1.93 2.11 2.14 1.81 1.59 1.41 1.30 1.39 1.53 1.67 1.87 2.17 2.26 2.49 2.82 3.24 3.92 4.60 5.18 5.78 6.24 6.62 6.68 6.36 5.84 5.33 4.99 4.63 4.17
0.07 0.05 0.04 0.03 0.04 0.04 0.06 0.14 0.36 0.53 0.64 0.66 0.53 0.83 1.61 1.82 1.71 1.68 1.73 1.78 1.55 1.27 1.26 1.44 1.51 1.66 1.84 1.96 2.22 2.59 3.13 3.74 4.17 4.67 5.17 5.49 5.69 5.75 5.68 5.34 4.92 4.60 4.18 3.76
0.17 0.16 0.07 0.04 0.05 0.08 0.07 0.16 0.51 0.75 0.79 0.82 0.85 1.29 1.90 1.71 1.40 1.35 1.46 1.55 1.42 1.33 1.36 1.56 1.67 1.77 1.88 1.98 2.11 2.45 2.89 3.33 3.58 3.83 4.22 4.51 4.62 4.65 4.53 4.30 3.97 3.68 3.39 3.13
0.20 0.21 0.08 0.04 0.05 0.06 0.09 0.14 0.26 0.38 0.49 0.79 1.25 1.77 2.31 2.17 1.61 1.39 1.41 1.38 1.33 1.33 1.36 1.54 1.69 1.79 1.88 1.91 2.04 2.18 2.43 2.66 2.89 3.08 3.26 3.40 3.44 3.36 3.24 3.05 2.81 2.61 2.44 2.20
0.21 0.20 0.12 0.07 0.08 0.10 0.12 0.17 0.23 0.42 0.72 1.07 1.40 2.01 2.72 2.66 2.09 1.67 1.57 1.50 1.39 1.33 1.37 1.51 1.56 1.63 1.68 1.62 1.71 1.79 2.00 2.13 2.27 2.39 2.44 2.36 2.37 2.32 2.19 2.03 1.93 1.79 1.61 1.49
0.28 0.27 0.17 0.10 0.13 0.17 0.15 0.19 0.30 0.43 0.54 1.04 1.60 2.35 2.58 2.72 2.50 2.11 1.69 1.46 1.34 1.29 1.28 1.31 1.35 1.38 1.40 1.33 1.34 1.43 1.58 1.78 1.87 1.86 1.90 1.86 1.79 1.64 1.55 1.45 1.40 1.32 1.23 1.21
0.25 0.34 0.32 0.19 0.16 0.13 0.15 0.21 0.34 0.60 0.64 0.78 1.34 2.43 2.53 2.80 2.69 2.34 1.93 1.61 1.46 1.38 1.27 1.20 1.18 1.16 1.17 1.13 1.12 1.19 1.25 1.34 1.38 1.42 1.43 1.42 1.36 1.27 1.23 1.17 1.13 1.15 1.12 1.09
0.19 0.41 0.66 0.69 0.56 0.26 0.17 0.19 0.25 0.36 0.57 0.85 1.37 2.39 2.57 2.48 2.37 2.32 2.10 1.79 1.57 1.49 1.32 1.27 1.20 1.13 1.16 1.24 1.23 1.09 1.09 1.13 1.15 1.18 1.19 1.17 1.21 1.18 1.15 1.17 1.17 1.15 1.11 1.09
0.14 0.42 0.82 1.17 1.10 0.56 0.38 0.29 0.29 0.38 0.74 0.90 1.22 1.84 2.15 2.16 2.18 2.32 2.31 1.93 1.53 1.39 1.29 1.32 1.34 1.31 1.23 1.25 1.36 1.22 1.08 1.07 1.14 1.12 1.10 1.02 0.99 1.03 1.06 1.08 1.10 1.06 1.02 1.03
0.21 0.48 0.47 0.44 0.44 0.42 0.42 0.37 0.37 0.42 0.49 0.85 1.23 1.67 2.08 2.21 2.16 2.11 2.00 1.78 1.47 1.38 1.44 1.41 1.35 1.34 1.27 1.22 1.26 1.23 1.17 1.10 1.27 1.24 1.20 1.11 1.01 1.01 1.04 1.04 1.01 0.96 0.92 0.87
0.25 0.47 0.44 0.41 0.32 0.36 0.42 0.43 0.46 0.53 0.59 0.81 1.29 1.88 2.22 2.28 2.20 2.14 2.05 1.87 1.77 1.68 1.63 1.60 1.51 1.49 1.47 1.39 1.35 1.28 1.25 1.22 1.30 1.36 1.42 1.44 1.33 1.27 1.24 1.14 1.01 0.99 0.98 0.91
0.28 0.49 0.66 0.67 0.37 0.54 0.91 0.72 0.67 0.77 0.84 1.05 1.63 1.94 1.90 1.99 2.12 2.25 2.32 2.19 2.04 1.95 1.87 1.85 1.79 1.72 1.71 1.66 1.57 1.48 1.38 1.35 1.35 1.42 1.46 1.44 1.42 1.40 1.36 1.19 1.06 1.04 1.01 0.99
0.29 0.52 0.69 0.74 0.80 1.38 1.27 0.70 0.70 0.91 1.05 1.15 1.40 1.51 1.54 1.59 1.72 1.83 1.96 2.05 2.04 1.89 1.80 1.81 1.84 1.82 1.81 1.70 1.60 1.52 1.44 1.42 1.43 1.44 1.45 1.41 1.31 1.31 1.24 1.14 1.11 1.05 0.98 0.96
0.20 0.44 0.73 0.84 1.15 1.38 1.21 0.73 0.73 1.15 1.66 1.35 1.30 1.20 1.09 1.07 1.23 1.60 1.77 1.84 1.99 2.01 1.91 1.86 1.82 1.72 1.69 1.65 1.58 1.51 1.49 1.47 1.47 1.44 1.36 1.28 1.20 1.18 1.11 1.07 1.01 0.93 0.86 0.84
0.22 0.34 0.72 0.94 1.37 1.66 1.56 0.76 0.57 1.02 2.08 1.61 1.38 1.22 1.09 1.19 1.51 1.60 1.53 1.53 1.60 1.70 1.75 1.65 1.50 1.41 1.44 1.48 1.46 1.45 1.43 1.42 1.39 1.20 1.02 0.96 0.99 0.99 0.95 0.89 0.83 0.79 0.77 0.76
0.60 0.66 0.84 1.06 1.48 1.70 0.95 0.52 0.68 1.58 2.06 1.62 1.35 1.18 1.12 1.34 1.48 1.28 1.20 1.26 1.27 1.31 1.30 1.22 1.16 1.21 1.29 1.30 1.25 1.25 1.20 1.20 1.15 1.03 0.89 0.85 0.85 0.81 0.78 0.77 0.77 0.73 0.68 0.70
0.74 0.89 0.98 1.16 1.59 1.75 0.78 0.59 1.03 1.28 1.07 1.08 1.05 0.98 0.94 0.92 0.87 0.92 0.95 0.98 0.94 0.93 0.96 0.92 0.94 1.01 1.05 1.01 1.02 1.09 1.10 1.02 0.95 0.97 0.90 0.85 0.76 0.66 0.66 0.78 0.77 0.73 0.73 0.75
0.68 0.82 0.94 1.13 1.40 1.16 0.67 0.61 0.69 0.73 0.80 0.78 0.77 0.72 0.61 0.56 0.55 0.65 0.67 0.67 0.66 0.66 0.72 0.75 0.77 0.82 0.91 0.93 0.95 1.00 1.00 0.90 0.89 0.95 0.93 0.81 0.69 0.71 0.70 0.76 0.75 0.69 0.67 0.62
0.71 0.54 0.65 0.82 0.93 0.75 0.63 0.60 0.56 0.51 0.53 0.52 0.56 0.58 0.50 0.47 0.51 0.57 0.58 0.55 0.53 0.54 0.56 0.64 0.68 0.68 0.77 0.80 0.83 0.89 0.82 0.80 0.94 1.04 0.98 0.84 0.73 0.67 0.63 0.62 0.57 0.54 0.54 0.52
0.70 0.62 0.65 0.81 0.85 0.79 0.76 0.56 0.47 0.41 0.38 0.37 0.40 0.43 0.43 0.45 0.49 0.48 0.49 0.53 0.55 0.56 0.57 0.60 0.65 0.64 0.61 0.63 0.69 0.67 0.67 0.79 1.03 1.01 0.90 0.78 0.65 0.57 0.53 0.44 0.38 0.35 0.34 0.33
0.46 0.56 0.67 0.75 0.67 0.76 0.80 0.59 0.46 0.44 0.42 0.38 0.33 0.33 0.38 0.42 0.49 0.46 0.43 0.47 0.50 0.50 0.51 0.58 0.59 0.54 0.55 0.60 0.62 0.59 0.60 0.69 0.90 0.92 0.74 0.61 0.53 0.46 0.39 0.35 0.34 0.27 0.21 0.19

GEFSCGP_prec_meanprecacc_234.txt.gz
Total_Precipitation_Accumulation
0.02 0.03 0.07 0.10 0.11 0.14 0.16 0.18 0.24 0.21 0.19 0.25 0.34 0.54 0.79 0.92 1.11 1.26 1.22 1.19 1.25 1.32 1.59 1.81 2.00 2.21 2.45 2.62 2.76 2.97 3.19 3.48 3.68 4.02 4.34 4.53 4.66 4.83 4.86 4.84 4.86 4.88 4.89 5.00
0.04 0.05 0.06 0.07 0.07 0.09 0.11 0.15 0.20 0.22 0.22 0.24 0.36 0.57 0.81 0.91 1.06 1.25 1.31 1.35 1.33 1.41 1.57 1.93 2.26 2.70 2.93 3.01 3.06 3.27 3.57 3.83 3.98 4.37 4.86 5.25 5.38 5.46 5.49 5.47 5.60 5.68 5.71 5.85
0.06 0.06 0.05 0.05 0.05 0.05 0.08 0.11 0.14 0.21 0.25 0.31 0.48 0.84 1.07 1.08 1.21 1.35 1.37 1.51 1.51 1.55 1.81 2.06 2.45 2.75 2.90 2.98 3.09 3.27 3.70 4.10 4.51 4.99 5.54 5.95 6.15 6.18 6.07 5.80 5.88 6.00 5.91 5.98
0.05 0.04 0.03 0.04 0.04 0.05 0.07 0.09 0.10 0.15 0.24 0.38 0.45 0.98 1.38 1.47 1.52 1.44 1.45 1.54 1.53 1.56 1.78 2.07 2.31 2.60 2.75 2.86 3.08 3.28 3.66 4.27 4.74 5.10 5.74 6.34 6.59 6.79 6.89 6.66 6.35 6.11 5.87 5.75
0.03 0.04 0.05 0.06 0.06 0.06 0.07 0.06 0.10 0.13 0.18 0.32 0.36 0.78 1.51 1.69 1.81 1.66 1.59 1.62 1.46 1.40 1.58 1.91 2.05 2.33 2.65 2.75 2.84 3.07 3.59 4.16 4.81 5.43 5.96 6.50 6.92 7.15 7.10 6.68 6.24 5.73 5.37 4.95
0.03 0.02 0.03 0.05 0.04 0.04 0.05 0.07 0.14 0.17 0.26 0.47 0.45 0.73 1.56 1.94 2.11 2.15 1.83 1.62 1.46 1.34 1.42 1.57 1.71 1.93 2.30 2.40 2.60 2.92 3.34 4.00 4.67 5.25 5.84 6.30 6.67 6.73 6.40 5.87 5.35 5.01 4.65 4.18
0.07 0.05 0.04 0.04 0.04 0.04 0.06 0.15 0.39 0.56 0.67 0.68 0.54 0.84 1.61 1.83 1.71 1.68 1.75 1.81 1.60 1.30 1.29 1.47 1.55 1.71 1.94 2.10 2.35 2.71 3.24 3.84 4.26 4.74 5.23 5.55 5.76 5.82 5.73 5.38 4.94 4.61 4.19 3.78
0.17 0.16 0.07 0.04 0.06 0.08 0.07 0.18 0.53 0.76 0.80 0.82 0.86 1.29 1.90 1.72 1.40 1.35 1.47 1.56 1.45 1.36 1.39 1.58 1.70 1.80 1.94 2.06 2.22 2.56 2.99 3.43 3.66 3.90 4.30 4.58 4.70 4.73 4.59 4.34 3.99 3.69 3.40 3.15
0.20 0.21 0.08 0.04 0.05 0.06 0.10 0.15 0.26 0.39 0.49 0.79 1.25 1.78 2.31 2.17 1.62 1.39 1.42 1.39 1.35 1.35 1.38 1.56 1.71 1.81 1.90 1.94 2.09 2.24 2.51 2.75 2.97 3.15 3.35 3.49 3.51 3.42 3.30 3.09 2.83 2.62 2.45 2.22
0.21 0.20 0.13 0.07 0.08 0.10 0.13 0.17 0.23 0.42 0.72 1.08 1.41 2.01 2.73 2.67 2.09 1.67 1.57 1.51 1.40 1.34 1.38 1.52 1.57 1.64 1.70 1.65 1.74 1.83 2.05 2.18 2.33 2.44 2.49 2.41 2.42 2.36 2.23 2.06 1.95 1.80 1.63 1.51
0.28 0.28 0.17 0.11 0.13 0.17 0.15 0.19 0.30 0.43 0.54 1.04 1.61 2.36 2.58 2.73 2.50 2.11 1.69 1.46 1.35 1.30 1.29 1.32 1.36 1.39 1.42 1.35 1.35 1.45 1.61 1.81 1.90 1.89 1.93 1.90 1.82 1.66 1.57 1.47 1.42 1.33 1.24 1.22
0.25 0.35 0.33 0.19 0.16 0.13 0.15 0.21 0.34 0.60 0.64 0.78 1.35 2.43 2.53 2.81 2.69 2.34 1.94 1.62 1.47 1.39 1.28 1.21 1.18 1.16 1.17 1.14 1.13 1.20 1.27 1.36 1.39 1.43 1.45 1.46 1.38 1.28 1.24 1.19 1.15 1.16 1.13 1.10
0.20 0.42 0.66 0.69 0.57 0.27 0.18 0.20 0.25 0.37 0.57 0.85 1.37 2.40 2.57 2.48 2.37 2.33 2.11 1.80 1.58 1.50 1.33 1.28 1.20 1.14 1.17 1.25 1.24 1.10 1.11 1.15 1.16 1.19 1.20 1.19 1.22 1.19 1.16 1.18 1.18 1.16 1.12 1.10
0.14 0.42 0.83 1.18 1.10 0.56 0.38 0.29 0.29 0.39 0.75 0.91 1.22 1.84 2.16 2.17 2.19 2.33 2.32 1.94 1.54 1.40 1.30 1.33 1.35 1.31 1.23 1.26 1.37 1.23 1.09 1.08 1.15 1.13 1.11 1.03 1.00 1.06 1.09 1.10 1.11 1.07 1.03 1.04
0.22 0.49 0.47 0.45 0.45 0.43 0.42 0.38 0.37 0.43 0.50 0.85 1.23 1.67 2.08 2.21 2.16 2.11 2.01 1.79 1.49 1.40 1.46 1.42 1.35 1.35 1.27 1.23 1.27 1.25 1.18 1.11 1.28 1.25 1.21 1.11 1.02 1.04 1.08 1.06 1.02 0.98 0.94 0.88
0.26 0.48 0.45 0.42 0.33 0.37 0.42 0.43 0.47 0.54 0.60 0.82 1.30 1.89 2.23 2.29 2.20 2.15 2.06 1.88 1.78 1.69 1.63 1.61 1.52 1.50 1.48 1.40 1.36 1.31 1.28 1.23 1.31 1.36 1.42 1.44 1.33 1.28 1.26 1.16 1.03 1.01 1.00 0.92
0.28 0.50 0.67 0.68 0.38 0.54 0.92 0.73 0.68 0.77 0.84 1.05 1.63 1.95 1.91 2.00 2.13 2.26 2.33 2.20 2.05 1.96 1.88 1.86 1.79 1.73 1.71 1.67 1.58 1.48 1.40 1.36 1.36 1.42 1.46 1.44 1.42 1.41 1.36 1.20 1.06 1.05 1.03 1.00
0.29 0.53 0.69 0.75 0.80 1.39 1.28 0.71 0.71 0.91 1.05 1.15 1.41 1.52 1.55 1.61 1.74 1.84 1.97 2.06 2.05 1.91 1.82 1.82 1.85 1.83 1.82 1.71 1.61 1.53 1.45 1.43 1.44 1.45 1.45 1.41 1.31 1.31 1.24 1.15 1.12 1.06 0.99 0.97
0.20 0.45 0.74 0.85 1.15 1.38 1.22 0.74 0.73 1.15 1.66 1.36 1.30 1.21 1.11 1.10 1.26 1.62 1.79 1.85 2.00 2.03 1.92 1.88 1.83 1.74 1.70 1.66 1.59 1.52 1.50 1.47 1.47 1.45 1.37 1.29 1.20 1.18 1.11 1.08 1.02 0.94 0.87 0.85
0.22 0.35 0.73 0.95 1.38 1.68 1.57 0.78 0.59 1.04 2.10 1.62 1.39 1.24 1.11 1.21 1.53 1.62 1.54 1.54 1.61 1.71 1.76 1.66 1.52 1.42 1.46 1.50 1.48 1.46 1.44 1.43 1.40 1.21 1.03 0.97 0.99 0.99 0.95 0.90 0.84 0.80 0.78 0.77
0.61 0.67 0.85 1.07 1.49 1.72 0.97 0.54 0.70 1.60 2.07 1.63 1.36 1.20 1.14 1.36 1.49 1.29 1.22 1.27 1.27 1.31 1.30 1.23 1.17 1.23 1.31 1.33 1.27 1.26 1.21 1.21 1.16 1.05 0.91 0.88 0.87 0.81 0.78 0.77 0.78 0.74 0.70 0.72
0.75 0.90 0.98 1.16 1.60 1.77 0.80 0.61 1.06 1.31 1.09 1.10 1.07 0.99 0.95 0.93 0.89 0.93 0.97 0.99 0.95 0.94 0.97 0.93 0.95 1.02 1.07 1.03 1.03 1.10 1.11 1.04 0.97 0.99 0.93 0.88 0.79 0.68 0.67 0.79 0.78 0.74 0.76 0.78
0.70 0.83 0.94 1.14 1.41 1.17 0.68 0.63 0.72 0.75 0.82 0.80 0.79 0.74 0.63 0.58 0.57 0.67 0.69 0.69 0.67 0.67 0.73 0.77 0.78 0.84 0.93 0.95 0.97 1.01 1.01 0.92 0.91 0.97 0.96 0.84 0.72 0.73 0.72 0.78 0.77 0.71 0.69 0.65
0.72 0.55 0.65 0.83 0.94 0.76 0.64 0.61 0.57 0.52 0.55 0.54 0.58 0.60 0.52 0.49 0.53 0.58 0.59 0.57 0.55 0.57 0.59 0.67 0.71 0.72 0.79 0.82 0.85 0.91 0.84 0.82 0.97 1.08 1.01 0.87 0.77 0.71 0.68 0.66 0.60 0.57 0.57 0.55
0.71 0.62 0.66 0.82 0.87 0.81 0.78 0.57 0.48 0.42 0.39 0.39 0.42 0.45 0.45 0.46 0.50 0.49 0.50 0.54 0.57 0.59 0.63 0.66 0.70 0.68 0.65 0.66 0.71 0.69 0.69 0.82 1.06 1.04 0.93 0.81 0.68 0.61 0.58 0.51 0.45 0.41 0.40 0.38
0.47 0.57 0.68 0.76 0.69 0.78 0.83 0.61 0.48 0.46 0.43 0.39 0.34 0.35 0.39 0.43 0.50 0.46 0.44 0.47 0.51 0.52 0.56 0.66 0.64 0.57 0.58 0.62 0.64 0.60 0.61 0.71 0.93 0.95 0.76 0.64 0.55 0.48 0.41 0.37 0.37 0.30 0.25 0.23

GEFSCGP_prec_meanprecacc_240.txt.gz
Total_Precipitation_Accumulation
0.02 0.03 0.07 0.10 0.11 0.14 0.16 0.18 0.24 0.21 0.19 0.25 0.34 0.55 0.79 0.92 1.12 1.28 1.23 1.20 1.27 1.33 1.59 1.82 2.01 2.23 2.46 2.63 2.77 2.98 3.21 3.49 3.69 4.03 4.35 4.55 4.69 4.86 4.90 4.87 4.91 4.92 4.94 5.06
0.04 0.05 0.06 0.08 0.07 0.09 0.11 0.15 0.20 0.22 0.22 0.25 0.37 0.57 0.81 0.91 1.06 1.26 1.32 1.36 1.33 1.42 1.58 1.94 2.27 2.70 2.94 3.03 3.08 3.28 3.58 3.85 4.00 4.38 4.87 5.27 5.42 5.51 5.54 5.52 5.64 5.71 5.75 5.90
0.06 0.06 0.05 0.05 0.05 0.05 0.08 0.11 0.14 0.21 0.25 0.31 0.48 0.84 1.07 1.08 1.22 1.35 1.38 1.52 1.51 1.56 1.83 2.07 2.46 2.76 2.91 3.00 3.12 3.29 3.73 4.13 4.54 5.02 5.57 5.98 6.18 6.21 6.10 5.83 5.92 6.04 5.95 6.02
0.05 0.04 0.03 0.04 0.05 0.05 0.07 0.09 0.10 0.15 0.25 0.38 0.45 0.99 1.39 1.48 1.53 1.45 1.46 1.56 1.54 1.57 1.79 2.08 2.32 2.61 2.76 2.89 3.12 3.33 3.71 4.33 4.79 5.14 5.77 6.36 6.62 6.81 6.91 6.69 6.38 6.16 5.92 5.80
0.03 0.04 0.05 0.06 0.06 0.06 0.07 0.06 0.10 0.13 0.18 0.32 0.36 0.79 1.52 1.70 1.82 1.66 1.60 1.62 1.47 1.42 1.59 1.92 2.07 2.34 2.67 2.77 2.87 3.12 3.66 4.22 4.87 5.47 5.99 6.53 6.96 7.18 7.13 6.71 6.28 5.77 5.40 4.98
0.03 0.02 0.03 0.05 0.04 0.04 0.05 0.07 0.14 0.17 0.27 0.48 0.46 0.73 1.56 1.95 2.12 2.15 1.83 1.63 1.47 1.36 1.43 1.58 1.73 1.95 2.31 2.42 2.63 2.95 3.39 4.08 4.73 5.30 5.87 6.33 6.72 6.76 6.44 5.90 5.39 5.05 4.68 4.21
0.07 0.05 0.04 0.04 0.04 0.04 0.06 0.15 0.40 0.57 0.68 0.69 0.54 0.84 1.62 1.83 1.72 1.69 1.75 1.81 1.61 1.32 1.30 1.48 1.57 1.73 1.96 2.13 2.40 2.76 3.29 3.91 4.31 4.78 5.27 5.59 5.80 5.86 5.77 5.42 4.98 4.64 4.23 3.80
0.17 0.16 0.07 0.04 0.06 0.08 0.07 0.18 0.54 0.77 0.82 0.84 0.86 1.30 1.91 1.72 1.40 1.35 1.47 1.57 1.46 1.37 1.40 1.60 1.72 1.83 1.96 2.09 2.26 2.61 3.04 3.48 3.70 3.94 4.33 4.61 4.73 4.77 4.64 4.39 4.04 3.74 3.44 3.18
0.20 0.21 0.09 0.04 0.05 0.06 0.10 0.15 0.26 0.40 0.50 0.80 1.26 1.78 2.31 2.18 1.62 1.40 1.42 1.40 1.36 1.37 1.39 1.58 1.73 1.84 1.93 1.96 2.12 2.28 2.55 2.80 3.02 3.20 3.40 3.53 3.54 3.45 3.35 3.15 2.90 2.68 2.50 2.25
0.22 0.20 0.13 0.07 0.08 0.10 0.13 0.17 0.23 0.43 0.74 1.09 1.41 2.02 2.74 2.68 2.10 1.67 1.58 1.52 1.41 1.35 1.39 1.54 1.60 1.67 1.71 1.66 1.75 1.86 2.08 2.23 2.38 2.49 2.54 2.46 2.46 2.40 2.27 2.10 2.01 1.87 1.68 1.55
0.29 0.28 0.18 0.11 0.13 0.17 0.15 0.19 0.31 0.44 0.55 1.05 1.61 2.37 2.60 2.74 2.51 2.11 1.69 1.47 1.37 1.32 1.30 1.34 1.38 1.41 1.44 1.37 1.37 1.47 1.64 1.84 1.95 1.95 1.98 1.96 1.87 1.70 1.60 1.50 1.45 1.38 1.29 1.27
0.26 0.36 0.33 0.19 0.16 0.14 0.15 0.21 0.35 0.61 0.65 0.79 1.35 2.44 2.54 2.81 2.70 2.35 1.94 1.62 1.49 1.41 1.29 1.22 1.20 1.20 1.21 1.16 1.14 1.21 1.28 1.37 1.42 1.48 1.50 1.51 1.43 1.32 1.27 1.22 1.18 1.19 1.15 1.12
0.21 0.43 0.67 0.70 0.57 0.27 0.18 0.20 0.26 0.37 0.58 0.86 1.38 2.40 2.57 2.48 2.38 2.33 2.12 1.80 1.59 1.52 1.35 1.30 1.21 1.14 1.17 1.26 1.24 1.11 1.12 1.17 1.17 1.21 1.22 1.22 1.25 1.22 1.19 1.20 1.21 1.19 1.14 1.11
0.15 0.43 0.83 1.18 1.11 0.57 0.38 0.29 0.29 0.39 0.76 0.91 1.23 1.84 2.16 2.17 2.20 2.34 2.33 1.95 1.55 1.42 1.32 1.36 1.39 1.34 1.25 1.26 1.38 1.24 1.10 1.09 1.16 1.15 1.12 1.05 1.03 1.08 1.11 1.12 1.13 1.09 1.05 1.07
0.22 0.50 0.48 0.45 0.45 0.43 0.43 0.38 0.38 0.43 0.50 0.86 1.24 1.67 2.08 2.21 2.16 2.12 2.02 1.80 1.50 1.41 1.47 1.44 1.39 1.38 1.31 1.25 1.29 1.27 1.20 1.12 1.30 1.27 1.23 1.13 1.03 1.05 1.10 1.08 1.04 0.99 0.95 0.90
0.27 0.48 0.45 0.43 0.34 0.38 0.43 0.44 0.47 0.55 0.60 0.82 1.30 1.89 2.24 2.30 2.21 2.16 2.07 1.89 1.79 1.70 1.65 1.62 1.54 1.52 1.51 1.41 1.38 1.32 1.30 1.25 1.33 1.39 1.44 1.45 1.34 1.28 1.28 1.19 1.05 1.03 1.02 0.93
0.29 0.51 0.68 0.69 0.39 0.55 0.92 0.73 0.68 0.78 0.85 1.06 1.64 1.95 1.92 2.01 2.14 2.28 2.34 2.21 2.07 1.98 1.90 1.87 1.81 1.74 1.73 1.69 1.60 1.51 1.43 1.39 1.40 1.45 1.48 1.46 1.43 1.41 1.38 1.22 1.08 1.08 1.05 1.02
0.30 0.54 0.70 0.76 0.82 1.40 1.28 0.71 0.71 0.92 1.06 1.16 1.41 1.52 1.56 1.62 1.74 1.85 1.98 2.08 2.09 1.94 1.84 1.84 1.87 1.83 1.82 1.71 1.62 1.55 1.48 1.46 1.49 1.49 1.48 1.43 1.33 1.32 1.25 1.16 1.13 1.09 1.03 1.01
0.21 0.46 0.75 0.86 1.17 1.40 1.23 0.75 0.74 1.16 1.68 1.37 1.31 1.22 1.12 1.10 1.26 1.63 1.81 1.89 2.05 2.08 1.96 1.91 1.86 1.76 1.71 1.67 1.59 1.52 1.51 1.51 1.51 1.48 1.38 1.30 1.21 1.19 1.11 1.09 1.03 0.96 0.91 0.90
0.23 0.36 0.74 0.96 1.39 1.69 1.59 0.79 0.60 1.05 2.11 1.63 1.39 1.25 1.11 1.22 1.54 1.65 1.58 1.60 1.67 1.76 1.81 1.69 1.54 1.44 1.49 1.53 1.50 1.47 1.45 1.44 1.43 1.22 1.04 0.99 1.01 1.00 0.96 0.91 0.86 0.82 0.81 0.80
0.62 0.68 0.86 1.09 1.51 1.73 0.98 0.56 0.72 1.63 2.09 1.64 1.37 1.21 1.14 1.37 1.50 1.30 1.23 1.30 1.32 1.34 1.32 1.24 1.18 1.24 1.32 1.35 1.29 1.29 1.23 1.23 1.19 1.08 0.94 0.91 0.89 0.83 0.79 0.79 0.79 0.76 0.72 0.75
0.76 0.92 1.00 1.18 1.62 1.79 0.81 0.63 1.08 1.32 1.10 1.10 1.07 1.00 0.96 0.94 0.89 0.94 0.97 1.00 0.96 0.97 0.98 0.93 0.96 1.03 1.08 1.04 1.05 1.13 1.13 1.05 0.99 1.02 0.95 0.90 0.81 0.70 0.69 0.81 0.80 0.77 0.78 0.80
0.73 0.86 0.98 1.17 1.44 1.19 0.70 0.65 0.73 0.76 0.83 0.81 0.80 0.75 0.63 0.59 0.57 0.67 0.69 0.69 0.68 0.69 0.75 0.78 0.79 0.84 0.94 0.97 0.99 1.04 1.03 0.93 0.93 1.00 0.98 0.86 0.73 0.75 0.74 0.80 0.79 0.74 0.73 0.68
0.74 0.57 0.68 0.85 0.95 0.78 0.65 0.61 0.57 0.52 0.55 0.55 0.58 0.61 0.53 0.50 0.54 0.59 0.60 0.58 0.56 0.59 0.61 0.68 0.72 0.72 0.80 0.83 0.86 0.92 0.85 0.84 0.99 1.10 1.04 0.89 0.78 0.73 0.70 0.68 0.62 0.58 0.59 0.57
0.74 0.64 0.68 0.83 0.88 0.82 0.78 0.58 0.49 0.42 0.40 0.39 0.43 0.46 0.46 0.47 0.50 0.49 0.51 0.55 0.58 0.60 0.64 0.67 0.71 0.70 0.66 0.67 0.73 0.70 0.71 0.84 1.08 1.06 0.95 0.83 0.69 0.63 0.61 0.54 0.47 0.43 0.41 0.39
0.49 0.60 0.70 0.78 0.70 0.80 0.84 0.62 0.48 0.46 0.43 0.40 0.35 0.35 0.39 0.44 0.51 0.47 0.45 0.48 0.52 0.53 0.57 0.67 0.66 0.59 0.60 0.66 0.68 0.63 0.63 0.73 0.94 0.97 0.79 0.66 0.56 0.49 0.42 0.38 0.38 0.31 0.26 0.24